<?xml version="1.0" encoding="UTF-8" standalone="no" ?>
<gpx xmlns="http://www.topografix.com/GPX/1/1" xmlns:xsi="http://www.w3.org/2001/XMLSchema-instance" xsi:schemaLocation="http://www.topografix.com/GPX/1/1 http://www.topografix.com/GPX/1/1/gpx.xsd" version="1.1" creator="VisuGPX - https://www.visugpx.com">
  <metadata>
    <name>UTAG 2010--</name>
    <desc><![CDATA[TRAIL ALTA GORROTXA PASSANT PER LA VALL DEL BAC.]]></desc>
  </metadata>
  <trk>
    <name><![CDATA[Ultra Trail Alta Garrotxa( Massa)]]></name>
    <trkseg>
      <trkpt lat="42.27084" lon="2.52812">
        <ele>518.374</ele>
        <time>2010-05-01T05:06:53Z</time>
      </trkpt>
      <trkpt lat="42.27065" lon="2.52784">
        <ele>517.856</ele>
        <time>2010-05-01T05:07:09Z</time>
      </trkpt>
      <trkpt lat="42.27046" lon="2.52758">
        <ele>516.821</ele>
        <time>2010-05-01T05:07:26Z</time>
      </trkpt>
      <trkpt lat="42.27026" lon="2.52735">
        <ele>516.406</ele>
        <time>2010-05-01T05:07:39Z</time>
      </trkpt>
      <trkpt lat="42.27012" lon="2.52709">
        <ele>516.455</ele>
        <time>2010-05-01T05:07:51Z</time>
      </trkpt>
      <trkpt lat="42.27001" lon="2.5267">
        <ele>516.445</ele>
        <time>2010-05-01T05:08:04Z</time>
      </trkpt>
      <trkpt lat="42.26986" lon="2.52634">
        <ele>516.889</ele>
        <time>2010-05-01T05:08:18Z</time>
      </trkpt>
      <trkpt lat="42.26974" lon="2.526">
        <ele>516.813</ele>
        <time>2010-05-01T05:08:31Z</time>
      </trkpt>
      <trkpt lat="42.26962" lon="2.52567">
        <ele>515.919</ele>
        <time>2010-05-01T05:08:44Z</time>
      </trkpt>
      <trkpt lat="42.26949" lon="2.52531">
        <ele>514.463</ele>
        <time>2010-05-01T05:08:56Z</time>
      </trkpt>
      <trkpt lat="42.26933" lon="2.52494">
        <ele>512.569</ele>
        <time>2010-05-01T05:09:09Z</time>
      </trkpt>
      <trkpt lat="42.26917" lon="2.52453">
        <ele>511.104</ele>
        <time>2010-05-01T05:09:23Z</time>
      </trkpt>
      <trkpt lat="42.26907" lon="2.5242">
        <ele>508.224</ele>
        <time>2010-05-01T05:09:34Z</time>
      </trkpt>
      <trkpt lat="42.26905" lon="2.52395">
        <ele>504.806</ele>
        <time>2010-05-01T05:09:42Z</time>
      </trkpt>
      <trkpt lat="42.26905" lon="2.5239">
        <ele>503.924</ele>
        <time>2010-05-01T05:09:44Z</time>
      </trkpt>
      <trkpt lat="42.26905" lon="2.52372">
        <ele>502.414</ele>
        <time>2010-05-01T05:09:52Z</time>
      </trkpt>
      <trkpt lat="42.26922" lon="2.52337">
        <ele>504.368</ele>
        <time>2010-05-01T05:10:05Z</time>
      </trkpt>
      <trkpt lat="42.26912" lon="2.52306">
        <ele>505.822</ele>
        <time>2010-05-01T05:10:19Z</time>
      </trkpt>
      <trkpt lat="42.2691" lon="2.52275">
        <ele>507.728</ele>
        <time>2010-05-01T05:10:31Z</time>
      </trkpt>
      <trkpt lat="42.26914" lon="2.52242">
        <ele>508.222</ele>
        <time>2010-05-01T05:10:45Z</time>
      </trkpt>
      <trkpt lat="42.26924" lon="2.52211">
        <ele>507.724</ele>
        <time>2010-05-01T05:10:59Z</time>
      </trkpt>
      <trkpt lat="42.2693" lon="2.52176">
        <ele>507.704</ele>
        <time>2010-05-01T05:11:10Z</time>
      </trkpt>
      <trkpt lat="42.26932" lon="2.52172">
        <ele>507.714</ele>
        <time>2010-05-01T05:11:12Z</time>
      </trkpt>
      <trkpt lat="42.26927" lon="2.52136">
        <ele>507.706</ele>
        <time>2010-05-01T05:11:24Z</time>
      </trkpt>
      <trkpt lat="42.26927" lon="2.52134">
        <ele>507.71</ele>
        <time>2010-05-01T05:11:25Z</time>
      </trkpt>
      <trkpt lat="42.26922" lon="2.52123">
        <ele>508.75</ele>
        <time>2010-05-01T05:11:32Z</time>
      </trkpt>
      <trkpt lat="42.2691" lon="2.52103">
        <ele>510.114</ele>
        <time>2010-05-01T05:11:46Z</time>
      </trkpt>
      <trkpt lat="42.26905" lon="2.52088">
        <ele>511.168</ele>
        <time>2010-05-01T05:11:53Z</time>
      </trkpt>
      <trkpt lat="42.26897" lon="2.5207">
        <ele>511.634</ele>
        <time>2010-05-01T05:12:06Z</time>
      </trkpt>
      <trkpt lat="42.26896" lon="2.52067">
        <ele>511.698</ele>
        <time>2010-05-01T05:12:08Z</time>
      </trkpt>
      <trkpt lat="42.26896" lon="2.52062">
        <ele>512.097</ele>
        <time>2010-05-01T05:12:10Z</time>
      </trkpt>
      <trkpt lat="42.2689" lon="2.52035">
        <ele>512.523</ele>
        <time>2010-05-01T05:12:24Z</time>
      </trkpt>
      <trkpt lat="42.26887" lon="2.5203">
        <ele>513.525</ele>
        <time>2010-05-01T05:12:28Z</time>
      </trkpt>
      <trkpt lat="42.26868" lon="2.51994">
        <ele>515.906</ele>
        <time>2010-05-01T05:12:48Z</time>
      </trkpt>
      <trkpt lat="42.26872" lon="2.51973">
        <ele>517.317</ele>
        <time>2010-05-01T05:13:04Z</time>
      </trkpt>
      <trkpt lat="42.26878" lon="2.51958">
        <ele>517.867</ele>
        <time>2010-05-01T05:13:09Z</time>
      </trkpt>
      <trkpt lat="42.26883" lon="2.51942">
        <ele>518.351</ele>
        <time>2010-05-01T05:13:16Z</time>
      </trkpt>
      <trkpt lat="42.26886" lon="2.5192">
        <ele>519.285</ele>
        <time>2010-05-01T05:13:26Z</time>
      </trkpt>
      <trkpt lat="42.26882" lon="2.51896">
        <ele>520.221</ele>
        <time>2010-05-01T05:13:36Z</time>
      </trkpt>
      <trkpt lat="42.26875" lon="2.51877">
        <ele>522.195</ele>
        <time>2010-05-01T05:13:46Z</time>
      </trkpt>
      <trkpt lat="42.26872" lon="2.51866">
        <ele>522.669</ele>
        <time>2010-05-01T05:13:51Z</time>
      </trkpt>
      <trkpt lat="42.26861" lon="2.51856">
        <ele>524.104</ele>
        <time>2010-05-01T05:13:58Z</time>
      </trkpt>
      <trkpt lat="42.26817" lon="2.51844">
        <ele>526.924</ele>
        <time>2010-05-01T05:14:14Z</time>
      </trkpt>
      <trkpt lat="42.26805" lon="2.51834">
        <ele>526.906</ele>
        <time>2010-05-01T05:14:21Z</time>
      </trkpt>
      <trkpt lat="42.26797" lon="2.51831">
        <ele>526.934</ele>
        <time>2010-05-01T05:14:24Z</time>
      </trkpt>
      <trkpt lat="42.26792" lon="2.51809">
        <ele>525.544</ele>
        <time>2010-05-01T05:14:42Z</time>
      </trkpt>
      <trkpt lat="42.26788" lon="2.51805">
        <ele>526.078</ele>
        <time>2010-05-01T05:14:46Z</time>
      </trkpt>
      <trkpt lat="42.26762" lon="2.51791">
        <ele>529.372</ele>
        <time>2010-05-01T05:15:03Z</time>
      </trkpt>
      <trkpt lat="42.26744" lon="2.51785">
        <ele>531.318</ele>
        <time>2010-05-01T05:15:17Z</time>
      </trkpt>
      <trkpt lat="42.26736" lon="2.51779">
        <ele>532.232</ele>
        <time>2010-05-01T05:15:22Z</time>
      </trkpt>
      <trkpt lat="42.26733" lon="2.51771">
        <ele>533.758</ele>
        <time>2010-05-01T05:15:29Z</time>
      </trkpt>
      <trkpt lat="42.26748" lon="2.51753">
        <ele>534.652</ele>
        <time>2010-05-01T05:15:40Z</time>
      </trkpt>
      <trkpt lat="42.2675" lon="2.51753">
        <ele>535.117</ele>
        <time>2010-05-01T05:15:41Z</time>
      </trkpt>
      <trkpt lat="42.26765" lon="2.51736">
        <ele>536.606</ele>
        <time>2010-05-01T05:15:51Z</time>
      </trkpt>
      <trkpt lat="42.2678" lon="2.51728">
        <ele>537.073</ele>
        <time>2010-05-01T05:16:01Z</time>
      </trkpt>
      <trkpt lat="42.26793" lon="2.51724">
        <ele>538.073</ele>
        <time>2010-05-01T05:16:11Z</time>
      </trkpt>
      <trkpt lat="42.26808" lon="2.51719">
        <ele>538.097</ele>
        <time>2010-05-01T05:16:18Z</time>
      </trkpt>
      <trkpt lat="42.26827" lon="2.5172">
        <ele>538.581</ele>
        <time>2010-05-01T05:16:31Z</time>
      </trkpt>
      <trkpt lat="42.26837" lon="2.51719">
        <ele>539.067</ele>
        <time>2010-05-01T05:16:36Z</time>
      </trkpt>
      <trkpt lat="42.26856" lon="2.51717">
        <ele>539.971</ele>
        <time>2010-05-01T05:16:48Z</time>
      </trkpt>
      <trkpt lat="42.26873" lon="2.51708">
        <ele>540.917</ele>
        <time>2010-05-01T05:17:01Z</time>
      </trkpt>
      <trkpt lat="42.26887" lon="2.517">
        <ele>541.887</ele>
        <time>2010-05-01T05:17:13Z</time>
      </trkpt>
      <trkpt lat="42.26893" lon="2.51679">
        <ele>544.215</ele>
        <time>2010-05-01T05:17:27Z</time>
      </trkpt>
      <trkpt lat="42.26895" lon="2.51656">
        <ele>546.206</ele>
        <time>2010-05-01T05:17:39Z</time>
      </trkpt>
      <trkpt lat="42.26896" lon="2.51622">
        <ele>548.149</ele>
        <time>2010-05-01T05:17:59Z</time>
      </trkpt>
      <trkpt lat="42.26894" lon="2.51586">
        <ele>550.069</ele>
        <time>2010-05-01T05:18:19Z</time>
      </trkpt>
      <trkpt lat="42.26892" lon="2.51579">
        <ele>550.063</ele>
        <time>2010-05-01T05:18:23Z</time>
      </trkpt>
      <trkpt lat="42.2688" lon="2.51574">
        <ele>551.077</ele>
        <time>2010-05-01T05:18:27Z</time>
      </trkpt>
      <trkpt lat="42.26871" lon="2.51567">
        <ele>551.923</ele>
        <time>2010-05-01T05:18:34Z</time>
      </trkpt>
      <trkpt lat="42.26867" lon="2.51567">
        <ele>552.927</ele>
        <time>2010-05-01T05:18:39Z</time>
      </trkpt>
      <trkpt lat="42.2685" lon="2.51573">
        <ele>554.885</ele>
        <time>2010-05-01T05:18:51Z</time>
      </trkpt>
      <trkpt lat="42.26832" lon="2.51576">
        <ele>558.289</ele>
        <time>2010-05-01T05:19:09Z</time>
      </trkpt>
      <trkpt lat="42.26807" lon="2.51583">
        <ele>561.117</ele>
        <time>2010-05-01T05:19:24Z</time>
      </trkpt>
      <trkpt lat="42.26796" lon="2.51583">
        <ele>563.006</ele>
        <time>2010-05-01T05:19:33Z</time>
      </trkpt>
      <trkpt lat="42.26771" lon="2.51592">
        <ele>564.976</ele>
        <time>2010-05-01T05:19:49Z</time>
      </trkpt>
      <trkpt lat="42.26747" lon="2.51602">
        <ele>567.896</ele>
        <time>2010-05-01T05:20:05Z</time>
      </trkpt>
      <trkpt lat="42.26728" lon="2.51609">
        <ele>569.21</ele>
        <time>2010-05-01T05:20:18Z</time>
      </trkpt>
      <trkpt lat="42.26718" lon="2.51608">
        <ele>569.724</ele>
        <time>2010-05-01T05:20:24Z</time>
      </trkpt>
      <trkpt lat="42.26716" lon="2.51599">
        <ele>571.26</ele>
        <time>2010-05-01T05:20:30Z</time>
      </trkpt>
      <trkpt lat="42.26729" lon="2.51578">
        <ele>574.584</ele>
        <time>2010-05-01T05:20:46Z</time>
      </trkpt>
      <trkpt lat="42.26744" lon="2.51555">
        <ele>576.954</ele>
        <time>2010-05-01T05:21:00Z</time>
      </trkpt>
      <trkpt lat="42.26746" lon="2.51552">
        <ele>577.456</ele>
        <time>2010-05-01T05:21:02Z</time>
      </trkpt>
      <trkpt lat="42.2675" lon="2.51542">
        <ele>578.411</ele>
        <time>2010-05-01T05:21:09Z</time>
      </trkpt>
      <trkpt lat="42.26756" lon="2.51523">
        <ele>580.306</ele>
        <time>2010-05-01T05:21:21Z</time>
      </trkpt>
      <trkpt lat="42.26757" lon="2.51519">
        <ele>581.363</ele>
        <time>2010-05-01T05:21:24Z</time>
      </trkpt>
      <trkpt lat="42.26761" lon="2.51509">
        <ele>581.773</ele>
        <time>2010-05-01T05:21:31Z</time>
      </trkpt>
      <trkpt lat="42.26766" lon="2.51494">
        <ele>582.217</ele>
        <time>2010-05-01T05:21:37Z</time>
      </trkpt>
      <trkpt lat="42.26769" lon="2.51489">
        <ele>582.751</ele>
        <time>2010-05-01T05:21:40Z</time>
      </trkpt>
      <trkpt lat="42.2677" lon="2.5148">
        <ele>582.727</ele>
        <time>2010-05-01T05:21:42Z</time>
      </trkpt>
      <trkpt lat="42.26777" lon="2.51473">
        <ele>583.761</ele>
        <time>2010-05-01T05:21:48Z</time>
      </trkpt>
      <trkpt lat="42.26778" lon="2.51467">
        <ele>583.778</ele>
        <time>2010-05-01T05:21:52Z</time>
      </trkpt>
      <trkpt lat="42.26771" lon="2.51441">
        <ele>585.633</ele>
        <time>2010-05-01T05:22:07Z</time>
      </trkpt>
      <trkpt lat="42.26762" lon="2.51409">
        <ele>588.926</ele>
        <time>2010-05-01T05:22:24Z</time>
      </trkpt>
      <trkpt lat="42.26752" lon="2.51389">
        <ele>591.806</ele>
        <time>2010-05-01T05:22:39Z</time>
      </trkpt>
      <trkpt lat="42.26749" lon="2.51402">
        <ele>594.765</ele>
        <time>2010-05-01T05:22:52Z</time>
      </trkpt>
      <trkpt lat="42.26739" lon="2.5142">
        <ele>598.165</ele>
        <time>2010-05-01T05:23:06Z</time>
      </trkpt>
      <trkpt lat="42.26733" lon="2.51432">
        <ele>601.059</ele>
        <time>2010-05-01T05:23:18Z</time>
      </trkpt>
      <trkpt lat="42.26716" lon="2.51448">
        <ele>603.813</ele>
        <time>2010-05-01T05:23:35Z</time>
      </trkpt>
      <trkpt lat="42.26695" lon="2.51464">
        <ele>606.779</ele>
        <time>2010-05-01T05:23:51Z</time>
      </trkpt>
      <trkpt lat="42.26693" lon="2.51463">
        <ele>607.223</ele>
        <time>2010-05-01T05:23:53Z</time>
      </trkpt>
      <trkpt lat="42.26678" lon="2.51444">
        <ele>609.679</ele>
        <time>2010-05-01T05:24:07Z</time>
      </trkpt>
      <trkpt lat="42.26669" lon="2.51432">
        <ele>611.505</ele>
        <time>2010-05-01T05:24:19Z</time>
      </trkpt>
      <trkpt lat="42.2666" lon="2.51445">
        <ele>614.425</ele>
        <time>2010-05-01T05:24:32Z</time>
      </trkpt>
      <trkpt lat="42.26658" lon="2.51449">
        <ele>614.906</ele>
        <time>2010-05-01T05:24:35Z</time>
      </trkpt>
      <trkpt lat="42.26646" lon="2.51449">
        <ele>616.395</ele>
        <time>2010-05-01T05:24:41Z</time>
      </trkpt>
      <trkpt lat="42.26629" lon="2.51424">
        <ele>618.345</ele>
        <time>2010-05-01T05:24:57Z</time>
      </trkpt>
      <trkpt lat="42.26608" lon="2.51416">
        <ele>619.729</ele>
        <time>2010-05-01T05:25:12Z</time>
      </trkpt>
      <trkpt lat="42.26592" lon="2.51412">
        <ele>621.683</ele>
        <time>2010-05-01T05:25:24Z</time>
      </trkpt>
      <trkpt lat="42.26569" lon="2.51404">
        <ele>623.179</ele>
        <time>2010-05-01T05:25:38Z</time>
      </trkpt>
      <trkpt lat="42.26563" lon="2.51402">
        <ele>624.033</ele>
        <time>2010-05-01T05:25:43Z</time>
      </trkpt>
      <trkpt lat="42.26554" lon="2.51398">
        <ele>625.011</ele>
        <time>2010-05-01T05:25:50Z</time>
      </trkpt>
      <trkpt lat="42.26531" lon="2.51384">
        <ele>627.421</ele>
        <time>2010-05-01T05:26:07Z</time>
      </trkpt>
      <trkpt lat="42.26515" lon="2.51368">
        <ele>628.803</ele>
        <time>2010-05-01T05:26:21Z</time>
      </trkpt>
      <trkpt lat="42.26497" lon="2.51357">
        <ele>630.806</ele>
        <time>2010-05-01T05:26:34Z</time>
      </trkpt>
      <trkpt lat="42.26473" lon="2.51361">
        <ele>632.719</ele>
        <time>2010-05-01T05:26:50Z</time>
      </trkpt>
      <trkpt lat="42.26472" lon="2.51361">
        <ele>632.749</ele>
        <time>2010-05-01T05:26:51Z</time>
      </trkpt>
      <trkpt lat="42.26462" lon="2.51358">
        <ele>633.663</ele>
        <time>2010-05-01T05:26:58Z</time>
      </trkpt>
      <trkpt lat="42.2644" lon="2.51364">
        <ele>635.667</ele>
        <time>2010-05-01T05:27:13Z</time>
      </trkpt>
      <trkpt lat="42.26419" lon="2.51353">
        <ele>637.073</ele>
        <time>2010-05-01T05:27:28Z</time>
      </trkpt>
      <trkpt lat="42.26406" lon="2.5133">
        <ele>638.577</ele>
        <time>2010-05-01T05:27:44Z</time>
      </trkpt>
      <trkpt lat="42.26402" lon="2.51303">
        <ele>638.529</ele>
        <time>2010-05-01T05:28:00Z</time>
      </trkpt>
      <trkpt lat="42.26392" lon="2.51288">
        <ele>638.5</ele>
        <time>2010-05-01T05:28:08Z</time>
      </trkpt>
      <trkpt lat="42.26385" lon="2.5127">
        <ele>638.02</ele>
        <time>2010-05-01T05:28:16Z</time>
      </trkpt>
      <trkpt lat="42.26354" lon="2.51245">
        <ele>635.606</ele>
        <time>2010-05-01T05:28:31Z</time>
      </trkpt>
      <trkpt lat="42.26344" lon="2.51242">
        <ele>632.25</ele>
        <time>2010-05-01T05:28:42Z</time>
      </trkpt>
      <trkpt lat="42.26344" lon="2.51243">
        <ele>631.22</ele>
        <time>2010-05-01T05:28:45Z</time>
      </trkpt>
      <trkpt lat="42.26341" lon="2.51242">
        <ele>629.894</ele>
        <time>2010-05-01T05:28:49Z</time>
      </trkpt>
      <trkpt lat="42.26333" lon="2.51246">
        <ele>628.898</ele>
        <time>2010-05-01T05:28:54Z</time>
      </trkpt>
      <trkpt lat="42.26327" lon="2.51247">
        <ele>628.824</ele>
        <time>2010-05-01T05:28:58Z</time>
      </trkpt>
      <trkpt lat="42.2631" lon="2.51246">
        <ele>627.988</ele>
        <time>2010-05-01T05:29:13Z</time>
      </trkpt>
      <trkpt lat="42.26293" lon="2.51231">
        <ele>628.495</ele>
        <time>2010-05-01T05:29:27Z</time>
      </trkpt>
      <trkpt lat="42.2629" lon="2.51221">
        <ele>629.349</ele>
        <time>2010-05-01T05:29:42Z</time>
      </trkpt>
      <trkpt lat="42.26277" lon="2.51207">
        <ele>632.723</ele>
        <time>2010-05-01T05:30:01Z</time>
      </trkpt>
      <trkpt lat="42.26284" lon="2.51177">
        <ele>634.606</ele>
        <time>2010-05-01T05:30:16Z</time>
      </trkpt>
      <trkpt lat="42.26296" lon="2.51145">
        <ele>638.047</ele>
        <time>2010-05-01T05:30:38Z</time>
      </trkpt>
      <trkpt lat="42.26299" lon="2.5113">
        <ele>640.957</ele>
        <time>2010-05-01T05:30:54Z</time>
      </trkpt>
      <trkpt lat="42.26305" lon="2.51102">
        <ele>642.881</ele>
        <time>2010-05-01T05:31:10Z</time>
      </trkpt>
      <trkpt lat="42.26309" lon="2.51086">
        <ele>643.785</ele>
        <time>2010-05-01T05:31:18Z</time>
      </trkpt>
      <trkpt lat="42.26311" lon="2.51084">
        <ele>644.281</ele>
        <time>2010-05-01T05:31:20Z</time>
      </trkpt>
      <trkpt lat="42.26309" lon="2.5107">
        <ele>644.735</ele>
        <time>2010-05-01T05:31:32Z</time>
      </trkpt>
      <trkpt lat="42.26315" lon="2.5105">
        <ele>646.678</ele>
        <time>2010-05-01T05:31:43Z</time>
      </trkpt>
      <trkpt lat="42.26319" lon="2.51045">
        <ele>647.133</ele>
        <time>2010-05-01T05:31:46Z</time>
      </trkpt>
      <trkpt lat="42.26325" lon="2.51027">
        <ele>649.526</ele>
        <time>2010-05-01T05:32:00Z</time>
      </trkpt>
      <trkpt lat="42.26325" lon="2.51019">
        <ele>649.506</ele>
        <time>2010-05-01T05:32:11Z</time>
      </trkpt>
      <trkpt lat="42.26325" lon="2.51017">
        <ele>650.055</ele>
        <time>2010-05-01T05:32:19Z</time>
      </trkpt>
      <trkpt lat="42.26326" lon="2.51013">
        <ele>650.525</ele>
        <time>2010-05-01T05:32:22Z</time>
      </trkpt>
      <trkpt lat="42.26324" lon="2.51006">
        <ele>651.449</ele>
        <time>2010-05-01T05:32:32Z</time>
      </trkpt>
      <trkpt lat="42.26337" lon="2.5098">
        <ele>653.823</ele>
        <time>2010-05-01T05:32:48Z</time>
      </trkpt>
      <trkpt lat="42.26332" lon="2.50953">
        <ele>656.219</ele>
        <time>2010-05-01T05:33:03Z</time>
      </trkpt>
      <trkpt lat="42.26335" lon="2.50945">
        <ele>656.783</ele>
        <time>2010-05-01T05:33:07Z</time>
      </trkpt>
      <trkpt lat="42.26335" lon="2.50937">
        <ele>657.727</ele>
        <time>2010-05-01T05:33:13Z</time>
      </trkpt>
      <trkpt lat="42.26334" lon="2.50927">
        <ele>657.268</ele>
        <time>2010-05-01T05:33:18Z</time>
      </trkpt>
      <trkpt lat="42.26328" lon="2.50914">
        <ele>657.714</ele>
        <time>2010-05-01T05:33:28Z</time>
      </trkpt>
      <trkpt lat="42.26322" lon="2.50899">
        <ele>659.106</ele>
        <time>2010-05-01T05:33:40Z</time>
      </trkpt>
      <trkpt lat="42.26317" lon="2.50891">
        <ele>659.64</ele>
        <time>2010-05-01T05:33:46Z</time>
      </trkpt>
      <trkpt lat="42.26298" lon="2.50881">
        <ele>661.03</ele>
        <time>2010-05-01T05:33:59Z</time>
      </trkpt>
      <trkpt lat="42.263" lon="2.50874">
        <ele>661.594</ele>
        <time>2010-05-01T05:34:02Z</time>
      </trkpt>
      <trkpt lat="42.26293" lon="2.50865">
        <ele>662.588</ele>
        <time>2010-05-01T05:34:10Z</time>
      </trkpt>
      <trkpt lat="42.26286" lon="2.50858">
        <ele>662.544</ele>
        <time>2010-05-01T05:34:13Z</time>
      </trkpt>
      <trkpt lat="42.26297" lon="2.50821">
        <ele>663.048</ele>
        <time>2010-05-01T05:34:21Z</time>
      </trkpt>
      <trkpt lat="42.26295" lon="2.50818">
        <ele>663.045</ele>
        <time>2010-05-01T05:34:23Z</time>
      </trkpt>
      <trkpt lat="42.2629" lon="2.50815">
        <ele>663.447</ele>
        <time>2010-05-01T05:34:30Z</time>
      </trkpt>
      <trkpt lat="42.26272" lon="2.50807">
        <ele>664.911</ele>
        <time>2010-05-01T05:34:45Z</time>
      </trkpt>
      <trkpt lat="42.26261" lon="2.50789">
        <ele>666.806</ele>
        <time>2010-05-01T05:35:00Z</time>
      </trkpt>
      <trkpt lat="42.26255" lon="2.50762">
        <ele>668.712</ele>
        <time>2010-05-01T05:35:18Z</time>
      </trkpt>
      <trkpt lat="42.26255" lon="2.5076">
        <ele>668.732</ele>
        <time>2010-05-01T05:35:19Z</time>
      </trkpt>
      <trkpt lat="42.26248" lon="2.50762">
        <ele>669.226</ele>
        <time>2010-05-01T05:35:23Z</time>
      </trkpt>
      <trkpt lat="42.26238" lon="2.50761">
        <ele>671.14</ele>
        <time>2010-05-01T05:35:35Z</time>
      </trkpt>
      <trkpt lat="42.26234" lon="2.50757">
        <ele>672.156</ele>
        <time>2010-05-01T05:35:40Z</time>
      </trkpt>
      <trkpt lat="42.26228" lon="2.5075">
        <ele>672.63</ele>
        <time>2010-05-01T05:35:47Z</time>
      </trkpt>
      <trkpt lat="42.26214" lon="2.50738">
        <ele>673.511</ele>
        <time>2010-05-01T05:35:57Z</time>
      </trkpt>
      <trkpt lat="42.26206" lon="2.50721">
        <ele>675.021</ele>
        <time>2010-05-01T05:36:11Z</time>
      </trkpt>
      <trkpt lat="42.26203" lon="2.50719">
        <ele>675.003</ele>
        <time>2010-05-01T05:36:15Z</time>
      </trkpt>
      <trkpt lat="42.26199" lon="2.50718">
        <ele>675.906</ele>
        <time>2010-05-01T05:36:20Z</time>
      </trkpt>
      <trkpt lat="42.26193" lon="2.50716">
        <ele>676.929</ele>
        <time>2010-05-01T05:36:26Z</time>
      </trkpt>
      <trkpt lat="42.26192" lon="2.50712">
        <ele>676.979</ele>
        <time>2010-05-01T05:36:29Z</time>
      </trkpt>
      <trkpt lat="42.26191" lon="2.50709">
        <ele>676.423</ele>
        <time>2010-05-01T05:36:32Z</time>
      </trkpt>
      <trkpt lat="42.26182" lon="2.50717">
        <ele>676.427</ele>
        <time>2010-05-01T05:36:37Z</time>
      </trkpt>
      <trkpt lat="42.26181" lon="2.50715">
        <ele>676.423</ele>
        <time>2010-05-01T05:36:42Z</time>
      </trkpt>
      <trkpt lat="42.26172" lon="2.507">
        <ele>674.547</ele>
        <time>2010-05-01T05:36:52Z</time>
      </trkpt>
      <trkpt lat="42.26149" lon="2.50699">
        <ele>672.697</ele>
        <time>2010-05-01T05:37:06Z</time>
      </trkpt>
      <trkpt lat="42.2614" lon="2.50701">
        <ele>672.123</ele>
        <time>2010-05-01T05:37:13Z</time>
      </trkpt>
      <trkpt lat="42.26129" lon="2.50704">
        <ele>670.725</ele>
        <time>2010-05-01T05:37:27Z</time>
      </trkpt>
      <trkpt lat="42.26129" lon="2.50704">
        <ele>670.706</ele>
        <time>2010-05-01T05:37:28Z</time>
      </trkpt>
      <trkpt lat="42.26122" lon="2.50715">
        <ele>670.267</ele>
        <time>2010-05-01T05:37:40Z</time>
      </trkpt>
      <trkpt lat="42.26117" lon="2.50712">
        <ele>670.287</ele>
        <time>2010-05-01T05:37:45Z</time>
      </trkpt>
      <trkpt lat="42.26105" lon="2.50701">
        <ele>670.221</ele>
        <time>2010-05-01T05:37:58Z</time>
      </trkpt>
      <trkpt lat="42.26092" lon="2.50681">
        <ele>670.735</ele>
        <time>2010-05-01T05:38:10Z</time>
      </trkpt>
      <trkpt lat="42.26088" lon="2.50675">
        <ele>671.141</ele>
        <time>2010-05-01T05:38:22Z</time>
      </trkpt>
      <trkpt lat="42.26079" lon="2.50674">
        <ele>671.625</ele>
        <time>2010-05-01T05:38:27Z</time>
      </trkpt>
      <trkpt lat="42.26069" lon="2.50666">
        <ele>673.168</ele>
        <time>2010-05-01T05:38:39Z</time>
      </trkpt>
      <trkpt lat="42.26067" lon="2.50662">
        <ele>673.542</ele>
        <time>2010-05-01T05:38:42Z</time>
      </trkpt>
      <trkpt lat="42.26062" lon="2.50661">
        <ele>674.526</ele>
        <time>2010-05-01T05:38:51Z</time>
      </trkpt>
      <trkpt lat="42.26053" lon="2.50658">
        <ele>675.906</ele>
        <time>2010-05-01T05:38:59Z</time>
      </trkpt>
      <trkpt lat="42.2604" lon="2.50655">
        <ele>678.364</ele>
        <time>2010-05-01T05:39:21Z</time>
      </trkpt>
      <trkpt lat="42.26033" lon="2.5065">
        <ele>679.354</ele>
        <time>2010-05-01T05:39:28Z</time>
      </trkpt>
      <trkpt lat="42.26019" lon="2.50633">
        <ele>682.768</ele>
        <time>2010-05-01T05:39:47Z</time>
      </trkpt>
      <trkpt lat="42.26" lon="2.5061">
        <ele>685.692</ele>
        <time>2010-05-01T05:40:04Z</time>
      </trkpt>
      <trkpt lat="42.25996" lon="2.506">
        <ele>686.568</ele>
        <time>2010-05-01T05:40:10Z</time>
      </trkpt>
      <trkpt lat="42.25987" lon="2.50582">
        <ele>688.412</ele>
        <time>2010-05-01T05:40:24Z</time>
      </trkpt>
      <trkpt lat="42.25982" lon="2.50574">
        <ele>689.948</ele>
        <time>2010-05-01T05:40:30Z</time>
      </trkpt>
      <trkpt lat="42.25969" lon="2.50562">
        <ele>692.361</ele>
        <time>2010-05-01T05:40:44Z</time>
      </trkpt>
      <trkpt lat="42.25969" lon="2.50562">
        <ele>692.817</ele>
        <time>2010-05-01T05:40:45Z</time>
      </trkpt>
      <trkpt lat="42.2595" lon="2.50549">
        <ele>694.706</ele>
        <time>2010-05-01T05:40:59Z</time>
      </trkpt>
      <trkpt lat="42.25943" lon="2.50546">
        <ele>695.222</ele>
        <time>2010-05-01T05:41:03Z</time>
      </trkpt>
      <trkpt lat="42.2592" lon="2.5054">
        <ele>697.122</ele>
        <time>2010-05-01T05:41:18Z</time>
      </trkpt>
      <trkpt lat="42.25912" lon="2.50542">
        <ele>697.686</ele>
        <time>2010-05-01T05:41:25Z</time>
      </trkpt>
      <trkpt lat="42.25911" lon="2.50529">
        <ele>697.16</ele>
        <time>2010-05-01T05:41:32Z</time>
      </trkpt>
      <trkpt lat="42.25912" lon="2.50506">
        <ele>696.136</ele>
        <time>2010-05-01T05:41:44Z</time>
      </trkpt>
      <trkpt lat="42.25922" lon="2.5047">
        <ele>695.23</ele>
        <time>2010-05-01T05:41:59Z</time>
      </trkpt>
      <trkpt lat="42.25923" lon="2.50434">
        <ele>691.865</ele>
        <time>2010-05-01T05:42:11Z</time>
      </trkpt>
      <trkpt lat="42.25933" lon="2.50394">
        <ele>689.468</ele>
        <time>2010-05-01T05:42:24Z</time>
      </trkpt>
      <trkpt lat="42.25941" lon="2.50361">
        <ele>686.014</ele>
        <time>2010-05-01T05:42:34Z</time>
      </trkpt>
      <trkpt lat="42.25955" lon="2.50357">
        <ele>684.606</ele>
        <time>2010-05-01T05:42:40Z</time>
      </trkpt>
      <trkpt lat="42.2596" lon="2.50342">
        <ele>684.644</ele>
        <time>2010-05-01T05:42:45Z</time>
      </trkpt>
      <trkpt lat="42.25969" lon="2.50297">
        <ele>685.144</ele>
        <time>2010-05-01T05:43:00Z</time>
      </trkpt>
      <trkpt lat="42.25979" lon="2.50253">
        <ele>683.678</ele>
        <time>2010-05-01T05:43:15Z</time>
      </trkpt>
      <trkpt lat="42.25998" lon="2.50215">
        <ele>682.792</ele>
        <time>2010-05-01T05:43:29Z</time>
      </trkpt>
      <trkpt lat="42.26008" lon="2.50209">
        <ele>682.718</ele>
        <time>2010-05-01T05:43:35Z</time>
      </trkpt>
      <trkpt lat="42.26025" lon="2.50164">
        <ele>683.612</ele>
        <time>2010-05-01T05:43:50Z</time>
      </trkpt>
      <trkpt lat="42.26037" lon="2.5012">
        <ele>683.223</ele>
        <time>2010-05-01T05:44:04Z</time>
      </trkpt>
      <trkpt lat="42.26042" lon="2.50076">
        <ele>681.783</ele>
        <time>2010-05-01T05:44:19Z</time>
      </trkpt>
      <trkpt lat="42.26043" lon="2.5003">
        <ele>678.811</ele>
        <time>2010-05-01T05:44:33Z</time>
      </trkpt>
      <trkpt lat="42.2604" lon="2.49997">
        <ele>675.906</ele>
        <time>2010-05-01T05:44:43Z</time>
      </trkpt>
      <trkpt lat="42.26035" lon="2.49951">
        <ele>673.53</ele>
        <time>2010-05-01T05:44:57Z</time>
      </trkpt>
      <trkpt lat="42.26034" lon="2.49935">
        <ele>674.51</ele>
        <time>2010-05-01T05:45:03Z</time>
      </trkpt>
      <trkpt lat="42.26027" lon="2.49903">
        <ele>675.974</ele>
        <time>2010-05-01T05:45:16Z</time>
      </trkpt>
      <trkpt lat="42.26026" lon="2.49859">
        <ele>676.468</ele>
        <time>2010-05-01T05:45:29Z</time>
      </trkpt>
      <trkpt lat="42.26033" lon="2.4983">
        <ele>678.384</ele>
        <time>2010-05-01T05:45:41Z</time>
      </trkpt>
      <trkpt lat="42.26033" lon="2.49808">
        <ele>679.888</ele>
        <time>2010-05-01T05:45:53Z</time>
      </trkpt>
      <trkpt lat="42.26036" lon="2.49785">
        <ele>681.733</ele>
        <time>2010-05-01T05:46:06Z</time>
      </trkpt>
      <trkpt lat="42.26034" lon="2.49764">
        <ele>682.723</ele>
        <time>2010-05-01T05:46:17Z</time>
      </trkpt>
      <trkpt lat="42.26032" lon="2.4974">
        <ele>683.215</ele>
        <time>2010-05-01T05:46:29Z</time>
      </trkpt>
      <trkpt lat="42.26023" lon="2.49706">
        <ele>681.706</ele>
        <time>2010-05-01T05:46:41Z</time>
      </trkpt>
      <trkpt lat="42.26013" lon="2.49672">
        <ele>682.281</ele>
        <time>2010-05-01T05:46:53Z</time>
      </trkpt>
      <trkpt lat="42.25988" lon="2.49634">
        <ele>679.361</ele>
        <time>2010-05-01T05:47:08Z</time>
      </trkpt>
      <trkpt lat="42.25982" lon="2.49605">
        <ele>678.365</ele>
        <time>2010-05-01T05:47:20Z</time>
      </trkpt>
      <trkpt lat="42.25983" lon="2.49585">
        <ele>677.929</ele>
        <time>2010-05-01T05:47:30Z</time>
      </trkpt>
      <trkpt lat="42.25982" lon="2.49578">
        <ele>677.985</ele>
        <time>2010-05-01T05:47:34Z</time>
      </trkpt>
      <trkpt lat="42.25984" lon="2.49559">
        <ele>677.459</ele>
        <time>2010-05-01T05:47:51Z</time>
      </trkpt>
      <trkpt lat="42.25988" lon="2.49534">
        <ele>675.942</ele>
        <time>2010-05-01T05:48:29Z</time>
      </trkpt>
      <trkpt lat="42.25988" lon="2.49527">
        <ele>675.522</ele>
        <time>2010-05-01T05:48:32Z</time>
      </trkpt>
      <trkpt lat="42.2598" lon="2.49503">
        <ele>673.514</ele>
        <time>2010-05-01T05:48:49Z</time>
      </trkpt>
      <trkpt lat="42.25979" lon="2.49498">
        <ele>673.106</ele>
        <time>2010-05-01T05:49:04Z</time>
      </trkpt>
      <trkpt lat="42.25981" lon="2.49497">
        <ele>671.652</ele>
        <time>2010-05-01T05:51:07Z</time>
      </trkpt>
      <trkpt lat="42.25984" lon="2.49489">
        <ele>670.782</ele>
        <time>2010-05-01T05:51:11Z</time>
      </trkpt>
      <trkpt lat="42.25999" lon="2.49449">
        <ele>668.716</ele>
        <time>2010-05-01T05:51:24Z</time>
      </trkpt>
      <trkpt lat="42.26014" lon="2.49413">
        <ele>667.31</ele>
        <time>2010-05-01T05:51:36Z</time>
      </trkpt>
      <trkpt lat="42.26035" lon="2.49373">
        <ele>666.336</ele>
        <time>2010-05-01T05:51:51Z</time>
      </trkpt>
      <trkpt lat="42.26043" lon="2.4934">
        <ele>663.02</ele>
        <time>2010-05-01T05:52:01Z</time>
      </trkpt>
      <trkpt lat="42.26053" lon="2.49315">
        <ele>659.678</ele>
        <time>2010-05-01T05:52:10Z</time>
      </trkpt>
      <trkpt lat="42.2606" lon="2.49283">
        <ele>655.833</ele>
        <time>2010-05-01T05:52:19Z</time>
      </trkpt>
      <trkpt lat="42.26053" lon="2.49277">
        <ele>653.426</ele>
        <time>2010-05-01T05:52:24Z</time>
      </trkpt>
      <trkpt lat="42.26048" lon="2.49266">
        <ele>649.506</ele>
        <time>2010-05-01T05:52:31Z</time>
      </trkpt>
      <trkpt lat="42.26052" lon="2.49259">
        <ele>648.585</ele>
        <time>2010-05-01T05:52:34Z</time>
      </trkpt>
      <trkpt lat="42.26081" lon="2.49239">
        <ele>645.795</ele>
        <time>2010-05-01T05:52:47Z</time>
      </trkpt>
      <trkpt lat="42.26091" lon="2.49236">
        <ele>644.259</ele>
        <time>2010-05-01T05:52:56Z</time>
      </trkpt>
      <trkpt lat="42.26088" lon="2.49233">
        <ele>642.833</ele>
        <time>2010-05-01T05:53:00Z</time>
      </trkpt>
      <trkpt lat="42.26084" lon="2.49225">
        <ele>641.369</ele>
        <time>2010-05-01T05:53:03Z</time>
      </trkpt>
      <trkpt lat="42.26075" lon="2.49202">
        <ele>638.953</ele>
        <time>2010-05-01T05:53:13Z</time>
      </trkpt>
      <trkpt lat="42.26069" lon="2.49195">
        <ele>635.646</ele>
        <time>2010-05-01T05:53:18Z</time>
      </trkpt>
      <trkpt lat="42.26065" lon="2.49186">
        <ele>634.188</ele>
        <time>2010-05-01T05:53:21Z</time>
      </trkpt>
      <trkpt lat="42.26064" lon="2.4916">
        <ele>632.216</ele>
        <time>2010-05-01T05:53:31Z</time>
      </trkpt>
      <trkpt lat="42.26062" lon="2.49124">
        <ele>631.206</ele>
        <time>2010-05-01T05:53:43Z</time>
      </trkpt>
      <trkpt lat="42.26065" lon="2.49093">
        <ele>630.392</ele>
        <time>2010-05-01T05:53:54Z</time>
      </trkpt>
      <trkpt lat="42.26066" lon="2.49076">
        <ele>628.412</ele>
        <time>2010-05-01T05:54:01Z</time>
      </trkpt>
      <trkpt lat="42.26066" lon="2.49059">
        <ele>627.466</ele>
        <time>2010-05-01T05:54:06Z</time>
      </trkpt>
      <trkpt lat="42.26075" lon="2.49039">
        <ele>626.48</ele>
        <time>2010-05-01T05:54:12Z</time>
      </trkpt>
      <trkpt lat="42.26083" lon="2.49023">
        <ele>624.076</ele>
        <time>2010-05-01T05:54:24Z</time>
      </trkpt>
      <trkpt lat="42.26065" lon="2.49005">
        <ele>625.09</ele>
        <time>2010-05-01T05:54:38Z</time>
      </trkpt>
      <trkpt lat="42.26056" lon="2.49012">
        <ele>628.859</ele>
        <time>2010-05-01T05:54:57Z</time>
      </trkpt>
      <trkpt lat="42.26053" lon="2.49016">
        <ele>629.303</ele>
        <time>2010-05-01T05:55:01Z</time>
      </trkpt>
      <trkpt lat="42.26052" lon="2.49036">
        <ele>632.223</ele>
        <time>2010-05-01T05:55:18Z</time>
      </trkpt>
      <trkpt lat="42.26046" lon="2.49042">
        <ele>634.106</ele>
        <time>2010-05-01T05:55:28Z</time>
      </trkpt>
      <trkpt lat="42.26042" lon="2.49046">
        <ele>635.673</ele>
        <time>2010-05-01T05:55:35Z</time>
      </trkpt>
      <trkpt lat="42.26036" lon="2.49051">
        <ele>636.593</ele>
        <time>2010-05-01T05:55:43Z</time>
      </trkpt>
      <trkpt lat="42.26029" lon="2.49057">
        <ele>638.077</ele>
        <time>2010-05-01T05:55:52Z</time>
      </trkpt>
      <trkpt lat="42.26028" lon="2.49061">
        <ele>638.041</ele>
        <time>2010-05-01T05:55:54Z</time>
      </trkpt>
      <trkpt lat="42.26027" lon="2.49068">
        <ele>638.947</ele>
        <time>2010-05-01T05:55:59Z</time>
      </trkpt>
      <trkpt lat="42.26012" lon="2.4908">
        <ele>641.361</ele>
        <time>2010-05-01T05:56:14Z</time>
      </trkpt>
      <trkpt lat="42.26006" lon="2.49083">
        <ele>641.833</ele>
        <time>2010-05-01T05:56:19Z</time>
      </trkpt>
      <trkpt lat="42.26004" lon="2.49087">
        <ele>642.323</ele>
        <time>2010-05-01T05:56:22Z</time>
      </trkpt>
      <trkpt lat="42.25998" lon="2.49089">
        <ele>643.315</ele>
        <time>2010-05-01T05:56:27Z</time>
      </trkpt>
      <trkpt lat="42.25992" lon="2.49091">
        <ele>644.706</ele>
        <time>2010-05-01T05:56:34Z</time>
      </trkpt>
      <trkpt lat="42.25985" lon="2.49094">
        <ele>646.161</ele>
        <time>2010-05-01T05:56:42Z</time>
      </trkpt>
      <trkpt lat="42.25977" lon="2.49096">
        <ele>647.151</ele>
        <time>2010-05-01T05:56:49Z</time>
      </trkpt>
      <trkpt lat="42.2597" lon="2.49095">
        <ele>647.115</ele>
        <time>2010-05-01T05:56:53Z</time>
      </trkpt>
      <trkpt lat="42.25953" lon="2.49096">
        <ele>648.559</ele>
        <time>2010-05-01T05:57:05Z</time>
      </trkpt>
      <trkpt lat="42.2595" lon="2.49094">
        <ele>648.565</ele>
        <time>2010-05-01T05:57:07Z</time>
      </trkpt>
      <trkpt lat="42.25936" lon="2.49097">
        <ele>649.529</ele>
        <time>2010-05-01T05:57:18Z</time>
      </trkpt>
      <trkpt lat="42.25925" lon="2.49091">
        <ele>651.435</ele>
        <time>2010-05-01T05:57:29Z</time>
      </trkpt>
      <trkpt lat="42.25917" lon="2.49071">
        <ele>653.886</ele>
        <time>2010-05-01T05:57:43Z</time>
      </trkpt>
      <trkpt lat="42.2592" lon="2.49057">
        <ele>656.714</ele>
        <time>2010-05-01T05:57:55Z</time>
      </trkpt>
      <trkpt lat="42.25922" lon="2.49045">
        <ele>659.606</ele>
        <time>2010-05-01T05:58:06Z</time>
      </trkpt>
      <trkpt lat="42.2593" lon="2.49028">
        <ele>663.081</ele>
        <time>2010-05-01T05:58:23Z</time>
      </trkpt>
      <trkpt lat="42.25935" lon="2.49025">
        <ele>664.421</ele>
        <time>2010-05-01T05:58:32Z</time>
      </trkpt>
      <trkpt lat="42.25938" lon="2.49014">
        <ele>665.935</ele>
        <time>2010-05-01T05:58:39Z</time>
      </trkpt>
      <trkpt lat="42.25935" lon="2.49004">
        <ele>667.339</ele>
        <time>2010-05-01T05:58:46Z</time>
      </trkpt>
      <trkpt lat="42.25938" lon="2.4899">
        <ele>668.775</ele>
        <time>2010-05-01T05:58:54Z</time>
      </trkpt>
      <trkpt lat="42.25938" lon="2.48984">
        <ele>669.749</ele>
        <time>2010-05-01T05:58:58Z</time>
      </trkpt>
      <trkpt lat="42.25936" lon="2.48971">
        <ele>669.244</ele>
        <time>2010-05-01T05:59:04Z</time>
      </trkpt>
      <trkpt lat="42.2593" lon="2.48956">
        <ele>672.605</ele>
        <time>2010-05-01T05:59:15Z</time>
      </trkpt>
      <trkpt lat="42.2593" lon="2.48955">
        <ele>672.615</ele>
        <time>2010-05-01T05:59:16Z</time>
      </trkpt>
      <trkpt lat="42.25931" lon="2.48945">
        <ele>674.006</ele>
        <time>2010-05-01T05:59:22Z</time>
      </trkpt>
      <trkpt lat="42.25929" lon="2.4892">
        <ele>677.422</ele>
        <time>2010-05-01T05:59:38Z</time>
      </trkpt>
      <trkpt lat="42.25929" lon="2.48919">
        <ele>677.482</ele>
        <time>2010-05-01T05:59:39Z</time>
      </trkpt>
      <trkpt lat="42.25937" lon="2.4889">
        <ele>680.326</ele>
        <time>2010-05-01T05:59:55Z</time>
      </trkpt>
      <trkpt lat="42.25931" lon="2.48861">
        <ele>683.22</ele>
        <time>2010-05-01T06:00:12Z</time>
      </trkpt>
      <trkpt lat="42.2593" lon="2.48839">
        <ele>686.016</ele>
        <time>2010-05-01T06:00:25Z</time>
      </trkpt>
      <trkpt lat="42.2593" lon="2.4883">
        <ele>687.56</ele>
        <time>2010-05-01T06:00:31Z</time>
      </trkpt>
      <trkpt lat="42.25932" lon="2.48811">
        <ele>689.451</ele>
        <time>2010-05-01T06:00:42Z</time>
      </trkpt>
      <trkpt lat="42.25932" lon="2.48783">
        <ele>692.301</ele>
        <time>2010-05-01T06:00:58Z</time>
      </trkpt>
      <trkpt lat="42.25929" lon="2.48769">
        <ele>693.211</ele>
        <time>2010-05-01T06:01:06Z</time>
      </trkpt>
      <trkpt lat="42.25929" lon="2.48761">
        <ele>694.706</ele>
        <time>2010-05-01T06:01:11Z</time>
      </trkpt>
      <trkpt lat="42.25934" lon="2.4875">
        <ele>695.233</ele>
        <time>2010-05-01T06:01:18Z</time>
      </trkpt>
      <trkpt lat="42.25941" lon="2.48729">
        <ele>696.653</ele>
        <time>2010-05-01T06:01:30Z</time>
      </trkpt>
      <trkpt lat="42.25945" lon="2.48721">
        <ele>696.647</ele>
        <time>2010-05-01T06:01:35Z</time>
      </trkpt>
      <trkpt lat="42.25945" lon="2.48714">
        <ele>697.121</ele>
        <time>2010-05-01T06:01:39Z</time>
      </trkpt>
      <trkpt lat="42.25944" lon="2.48694">
        <ele>700.527</ele>
        <time>2010-05-01T06:01:52Z</time>
      </trkpt>
      <trkpt lat="42.25944" lon="2.48675">
        <ele>703.341</ele>
        <time>2010-05-01T06:02:04Z</time>
      </trkpt>
      <trkpt lat="42.25944" lon="2.48673">
        <ele>703.341</ele>
        <time>2010-05-01T06:02:05Z</time>
      </trkpt>
      <trkpt lat="42.25955" lon="2.48652">
        <ele>703.381</ele>
        <time>2010-05-01T06:02:20Z</time>
      </trkpt>
      <trkpt lat="42.25964" lon="2.48622">
        <ele>703.809</ele>
        <time>2010-05-01T06:02:35Z</time>
      </trkpt>
      <trkpt lat="42.25978" lon="2.48603">
        <ele>704.306</ele>
        <time>2010-05-01T06:02:44Z</time>
      </trkpt>
      <trkpt lat="42.2598" lon="2.48582">
        <ele>707.232</ele>
        <time>2010-05-01T06:02:58Z</time>
      </trkpt>
      <trkpt lat="42.25979" lon="2.48569">
        <ele>709.682</ele>
        <time>2010-05-01T06:03:08Z</time>
      </trkpt>
      <trkpt lat="42.25983" lon="2.48543">
        <ele>712.536</ele>
        <time>2010-05-01T06:03:23Z</time>
      </trkpt>
      <trkpt lat="42.25983" lon="2.48534">
        <ele>713.98</ele>
        <time>2010-05-01T06:03:30Z</time>
      </trkpt>
      <trkpt lat="42.25987" lon="2.48512">
        <ele>716.326</ele>
        <time>2010-05-01T06:03:45Z</time>
      </trkpt>
      <trkpt lat="42.25991" lon="2.4849">
        <ele>718.74</ele>
        <time>2010-05-01T06:03:57Z</time>
      </trkpt>
      <trkpt lat="42.25988" lon="2.48478">
        <ele>721.687</ele>
        <time>2010-05-01T06:04:10Z</time>
      </trkpt>
      <trkpt lat="42.25988" lon="2.48466">
        <ele>723.042</ele>
        <time>2010-05-01T06:04:15Z</time>
      </trkpt>
      <trkpt lat="42.25998" lon="2.48446">
        <ele>725.926</ele>
        <time>2010-05-01T06:04:30Z</time>
      </trkpt>
      <trkpt lat="42.25997" lon="2.48435">
        <ele>726.906</ele>
        <time>2010-05-01T06:04:36Z</time>
      </trkpt>
      <trkpt lat="42.26" lon="2.48426">
        <ele>727.946</ele>
        <time>2010-05-01T06:04:42Z</time>
      </trkpt>
      <trkpt lat="42.26011" lon="2.48408">
        <ele>729.336</ele>
        <time>2010-05-01T06:04:51Z</time>
      </trkpt>
      <trkpt lat="42.26011" lon="2.48394">
        <ele>731.79</ele>
        <time>2010-05-01T06:05:03Z</time>
      </trkpt>
      <trkpt lat="42.26007" lon="2.48381">
        <ele>733.114</ele>
        <time>2010-05-01T06:05:09Z</time>
      </trkpt>
      <trkpt lat="42.26007" lon="2.48371">
        <ele>735.16</ele>
        <time>2010-05-01T06:05:17Z</time>
      </trkpt>
      <trkpt lat="42.26009" lon="2.48362">
        <ele>736.534</ele>
        <time>2010-05-01T06:05:23Z</time>
      </trkpt>
      <trkpt lat="42.26007" lon="2.48359">
        <ele>737.065</ele>
        <time>2010-05-01T06:05:25Z</time>
      </trkpt>
      <trkpt lat="42.26007" lon="2.48351">
        <ele>737.968</ele>
        <time>2010-05-01T06:05:29Z</time>
      </trkpt>
      <trkpt lat="42.26008" lon="2.48345">
        <ele>738.414</ele>
        <time>2010-05-01T06:05:33Z</time>
      </trkpt>
      <trkpt lat="42.26008" lon="2.48336">
        <ele>739.406</ele>
        <time>2010-05-01T06:05:40Z</time>
      </trkpt>
      <trkpt lat="42.26012" lon="2.48313">
        <ele>742.324</ele>
        <time>2010-05-01T06:05:54Z</time>
      </trkpt>
      <trkpt lat="42.26011" lon="2.48306">
        <ele>743.284</ele>
        <time>2010-05-01T06:05:59Z</time>
      </trkpt>
      <trkpt lat="42.2601" lon="2.48288">
        <ele>745.638</ele>
        <time>2010-05-01T06:06:09Z</time>
      </trkpt>
      <trkpt lat="42.26011" lon="2.48281">
        <ele>746.132</ele>
        <time>2010-05-01T06:06:12Z</time>
      </trkpt>
      <trkpt lat="42.26021" lon="2.48263">
        <ele>747.638</ele>
        <time>2010-05-01T06:06:25Z</time>
      </trkpt>
      <trkpt lat="42.26032" lon="2.48237">
        <ele>749.512</ele>
        <time>2010-05-01T06:06:40Z</time>
      </trkpt>
      <trkpt lat="42.26044" lon="2.48214">
        <ele>750.951</ele>
        <time>2010-05-01T06:06:55Z</time>
      </trkpt>
      <trkpt lat="42.26052" lon="2.48201">
        <ele>751.901</ele>
        <time>2010-05-01T06:07:07Z</time>
      </trkpt>
      <trkpt lat="42.26053" lon="2.48185">
        <ele>752.411</ele>
        <time>2010-05-01T06:07:18Z</time>
      </trkpt>
      <trkpt lat="42.26056" lon="2.48164">
        <ele>754.806</ele>
        <time>2010-05-01T06:07:34Z</time>
      </trkpt>
      <trkpt lat="42.26065" lon="2.48136">
        <ele>757.293</ele>
        <time>2010-05-01T06:07:51Z</time>
      </trkpt>
      <trkpt lat="42.26072" lon="2.48112">
        <ele>759.693</ele>
        <time>2010-05-01T06:08:06Z</time>
      </trkpt>
      <trkpt lat="42.2607" lon="2.48094">
        <ele>762.547</ele>
        <time>2010-05-01T06:08:19Z</time>
      </trkpt>
      <trkpt lat="42.2607" lon="2.48076">
        <ele>764.411</ele>
        <time>2010-05-01T06:08:37Z</time>
      </trkpt>
      <trkpt lat="42.26069" lon="2.48072">
        <ele>764.497</ele>
        <time>2010-05-01T06:08:40Z</time>
      </trkpt>
      <trkpt lat="42.26078" lon="2.48045">
        <ele>767.341</ele>
        <time>2010-05-01T06:08:57Z</time>
      </trkpt>
      <trkpt lat="42.26075" lon="2.48033">
        <ele>767.856</ele>
        <time>2010-05-01T06:09:03Z</time>
      </trkpt>
      <trkpt lat="42.26071" lon="2.48017">
        <ele>768.759</ele>
        <time>2010-05-01T06:09:11Z</time>
      </trkpt>
      <trkpt lat="42.26065" lon="2.47996">
        <ele>769.714</ele>
        <time>2010-05-01T06:09:23Z</time>
      </trkpt>
      <trkpt lat="42.26076" lon="2.47968">
        <ele>771.106</ele>
        <time>2010-05-01T06:09:37Z</time>
      </trkpt>
      <trkpt lat="42.26079" lon="2.47954">
        <ele>772.183</ele>
        <time>2010-05-01T06:09:42Z</time>
      </trkpt>
      <trkpt lat="42.26087" lon="2.47944">
        <ele>773.563</ele>
        <time>2010-05-01T06:09:47Z</time>
      </trkpt>
      <trkpt lat="42.26083" lon="2.47936">
        <ele>774.597</ele>
        <time>2010-05-01T06:09:52Z</time>
      </trkpt>
      <trkpt lat="42.26078" lon="2.47915">
        <ele>775.051</ele>
        <time>2010-05-01T06:10:05Z</time>
      </trkpt>
      <trkpt lat="42.26072" lon="2.47892">
        <ele>776.977</ele>
        <time>2010-05-01T06:10:17Z</time>
      </trkpt>
      <trkpt lat="42.26071" lon="2.47874">
        <ele>779.841</ele>
        <time>2010-05-01T06:10:28Z</time>
      </trkpt>
      <trkpt lat="42.26071" lon="2.47844">
        <ele>780.237</ele>
        <time>2010-05-01T06:10:42Z</time>
      </trkpt>
      <trkpt lat="42.26078" lon="2.47813">
        <ele>781.249</ele>
        <time>2010-05-01T06:10:56Z</time>
      </trkpt>
      <trkpt lat="42.26092" lon="2.4778">
        <ele>783.113</ele>
        <time>2010-05-01T06:11:11Z</time>
      </trkpt>
      <trkpt lat="42.26107" lon="2.47768">
        <ele>784.106</ele>
        <time>2010-05-01T06:11:23Z</time>
      </trkpt>
      <trkpt lat="42.26123" lon="2.47752">
        <ele>784.681</ele>
        <time>2010-05-01T06:11:35Z</time>
      </trkpt>
      <trkpt lat="42.26144" lon="2.47726">
        <ele>785.171</ele>
        <time>2010-05-01T06:11:49Z</time>
      </trkpt>
      <trkpt lat="42.26161" lon="2.47695">
        <ele>782.285</ele>
        <time>2010-05-01T06:12:05Z</time>
      </trkpt>
      <trkpt lat="42.26164" lon="2.47692">
        <ele>782.269</ele>
        <time>2010-05-01T06:12:07Z</time>
      </trkpt>
      <trkpt lat="42.26165" lon="2.4768">
        <ele>781.765</ele>
        <time>2010-05-01T06:12:11Z</time>
      </trkpt>
      <trkpt lat="42.26176" lon="2.47644">
        <ele>782.789</ele>
        <time>2010-05-01T06:12:25Z</time>
      </trkpt>
      <trkpt lat="42.26185" lon="2.47626">
        <ele>784.132</ele>
        <time>2010-05-01T06:12:36Z</time>
      </trkpt>
      <trkpt lat="42.26198" lon="2.47601">
        <ele>780.792</ele>
        <time>2010-05-01T06:12:47Z</time>
      </trkpt>
      <trkpt lat="42.2619" lon="2.47567">
        <ele>778.311</ele>
        <time>2010-05-01T06:12:59Z</time>
      </trkpt>
      <trkpt lat="42.26187" lon="2.47531">
        <ele>776.406</ele>
        <time>2010-05-01T06:13:11Z</time>
      </trkpt>
      <trkpt lat="42.26189" lon="2.47507">
        <ele>775.411</ele>
        <time>2010-05-01T06:13:22Z</time>
      </trkpt>
      <trkpt lat="42.2619" lon="2.47462">
        <ele>774.041</ele>
        <time>2010-05-01T06:13:37Z</time>
      </trkpt>
      <trkpt lat="42.26189" lon="2.47458">
        <ele>773.055</ele>
        <time>2010-05-01T06:13:40Z</time>
      </trkpt>
      <trkpt lat="42.26194" lon="2.47432">
        <ele>772.659</ele>
        <time>2010-05-01T06:13:48Z</time>
      </trkpt>
      <trkpt lat="42.26195" lon="2.47424">
        <ele>772.155</ele>
        <time>2010-05-01T06:13:51Z</time>
      </trkpt>
      <trkpt lat="42.26195" lon="2.47409">
        <ele>770.289</ele>
        <time>2010-05-01T06:13:59Z</time>
      </trkpt>
      <trkpt lat="42.26202" lon="2.47395">
        <ele>768.726</ele>
        <time>2010-05-01T06:14:11Z</time>
      </trkpt>
      <trkpt lat="42.26205" lon="2.47391">
        <ele>768.247</ele>
        <time>2010-05-01T06:14:18Z</time>
      </trkpt>
      <trkpt lat="42.26213" lon="2.4738">
        <ele>766.311</ele>
        <time>2010-05-01T06:14:32Z</time>
      </trkpt>
      <trkpt lat="42.26214" lon="2.47371">
        <ele>763.406</ele>
        <time>2010-05-01T06:14:47Z</time>
      </trkpt>
      <trkpt lat="42.26222" lon="2.47349">
        <ele>760.13</ele>
        <time>2010-05-01T06:14:59Z</time>
      </trkpt>
      <trkpt lat="42.26231" lon="2.47324">
        <ele>758.19</ele>
        <time>2010-05-01T06:15:12Z</time>
      </trkpt>
      <trkpt lat="42.26242" lon="2.47296">
        <ele>755.774</ele>
        <time>2010-05-01T06:15:27Z</time>
      </trkpt>
      <trkpt lat="42.26245" lon="2.47266">
        <ele>754.868</ele>
        <time>2010-05-01T06:15:38Z</time>
      </trkpt>
      <trkpt lat="42.26253" lon="2.47233">
        <ele>753.384</ele>
        <time>2010-05-01T06:15:51Z</time>
      </trkpt>
      <trkpt lat="42.26253" lon="2.47231">
        <ele>753.338</ele>
        <time>2010-05-01T06:15:52Z</time>
      </trkpt>
      <trkpt lat="42.26256" lon="2.47214">
        <ele>751.977</ele>
        <time>2010-05-01T06:15:59Z</time>
      </trkpt>
      <trkpt lat="42.26259" lon="2.47196">
        <ele>750.461</ele>
        <time>2010-05-01T06:16:07Z</time>
      </trkpt>
      <trkpt lat="42.26258" lon="2.47185">
        <ele>748.527</ele>
        <time>2010-05-01T06:16:13Z</time>
      </trkpt>
      <trkpt lat="42.26257" lon="2.47144">
        <ele>746.106</ele>
        <time>2010-05-01T06:16:28Z</time>
      </trkpt>
      <trkpt lat="42.26258" lon="2.47108">
        <ele>743.715</ele>
        <time>2010-05-01T06:16:40Z</time>
      </trkpt>
      <trkpt lat="42.26264" lon="2.47098">
        <ele>742.845</ele>
        <time>2010-05-01T06:16:56Z</time>
      </trkpt>
      <trkpt lat="42.26273" lon="2.47083">
        <ele>739.439</ele>
        <time>2010-05-01T06:17:16Z</time>
      </trkpt>
      <trkpt lat="42.26274" lon="2.47064">
        <ele>736.083</ele>
        <time>2010-05-01T06:17:28Z</time>
      </trkpt>
      <trkpt lat="42.26269" lon="2.47041">
        <ele>732.729</ele>
        <time>2010-05-01T06:17:40Z</time>
      </trkpt>
      <trkpt lat="42.26263" lon="2.47012">
        <ele>729.823</ele>
        <time>2010-05-01T06:17:53Z</time>
      </trkpt>
      <trkpt lat="42.2626" lon="2.47006">
        <ele>729.337</ele>
        <time>2010-05-01T06:17:56Z</time>
      </trkpt>
      <trkpt lat="42.26258" lon="2.46979">
        <ele>727.449</ele>
        <time>2010-05-01T06:18:11Z</time>
      </trkpt>
      <trkpt lat="42.26258" lon="2.46962">
        <ele>724.013</ele>
        <time>2010-05-01T06:18:28Z</time>
      </trkpt>
      <trkpt lat="42.26261" lon="2.46943">
        <ele>721.106</ele>
        <time>2010-05-01T06:18:42Z</time>
      </trkpt>
      <trkpt lat="42.26257" lon="2.46924">
        <ele>717.841</ele>
        <time>2010-05-01T06:18:56Z</time>
      </trkpt>
      <trkpt lat="42.26252" lon="2.46905">
        <ele>714.431</ele>
        <time>2010-05-01T06:19:13Z</time>
      </trkpt>
      <trkpt lat="42.26248" lon="2.46899">
        <ele>713.435</ele>
        <time>2010-05-01T06:19:19Z</time>
      </trkpt>
      <trkpt lat="42.26242" lon="2.46884">
        <ele>711.559</ele>
        <time>2010-05-01T06:19:35Z</time>
      </trkpt>
      <trkpt lat="42.26238" lon="2.46871">
        <ele>708.125</ele>
        <time>2010-05-01T06:19:50Z</time>
      </trkpt>
      <trkpt lat="42.26229" lon="2.4685">
        <ele>705.379</ele>
        <time>2010-05-01T06:20:06Z</time>
      </trkpt>
      <trkpt lat="42.26227" lon="2.46833">
        <ele>701.986</ele>
        <time>2010-05-01T06:20:22Z</time>
      </trkpt>
      <trkpt lat="42.26216" lon="2.46814">
        <ele>698.56</ele>
        <time>2010-05-01T06:20:38Z</time>
      </trkpt>
      <trkpt lat="42.26214" lon="2.46808">
        <ele>698.526</ele>
        <time>2010-05-01T06:20:41Z</time>
      </trkpt>
      <trkpt lat="42.26206" lon="2.46781">
        <ele>695.706</ele>
        <time>2010-05-01T06:20:55Z</time>
      </trkpt>
      <trkpt lat="42.26201" lon="2.46763">
        <ele>692.836</ele>
        <time>2010-05-01T06:21:09Z</time>
      </trkpt>
      <trkpt lat="42.26193" lon="2.46742">
        <ele>689.426</ele>
        <time>2010-05-01T06:21:26Z</time>
      </trkpt>
      <trkpt lat="42.26191" lon="2.46739">
        <ele>689.41</ele>
        <time>2010-05-01T06:21:29Z</time>
      </trkpt>
      <trkpt lat="42.26187" lon="2.46716">
        <ele>686.544</ele>
        <time>2010-05-01T06:21:45Z</time>
      </trkpt>
      <trkpt lat="42.26178" lon="2.46704">
        <ele>683.69</ele>
        <time>2010-05-01T06:22:01Z</time>
      </trkpt>
      <trkpt lat="42.26177" lon="2.46684">
        <ele>680.814</ele>
        <time>2010-05-01T06:22:17Z</time>
      </trkpt>
      <trkpt lat="42.26182" lon="2.46661">
        <ele>677.488</ele>
        <time>2010-05-01T06:22:32Z</time>
      </trkpt>
      <trkpt lat="42.26179" lon="2.46652">
        <ele>674.524</ele>
        <time>2010-05-01T06:22:48Z</time>
      </trkpt>
      <trkpt lat="42.26169" lon="2.46649">
        <ele>671.626</ele>
        <time>2010-05-01T06:23:04Z</time>
      </trkpt>
      <trkpt lat="42.26168" lon="2.46629">
        <ele>668.306</ele>
        <time>2010-05-01T06:23:17Z</time>
      </trkpt>
      <trkpt lat="42.26176" lon="2.46615">
        <ele>664.926</ele>
        <time>2010-05-01T06:23:30Z</time>
      </trkpt>
      <trkpt lat="42.26178" lon="2.46606">
        <ele>661.526</ele>
        <time>2010-05-01T06:23:43Z</time>
      </trkpt>
      <trkpt lat="42.26183" lon="2.46596">
        <ele>658.62</ele>
        <time>2010-05-01T06:23:57Z</time>
      </trkpt>
      <trkpt lat="42.2619" lon="2.4658">
        <ele>655.334</ele>
        <time>2010-05-01T06:24:07Z</time>
      </trkpt>
      <trkpt lat="42.26193" lon="2.46577">
        <ele>654.36</ele>
        <time>2010-05-01T06:24:10Z</time>
      </trkpt>
      <trkpt lat="42.26194" lon="2.4657">
        <ele>653.814</ele>
        <time>2010-05-01T06:24:13Z</time>
      </trkpt>
      <trkpt lat="42.26205" lon="2.46564">
        <ele>650.949</ele>
        <time>2010-05-01T06:24:26Z</time>
      </trkpt>
      <trkpt lat="42.26203" lon="2.46553">
        <ele>648.102</ele>
        <time>2010-05-01T06:24:41Z</time>
      </trkpt>
      <trkpt lat="42.26204" lon="2.46542">
        <ele>644.722</ele>
        <time>2010-05-01T06:24:55Z</time>
      </trkpt>
      <trkpt lat="42.26208" lon="2.46528">
        <ele>641.306</ele>
        <time>2010-05-01T06:25:07Z</time>
      </trkpt>
      <trkpt lat="42.26208" lon="2.46524">
        <ele>639.442</ele>
        <time>2010-05-01T06:25:16Z</time>
      </trkpt>
      <trkpt lat="42.2621" lon="2.46519">
        <ele>638.522</ele>
        <time>2010-05-01T06:25:19Z</time>
      </trkpt>
      <trkpt lat="42.26225" lon="2.46512">
        <ele>636.556</ele>
        <time>2010-05-01T06:25:29Z</time>
      </trkpt>
      <trkpt lat="42.26227" lon="2.46509">
        <ele>635.69</ele>
        <time>2010-05-01T06:25:32Z</time>
      </trkpt>
      <trkpt lat="42.26232" lon="2.46494">
        <ele>631.726</ele>
        <time>2010-05-01T06:25:43Z</time>
      </trkpt>
      <trkpt lat="42.26241" lon="2.4648">
        <ele>628.84</ele>
        <time>2010-05-01T06:25:54Z</time>
      </trkpt>
      <trkpt lat="42.26257" lon="2.46472">
        <ele>625.553</ele>
        <time>2010-05-01T06:26:08Z</time>
      </trkpt>
      <trkpt lat="42.26262" lon="2.46467">
        <ele>623.604</ele>
        <time>2010-05-01T06:26:15Z</time>
      </trkpt>
      <trkpt lat="42.26268" lon="2.46458">
        <ele>621.614</ele>
        <time>2010-05-01T06:26:24Z</time>
      </trkpt>
      <trkpt lat="42.26276" lon="2.46441">
        <ele>618.306</ele>
        <time>2010-05-01T06:26:39Z</time>
      </trkpt>
      <trkpt lat="42.26282" lon="2.46426">
        <ele>615.483</ele>
        <time>2010-05-01T06:26:55Z</time>
      </trkpt>
      <trkpt lat="42.26287" lon="2.46419">
        <ele>613.913</ele>
        <time>2010-05-01T06:27:01Z</time>
      </trkpt>
      <trkpt lat="42.26294" lon="2.46405">
        <ele>612.097</ele>
        <time>2010-05-01T06:27:12Z</time>
      </trkpt>
      <trkpt lat="42.26293" lon="2.46392">
        <ele>610.171</ele>
        <time>2010-05-01T06:27:22Z</time>
      </trkpt>
      <trkpt lat="42.26285" lon="2.46398">
        <ele>607.227</ele>
        <time>2010-05-01T06:27:34Z</time>
      </trkpt>
      <trkpt lat="42.26284" lon="2.46399">
        <ele>607.251</ele>
        <time>2010-05-01T06:27:35Z</time>
      </trkpt>
      <trkpt lat="42.26269" lon="2.46411">
        <ele>604.843</ele>
        <time>2010-05-01T06:27:51Z</time>
      </trkpt>
      <trkpt lat="42.26251" lon="2.46415">
        <ele>602.464</ele>
        <time>2010-05-01T06:28:05Z</time>
      </trkpt>
      <trkpt lat="42.26239" lon="2.4642">
        <ele>600.51</ele>
        <time>2010-05-01T06:28:18Z</time>
      </trkpt>
      <trkpt lat="42.26227" lon="2.46421">
        <ele>597.606</ele>
        <time>2010-05-01T06:28:33Z</time>
      </trkpt>
      <trkpt lat="42.26207" lon="2.46417">
        <ele>595.742</ele>
        <time>2010-05-01T06:28:45Z</time>
      </trkpt>
      <trkpt lat="42.26203" lon="2.46419">
        <ele>595.262</ele>
        <time>2010-05-01T06:28:50Z</time>
      </trkpt>
      <trkpt lat="42.26203" lon="2.46403">
        <ele>598.116</ele>
        <time>2010-05-01T06:29:06Z</time>
      </trkpt>
      <trkpt lat="42.26212" lon="2.46398">
        <ele>600.07</ele>
        <time>2010-05-01T06:29:16Z</time>
      </trkpt>
      <trkpt lat="42.26243" lon="2.46371">
        <ele>600.536</ele>
        <time>2010-05-01T06:29:32Z</time>
      </trkpt>
      <trkpt lat="42.26249" lon="2.46367">
        <ele>600.58</ele>
        <time>2010-05-01T06:29:45Z</time>
      </trkpt>
      <trkpt lat="42.2626" lon="2.46339">
        <ele>599.564</ele>
        <time>2010-05-01T06:30:13Z</time>
      </trkpt>
      <trkpt lat="42.26263" lon="2.46328">
        <ele>599.506</ele>
        <time>2010-05-01T06:30:16Z</time>
      </trkpt>
      <trkpt lat="42.26262" lon="2.46291">
        <ele>600.016</ele>
        <time>2010-05-01T06:30:28Z</time>
      </trkpt>
      <trkpt lat="42.26249" lon="2.46275">
        <ele>600.506</ele>
        <time>2010-05-01T06:30:39Z</time>
      </trkpt>
      <trkpt lat="42.26243" lon="2.46257">
        <ele>601.034</ele>
        <time>2010-05-01T06:30:46Z</time>
      </trkpt>
      <trkpt lat="42.26217" lon="2.46233">
        <ele>599.534</ele>
        <time>2010-05-01T06:30:59Z</time>
      </trkpt>
      <trkpt lat="42.26214" lon="2.46228">
        <ele>599.018</ele>
        <time>2010-05-01T06:31:01Z</time>
      </trkpt>
      <trkpt lat="42.26202" lon="2.46204">
        <ele>597.672</ele>
        <time>2010-05-01T06:31:09Z</time>
      </trkpt>
      <trkpt lat="42.26213" lon="2.46203">
        <ele>596.648</ele>
        <time>2010-05-01T06:31:16Z</time>
      </trkpt>
      <trkpt lat="42.26219" lon="2.46203">
        <ele>595.722</ele>
        <time>2010-05-01T06:31:22Z</time>
      </trkpt>
      <trkpt lat="42.26225" lon="2.46207">
        <ele>595.714</ele>
        <time>2010-05-01T06:31:27Z</time>
      </trkpt>
      <trkpt lat="42.26252" lon="2.46222">
        <ele>595.254</ele>
        <time>2010-05-01T06:31:41Z</time>
      </trkpt>
      <trkpt lat="42.26258" lon="2.46226">
        <ele>594.709</ele>
        <time>2010-05-01T06:31:44Z</time>
      </trkpt>
      <trkpt lat="42.26263" lon="2.46216">
        <ele>592.806</ele>
        <time>2010-05-01T06:31:50Z</time>
      </trkpt>
      <trkpt lat="42.26259" lon="2.46192">
        <ele>589.929</ele>
        <time>2010-05-01T06:31:57Z</time>
      </trkpt>
      <trkpt lat="42.26276" lon="2.4619">
        <ele>588.049</ele>
        <time>2010-05-01T06:32:05Z</time>
      </trkpt>
      <trkpt lat="42.263" lon="2.46236">
        <ele>585.623</ele>
        <time>2010-05-01T06:32:20Z</time>
      </trkpt>
      <trkpt lat="42.26302" lon="2.46262">
        <ele>585.127</ele>
        <time>2010-05-01T06:32:28Z</time>
      </trkpt>
      <trkpt lat="42.26308" lon="2.46258">
        <ele>586.183</ele>
        <time>2010-05-01T06:32:32Z</time>
      </trkpt>
      <trkpt lat="42.26328" lon="2.46244">
        <ele>588.917</ele>
        <time>2010-05-01T06:32:46Z</time>
      </trkpt>
      <trkpt lat="42.26349" lon="2.46261">
        <ele>588.573</ele>
        <time>2010-05-01T06:32:58Z</time>
      </trkpt>
      <trkpt lat="42.26366" lon="2.46265">
        <ele>589.485</ele>
        <time>2010-05-01T06:33:12Z</time>
      </trkpt>
      <trkpt lat="42.26386" lon="2.46247">
        <ele>588.513</ele>
        <time>2010-05-01T06:33:25Z</time>
      </trkpt>
      <trkpt lat="42.26417" lon="2.46251">
        <ele>588.006</ele>
        <time>2010-05-01T06:33:37Z</time>
      </trkpt>
      <trkpt lat="42.26443" lon="2.46251">
        <ele>588.045</ele>
        <time>2010-05-01T06:33:49Z</time>
      </trkpt>
      <trkpt lat="42.26475" lon="2.4625">
        <ele>588.065</ele>
        <time>2010-05-01T06:34:01Z</time>
      </trkpt>
      <trkpt lat="42.26509" lon="2.46237">
        <ele>585.669</ele>
        <time>2010-05-01T06:34:15Z</time>
      </trkpt>
      <trkpt lat="42.2653" lon="2.46214">
        <ele>582.293</ele>
        <time>2010-05-01T06:34:26Z</time>
      </trkpt>
      <trkpt lat="42.26554" lon="2.46177">
        <ele>579.359</ele>
        <time>2010-05-01T06:34:40Z</time>
      </trkpt>
      <trkpt lat="42.2658" lon="2.46154">
        <ele>576.013</ele>
        <time>2010-05-01T06:34:52Z</time>
      </trkpt>
      <trkpt lat="42.26599" lon="2.46135">
        <ele>574.051</ele>
        <time>2010-05-01T06:35:02Z</time>
      </trkpt>
      <trkpt lat="42.26616" lon="2.46123">
        <ele>576.001</ele>
        <time>2010-05-01T06:35:13Z</time>
      </trkpt>
      <trkpt lat="42.26637" lon="2.46133">
        <ele>577.911</ele>
        <time>2010-05-01T06:35:27Z</time>
      </trkpt>
      <trkpt lat="42.26652" lon="2.46149">
        <ele>579.306</ele>
        <time>2010-05-01T06:35:40Z</time>
      </trkpt>
      <trkpt lat="42.26667" lon="2.46164">
        <ele>580.863</ele>
        <time>2010-05-01T06:35:52Z</time>
      </trkpt>
      <trkpt lat="42.2667" lon="2.46169">
        <ele>580.863</ele>
        <time>2010-05-01T06:35:55Z</time>
      </trkpt>
      <trkpt lat="42.26692" lon="2.46177">
        <ele>582.287</ele>
        <time>2010-05-01T06:36:10Z</time>
      </trkpt>
      <trkpt lat="42.26711" lon="2.46193">
        <ele>582.711</ele>
        <time>2010-05-01T06:36:24Z</time>
      </trkpt>
      <trkpt lat="42.26724" lon="2.46219">
        <ele>583.777</ele>
        <time>2010-05-01T06:36:38Z</time>
      </trkpt>
      <trkpt lat="42.26745" lon="2.4624">
        <ele>583.761</ele>
        <time>2010-05-01T06:36:53Z</time>
      </trkpt>
      <trkpt lat="42.26764" lon="2.4627">
        <ele>581.754</ele>
        <time>2010-05-01T06:37:05Z</time>
      </trkpt>
      <trkpt lat="42.26772" lon="2.46285">
        <ele>579.356</ele>
        <time>2010-05-01T06:37:10Z</time>
      </trkpt>
      <trkpt lat="42.26781" lon="2.46296">
        <ele>576.411</ele>
        <time>2010-05-01T06:37:15Z</time>
      </trkpt>
      <trkpt lat="42.26783" lon="2.46298">
        <ele>575.506</ele>
        <time>2010-05-01T06:37:16Z</time>
      </trkpt>
      <trkpt lat="42.26777" lon="2.46299">
        <ele>575.013</ele>
        <time>2010-05-01T06:37:21Z</time>
      </trkpt>
      <trkpt lat="42.26773" lon="2.46299">
        <ele>574.593</ele>
        <time>2010-05-01T06:37:24Z</time>
      </trkpt>
      <trkpt lat="42.2678" lon="2.46316">
        <ele>571.257</ele>
        <time>2010-05-01T06:37:34Z</time>
      </trkpt>
      <trkpt lat="42.26783" lon="2.46319">
        <ele>570.291</ele>
        <time>2010-05-01T06:37:36Z</time>
      </trkpt>
      <trkpt lat="42.26783" lon="2.46323">
        <ele>569.277</ele>
        <time>2010-05-01T06:37:39Z</time>
      </trkpt>
      <trkpt lat="42.26782" lon="2.46327">
        <ele>566.871</ele>
        <time>2010-05-01T06:37:45Z</time>
      </trkpt>
      <trkpt lat="42.26789" lon="2.46326">
        <ele>565.449</ele>
        <time>2010-05-01T06:37:57Z</time>
      </trkpt>
      <trkpt lat="42.2679" lon="2.46325">
        <ele>563.502</ele>
        <time>2010-05-01T06:38:04Z</time>
      </trkpt>
      <trkpt lat="42.26793" lon="2.46325">
        <ele>565.422</ele>
        <time>2010-05-01T06:38:22Z</time>
      </trkpt>
      <trkpt lat="42.26796" lon="2.46332">
        <ele>565.906</ele>
        <time>2010-05-01T06:38:25Z</time>
      </trkpt>
      <trkpt lat="42.26803" lon="2.46337">
        <ele>566.842</ele>
        <time>2010-05-01T06:38:30Z</time>
      </trkpt>
      <trkpt lat="42.2681" lon="2.46344">
        <ele>567.872</ele>
        <time>2010-05-01T06:38:34Z</time>
      </trkpt>
      <trkpt lat="42.26828" lon="2.46341">
        <ele>570.766</ele>
        <time>2010-05-01T06:38:51Z</time>
      </trkpt>
      <trkpt lat="42.26839" lon="2.4634">
        <ele>572.13</ele>
        <time>2010-05-01T06:39:00Z</time>
      </trkpt>
      <trkpt lat="42.26851" lon="2.46344">
        <ele>573.666</ele>
        <time>2010-05-01T06:39:09Z</time>
      </trkpt>
      <trkpt lat="42.26868" lon="2.46335">
        <ele>575.57</ele>
        <time>2010-05-01T06:39:23Z</time>
      </trkpt>
      <trkpt lat="42.26885" lon="2.46336">
        <ele>576.436</ele>
        <time>2010-05-01T06:39:32Z</time>
      </trkpt>
      <trkpt lat="42.26893" lon="2.46335">
        <ele>576.417</ele>
        <time>2010-05-01T06:39:38Z</time>
      </trkpt>
      <trkpt lat="42.26903" lon="2.46339">
        <ele>576.018</ele>
        <time>2010-05-01T06:39:43Z</time>
      </trkpt>
      <trkpt lat="42.2691" lon="2.46342">
        <ele>575.506</ele>
        <time>2010-05-01T06:39:46Z</time>
      </trkpt>
      <trkpt lat="42.26915" lon="2.46349">
        <ele>575.051</ele>
        <time>2010-05-01T06:39:50Z</time>
      </trkpt>
      <trkpt lat="42.26937" lon="2.46366">
        <ele>575.031</ele>
        <time>2010-05-01T06:40:04Z</time>
      </trkpt>
      <trkpt lat="42.2694" lon="2.46368">
        <ele>575.515</ele>
        <time>2010-05-01T06:40:07Z</time>
      </trkpt>
      <trkpt lat="42.26941" lon="2.46373">
        <ele>576.019</ele>
        <time>2010-05-01T06:40:10Z</time>
      </trkpt>
      <trkpt lat="42.26951" lon="2.46393">
        <ele>577.915</ele>
        <time>2010-05-01T06:40:25Z</time>
      </trkpt>
      <trkpt lat="42.26963" lon="2.46419">
        <ele>581.329</ele>
        <time>2010-05-01T06:40:39Z</time>
      </trkpt>
      <trkpt lat="42.26966" lon="2.46431">
        <ele>582.785</ele>
        <time>2010-05-01T06:40:47Z</time>
      </trkpt>
      <trkpt lat="42.2697" lon="2.46455">
        <ele>585.689</ele>
        <time>2010-05-01T06:41:02Z</time>
      </trkpt>
      <trkpt lat="42.26968" lon="2.46478">
        <ele>588.917</ele>
        <time>2010-05-01T06:41:17Z</time>
      </trkpt>
      <trkpt lat="42.26962" lon="2.46497">
        <ele>591.806</ele>
        <time>2010-05-01T06:41:34Z</time>
      </trkpt>
      <trkpt lat="42.26962" lon="2.46516">
        <ele>594.796</ele>
        <time>2010-05-01T06:41:49Z</time>
      </trkpt>
      <trkpt lat="42.26964" lon="2.46539">
        <ele>598.676</ele>
        <time>2010-05-01T06:42:07Z</time>
      </trkpt>
      <trkpt lat="42.26971" lon="2.46544">
        <ele>599.55</ele>
        <time>2010-05-01T06:42:14Z</time>
      </trkpt>
      <trkpt lat="42.26987" lon="2.4656">
        <ele>602.984</ele>
        <time>2010-05-01T06:42:34Z</time>
      </trkpt>
      <trkpt lat="42.2701" lon="2.46579">
        <ele>605.33</ele>
        <time>2010-05-01T06:42:55Z</time>
      </trkpt>
      <trkpt lat="42.27023" lon="2.46591">
        <ele>606.724</ele>
        <time>2010-05-01T06:43:08Z</time>
      </trkpt>
      <trkpt lat="42.27039" lon="2.46603">
        <ele>607.785</ele>
        <time>2010-05-01T06:43:23Z</time>
      </trkpt>
      <trkpt lat="42.27041" lon="2.46605">
        <ele>608.289</ele>
        <time>2010-05-01T06:43:25Z</time>
      </trkpt>
      <trkpt lat="42.27047" lon="2.46615">
        <ele>608.717</ele>
        <time>2010-05-01T06:43:31Z</time>
      </trkpt>
      <trkpt lat="42.27049" lon="2.46624">
        <ele>609.106</ele>
        <time>2010-05-01T06:43:38Z</time>
      </trkpt>
      <trkpt lat="42.27052" lon="2.46639">
        <ele>609.646</ele>
        <time>2010-05-01T06:43:46Z</time>
      </trkpt>
      <trkpt lat="42.27049" lon="2.46675">
        <ele>609.656</ele>
        <time>2010-05-01T06:43:58Z</time>
      </trkpt>
      <trkpt lat="42.2705" lon="2.46677">
        <ele>609.62</ele>
        <time>2010-05-01T06:43:59Z</time>
      </trkpt>
      <trkpt lat="42.27055" lon="2.46682">
        <ele>609.654</ele>
        <time>2010-05-01T06:44:02Z</time>
      </trkpt>
      <trkpt lat="42.27056" lon="2.46687">
        <ele>609.63</ele>
        <time>2010-05-01T06:44:05Z</time>
      </trkpt>
      <trkpt lat="42.27056" lon="2.46695">
        <ele>609.194</ele>
        <time>2010-05-01T06:44:09Z</time>
      </trkpt>
      <trkpt lat="42.27047" lon="2.46726">
        <ele>609.629</ele>
        <time>2010-05-01T06:44:22Z</time>
      </trkpt>
      <trkpt lat="42.27043" lon="2.46754">
        <ele>610.1</ele>
        <time>2010-05-01T06:44:31Z</time>
      </trkpt>
      <trkpt lat="42.27046" lon="2.46785">
        <ele>610.12</ele>
        <time>2010-05-01T06:44:43Z</time>
      </trkpt>
      <trkpt lat="42.27048" lon="2.46804">
        <ele>611.106</ele>
        <time>2010-05-01T06:44:49Z</time>
      </trkpt>
      <trkpt lat="42.27054" lon="2.46816">
        <ele>610.69</ele>
        <time>2010-05-01T06:44:56Z</time>
      </trkpt>
      <trkpt lat="42.27054" lon="2.46821">
        <ele>610.19</ele>
        <time>2010-05-01T06:44:58Z</time>
      </trkpt>
      <trkpt lat="42.27074" lon="2.4684">
        <ele>608.724</ele>
        <time>2010-05-01T06:45:11Z</time>
      </trkpt>
      <trkpt lat="42.27075" lon="2.46841">
        <ele>608.758</ele>
        <time>2010-05-01T06:45:12Z</time>
      </trkpt>
      <trkpt lat="42.27086" lon="2.46862">
        <ele>609.634</ele>
        <time>2010-05-01T06:45:22Z</time>
      </trkpt>
      <trkpt lat="42.27098" lon="2.46871">
        <ele>608.748</ele>
        <time>2010-05-01T06:45:31Z</time>
      </trkpt>
      <trkpt lat="42.27108" lon="2.46883">
        <ele>608.246</ele>
        <time>2010-05-01T06:45:38Z</time>
      </trkpt>
      <trkpt lat="42.27112" lon="2.46885">
        <ele>608.288</ele>
        <time>2010-05-01T06:45:40Z</time>
      </trkpt>
      <trkpt lat="42.27117" lon="2.46891">
        <ele>608.216</ele>
        <time>2010-05-01T06:45:45Z</time>
      </trkpt>
      <trkpt lat="42.27134" lon="2.46899">
        <ele>607.706</ele>
        <time>2010-05-01T06:45:56Z</time>
      </trkpt>
      <trkpt lat="42.27153" lon="2.46915">
        <ele>607.252</ele>
        <time>2010-05-01T06:46:08Z</time>
      </trkpt>
      <trkpt lat="42.27168" lon="2.46937">
        <ele>607.242</ele>
        <time>2010-05-01T06:46:19Z</time>
      </trkpt>
      <trkpt lat="42.2717" lon="2.46945">
        <ele>608.756</ele>
        <time>2010-05-01T06:46:25Z</time>
      </trkpt>
      <trkpt lat="42.27171" lon="2.46961">
        <ele>610.12</ele>
        <time>2010-05-01T06:46:32Z</time>
      </trkpt>
      <trkpt lat="42.27177" lon="2.46969">
        <ele>612.026</ele>
        <time>2010-05-01T06:46:38Z</time>
      </trkpt>
      <trkpt lat="42.27184" lon="2.46968">
        <ele>613.09</ele>
        <time>2010-05-01T06:46:42Z</time>
      </trkpt>
      <trkpt lat="42.27205" lon="2.46958">
        <ele>611.123</ele>
        <time>2010-05-01T06:46:56Z</time>
      </trkpt>
      <trkpt lat="42.27214" lon="2.46961">
        <ele>608.283</ele>
        <time>2010-05-01T06:47:07Z</time>
      </trkpt>
      <trkpt lat="42.27221" lon="2.46983">
        <ele>605.311</ele>
        <time>2010-05-01T06:47:17Z</time>
      </trkpt>
      <trkpt lat="42.27231" lon="2.46987">
        <ele>601.906</ele>
        <time>2010-05-01T06:47:29Z</time>
      </trkpt>
      <trkpt lat="42.27232" lon="2.46988">
        <ele>601.47</ele>
        <time>2010-05-01T06:47:30Z</time>
      </trkpt>
      <trkpt lat="42.27248" lon="2.47019">
        <ele>601.94</ele>
        <time>2010-05-01T06:47:45Z</time>
      </trkpt>
      <trkpt lat="42.27259" lon="2.47035">
        <ele>605.394</ele>
        <time>2010-05-01T06:47:57Z</time>
      </trkpt>
      <trkpt lat="42.27272" lon="2.47044">
        <ele>607.278</ele>
        <time>2010-05-01T06:48:14Z</time>
      </trkpt>
      <trkpt lat="42.27285" lon="2.47046">
        <ele>605.874</ele>
        <time>2010-05-01T06:48:40Z</time>
      </trkpt>
      <trkpt lat="42.2729" lon="2.47046">
        <ele>605.378</ele>
        <time>2010-05-01T06:48:43Z</time>
      </trkpt>
      <trkpt lat="42.2731" lon="2.47085">
        <ele>602.964</ele>
        <time>2010-05-01T06:48:58Z</time>
      </trkpt>
      <trkpt lat="42.27313" lon="2.47086">
        <ele>603.406</ele>
        <time>2010-05-01T06:48:59Z</time>
      </trkpt>
      <trkpt lat="42.27323" lon="2.47089">
        <ele>601.416</ele>
        <time>2010-05-01T06:49:07Z</time>
      </trkpt>
      <trkpt lat="42.27348" lon="2.47076">
        <ele>601.006</ele>
        <time>2010-05-01T06:49:20Z</time>
      </trkpt>
      <trkpt lat="42.27365" lon="2.47088">
        <ele>598.684</ele>
        <time>2010-05-01T06:49:31Z</time>
      </trkpt>
      <trkpt lat="42.27378" lon="2.47098">
        <ele>597.684</ele>
        <time>2010-05-01T06:49:41Z</time>
      </trkpt>
      <trkpt lat="42.27389" lon="2.47104">
        <ele>597.658</ele>
        <time>2010-05-01T06:49:47Z</time>
      </trkpt>
      <trkpt lat="42.27415" lon="2.47087">
        <ele>599.062</ele>
        <time>2010-05-01T06:50:00Z</time>
      </trkpt>
      <trkpt lat="42.27426" lon="2.4709">
        <ele>599.578</ele>
        <time>2010-05-01T06:50:12Z</time>
      </trkpt>
      <trkpt lat="42.27449" lon="2.47114">
        <ele>601.472</ele>
        <time>2010-05-01T06:50:27Z</time>
      </trkpt>
      <trkpt lat="42.27459" lon="2.47132">
        <ele>603.862</ele>
        <time>2010-05-01T06:50:40Z</time>
      </trkpt>
      <trkpt lat="42.27459" lon="2.47133">
        <ele>604.383</ele>
        <time>2010-05-01T06:50:41Z</time>
      </trkpt>
      <trkpt lat="42.2748" lon="2.47145">
        <ele>606.211</ele>
        <time>2010-05-01T06:50:58Z</time>
      </trkpt>
      <trkpt lat="42.27484" lon="2.47143">
        <ele>606.206</ele>
        <time>2010-05-01T06:51:02Z</time>
      </trkpt>
      <trkpt lat="42.27496" lon="2.47141">
        <ele>607.784</ele>
        <time>2010-05-01T06:51:14Z</time>
      </trkpt>
      <trkpt lat="42.27507" lon="2.47163">
        <ele>606.234</ele>
        <time>2010-05-01T06:51:25Z</time>
      </trkpt>
      <trkpt lat="42.27512" lon="2.47172">
        <ele>606.768</ele>
        <time>2010-05-01T06:51:33Z</time>
      </trkpt>
      <trkpt lat="42.27524" lon="2.47178">
        <ele>609.162</ele>
        <time>2010-05-01T06:51:47Z</time>
      </trkpt>
      <trkpt lat="42.27531" lon="2.47178">
        <ele>612.538</ele>
        <time>2010-05-01T06:52:02Z</time>
      </trkpt>
      <trkpt lat="42.27533" lon="2.47174">
        <ele>615.942</ele>
        <time>2010-05-01T06:52:16Z</time>
      </trkpt>
      <trkpt lat="42.27539" lon="2.47164">
        <ele>618.762</ele>
        <time>2010-05-01T06:52:28Z</time>
      </trkpt>
      <trkpt lat="42.27543" lon="2.47161">
        <ele>622.183</ele>
        <time>2010-05-01T06:52:42Z</time>
      </trkpt>
      <trkpt lat="42.27551" lon="2.47153">
        <ele>625.511</ele>
        <time>2010-05-01T06:52:53Z</time>
      </trkpt>
      <trkpt lat="42.27553" lon="2.47145">
        <ele>628.406</ele>
        <time>2010-05-01T06:53:07Z</time>
      </trkpt>
      <trkpt lat="42.27556" lon="2.47136">
        <ele>631.254</ele>
        <time>2010-05-01T06:53:19Z</time>
      </trkpt>
      <trkpt lat="42.27566" lon="2.47121">
        <ele>634.694</ele>
        <time>2010-05-01T06:53:33Z</time>
      </trkpt>
      <trkpt lat="42.27566" lon="2.47118">
        <ele>634.638</ele>
        <time>2010-05-01T06:53:36Z</time>
      </trkpt>
      <trkpt lat="42.27574" lon="2.47103">
        <ele>634.692</ele>
        <time>2010-05-01T06:53:56Z</time>
      </trkpt>
      <trkpt lat="42.27586" lon="2.47102">
        <ele>631.748</ele>
        <time>2010-05-01T06:54:08Z</time>
      </trkpt>
      <trkpt lat="42.27597" lon="2.47108">
        <ele>628.492</ele>
        <time>2010-05-01T06:54:21Z</time>
      </trkpt>
      <trkpt lat="42.27599" lon="2.4711">
        <ele>627.936</ele>
        <time>2010-05-01T06:54:23Z</time>
      </trkpt>
      <trkpt lat="42.27609" lon="2.47117">
        <ele>627.417</ele>
        <time>2010-05-01T06:54:30Z</time>
      </trkpt>
      <trkpt lat="42.27612" lon="2.47125">
        <ele>626.418</ele>
        <time>2010-05-01T06:54:35Z</time>
      </trkpt>
      <trkpt lat="42.27609" lon="2.47144">
        <ele>623.606</ele>
        <time>2010-05-01T06:54:44Z</time>
      </trkpt>
      <trkpt lat="42.27609" lon="2.47146">
        <ele>623.161</ele>
        <time>2010-05-01T06:54:45Z</time>
      </trkpt>
      <trkpt lat="42.27612" lon="2.47152">
        <ele>622.151</ele>
        <time>2010-05-01T06:54:49Z</time>
      </trkpt>
      <trkpt lat="42.27618" lon="2.47157">
        <ele>621.695</ele>
        <time>2010-05-01T06:54:52Z</time>
      </trkpt>
      <trkpt lat="42.27627" lon="2.47163">
        <ele>617.849</ele>
        <time>2010-05-01T06:55:04Z</time>
      </trkpt>
      <trkpt lat="42.27632" lon="2.47169">
        <ele>616.365</ele>
        <time>2010-05-01T06:55:09Z</time>
      </trkpt>
      <trkpt lat="42.27649" lon="2.47192">
        <ele>613.999</ele>
        <time>2010-05-01T06:55:24Z</time>
      </trkpt>
      <trkpt lat="42.27656" lon="2.472">
        <ele>613.571</ele>
        <time>2010-05-01T06:55:29Z</time>
      </trkpt>
      <trkpt lat="42.27672" lon="2.47216">
        <ele>614.941</ele>
        <time>2010-05-01T06:55:42Z</time>
      </trkpt>
      <trkpt lat="42.27684" lon="2.47228">
        <ele>616.315</ele>
        <time>2010-05-01T06:55:54Z</time>
      </trkpt>
      <trkpt lat="42.27687" lon="2.4723">
        <ele>616.806</ele>
        <time>2010-05-01T06:55:59Z</time>
      </trkpt>
      <trkpt lat="42.27697" lon="2.47249">
        <ele>618.375</ele>
        <time>2010-05-01T06:56:14Z</time>
      </trkpt>
      <trkpt lat="42.27707" lon="2.4727">
        <ele>621.165</ele>
        <time>2010-05-01T06:56:32Z</time>
      </trkpt>
      <trkpt lat="42.27709" lon="2.47276">
        <ele>621.169</ele>
        <time>2010-05-01T06:56:35Z</time>
      </trkpt>
      <trkpt lat="42.27716" lon="2.47285">
        <ele>621.113</ele>
        <time>2010-05-01T06:56:41Z</time>
      </trkpt>
      <trkpt lat="42.27728" lon="2.47302">
        <ele>623.679</ele>
        <time>2010-05-01T06:56:57Z</time>
      </trkpt>
      <trkpt lat="42.27733" lon="2.47306">
        <ele>622.633</ele>
        <time>2010-05-01T06:57:07Z</time>
      </trkpt>
      <trkpt lat="42.27733" lon="2.47308">
        <ele>623.179</ele>
        <time>2010-05-01T06:57:10Z</time>
      </trkpt>
      <trkpt lat="42.27731" lon="2.47329">
        <ele>622.605</ele>
        <time>2010-05-01T06:57:19Z</time>
      </trkpt>
      <trkpt lat="42.27742" lon="2.47357">
        <ele>623.625</ele>
        <time>2010-05-01T06:57:32Z</time>
      </trkpt>
      <trkpt lat="42.27743" lon="2.47359">
        <ele>623.606</ele>
        <time>2010-05-01T06:57:33Z</time>
      </trkpt>
      <trkpt lat="42.27755" lon="2.47376">
        <ele>625.545</ele>
        <time>2010-05-01T06:57:47Z</time>
      </trkpt>
      <trkpt lat="42.27761" lon="2.47401">
        <ele>625.595</ele>
        <time>2010-05-01T06:58:02Z</time>
      </trkpt>
      <trkpt lat="42.27762" lon="2.47405">
        <ele>625.539</ele>
        <time>2010-05-01T06:58:04Z</time>
      </trkpt>
      <trkpt lat="42.27768" lon="2.47414">
        <ele>625.533</ele>
        <time>2010-05-01T06:58:09Z</time>
      </trkpt>
      <trkpt lat="42.27782" lon="2.47438">
        <ele>625.579</ele>
        <time>2010-05-01T06:58:21Z</time>
      </trkpt>
      <trkpt lat="42.27786" lon="2.47455">
        <ele>627.453</ele>
        <time>2010-05-01T06:58:33Z</time>
      </trkpt>
      <trkpt lat="42.2779" lon="2.47465">
        <ele>626.998</ele>
        <time>2010-05-01T06:58:37Z</time>
      </trkpt>
      <trkpt lat="42.2779" lon="2.47474">
        <ele>627.415</ele>
        <time>2010-05-01T06:58:41Z</time>
      </trkpt>
      <trkpt lat="42.27804" lon="2.47506">
        <ele>627.926</ele>
        <time>2010-05-01T06:58:53Z</time>
      </trkpt>
      <trkpt lat="42.27811" lon="2.47523">
        <ele>628.406</ele>
        <time>2010-05-01T06:59:04Z</time>
      </trkpt>
      <trkpt lat="42.27819" lon="2.47526">
        <ele>629.857</ele>
        <time>2010-05-01T06:59:21Z</time>
      </trkpt>
      <trkpt lat="42.27805" lon="2.47485">
        <ele>632.277</ele>
        <time>2010-05-01T06:59:38Z</time>
      </trkpt>
      <trkpt lat="42.27813" lon="2.47478">
        <ele>633.631</ele>
        <time>2010-05-01T06:59:51Z</time>
      </trkpt>
      <trkpt lat="42.27816" lon="2.47481">
        <ele>633.665</ele>
        <time>2010-05-01T06:59:54Z</time>
      </trkpt>
      <trkpt lat="42.27834" lon="2.47511">
        <ele>636.551</ele>
        <time>2010-05-01T07:00:14Z</time>
      </trkpt>
      <trkpt lat="42.27843" lon="2.4752">
        <ele>637.535</ele>
        <time>2010-05-01T07:00:21Z</time>
      </trkpt>
      <trkpt lat="42.27865" lon="2.47525">
        <ele>639.991</ele>
        <time>2010-05-01T07:00:37Z</time>
      </trkpt>
      <trkpt lat="42.2787" lon="2.47525">
        <ele>640.481</ele>
        <time>2010-05-01T07:00:41Z</time>
      </trkpt>
      <trkpt lat="42.27878" lon="2.47523">
        <ele>641.319</ele>
        <time>2010-05-01T07:00:48Z</time>
      </trkpt>
      <trkpt lat="42.27899" lon="2.4751">
        <ele>643.306</ele>
        <time>2010-05-01T07:01:06Z</time>
      </trkpt>
      <trkpt lat="42.27918" lon="2.47501">
        <ele>645.267</ele>
        <time>2010-05-01T07:01:19Z</time>
      </trkpt>
      <trkpt lat="42.2792" lon="2.47499">
        <ele>645.227</ele>
        <time>2010-05-01T07:01:21Z</time>
      </trkpt>
      <trkpt lat="42.27928" lon="2.47491">
        <ele>646.641</ele>
        <time>2010-05-01T07:01:29Z</time>
      </trkpt>
      <trkpt lat="42.27945" lon="2.47476">
        <ele>648.155</ele>
        <time>2010-05-01T07:01:43Z</time>
      </trkpt>
      <trkpt lat="42.27962" lon="2.47461">
        <ele>650.021</ele>
        <time>2010-05-01T07:01:57Z</time>
      </trkpt>
      <trkpt lat="42.27982" lon="2.47454">
        <ele>651.955</ele>
        <time>2010-05-01T07:02:11Z</time>
      </trkpt>
      <trkpt lat="42.28001" lon="2.47441">
        <ele>653.846</ele>
        <time>2010-05-01T07:02:26Z</time>
      </trkpt>
      <trkpt lat="42.28021" lon="2.47425">
        <ele>655.388</ele>
        <time>2010-05-01T07:02:40Z</time>
      </trkpt>
      <trkpt lat="42.2803" lon="2.47413">
        <ele>657.216</ele>
        <time>2010-05-01T07:02:51Z</time>
      </trkpt>
      <trkpt lat="42.28032" lon="2.47411">
        <ele>657.206</ele>
        <time>2010-05-01T07:02:53Z</time>
      </trkpt>
      <trkpt lat="42.28036" lon="2.47408">
        <ele>658.272</ele>
        <time>2010-05-01T07:02:57Z</time>
      </trkpt>
      <trkpt lat="42.28041" lon="2.47409">
        <ele>659.172</ele>
        <time>2010-05-01T07:03:01Z</time>
      </trkpt>
      <trkpt lat="42.28057" lon="2.47406">
        <ele>661.086</ele>
        <time>2010-05-01T07:03:14Z</time>
      </trkpt>
      <trkpt lat="42.28076" lon="2.47401">
        <ele>663.47</ele>
        <time>2010-05-01T07:03:27Z</time>
      </trkpt>
      <trkpt lat="42.28077" lon="2.474">
        <ele>663.416</ele>
        <time>2010-05-01T07:03:28Z</time>
      </trkpt>
      <trkpt lat="42.28082" lon="2.47396">
        <ele>664.95</ele>
        <time>2010-05-01T07:03:33Z</time>
      </trkpt>
      <trkpt lat="42.28083" lon="2.47392">
        <ele>665.471</ele>
        <time>2010-05-01T07:03:36Z</time>
      </trkpt>
      <trkpt lat="42.28085" lon="2.47391">
        <ele>666.341</ele>
        <time>2010-05-01T07:03:40Z</time>
      </trkpt>
      <trkpt lat="42.28063" lon="2.47389">
        <ele>668.315</ele>
        <time>2010-05-01T07:03:54Z</time>
      </trkpt>
      <trkpt lat="42.28052" lon="2.47389">
        <ele>669.206</ele>
        <time>2010-05-01T07:04:01Z</time>
      </trkpt>
      <trkpt lat="42.28041" lon="2.4739">
        <ele>670.255</ele>
        <time>2010-05-01T07:04:07Z</time>
      </trkpt>
      <trkpt lat="42.28038" lon="2.47393">
        <ele>670.225</ele>
        <time>2010-05-01T07:04:09Z</time>
      </trkpt>
      <trkpt lat="42.28033" lon="2.47398">
        <ele>671.169</ele>
        <time>2010-05-01T07:04:14Z</time>
      </trkpt>
      <trkpt lat="42.28022" lon="2.47397">
        <ele>672.653</ele>
        <time>2010-05-01T07:04:21Z</time>
      </trkpt>
      <trkpt lat="42.28017" lon="2.47392">
        <ele>673.169</ele>
        <time>2010-05-01T07:04:25Z</time>
      </trkpt>
      <trkpt lat="42.28019" lon="2.47385">
        <ele>674.083</ele>
        <time>2010-05-01T07:04:28Z</time>
      </trkpt>
      <trkpt lat="42.28036" lon="2.47375">
        <ele>675.936</ele>
        <time>2010-05-01T07:04:41Z</time>
      </trkpt>
      <trkpt lat="42.28041" lon="2.4737">
        <ele>676.417</ele>
        <time>2010-05-01T07:04:45Z</time>
      </trkpt>
      <trkpt lat="42.28055" lon="2.47365">
        <ele>678.818</ele>
        <time>2010-05-01T07:04:56Z</time>
      </trkpt>
      <trkpt lat="42.28057" lon="2.47365">
        <ele>678.806</ele>
        <time>2010-05-01T07:04:58Z</time>
      </trkpt>
      <trkpt lat="42.28063" lon="2.47361">
        <ele>680.321</ele>
        <time>2010-05-01T07:05:04Z</time>
      </trkpt>
      <trkpt lat="42.28085" lon="2.47347">
        <ele>683.651</ele>
        <time>2010-05-01T07:05:19Z</time>
      </trkpt>
      <trkpt lat="42.28088" lon="2.47344">
        <ele>684.115</ele>
        <time>2010-05-01T07:05:22Z</time>
      </trkpt>
      <trkpt lat="42.28083" lon="2.47338">
        <ele>685.629</ele>
        <time>2010-05-01T07:05:26Z</time>
      </trkpt>
      <trkpt lat="42.28071" lon="2.47338">
        <ele>687.085</ele>
        <time>2010-05-01T07:05:34Z</time>
      </trkpt>
      <trkpt lat="42.28048" lon="2.47346">
        <ele>689.449</ele>
        <time>2010-05-01T07:05:48Z</time>
      </trkpt>
      <trkpt lat="42.28032" lon="2.47348">
        <ele>691.848</ele>
        <time>2010-05-01T07:06:02Z</time>
      </trkpt>
      <trkpt lat="42.2802" lon="2.47342">
        <ele>694.761</ele>
        <time>2010-05-01T07:06:15Z</time>
      </trkpt>
      <trkpt lat="42.28004" lon="2.47338">
        <ele>696.117</ele>
        <time>2010-05-01T07:06:27Z</time>
      </trkpt>
      <trkpt lat="42.2799" lon="2.47345">
        <ele>698.106</ele>
        <time>2010-05-01T07:06:37Z</time>
      </trkpt>
      <trkpt lat="42.2797" lon="2.47343">
        <ele>700.552</ele>
        <time>2010-05-01T07:06:53Z</time>
      </trkpt>
      <trkpt lat="42.27967" lon="2.47344">
        <ele>700.552</ele>
        <time>2010-05-01T07:06:55Z</time>
      </trkpt>
      <trkpt lat="42.27944" lon="2.47346">
        <ele>702.456</ele>
        <time>2010-05-01T07:07:09Z</time>
      </trkpt>
      <trkpt lat="42.27942" lon="2.47349">
        <ele>702.91</ele>
        <time>2010-05-01T07:07:11Z</time>
      </trkpt>
      <trkpt lat="42.27926" lon="2.47347">
        <ele>704.376</ele>
        <time>2010-05-01T07:07:21Z</time>
      </trkpt>
      <trkpt lat="42.27919" lon="2.47345">
        <ele>705.72</ele>
        <time>2010-05-01T07:07:28Z</time>
      </trkpt>
      <trkpt lat="42.27898" lon="2.47333">
        <ele>707.793</ele>
        <time>2010-05-01T07:07:43Z</time>
      </trkpt>
      <trkpt lat="42.27884" lon="2.47309">
        <ele>709.665</ele>
        <time>2010-05-01T07:07:55Z</time>
      </trkpt>
      <trkpt lat="42.27883" lon="2.47305">
        <ele>709.621</ele>
        <time>2010-05-01T07:07:57Z</time>
      </trkpt>
      <trkpt lat="42.27892" lon="2.47294">
        <ele>712.006</ele>
        <time>2010-05-01T07:08:08Z</time>
      </trkpt>
      <trkpt lat="42.27898" lon="2.47293">
        <ele>713.047</ele>
        <time>2010-05-01T07:08:12Z</time>
      </trkpt>
      <trkpt lat="42.27913" lon="2.47291">
        <ele>714.477</ele>
        <time>2010-05-01T07:08:23Z</time>
      </trkpt>
      <trkpt lat="42.27936" lon="2.47279">
        <ele>716.891</ele>
        <time>2010-05-01T07:08:38Z</time>
      </trkpt>
      <trkpt lat="42.27947" lon="2.47276">
        <ele>718.735</ele>
        <time>2010-05-01T07:08:45Z</time>
      </trkpt>
      <trkpt lat="42.27943" lon="2.47261">
        <ele>721.131</ele>
        <time>2010-05-01T07:08:57Z</time>
      </trkpt>
      <trkpt lat="42.27926" lon="2.47241">
        <ele>722.685</ele>
        <time>2010-05-01T07:09:11Z</time>
      </trkpt>
      <trkpt lat="42.27925" lon="2.47235">
        <ele>723.047</ele>
        <time>2010-05-01T07:09:14Z</time>
      </trkpt>
      <trkpt lat="42.27932" lon="2.47224">
        <ele>724.529</ele>
        <time>2010-05-01T07:09:21Z</time>
      </trkpt>
      <trkpt lat="42.27933" lon="2.47223">
        <ele>725.021</ele>
        <time>2010-05-01T07:09:23Z</time>
      </trkpt>
      <trkpt lat="42.27938" lon="2.47222">
        <ele>725.906</ele>
        <time>2010-05-01T07:09:27Z</time>
      </trkpt>
      <trkpt lat="42.27948" lon="2.47222">
        <ele>726.452</ele>
        <time>2010-05-01T07:09:34Z</time>
      </trkpt>
      <trkpt lat="42.27971" lon="2.47224">
        <ele>728.322</ele>
        <time>2010-05-01T07:09:51Z</time>
      </trkpt>
      <trkpt lat="42.27983" lon="2.47224">
        <ele>729.326</ele>
        <time>2010-05-01T07:10:03Z</time>
      </trkpt>
      <trkpt lat="42.27994" lon="2.47223">
        <ele>730.75</ele>
        <time>2010-05-01T07:10:13Z</time>
      </trkpt>
      <trkpt lat="42.28019" lon="2.47216">
        <ele>733.186</ele>
        <time>2010-05-01T07:10:28Z</time>
      </trkpt>
      <trkpt lat="42.28034" lon="2.47215">
        <ele>734.69</ele>
        <time>2010-05-01T07:10:38Z</time>
      </trkpt>
      <trkpt lat="42.28048" lon="2.47208">
        <ele>735.586</ele>
        <time>2010-05-01T07:10:50Z</time>
      </trkpt>
      <trkpt lat="42.28057" lon="2.47198">
        <ele>737.06</ele>
        <time>2010-05-01T07:11:07Z</time>
      </trkpt>
      <trkpt lat="42.28062" lon="2.47195">
        <ele>740.426</ele>
        <time>2010-05-01T07:11:22Z</time>
      </trkpt>
      <trkpt lat="42.2807" lon="2.4719">
        <ele>743.206</ele>
        <time>2010-05-01T07:11:33Z</time>
      </trkpt>
      <trkpt lat="42.28082" lon="2.47183">
        <ele>745.286</ele>
        <time>2010-05-01T07:11:44Z</time>
      </trkpt>
      <trkpt lat="42.28103" lon="2.47171">
        <ele>747.156</ele>
        <time>2010-05-01T07:11:58Z</time>
      </trkpt>
      <trkpt lat="42.28124" lon="2.47172">
        <ele>748.56</ele>
        <time>2010-05-01T07:12:09Z</time>
      </trkpt>
      <trkpt lat="42.28147" lon="2.47177">
        <ele>750.024</ele>
        <time>2010-05-01T07:12:24Z</time>
      </trkpt>
      <trkpt lat="42.28152" lon="2.47176">
        <ele>750.97</ele>
        <time>2010-05-01T07:12:30Z</time>
      </trkpt>
      <trkpt lat="42.28157" lon="2.47177">
        <ele>751.414</ele>
        <time>2010-05-01T07:12:35Z</time>
      </trkpt>
      <trkpt lat="42.2817" lon="2.47175">
        <ele>754.311</ele>
        <time>2010-05-01T07:12:47Z</time>
      </trkpt>
      <trkpt lat="42.28188" lon="2.47177">
        <ele>757.721</ele>
        <time>2010-05-01T07:13:02Z</time>
      </trkpt>
      <trkpt lat="42.28211" lon="2.47176">
        <ele>760.503</ele>
        <time>2010-05-01T07:13:20Z</time>
      </trkpt>
      <trkpt lat="42.28229" lon="2.47181">
        <ele>763.406</ele>
        <time>2010-05-01T07:13:38Z</time>
      </trkpt>
      <trkpt lat="42.28242" lon="2.47187">
        <ele>765.349</ele>
        <time>2010-05-01T07:13:47Z</time>
      </trkpt>
      <trkpt lat="42.28263" lon="2.47203">
        <ele>767.369</ele>
        <time>2010-05-01T07:14:01Z</time>
      </trkpt>
      <trkpt lat="42.28264" lon="2.47204">
        <ele>767.363</ele>
        <time>2010-05-01T07:14:04Z</time>
      </trkpt>
      <trkpt lat="42.2827" lon="2.47211">
        <ele>767.387</ele>
        <time>2010-05-01T07:14:09Z</time>
      </trkpt>
      <trkpt lat="42.28292" lon="2.47221">
        <ele>767.853</ele>
        <time>2010-05-01T07:14:25Z</time>
      </trkpt>
      <trkpt lat="42.28304" lon="2.47217">
        <ele>770.657</ele>
        <time>2010-05-01T07:14:37Z</time>
      </trkpt>
      <trkpt lat="42.2833" lon="2.47232">
        <ele>771.653</ele>
        <time>2010-05-01T07:14:52Z</time>
      </trkpt>
      <trkpt lat="42.28353" lon="2.4725">
        <ele>772.604</ele>
        <time>2010-05-01T07:15:05Z</time>
      </trkpt>
      <trkpt lat="42.28366" lon="2.4728">
        <ele>773.514</ele>
        <time>2010-05-01T07:15:19Z</time>
      </trkpt>
      <trkpt lat="42.28372" lon="2.47316">
        <ele>774.506</ele>
        <time>2010-05-01T07:15:32Z</time>
      </trkpt>
      <trkpt lat="42.28374" lon="2.47329">
        <ele>777.413</ele>
        <time>2010-05-01T07:15:43Z</time>
      </trkpt>
      <trkpt lat="42.2838" lon="2.47329">
        <ele>778.863</ele>
        <time>2010-05-01T07:15:49Z</time>
      </trkpt>
      <trkpt lat="42.28394" lon="2.47336">
        <ele>780.777</ele>
        <time>2010-05-01T07:16:02Z</time>
      </trkpt>
      <trkpt lat="42.28396" lon="2.47335">
        <ele>781.291</ele>
        <time>2010-05-01T07:16:04Z</time>
      </trkpt>
      <trkpt lat="42.28412" lon="2.47349">
        <ele>783.137</ele>
        <time>2010-05-01T07:16:17Z</time>
      </trkpt>
      <trkpt lat="42.28419" lon="2.47351">
        <ele>784.171</ele>
        <time>2010-05-01T07:16:22Z</time>
      </trkpt>
      <trkpt lat="42.28424" lon="2.47353">
        <ele>784.698</ele>
        <time>2010-05-01T07:16:27Z</time>
      </trkpt>
      <trkpt lat="42.28431" lon="2.47383">
        <ele>787.015</ele>
        <time>2010-05-01T07:16:40Z</time>
      </trkpt>
      <trkpt lat="42.28437" lon="2.47393">
        <ele>788.426</ele>
        <time>2010-05-01T07:16:47Z</time>
      </trkpt>
      <trkpt lat="42.28458" lon="2.47415">
        <ele>791.306</ele>
        <time>2010-05-01T07:17:04Z</time>
      </trkpt>
      <trkpt lat="42.28476" lon="2.4743">
        <ele>792.757</ele>
        <time>2010-05-01T07:17:18Z</time>
      </trkpt>
      <trkpt lat="42.28485" lon="2.47448">
        <ele>792.787</ele>
        <time>2010-05-01T07:17:30Z</time>
      </trkpt>
      <trkpt lat="42.28481" lon="2.47462">
        <ele>792.321</ele>
        <time>2010-05-01T07:17:44Z</time>
      </trkpt>
      <trkpt lat="42.28469" lon="2.47491">
        <ele>794.215</ele>
        <time>2010-05-01T07:18:16Z</time>
      </trkpt>
      <trkpt lat="42.28464" lon="2.4753">
        <ele>793.271</ele>
        <time>2010-05-01T07:18:35Z</time>
      </trkpt>
      <trkpt lat="42.28464" lon="2.47537">
        <ele>793.295</ele>
        <time>2010-05-01T07:18:39Z</time>
      </trkpt>
      <trkpt lat="42.28464" lon="2.47559">
        <ele>793.219</ele>
        <time>2010-05-01T07:18:52Z</time>
      </trkpt>
      <trkpt lat="42.28463" lon="2.47568">
        <ele>793.209</ele>
        <time>2010-05-01T07:18:55Z</time>
      </trkpt>
      <trkpt lat="42.28467" lon="2.47592">
        <ele>793.219</ele>
        <time>2010-05-01T07:18:59Z</time>
      </trkpt>
      <trkpt lat="42.28451" lon="2.47632">
        <ele>793.206</ele>
        <time>2010-05-01T07:19:12Z</time>
      </trkpt>
      <trkpt lat="42.28431" lon="2.47662">
        <ele>793.779</ele>
        <time>2010-05-01T07:19:25Z</time>
      </trkpt>
      <trkpt lat="42.2843" lon="2.47665">
        <ele>793.799</ele>
        <time>2010-05-01T07:19:26Z</time>
      </trkpt>
      <trkpt lat="42.28421" lon="2.47692">
        <ele>796.143</ele>
        <time>2010-05-01T07:19:39Z</time>
      </trkpt>
      <trkpt lat="42.28411" lon="2.47725">
        <ele>798.027</ele>
        <time>2010-05-01T07:19:53Z</time>
      </trkpt>
      <trkpt lat="42.28395" lon="2.47756">
        <ele>798.533</ele>
        <time>2010-05-01T07:20:07Z</time>
      </trkpt>
      <trkpt lat="42.28379" lon="2.47793">
        <ele>796.687</ele>
        <time>2010-05-01T07:20:18Z</time>
      </trkpt>
      <trkpt lat="42.2838" lon="2.47828">
        <ele>793.757</ele>
        <time>2010-05-01T07:20:28Z</time>
      </trkpt>
      <trkpt lat="42.28382" lon="2.47832">
        <ele>793.2</ele>
        <time>2010-05-01T07:20:31Z</time>
      </trkpt>
      <trkpt lat="42.28394" lon="2.4785">
        <ele>791.82</ele>
        <time>2010-05-01T07:20:39Z</time>
      </trkpt>
      <trkpt lat="42.28391" lon="2.47888">
        <ele>792.706</ele>
        <time>2010-05-01T07:20:51Z</time>
      </trkpt>
      <trkpt lat="42.28396" lon="2.4793">
        <ele>792.333</ele>
        <time>2010-05-01T07:21:04Z</time>
      </trkpt>
      <trkpt lat="42.28404" lon="2.47973">
        <ele>791.393</ele>
        <time>2010-05-01T07:21:18Z</time>
      </trkpt>
      <trkpt lat="42.28404" lon="2.47976">
        <ele>791.347</ele>
        <time>2010-05-01T07:21:19Z</time>
      </trkpt>
      <trkpt lat="42.28391" lon="2.48002">
        <ele>788.991</ele>
        <time>2010-05-01T07:21:28Z</time>
      </trkpt>
      <trkpt lat="42.28373" lon="2.48028">
        <ele>787.027</ele>
        <time>2010-05-01T07:21:38Z</time>
      </trkpt>
      <trkpt lat="42.28367" lon="2.48046">
        <ele>785.521</ele>
        <time>2010-05-01T07:21:43Z</time>
      </trkpt>
      <trkpt lat="42.28359" lon="2.48098">
        <ele>784.121</ele>
        <time>2010-05-01T07:21:58Z</time>
      </trkpt>
      <trkpt lat="42.2836" lon="2.48133">
        <ele>780.741</ele>
        <time>2010-05-01T07:22:09Z</time>
      </trkpt>
      <trkpt lat="42.28362" lon="2.48155">
        <ele>777.405</ele>
        <time>2010-05-01T07:22:16Z</time>
      </trkpt>
      <trkpt lat="42.28371" lon="2.48183">
        <ele>774.006</ele>
        <time>2010-05-01T07:22:25Z</time>
      </trkpt>
      <trkpt lat="42.28386" lon="2.48224">
        <ele>771.12</ele>
        <time>2010-05-01T07:22:37Z</time>
      </trkpt>
      <trkpt lat="42.28399" lon="2.48238">
        <ele>773.07</ele>
        <time>2010-05-01T07:22:48Z</time>
      </trkpt>
      <trkpt lat="42.28411" lon="2.48251">
        <ele>775.084</ele>
        <time>2010-05-01T07:22:59Z</time>
      </trkpt>
      <trkpt lat="42.28425" lon="2.48264">
        <ele>775.948</ele>
        <time>2010-05-01T07:23:09Z</time>
      </trkpt>
      <trkpt lat="42.28442" lon="2.48284">
        <ele>777.854</ele>
        <time>2010-05-01T07:23:24Z</time>
      </trkpt>
      <trkpt lat="42.28452" lon="2.48291">
        <ele>778.888</ele>
        <time>2010-05-01T07:23:31Z</time>
      </trkpt>
      <trkpt lat="42.2846" lon="2.48293">
        <ele>780.277</ele>
        <time>2010-05-01T07:23:37Z</time>
      </trkpt>
      <trkpt lat="42.2848" lon="2.48291">
        <ele>780.761</ele>
        <time>2010-05-01T07:23:51Z</time>
      </trkpt>
      <trkpt lat="42.28498" lon="2.4829">
        <ele>782.227</ele>
        <time>2010-05-01T07:24:03Z</time>
      </trkpt>
      <trkpt lat="42.28502" lon="2.4829">
        <ele>782.206</ele>
        <time>2010-05-01T07:24:05Z</time>
      </trkpt>
      <trkpt lat="42.28519" lon="2.48303">
        <ele>783.165</ele>
        <time>2010-05-01T07:24:17Z</time>
      </trkpt>
      <trkpt lat="42.2852" lon="2.48303">
        <ele>783.135</ele>
        <time>2010-05-01T07:24:19Z</time>
      </trkpt>
      <trkpt lat="42.28533" lon="2.48324">
        <ele>784.639</ele>
        <time>2010-05-01T07:24:29Z</time>
      </trkpt>
      <trkpt lat="42.28537" lon="2.4834">
        <ele>786.043</ele>
        <time>2010-05-01T07:24:37Z</time>
      </trkpt>
      <trkpt lat="42.28545" lon="2.48366">
        <ele>787.549</ele>
        <time>2010-05-01T07:24:49Z</time>
      </trkpt>
      <trkpt lat="42.28545" lon="2.48374">
        <ele>787.923</ele>
        <time>2010-05-01T07:24:53Z</time>
      </trkpt>
      <trkpt lat="42.28549" lon="2.48406">
        <ele>788.433</ele>
        <time>2010-05-01T07:25:07Z</time>
      </trkpt>
      <trkpt lat="42.28563" lon="2.48425">
        <ele>789.923</ele>
        <time>2010-05-01T07:25:21Z</time>
      </trkpt>
      <trkpt lat="42.28578" lon="2.48451">
        <ele>791.315</ele>
        <time>2010-05-01T07:25:36Z</time>
      </trkpt>
      <trkpt lat="42.28594" lon="2.48461">
        <ele>791.806</ele>
        <time>2010-05-01T07:25:48Z</time>
      </trkpt>
      <trkpt lat="42.28614" lon="2.48466">
        <ele>791.871</ele>
        <time>2010-05-01T07:26:02Z</time>
      </trkpt>
      <trkpt lat="42.28628" lon="2.48471">
        <ele>791.871</ele>
        <time>2010-05-01T07:26:17Z</time>
      </trkpt>
      <trkpt lat="42.28646" lon="2.4849">
        <ele>791.825</ele>
        <time>2010-05-01T07:26:29Z</time>
      </trkpt>
      <trkpt lat="42.28664" lon="2.48513">
        <ele>793.219</ele>
        <time>2010-05-01T07:26:42Z</time>
      </trkpt>
      <trkpt lat="42.28681" lon="2.48528">
        <ele>795.135</ele>
        <time>2010-05-01T07:26:55Z</time>
      </trkpt>
      <trkpt lat="42.28696" lon="2.4855">
        <ele>795.129</ele>
        <time>2010-05-01T07:27:06Z</time>
      </trkpt>
      <trkpt lat="42.28709" lon="2.48584">
        <ele>796.635</ele>
        <time>2010-05-01T07:27:19Z</time>
      </trkpt>
      <trkpt lat="42.28721" lon="2.48605">
        <ele>797.186</ele>
        <time>2010-05-01T07:27:28Z</time>
      </trkpt>
      <trkpt lat="42.28729" lon="2.48608">
        <ele>797.114</ele>
        <time>2010-05-01T07:27:32Z</time>
      </trkpt>
      <trkpt lat="42.28753" lon="2.48626">
        <ele>795.606</ele>
        <time>2010-05-01T07:27:44Z</time>
      </trkpt>
      <trkpt lat="42.2877" lon="2.48651">
        <ele>796.161</ele>
        <time>2010-05-01T07:27:56Z</time>
      </trkpt>
      <trkpt lat="42.28783" lon="2.4869">
        <ele>796.171</ele>
        <time>2010-05-01T07:28:10Z</time>
      </trkpt>
      <trkpt lat="42.288" lon="2.48718">
        <ele>797.645</ele>
        <time>2010-05-01T07:28:22Z</time>
      </trkpt>
      <trkpt lat="42.28816" lon="2.4875">
        <ele>796.689</ele>
        <time>2010-05-01T07:28:35Z</time>
      </trkpt>
      <trkpt lat="42.28816" lon="2.48753">
        <ele>796.615</ele>
        <time>2010-05-01T07:28:36Z</time>
      </trkpt>
      <trkpt lat="42.28817" lon="2.48763">
        <ele>796.139</ele>
        <time>2010-05-01T07:28:39Z</time>
      </trkpt>
      <trkpt lat="42.28822" lon="2.48772">
        <ele>794.747</ele>
        <time>2010-05-01T07:28:43Z</time>
      </trkpt>
      <trkpt lat="42.28829" lon="2.48777">
        <ele>793.729</ele>
        <time>2010-05-01T07:28:46Z</time>
      </trkpt>
      <trkpt lat="42.2884" lon="2.4878">
        <ele>792.321</ele>
        <time>2010-05-01T07:28:51Z</time>
      </trkpt>
      <trkpt lat="42.2886" lon="2.48781">
        <ele>792.306</ele>
        <time>2010-05-01T07:29:02Z</time>
      </trkpt>
      <trkpt lat="42.2888" lon="2.48786">
        <ele>791.892</ele>
        <time>2010-05-01T07:29:13Z</time>
      </trkpt>
      <trkpt lat="42.28907" lon="2.48807">
        <ele>792.332</ele>
        <time>2010-05-01T07:29:24Z</time>
      </trkpt>
      <trkpt lat="42.28922" lon="2.48839">
        <ele>792.796</ele>
        <time>2010-05-01T07:29:35Z</time>
      </trkpt>
      <trkpt lat="42.28931" lon="2.4887">
        <ele>793.73</ele>
        <time>2010-05-01T07:29:47Z</time>
      </trkpt>
      <trkpt lat="42.28932" lon="2.48895">
        <ele>796.646</ele>
        <time>2010-05-01T07:29:59Z</time>
      </trkpt>
      <trkpt lat="42.2893" lon="2.48923">
        <ele>799.02</ele>
        <time>2010-05-01T07:30:13Z</time>
      </trkpt>
      <trkpt lat="42.28934" lon="2.48934">
        <ele>800.462</ele>
        <time>2010-05-01T07:30:19Z</time>
      </trkpt>
      <trkpt lat="42.28941" lon="2.48962">
        <ele>801.483</ele>
        <time>2010-05-01T07:30:34Z</time>
      </trkpt>
      <trkpt lat="42.2893" lon="2.49007">
        <ele>799.011</ele>
        <time>2010-05-01T07:30:47Z</time>
      </trkpt>
      <trkpt lat="42.2894" lon="2.49045">
        <ele>797.606</ele>
        <time>2010-05-01T07:31:00Z</time>
      </trkpt>
      <trkpt lat="42.28946" lon="2.49051">
        <ele>797.124</ele>
        <time>2010-05-01T07:31:04Z</time>
      </trkpt>
      <trkpt lat="42.28965" lon="2.49075">
        <ele>797.194</ele>
        <time>2010-05-01T07:31:23Z</time>
      </trkpt>
      <trkpt lat="42.2897" lon="2.49079">
        <ele>797.638</ele>
        <time>2010-05-01T07:31:27Z</time>
      </trkpt>
      <trkpt lat="42.2898" lon="2.49089">
        <ele>799.562</ele>
        <time>2010-05-01T07:31:42Z</time>
      </trkpt>
      <trkpt lat="42.28981" lon="2.4909">
        <ele>798.588</ele>
        <time>2010-05-01T07:32:28Z</time>
      </trkpt>
      <trkpt lat="42.28981" lon="2.49089">
        <ele>799.532</ele>
        <time>2010-05-01T07:32:38Z</time>
      </trkpt>
      <trkpt lat="42.28985" lon="2.49081">
        <ele>799.093</ele>
        <time>2010-05-01T07:32:44Z</time>
      </trkpt>
      <trkpt lat="42.28994" lon="2.49081">
        <ele>797.665</ele>
        <time>2010-05-01T07:32:51Z</time>
      </trkpt>
      <trkpt lat="42.28995" lon="2.49082">
        <ele>798.021</ele>
        <time>2010-05-01T07:33:18Z</time>
      </trkpt>
      <trkpt lat="42.28993" lon="2.49076">
        <ele>797.106</ele>
        <time>2010-05-01T07:33:47Z</time>
      </trkpt>
      <trkpt lat="42.28999" lon="2.49073">
        <ele>796.627</ele>
        <time>2010-05-01T07:33:53Z</time>
      </trkpt>
      <trkpt lat="42.29" lon="2.49071">
        <ele>795.617</ele>
        <time>2010-05-01T07:33:55Z</time>
      </trkpt>
      <trkpt lat="42.29002" lon="2.49069">
        <ele>796.171</ele>
        <time>2010-05-01T07:33:57Z</time>
      </trkpt>
      <trkpt lat="42.29002" lon="2.49057">
        <ele>794.255</ele>
        <time>2010-05-01T07:34:04Z</time>
      </trkpt>
      <trkpt lat="42.29012" lon="2.49056">
        <ele>793.721</ele>
        <time>2010-05-01T07:34:09Z</time>
      </trkpt>
      <trkpt lat="42.29034" lon="2.49058">
        <ele>789.455</ele>
        <time>2010-05-01T07:34:18Z</time>
      </trkpt>
      <trkpt lat="42.29052" lon="2.49049">
        <ele>786.057</ele>
        <time>2010-05-01T07:34:27Z</time>
      </trkpt>
      <trkpt lat="42.29053" lon="2.49047">
        <ele>786</ele>
        <time>2010-05-01T07:34:28Z</time>
      </trkpt>
      <trkpt lat="42.29064" lon="2.49037">
        <ele>783.12</ele>
        <time>2010-05-01T07:34:34Z</time>
      </trkpt>
      <trkpt lat="42.29067" lon="2.49033">
        <ele>782.206</ele>
        <time>2010-05-01T07:34:36Z</time>
      </trkpt>
      <trkpt lat="42.29072" lon="2.49022">
        <ele>780.253</ele>
        <time>2010-05-01T07:34:42Z</time>
      </trkpt>
      <trkpt lat="42.29079" lon="2.49005">
        <ele>776.943</ele>
        <time>2010-05-01T07:34:50Z</time>
      </trkpt>
      <trkpt lat="42.29085" lon="2.48991">
        <ele>774.057</ele>
        <time>2010-05-01T07:34:59Z</time>
      </trkpt>
      <trkpt lat="42.29093" lon="2.48975">
        <ele>770.661</ele>
        <time>2010-05-01T07:35:08Z</time>
      </trkpt>
      <trkpt lat="42.291" lon="2.48969">
        <ele>770.687</ele>
        <time>2010-05-01T07:35:12Z</time>
      </trkpt>
      <trkpt lat="42.29111" lon="2.48955">
        <ele>766.841</ele>
        <time>2010-05-01T07:35:20Z</time>
      </trkpt>
      <trkpt lat="42.29115" lon="2.48949">
        <ele>765.319</ele>
        <time>2010-05-01T07:35:24Z</time>
      </trkpt>
      <trkpt lat="42.29124" lon="2.48934">
        <ele>762.509</ele>
        <time>2010-05-01T07:35:34Z</time>
      </trkpt>
      <trkpt lat="42.29128" lon="2.4893">
        <ele>762.019</ele>
        <time>2010-05-01T07:35:37Z</time>
      </trkpt>
      <trkpt lat="42.29132" lon="2.48922">
        <ele>760.506</ele>
        <time>2010-05-01T07:35:41Z</time>
      </trkpt>
      <trkpt lat="42.29136" lon="2.4892">
        <ele>760.129</ele>
        <time>2010-05-01T07:35:43Z</time>
      </trkpt>
      <trkpt lat="42.29147" lon="2.48912">
        <ele>758.159</ele>
        <time>2010-05-01T07:35:48Z</time>
      </trkpt>
      <trkpt lat="42.29167" lon="2.48897">
        <ele>755.713</ele>
        <time>2010-05-01T07:35:56Z</time>
      </trkpt>
      <trkpt lat="42.29175" lon="2.48889">
        <ele>753.857</ele>
        <time>2010-05-01T07:36:02Z</time>
      </trkpt>
      <trkpt lat="42.29182" lon="2.48889">
        <ele>752.443</ele>
        <time>2010-05-01T07:36:06Z</time>
      </trkpt>
      <trkpt lat="42.29207" lon="2.48879">
        <ele>749.567</ele>
        <time>2010-05-01T07:36:16Z</time>
      </trkpt>
      <trkpt lat="42.29217" lon="2.48873">
        <ele>747.676</ele>
        <time>2010-05-01T07:36:21Z</time>
      </trkpt>
      <trkpt lat="42.29226" lon="2.48876">
        <ele>746.19</ele>
        <time>2010-05-01T07:36:25Z</time>
      </trkpt>
      <trkpt lat="42.2925" lon="2.48863">
        <ele>742.819</ele>
        <time>2010-05-01T07:36:35Z</time>
      </trkpt>
      <trkpt lat="42.2925" lon="2.48859">
        <ele>742.806</ele>
        <time>2010-05-01T07:36:36Z</time>
      </trkpt>
      <trkpt lat="42.29252" lon="2.48855">
        <ele>742.335</ele>
        <time>2010-05-01T07:36:38Z</time>
      </trkpt>
      <trkpt lat="42.29269" lon="2.48843">
        <ele>739.415</ele>
        <time>2010-05-01T07:36:49Z</time>
      </trkpt>
      <trkpt lat="42.29278" lon="2.48835">
        <ele>737.019</ele>
        <time>2010-05-01T07:36:54Z</time>
      </trkpt>
      <trkpt lat="42.29293" lon="2.4882">
        <ele>733.653</ele>
        <time>2010-05-01T07:37:02Z</time>
      </trkpt>
      <trkpt lat="42.29305" lon="2.4881">
        <ele>730.749</ele>
        <time>2010-05-01T07:37:09Z</time>
      </trkpt>
      <trkpt lat="42.29316" lon="2.48785">
        <ele>727.443</ele>
        <time>2010-05-01T07:37:19Z</time>
      </trkpt>
      <trkpt lat="42.29319" lon="2.48779">
        <ele>725.573</ele>
        <time>2010-05-01T07:37:22Z</time>
      </trkpt>
      <trkpt lat="42.29322" lon="2.48779">
        <ele>725.085</ele>
        <time>2010-05-01T07:37:23Z</time>
      </trkpt>
      <trkpt lat="42.29325" lon="2.48774">
        <ele>724.513</ele>
        <time>2010-05-01T07:37:25Z</time>
      </trkpt>
      <trkpt lat="42.29329" lon="2.48773">
        <ele>722.606</ele>
        <time>2010-05-01T07:37:28Z</time>
      </trkpt>
      <trkpt lat="42.29335" lon="2.48769">
        <ele>720.625</ele>
        <time>2010-05-01T07:37:33Z</time>
      </trkpt>
      <trkpt lat="42.29343" lon="2.48777">
        <ele>716.845</ele>
        <time>2010-05-01T07:37:40Z</time>
      </trkpt>
      <trkpt lat="42.29344" lon="2.48776">
        <ele>717.349</ele>
        <time>2010-05-01T07:37:41Z</time>
      </trkpt>
      <trkpt lat="42.29348" lon="2.48774">
        <ele>715.493</ele>
        <time>2010-05-01T07:37:44Z</time>
      </trkpt>
      <trkpt lat="42.29351" lon="2.48773">
        <ele>714.449</ele>
        <time>2010-05-01T07:37:46Z</time>
      </trkpt>
      <trkpt lat="42.29354" lon="2.48767">
        <ele>711.513</ele>
        <time>2010-05-01T07:37:51Z</time>
      </trkpt>
      <trkpt lat="42.29362" lon="2.48765">
        <ele>710.168</ele>
        <time>2010-05-01T07:37:54Z</time>
      </trkpt>
      <trkpt lat="42.29369" lon="2.48751">
        <ele>707.742</ele>
        <time>2010-05-01T07:37:59Z</time>
      </trkpt>
      <trkpt lat="42.29375" lon="2.48741">
        <ele>705.726</ele>
        <time>2010-05-01T07:38:04Z</time>
      </trkpt>
      <trkpt lat="42.29375" lon="2.48739">
        <ele>705.306</ele>
        <time>2010-05-01T07:38:05Z</time>
      </trkpt>
      <trkpt lat="42.29383" lon="2.48732">
        <ele>701.914</ele>
        <time>2010-05-01T07:38:13Z</time>
      </trkpt>
      <trkpt lat="42.29387" lon="2.4873">
        <ele>700.094</ele>
        <time>2010-05-01T07:38:17Z</time>
      </trkpt>
      <trkpt lat="42.29393" lon="2.48721">
        <ele>699.018</ele>
        <time>2010-05-01T07:38:21Z</time>
      </trkpt>
      <trkpt lat="42.29402" lon="2.48714">
        <ele>696.172</ele>
        <time>2010-05-01T07:38:27Z</time>
      </trkpt>
      <trkpt lat="42.29409" lon="2.4871">
        <ele>692.898</ele>
        <time>2010-05-01T07:38:33Z</time>
      </trkpt>
      <trkpt lat="42.2941" lon="2.48711">
        <ele>691.842</ele>
        <time>2010-05-01T07:38:35Z</time>
      </trkpt>
      <trkpt lat="42.29414" lon="2.48716">
        <ele>688.475</ele>
        <time>2010-05-01T07:38:45Z</time>
      </trkpt>
      <trkpt lat="42.29428" lon="2.48712">
        <ele>686.028</ele>
        <time>2010-05-01T07:38:50Z</time>
      </trkpt>
      <trkpt lat="42.29426" lon="2.4871">
        <ele>686.52</ele>
        <time>2010-05-01T07:39:03Z</time>
      </trkpt>
      <trkpt lat="42.29441" lon="2.48705">
        <ele>685.106</ele>
        <time>2010-05-01T07:39:20Z</time>
      </trkpt>
      <trkpt lat="42.29456" lon="2.48696">
        <ele>682.215</ele>
        <time>2010-05-01T07:39:30Z</time>
      </trkpt>
      <trkpt lat="42.2947" lon="2.48691">
        <ele>678.835</ele>
        <time>2010-05-01T07:39:36Z</time>
      </trkpt>
      <trkpt lat="42.29471" lon="2.48691">
        <ele>678.379</ele>
        <time>2010-05-01T07:39:37Z</time>
      </trkpt>
      <trkpt lat="42.29473" lon="2.48688">
        <ele>678.823</ele>
        <time>2010-05-01T07:39:39Z</time>
      </trkpt>
      <trkpt lat="42.29476" lon="2.48679">
        <ele>678.389</ele>
        <time>2010-05-01T07:39:44Z</time>
      </trkpt>
      <trkpt lat="42.29484" lon="2.48664">
        <ele>677.913</ele>
        <time>2010-05-01T07:39:56Z</time>
      </trkpt>
      <trkpt lat="42.29474" lon="2.4865">
        <ele>677.977</ele>
        <time>2010-05-01T07:40:11Z</time>
      </trkpt>
      <trkpt lat="42.29469" lon="2.48652">
        <ele>677.461</ele>
        <time>2010-05-01T07:40:29Z</time>
      </trkpt>
      <trkpt lat="42.29471" lon="2.4863">
        <ele>674.527</ele>
        <time>2010-05-01T07:40:37Z</time>
      </trkpt>
      <trkpt lat="42.29472" lon="2.48627">
        <ele>674.506</ele>
        <time>2010-05-01T07:40:39Z</time>
      </trkpt>
      <trkpt lat="42.2947" lon="2.48622">
        <ele>675.035</ele>
        <time>2010-05-01T07:40:41Z</time>
      </trkpt>
      <trkpt lat="42.29471" lon="2.4861">
        <ele>673.555</ele>
        <time>2010-05-01T07:40:46Z</time>
      </trkpt>
      <trkpt lat="42.29454" lon="2.48579">
        <ele>673.189</ele>
        <time>2010-05-01T07:40:58Z</time>
      </trkpt>
      <trkpt lat="42.29441" lon="2.48564">
        <ele>673.113</ele>
        <time>2010-05-01T07:41:06Z</time>
      </trkpt>
      <trkpt lat="42.2944" lon="2.48556">
        <ele>674.099</ele>
        <time>2010-05-01T07:41:11Z</time>
      </trkpt>
      <trkpt lat="42.29447" lon="2.48548">
        <ele>674.533</ele>
        <time>2010-05-01T07:41:16Z</time>
      </trkpt>
      <trkpt lat="42.29454" lon="2.48542">
        <ele>672.699</ele>
        <time>2010-05-01T07:41:22Z</time>
      </trkpt>
      <trkpt lat="42.29466" lon="2.48525">
        <ele>670.707</ele>
        <time>2010-05-01T07:41:34Z</time>
      </trkpt>
      <trkpt lat="42.29477" lon="2.48504">
        <ele>668.727</ele>
        <time>2010-05-01T07:41:46Z</time>
      </trkpt>
      <trkpt lat="42.29486" lon="2.48499">
        <ele>667.806</ele>
        <time>2010-05-01T07:42:03Z</time>
      </trkpt>
      <trkpt lat="42.295" lon="2.48482">
        <ele>666.347</ele>
        <time>2010-05-01T07:42:17Z</time>
      </trkpt>
      <trkpt lat="42.29509" lon="2.48459">
        <ele>666.827</ele>
        <time>2010-05-01T07:42:32Z</time>
      </trkpt>
      <trkpt lat="42.29512" lon="2.48451">
        <ele>665.981</ele>
        <time>2010-05-01T07:42:36Z</time>
      </trkpt>
      <trkpt lat="42.2953" lon="2.48435">
        <ele>662.545</ele>
        <time>2010-05-01T07:42:48Z</time>
      </trkpt>
      <trkpt lat="42.29531" lon="2.48435">
        <ele>662.061</ele>
        <time>2010-05-01T07:42:49Z</time>
      </trkpt>
      <trkpt lat="42.29547" lon="2.48419">
        <ele>658.685</ele>
        <time>2010-05-01T07:43:00Z</time>
      </trkpt>
      <trkpt lat="42.29558" lon="2.48388">
        <ele>655.372</ele>
        <time>2010-05-01T07:43:11Z</time>
      </trkpt>
      <trkpt lat="42.2956" lon="2.48377">
        <ele>652.413</ele>
        <time>2010-05-01T07:43:21Z</time>
      </trkpt>
      <trkpt lat="42.2957" lon="2.48373">
        <ele>650.514</ele>
        <time>2010-05-01T07:43:28Z</time>
      </trkpt>
      <trkpt lat="42.29574" lon="2.48372">
        <ele>650.006</ele>
        <time>2010-05-01T07:43:32Z</time>
      </trkpt>
      <trkpt lat="42.29583" lon="2.48372">
        <ele>648.595</ele>
        <time>2010-05-01T07:43:38Z</time>
      </trkpt>
      <trkpt lat="42.29594" lon="2.48374">
        <ele>647.175</ele>
        <time>2010-05-01T07:43:45Z</time>
      </trkpt>
      <trkpt lat="42.29601" lon="2.48383">
        <ele>645.799</ele>
        <time>2010-05-01T07:43:51Z</time>
      </trkpt>
      <trkpt lat="42.29607" lon="2.4839">
        <ele>644.233</ele>
        <time>2010-05-01T07:43:56Z</time>
      </trkpt>
      <trkpt lat="42.29611" lon="2.48393">
        <ele>643.789</ele>
        <time>2010-05-01T07:43:58Z</time>
      </trkpt>
      <trkpt lat="42.29624" lon="2.48404">
        <ele>640.963</ele>
        <time>2010-05-01T07:44:07Z</time>
      </trkpt>
      <trkpt lat="42.29637" lon="2.48403">
        <ele>638.582</ele>
        <time>2010-05-01T07:44:17Z</time>
      </trkpt>
      <trkpt lat="42.29648" lon="2.48393">
        <ele>637.043</ele>
        <time>2010-05-01T07:44:22Z</time>
      </trkpt>
      <trkpt lat="42.29667" lon="2.4838">
        <ele>633.217</ele>
        <time>2010-05-01T07:44:32Z</time>
      </trkpt>
      <trkpt lat="42.29669" lon="2.4838">
        <ele>633.206</ele>
        <time>2010-05-01T07:44:33Z</time>
      </trkpt>
      <trkpt lat="42.29675" lon="2.48375">
        <ele>631.296</ele>
        <time>2010-05-01T07:44:39Z</time>
      </trkpt>
      <trkpt lat="42.29698" lon="2.48342">
        <ele>627.936</ele>
        <time>2010-05-01T07:44:52Z</time>
      </trkpt>
      <trkpt lat="42.29705" lon="2.4833">
        <ele>625.07</ele>
        <time>2010-05-01T07:45:00Z</time>
      </trkpt>
      <trkpt lat="42.29714" lon="2.48335">
        <ele>623.184</ele>
        <time>2010-05-01T07:45:06Z</time>
      </trkpt>
      <trkpt lat="42.29721" lon="2.48342">
        <ele>622.63</ele>
        <time>2010-05-01T07:45:10Z</time>
      </trkpt>
      <trkpt lat="42.29729" lon="2.48369">
        <ele>619.774</ele>
        <time>2010-05-01T07:45:18Z</time>
      </trkpt>
      <trkpt lat="42.29725" lon="2.48393">
        <ele>617.344</ele>
        <time>2010-05-01T07:45:31Z</time>
      </trkpt>
      <trkpt lat="42.2972" lon="2.48403">
        <ele>616.805</ele>
        <time>2010-05-01T07:45:36Z</time>
      </trkpt>
      <trkpt lat="42.29716" lon="2.4842">
        <ele>615.915</ele>
        <time>2010-05-01T07:45:41Z</time>
      </trkpt>
      <trkpt lat="42.29704" lon="2.4843">
        <ele>614.906</ele>
        <time>2010-05-01T07:45:44Z</time>
      </trkpt>
      <trkpt lat="42.29676" lon="2.4845">
        <ele>613.542</ele>
        <time>2010-05-01T07:45:52Z</time>
      </trkpt>
      <trkpt lat="42.2967" lon="2.48455">
        <ele>613.082</ele>
        <time>2010-05-01T07:45:54Z</time>
      </trkpt>
      <trkpt lat="42.29679" lon="2.48464">
        <ele>611.196</ele>
        <time>2010-05-01T07:46:02Z</time>
      </trkpt>
      <trkpt lat="42.29696" lon="2.48439">
        <ele>608.79</ele>
        <time>2010-05-01T07:46:15Z</time>
      </trkpt>
      <trkpt lat="42.29709" lon="2.48415">
        <ele>606.276</ele>
        <time>2010-05-01T07:46:27Z</time>
      </trkpt>
      <trkpt lat="42.29723" lon="2.48394">
        <ele>605.36</ele>
        <time>2010-05-01T07:46:37Z</time>
      </trkpt>
      <trkpt lat="42.29741" lon="2.48352">
        <ele>603.868</ele>
        <time>2010-05-01T07:46:48Z</time>
      </trkpt>
      <trkpt lat="42.29758" lon="2.48322">
        <ele>602.442</ele>
        <time>2010-05-01T07:47:01Z</time>
      </trkpt>
      <trkpt lat="42.29772" lon="2.48307">
        <ele>601.026</ele>
        <time>2010-05-01T07:47:11Z</time>
      </trkpt>
      <trkpt lat="42.29806" lon="2.483">
        <ele>601.406</ele>
        <time>2010-05-01T07:47:22Z</time>
      </trkpt>
      <trkpt lat="42.29807" lon="2.48298">
        <ele>601.974</ele>
        <time>2010-05-01T07:47:23Z</time>
      </trkpt>
      <trkpt lat="42.29818" lon="2.48293">
        <ele>602.434</ele>
        <time>2010-05-01T07:47:25Z</time>
      </trkpt>
      <trkpt lat="42.29844" lon="2.48268">
        <ele>602.478</ele>
        <time>2010-05-01T07:47:30Z</time>
      </trkpt>
      <trkpt lat="42.29851" lon="2.48259">
        <ele>601.972</ele>
        <time>2010-05-01T07:47:34Z</time>
      </trkpt>
      <trkpt lat="42.29858" lon="2.4826">
        <ele>600.058</ele>
        <time>2010-05-01T07:47:39Z</time>
      </trkpt>
      <trkpt lat="42.29864" lon="2.48269">
        <ele>598.132</ele>
        <time>2010-05-01T07:47:48Z</time>
      </trkpt>
      <trkpt lat="42.29875" lon="2.48275">
        <ele>596.662</ele>
        <time>2010-05-01T07:48:01Z</time>
      </trkpt>
      <trkpt lat="42.2988" lon="2.48262">
        <ele>594.783</ele>
        <time>2010-05-01T07:48:13Z</time>
      </trkpt>
      <trkpt lat="42.29884" lon="2.48258">
        <ele>592.811</ele>
        <time>2010-05-01T07:48:18Z</time>
      </trkpt>
      <trkpt lat="42.29887" lon="2.48258">
        <ele>592.806</ele>
        <time>2010-05-01T07:48:21Z</time>
      </trkpt>
      <trkpt lat="42.29901" lon="2.48276">
        <ele>590.934</ele>
        <time>2010-05-01T07:48:31Z</time>
      </trkpt>
      <trkpt lat="42.29905" lon="2.48293">
        <ele>589.414</ele>
        <time>2010-05-01T07:48:34Z</time>
      </trkpt>
      <trkpt lat="42.29904" lon="2.48295">
        <ele>589.418</ele>
        <time>2010-05-01T07:48:35Z</time>
      </trkpt>
      <trkpt lat="42.29899" lon="2.48304">
        <ele>588.582</ele>
        <time>2010-05-01T07:48:39Z</time>
      </trkpt>
      <trkpt lat="42.29897" lon="2.48311">
        <ele>587.038</ele>
        <time>2010-05-01T07:48:44Z</time>
      </trkpt>
      <trkpt lat="42.29899" lon="2.48319">
        <ele>585.672</ele>
        <time>2010-05-01T07:48:48Z</time>
      </trkpt>
      <trkpt lat="42.29901" lon="2.48326">
        <ele>584.633</ele>
        <time>2010-05-01T07:49:01Z</time>
      </trkpt>
      <trkpt lat="42.29892" lon="2.48334">
        <ele>583.723</ele>
        <time>2010-05-01T07:49:06Z</time>
      </trkpt>
      <trkpt lat="42.29893" lon="2.48342">
        <ele>583.215</ele>
        <time>2010-05-01T07:49:12Z</time>
      </trkpt>
      <trkpt lat="42.2991" lon="2.48319">
        <ele>579.806</ele>
        <time>2010-05-01T07:49:24Z</time>
      </trkpt>
      <trkpt lat="42.2992" lon="2.48308">
        <ele>577.451</ele>
        <time>2010-05-01T07:49:34Z</time>
      </trkpt>
      <trkpt lat="42.29928" lon="2.48303">
        <ele>575.011</ele>
        <time>2010-05-01T07:49:44Z</time>
      </trkpt>
      <trkpt lat="42.2995" lon="2.48291">
        <ele>574.065</ele>
        <time>2010-05-01T07:49:51Z</time>
      </trkpt>
      <trkpt lat="42.29954" lon="2.48277">
        <ele>572.679</ele>
        <time>2010-05-01T07:49:56Z</time>
      </trkpt>
      <trkpt lat="42.29968" lon="2.4829">
        <ele>570.785</ele>
        <time>2010-05-01T07:50:06Z</time>
      </trkpt>
      <trkpt lat="42.29971" lon="2.48297">
        <ele>569.749</ele>
        <time>2010-05-01T07:50:09Z</time>
      </trkpt>
      <trkpt lat="42.29987" lon="2.48291">
        <ele>567.852</ele>
        <time>2010-05-01T07:50:17Z</time>
      </trkpt>
      <trkpt lat="42.29998" lon="2.4829">
        <ele>565.453</ele>
        <time>2010-05-01T07:50:22Z</time>
      </trkpt>
      <trkpt lat="42.30021" lon="2.48274">
        <ele>563.508</ele>
        <time>2010-05-01T07:50:34Z</time>
      </trkpt>
      <trkpt lat="42.30021" lon="2.48274">
        <ele>563.506</ele>
        <time>2010-05-01T07:50:35Z</time>
      </trkpt>
      <trkpt lat="42.30033" lon="2.48265">
        <ele>561.593</ele>
        <time>2010-05-01T07:50:43Z</time>
      </trkpt>
      <trkpt lat="42.30047" lon="2.48254">
        <ele>560.193</ele>
        <time>2010-05-01T07:50:54Z</time>
      </trkpt>
      <trkpt lat="42.30067" lon="2.48238">
        <ele>560.187</ele>
        <time>2010-05-01T07:51:05Z</time>
      </trkpt>
      <trkpt lat="42.30074" lon="2.48235">
        <ele>560.661</ele>
        <time>2010-05-01T07:51:15Z</time>
      </trkpt>
      <trkpt lat="42.30091" lon="2.48222">
        <ele>561.537</ele>
        <time>2010-05-01T07:51:31Z</time>
      </trkpt>
      <trkpt lat="42.30093" lon="2.48235">
        <ele>562.011</ele>
        <time>2010-05-01T07:51:43Z</time>
      </trkpt>
      <trkpt lat="42.30093" lon="2.48264">
        <ele>563.037</ele>
        <time>2010-05-01T07:51:58Z</time>
      </trkpt>
      <trkpt lat="42.30095" lon="2.48253">
        <ele>563.049</ele>
        <time>2010-05-01T07:52:08Z</time>
      </trkpt>
      <trkpt lat="42.30096" lon="2.48242">
        <ele>563.513</ele>
        <time>2010-05-01T07:52:13Z</time>
      </trkpt>
      <trkpt lat="42.30094" lon="2.48236">
        <ele>564.006</ele>
        <time>2010-05-01T07:52:23Z</time>
      </trkpt>
      <trkpt lat="42.30105" lon="2.48257">
        <ele>564.011</ele>
        <time>2010-05-01T07:52:27Z</time>
      </trkpt>
      <trkpt lat="42.30152" lon="2.48344">
        <ele>564.071</ele>
        <time>2010-05-01T07:52:38Z</time>
      </trkpt>
      <trkpt lat="42.30165" lon="2.48356">
        <ele>564.455</ele>
        <time>2010-05-01T07:52:50Z</time>
      </trkpt>
      <trkpt lat="42.30137" lon="2.48313">
        <ele>564.459</ele>
        <time>2010-05-01T07:52:58Z</time>
      </trkpt>
      <trkpt lat="42.30144" lon="2.4832">
        <ele>564.925</ele>
        <time>2010-05-01T07:53:07Z</time>
      </trkpt>
      <trkpt lat="42.3016" lon="2.4835">
        <ele>564.999</ele>
        <time>2010-05-01T07:53:17Z</time>
      </trkpt>
      <trkpt lat="42.30178" lon="2.48372">
        <ele>564.968</ele>
        <time>2010-05-01T07:53:23Z</time>
      </trkpt>
      <trkpt lat="42.30168" lon="2.48347">
        <ele>564.942</ele>
        <time>2010-05-01T07:53:25Z</time>
      </trkpt>
      <trkpt lat="42.30142" lon="2.4828">
        <ele>564.426</ele>
        <time>2010-05-01T07:53:33Z</time>
      </trkpt>
      <trkpt lat="42.30134" lon="2.48259">
        <ele>564.006</ele>
        <time>2010-05-01T07:53:37Z</time>
      </trkpt>
      <trkpt lat="42.30131" lon="2.48233">
        <ele>563.554</ele>
        <time>2010-05-01T07:53:41Z</time>
      </trkpt>
      <trkpt lat="42.30125" lon="2.482">
        <ele>563.524</ele>
        <time>2010-05-01T07:53:49Z</time>
      </trkpt>
      <trkpt lat="42.30138" lon="2.48162">
        <ele>562.558</ele>
        <time>2010-05-01T07:54:10Z</time>
      </trkpt>
      <trkpt lat="42.3016" lon="2.48141">
        <ele>561.152</ele>
        <time>2010-05-01T07:54:54Z</time>
      </trkpt>
      <trkpt lat="42.30161" lon="2.4814">
        <ele>560.618</ele>
        <time>2010-05-01T07:55:32Z</time>
      </trkpt>
      <trkpt lat="42.30168" lon="2.48125">
        <ele>561.132</ele>
        <time>2010-05-01T07:55:58Z</time>
      </trkpt>
      <trkpt lat="42.30181" lon="2.48116">
        <ele>561.167</ele>
        <time>2010-05-01T07:56:16Z</time>
      </trkpt>
      <trkpt lat="42.30193" lon="2.48115">
        <ele>562.081</ele>
        <time>2010-05-01T07:56:29Z</time>
      </trkpt>
      <trkpt lat="42.30203" lon="2.48123">
        <ele>561.119</ele>
        <time>2010-05-01T07:56:35Z</time>
      </trkpt>
      <trkpt lat="42.30208" lon="2.48124">
        <ele>561.106</ele>
        <time>2010-05-01T07:56:37Z</time>
      </trkpt>
      <trkpt lat="42.30215" lon="2.48117">
        <ele>560.634</ele>
        <time>2010-05-01T07:56:44Z</time>
      </trkpt>
      <trkpt lat="42.30229" lon="2.48106">
        <ele>559.674</ele>
        <time>2010-05-01T07:56:53Z</time>
      </trkpt>
      <trkpt lat="42.30238" lon="2.48102">
        <ele>560.138</ele>
        <time>2010-05-01T07:56:58Z</time>
      </trkpt>
      <trkpt lat="42.30249" lon="2.48089">
        <ele>560.652</ele>
        <time>2010-05-01T07:57:05Z</time>
      </trkpt>
      <trkpt lat="42.30261" lon="2.4808">
        <ele>562.058</ele>
        <time>2010-05-01T07:57:14Z</time>
      </trkpt>
      <trkpt lat="42.30273" lon="2.48054">
        <ele>564.012</ele>
        <time>2010-05-01T07:57:28Z</time>
      </trkpt>
      <trkpt lat="42.30277" lon="2.48051">
        <ele>564.086</ele>
        <time>2010-05-01T07:57:31Z</time>
      </trkpt>
      <trkpt lat="42.30295" lon="2.48029">
        <ele>561.16</ele>
        <time>2010-05-01T07:57:41Z</time>
      </trkpt>
      <trkpt lat="42.30302" lon="2.48025">
        <ele>560.626</ele>
        <time>2010-05-01T07:57:44Z</time>
      </trkpt>
      <trkpt lat="42.30302" lon="2.48017">
        <ele>559.106</ele>
        <time>2010-05-01T07:57:47Z</time>
      </trkpt>
      <trkpt lat="42.30301" lon="2.48015">
        <ele>559.126</ele>
        <time>2010-05-01T07:57:48Z</time>
      </trkpt>
      <trkpt lat="42.30306" lon="2.48007">
        <ele>556.366</ele>
        <time>2010-05-01T07:57:53Z</time>
      </trkpt>
      <trkpt lat="42.30309" lon="2.47987">
        <ele>552.93</ele>
        <time>2010-05-01T07:57:59Z</time>
      </trkpt>
      <trkpt lat="42.30317" lon="2.47973">
        <ele>551.074</ele>
        <time>2010-05-01T07:58:04Z</time>
      </trkpt>
      <trkpt lat="42.30338" lon="2.47957">
        <ele>547.62</ele>
        <time>2010-05-01T07:58:13Z</time>
      </trkpt>
      <trkpt lat="42.30355" lon="2.47949">
        <ele>545.294</ele>
        <time>2010-05-01T07:58:21Z</time>
      </trkpt>
      <trkpt lat="42.30363" lon="2.47936">
        <ele>541.418</ele>
        <time>2010-05-01T07:58:32Z</time>
      </trkpt>
      <trkpt lat="42.30365" lon="2.47934">
        <ele>541.498</ele>
        <time>2010-05-01T07:58:33Z</time>
      </trkpt>
      <trkpt lat="42.30374" lon="2.47924">
        <ele>538.517</ele>
        <time>2010-05-01T07:58:40Z</time>
      </trkpt>
      <trkpt lat="42.30385" lon="2.4791">
        <ele>535.106</ele>
        <time>2010-05-01T07:58:47Z</time>
      </trkpt>
      <trkpt lat="42.30389" lon="2.47903">
        <ele>533.749</ele>
        <time>2010-05-01T07:58:51Z</time>
      </trkpt>
      <trkpt lat="42.304" lon="2.4789">
        <ele>530.329</ele>
        <time>2010-05-01T07:59:01Z</time>
      </trkpt>
      <trkpt lat="42.30435" lon="2.47884">
        <ele>527.483</ele>
        <time>2010-05-01T07:59:14Z</time>
      </trkpt>
      <trkpt lat="42.30443" lon="2.47885">
        <ele>526.917</ele>
        <time>2010-05-01T07:59:16Z</time>
      </trkpt>
      <trkpt lat="42.30464" lon="2.47911">
        <ele>526.933</ele>
        <time>2010-05-01T07:59:29Z</time>
      </trkpt>
      <trkpt lat="42.30478" lon="2.47922">
        <ele>529.867</ele>
        <time>2010-05-01T07:59:41Z</time>
      </trkpt>
      <trkpt lat="42.30482" lon="2.47925">
        <ele>530.823</ele>
        <time>2010-05-01T07:59:46Z</time>
      </trkpt>
      <trkpt lat="42.30486" lon="2.47945">
        <ele>531.783</ele>
        <time>2010-05-01T07:59:55Z</time>
      </trkpt>
      <trkpt lat="42.30492" lon="2.47956">
        <ele>532.711</ele>
        <time>2010-05-01T08:00:01Z</time>
      </trkpt>
      <trkpt lat="42.30504" lon="2.47981">
        <ele>534.606</ele>
        <time>2010-05-01T08:00:16Z</time>
      </trkpt>
      <trkpt lat="42.30517" lon="2.48005">
        <ele>537.09</ele>
        <time>2010-05-01T08:00:32Z</time>
      </trkpt>
      <trkpt lat="42.30529" lon="2.48029">
        <ele>539.46</ele>
        <time>2010-05-01T08:00:47Z</time>
      </trkpt>
      <trkpt lat="42.30531" lon="2.48039">
        <ele>539.974</ele>
        <time>2010-05-01T08:00:53Z</time>
      </trkpt>
      <trkpt lat="42.30535" lon="2.4805">
        <ele>540.918</ele>
        <time>2010-05-01T08:00:59Z</time>
      </trkpt>
      <trkpt lat="42.30544" lon="2.48057">
        <ele>542.364</ele>
        <time>2010-05-01T08:01:07Z</time>
      </trkpt>
      <trkpt lat="42.30561" lon="2.48077">
        <ele>544.268</ele>
        <time>2010-05-01T08:01:22Z</time>
      </trkpt>
      <trkpt lat="42.30561" lon="2.48078">
        <ele>544.287</ele>
        <time>2010-05-01T08:01:23Z</time>
      </trkpt>
      <trkpt lat="42.30569" lon="2.48092">
        <ele>545.742</ele>
        <time>2010-05-01T08:01:33Z</time>
      </trkpt>
      <trkpt lat="42.30584" lon="2.48102">
        <ele>546.626</ele>
        <time>2010-05-01T08:01:43Z</time>
      </trkpt>
      <trkpt lat="42.30589" lon="2.48108">
        <ele>547.606</ele>
        <time>2010-05-01T08:01:47Z</time>
      </trkpt>
      <trkpt lat="42.30598" lon="2.4813">
        <ele>548.666</ele>
        <time>2010-05-01T08:02:01Z</time>
      </trkpt>
      <trkpt lat="42.30601" lon="2.48161">
        <ele>548.116</ele>
        <time>2010-05-01T08:02:13Z</time>
      </trkpt>
      <trkpt lat="42.30615" lon="2.48205">
        <ele>544.71</ele>
        <time>2010-05-01T08:02:26Z</time>
      </trkpt>
      <trkpt lat="42.30627" lon="2.48233">
        <ele>541.834</ele>
        <time>2010-05-01T08:02:36Z</time>
      </trkpt>
      <trkpt lat="42.30641" lon="2.48283">
        <ele>539.04</ele>
        <time>2010-05-01T08:02:50Z</time>
      </trkpt>
      <trkpt lat="42.30668" lon="2.48324">
        <ele>535.664</ele>
        <time>2010-05-01T08:03:06Z</time>
      </trkpt>
      <trkpt lat="42.30698" lon="2.48355">
        <ele>533.237</ele>
        <time>2010-05-01T08:03:20Z</time>
      </trkpt>
      <trkpt lat="42.30723" lon="2.48393">
        <ele>530.849</ele>
        <time>2010-05-01T08:03:34Z</time>
      </trkpt>
      <trkpt lat="42.30758" lon="2.48425">
        <ele>528.413</ele>
        <time>2010-05-01T08:03:48Z</time>
      </trkpt>
      <trkpt lat="42.30793" lon="2.48445">
        <ele>526.006</ele>
        <time>2010-05-01T08:04:02Z</time>
      </trkpt>
      <trkpt lat="42.30829" lon="2.48468">
        <ele>524.121</ele>
        <time>2010-05-01T08:04:17Z</time>
      </trkpt>
      <trkpt lat="42.30867" lon="2.48492">
        <ele>521.791</ele>
        <time>2010-05-01T08:04:33Z</time>
      </trkpt>
      <trkpt lat="42.30892" lon="2.48536">
        <ele>520.245</ele>
        <time>2010-05-01T08:04:47Z</time>
      </trkpt>
      <trkpt lat="42.309" lon="2.48581">
        <ele>519.299</ele>
        <time>2010-05-01T08:05:00Z</time>
      </trkpt>
      <trkpt lat="42.30905" lon="2.48633">
        <ele>518.355</ele>
        <time>2010-05-01T08:05:14Z</time>
      </trkpt>
      <trkpt lat="42.30918" lon="2.48677">
        <ele>517.349</ele>
        <time>2010-05-01T08:05:29Z</time>
      </trkpt>
      <trkpt lat="42.30934" lon="2.48715">
        <ele>516.464</ele>
        <time>2010-05-01T08:05:41Z</time>
      </trkpt>
      <trkpt lat="42.3094" lon="2.48767">
        <ele>514.406</ele>
        <time>2010-05-01T08:05:55Z</time>
      </trkpt>
      <trkpt lat="42.30964" lon="2.48806">
        <ele>511.116</ele>
        <time>2010-05-01T08:06:08Z</time>
      </trkpt>
      <trkpt lat="42.30985" lon="2.48837">
        <ele>507.706</ele>
        <time>2010-05-01T08:06:19Z</time>
      </trkpt>
      <trkpt lat="42.31017" lon="2.48851">
        <ele>506.364</ele>
        <time>2010-05-01T08:06:32Z</time>
      </trkpt>
      <trkpt lat="42.31037" lon="2.48847">
        <ele>508.224</ele>
        <time>2010-05-01T08:06:45Z</time>
      </trkpt>
      <trkpt lat="42.31051" lon="2.48828">
        <ele>510.178</ele>
        <time>2010-05-01T08:06:59Z</time>
      </trkpt>
      <trkpt lat="42.31064" lon="2.4881">
        <ele>511.612</ele>
        <time>2010-05-01T08:07:12Z</time>
      </trkpt>
      <trkpt lat="42.31085" lon="2.48803">
        <ele>513.098</ele>
        <time>2010-05-01T08:07:26Z</time>
      </trkpt>
      <trkpt lat="42.31109" lon="2.4881">
        <ele>514.092</ele>
        <time>2010-05-01T08:07:42Z</time>
      </trkpt>
      <trkpt lat="42.31119" lon="2.48815">
        <ele>514.428</ele>
        <time>2010-05-01T08:07:49Z</time>
      </trkpt>
      <trkpt lat="42.3114" lon="2.48818">
        <ele>514.489</ele>
        <time>2010-05-01T08:08:03Z</time>
      </trkpt>
      <trkpt lat="42.31162" lon="2.48823">
        <ele>514.417</ele>
        <time>2010-05-01T08:08:16Z</time>
      </trkpt>
      <trkpt lat="42.31187" lon="2.48812">
        <ele>513.506</ele>
        <time>2010-05-01T08:08:26Z</time>
      </trkpt>
      <trkpt lat="42.31214" lon="2.48795">
        <ele>514.08</ele>
        <time>2010-05-01T08:08:39Z</time>
      </trkpt>
      <trkpt lat="42.31239" lon="2.48766">
        <ele>514.43</ele>
        <time>2010-05-01T08:08:53Z</time>
      </trkpt>
      <trkpt lat="42.31259" lon="2.48737">
        <ele>514.954</ele>
        <time>2010-05-01T08:09:06Z</time>
      </trkpt>
      <trkpt lat="42.31278" lon="2.48708">
        <ele>515.458</ele>
        <time>2010-05-01T08:09:20Z</time>
      </trkpt>
      <trkpt lat="42.31297" lon="2.48681">
        <ele>516.494</ele>
        <time>2010-05-01T08:09:34Z</time>
      </trkpt>
      <trkpt lat="42.3131" lon="2.48652">
        <ele>516.828</ele>
        <time>2010-05-01T08:09:49Z</time>
      </trkpt>
      <trkpt lat="42.31316" lon="2.48642">
        <ele>516.895</ele>
        <time>2010-05-01T08:09:55Z</time>
      </trkpt>
      <trkpt lat="42.31332" lon="2.48615">
        <ele>517.849</ele>
        <time>2010-05-01T08:10:12Z</time>
      </trkpt>
      <trkpt lat="42.31336" lon="2.48607">
        <ele>517.823</ele>
        <time>2010-05-01T08:10:16Z</time>
      </trkpt>
      <trkpt lat="42.31344" lon="2.48592">
        <ele>518.306</ele>
        <time>2010-05-01T08:10:25Z</time>
      </trkpt>
      <trkpt lat="42.31359" lon="2.4857">
        <ele>519.277</ele>
        <time>2010-05-01T08:10:39Z</time>
      </trkpt>
      <trkpt lat="42.31378" lon="2.48561">
        <ele>519.227</ele>
        <time>2010-05-01T08:10:52Z</time>
      </trkpt>
      <trkpt lat="42.31399" lon="2.48553">
        <ele>519.721</ele>
        <time>2010-05-01T08:11:06Z</time>
      </trkpt>
      <trkpt lat="42.31414" lon="2.48545">
        <ele>520.275</ele>
        <time>2010-05-01T08:11:16Z</time>
      </trkpt>
      <trkpt lat="42.31441" lon="2.48535">
        <ele>521.291</ele>
        <time>2010-05-01T08:11:33Z</time>
      </trkpt>
      <trkpt lat="42.31443" lon="2.48533">
        <ele>521.275</ele>
        <time>2010-05-01T08:11:35Z</time>
      </trkpt>
      <trkpt lat="42.31449" lon="2.48529">
        <ele>521.291</ele>
        <time>2010-05-01T08:11:39Z</time>
      </trkpt>
      <trkpt lat="42.31453" lon="2.4852">
        <ele>522.181</ele>
        <time>2010-05-01T08:11:43Z</time>
      </trkpt>
      <trkpt lat="42.31469" lon="2.48493">
        <ele>523.619</ele>
        <time>2010-05-01T08:12:00Z</time>
      </trkpt>
      <trkpt lat="42.31476" lon="2.48468">
        <ele>525.006</ele>
        <time>2010-05-01T08:12:14Z</time>
      </trkpt>
      <trkpt lat="42.31487" lon="2.4845">
        <ele>526.047</ele>
        <time>2010-05-01T08:12:26Z</time>
      </trkpt>
      <trkpt lat="42.31493" lon="2.48425">
        <ele>526.977</ele>
        <time>2010-05-01T08:12:38Z</time>
      </trkpt>
      <trkpt lat="42.31513" lon="2.4841">
        <ele>527.441</ele>
        <time>2010-05-01T08:12:51Z</time>
      </trkpt>
      <trkpt lat="42.31522" lon="2.48385">
        <ele>527.965</ele>
        <time>2010-05-01T08:13:05Z</time>
      </trkpt>
      <trkpt lat="42.31529" lon="2.48367">
        <ele>528.421</ele>
        <time>2010-05-01T08:13:15Z</time>
      </trkpt>
      <trkpt lat="42.31539" lon="2.48339">
        <ele>528.995</ele>
        <time>2010-05-01T08:13:29Z</time>
      </trkpt>
      <trkpt lat="42.31553" lon="2.48315">
        <ele>528.931</ele>
        <time>2010-05-01T08:13:44Z</time>
      </trkpt>
      <trkpt lat="42.31572" lon="2.48292">
        <ele>529.361</ele>
        <time>2010-05-01T08:13:59Z</time>
      </trkpt>
      <trkpt lat="42.31579" lon="2.48268">
        <ele>529.307</ele>
        <time>2010-05-01T08:14:13Z</time>
      </trkpt>
      <trkpt lat="42.31584" lon="2.48263">
        <ele>528.906</ele>
        <time>2010-05-01T08:14:26Z</time>
      </trkpt>
      <trkpt lat="42.31585" lon="2.48268">
        <ele>527.951</ele>
        <time>2010-05-01T08:15:47Z</time>
      </trkpt>
      <trkpt lat="42.31574" lon="2.48266">
        <ele>527.431</ele>
        <time>2010-05-01T08:16:21Z</time>
      </trkpt>
      <trkpt lat="42.31578" lon="2.48264">
        <ele>526.965</ele>
        <time>2010-05-01T08:17:19Z</time>
      </trkpt>
      <trkpt lat="42.31582" lon="2.4827">
        <ele>525.019</ele>
        <time>2010-05-01T08:19:22Z</time>
      </trkpt>
      <trkpt lat="42.31582" lon="2.48268">
        <ele>523.195</ele>
        <time>2010-05-01T08:21:54Z</time>
      </trkpt>
      <trkpt lat="42.31576" lon="2.48261">
        <ele>522.179</ele>
        <time>2010-05-01T08:23:13Z</time>
      </trkpt>
      <trkpt lat="42.31583" lon="2.4827">
        <ele>520.257</ele>
        <time>2010-05-01T08:26:10Z</time>
      </trkpt>
      <trkpt lat="42.3158" lon="2.48266">
        <ele>519.2</ele>
        <time>2010-05-01T08:27:03Z</time>
      </trkpt>
      <trkpt lat="42.31581" lon="2.48283">
        <ele>518.82</ele>
        <time>2010-05-01T08:29:49Z</time>
      </trkpt>
      <trkpt lat="42.31574" lon="2.48313">
        <ele>521.706</ele>
        <time>2010-05-01T08:30:11Z</time>
      </trkpt>
      <trkpt lat="42.31575" lon="2.48318">
        <ele>523.133</ele>
        <time>2010-05-01T08:30:28Z</time>
      </trkpt>
      <trkpt lat="42.31583" lon="2.48319">
        <ele>525.083</ele>
        <time>2010-05-01T08:30:36Z</time>
      </trkpt>
      <trkpt lat="42.31594" lon="2.48301">
        <ele>527.477</ele>
        <time>2010-05-01T08:30:48Z</time>
      </trkpt>
      <trkpt lat="42.316" lon="2.48291">
        <ele>528.431</ele>
        <time>2010-05-01T08:30:54Z</time>
      </trkpt>
      <trkpt lat="42.31607" lon="2.48282">
        <ele>529.827</ele>
        <time>2010-05-01T08:31:03Z</time>
      </trkpt>
      <trkpt lat="42.31614" lon="2.48271">
        <ele>530.851</ele>
        <time>2010-05-01T08:31:12Z</time>
      </trkpt>
      <trkpt lat="42.3163" lon="2.48253">
        <ele>533.276</ele>
        <time>2010-05-01T08:31:26Z</time>
      </trkpt>
      <trkpt lat="42.31637" lon="2.4825">
        <ele>534.19</ele>
        <time>2010-05-01T08:31:32Z</time>
      </trkpt>
      <trkpt lat="42.31656" lon="2.48237">
        <ele>536.119</ele>
        <time>2010-05-01T08:31:48Z</time>
      </trkpt>
      <trkpt lat="42.3167" lon="2.48251">
        <ele>538.506</ele>
        <time>2010-05-01T08:32:03Z</time>
      </trkpt>
      <trkpt lat="42.3168" lon="2.48269">
        <ele>541.445</ele>
        <time>2010-05-01T08:32:17Z</time>
      </trkpt>
      <trkpt lat="42.31702" lon="2.48286">
        <ele>543.885</ele>
        <time>2010-05-01T08:32:32Z</time>
      </trkpt>
      <trkpt lat="42.31705" lon="2.48289">
        <ele>543.819</ele>
        <time>2010-05-01T08:32:34Z</time>
      </trkpt>
      <trkpt lat="42.31715" lon="2.48291">
        <ele>543.843</ele>
        <time>2010-05-01T08:32:45Z</time>
      </trkpt>
      <trkpt lat="42.31718" lon="2.48291">
        <ele>544.729</ele>
        <time>2010-05-01T08:32:56Z</time>
      </trkpt>
      <trkpt lat="42.31743" lon="2.48301">
        <ele>546.233</ele>
        <time>2010-05-01T08:33:11Z</time>
      </trkpt>
      <trkpt lat="42.31768" lon="2.48309">
        <ele>548.672</ele>
        <time>2010-05-01T08:33:27Z</time>
      </trkpt>
      <trkpt lat="42.31786" lon="2.4832">
        <ele>551.013</ele>
        <time>2010-05-01T08:33:41Z</time>
      </trkpt>
      <trkpt lat="42.31798" lon="2.48337">
        <ele>553.914</ele>
        <time>2010-05-01T08:33:57Z</time>
      </trkpt>
      <trkpt lat="42.31798" lon="2.48348">
        <ele>555.306</ele>
        <time>2010-05-01T08:34:02Z</time>
      </trkpt>
      <trkpt lat="42.3179" lon="2.48353">
        <ele>556.385</ele>
        <time>2010-05-01T08:34:07Z</time>
      </trkpt>
      <trkpt lat="42.31783" lon="2.4835">
        <ele>557.235</ele>
        <time>2010-05-01T08:34:12Z</time>
      </trkpt>
      <trkpt lat="42.31765" lon="2.48346">
        <ele>560.619</ele>
        <time>2010-05-01T08:34:26Z</time>
      </trkpt>
      <trkpt lat="42.31748" lon="2.48358">
        <ele>562.043</ele>
        <time>2010-05-01T08:34:39Z</time>
      </trkpt>
      <trkpt lat="42.31728" lon="2.48373">
        <ele>564.429</ele>
        <time>2010-05-01T08:34:54Z</time>
      </trkpt>
      <trkpt lat="42.31713" lon="2.48389">
        <ele>567.313</ele>
        <time>2010-05-01T08:35:07Z</time>
      </trkpt>
      <trkpt lat="42.31702" lon="2.48393">
        <ele>568.892</ele>
        <time>2010-05-01T08:35:16Z</time>
      </trkpt>
      <trkpt lat="42.31683" lon="2.48396">
        <ele>571.673</ele>
        <time>2010-05-01T08:35:31Z</time>
      </trkpt>
      <trkpt lat="42.31663" lon="2.48398">
        <ele>574.52</ele>
        <time>2010-05-01T08:35:45Z</time>
      </trkpt>
      <trkpt lat="42.31643" lon="2.48399">
        <ele>576.906</ele>
        <time>2010-05-01T08:35:58Z</time>
      </trkpt>
      <trkpt lat="42.31627" lon="2.48412">
        <ele>579.817</ele>
        <time>2010-05-01T08:36:13Z</time>
      </trkpt>
      <trkpt lat="42.31624" lon="2.48409">
        <ele>579.897</ele>
        <time>2010-05-01T08:36:14Z</time>
      </trkpt>
      <trkpt lat="42.31624" lon="2.48416">
        <ele>580.831</ele>
        <time>2010-05-01T08:36:18Z</time>
      </trkpt>
      <trkpt lat="42.31629" lon="2.48428">
        <ele>581.725</ele>
        <time>2010-05-01T08:36:24Z</time>
      </trkpt>
      <trkpt lat="42.3165" lon="2.48441">
        <ele>584.681</ele>
        <time>2010-05-01T08:36:40Z</time>
      </trkpt>
      <trkpt lat="42.3165" lon="2.48469">
        <ele>587.035</ele>
        <time>2010-05-01T08:36:54Z</time>
      </trkpt>
      <trkpt lat="42.31639" lon="2.48488">
        <ele>589.979</ele>
        <time>2010-05-01T08:37:08Z</time>
      </trkpt>
      <trkpt lat="42.31634" lon="2.48519">
        <ele>592.805</ele>
        <time>2010-05-01T08:37:25Z</time>
      </trkpt>
      <trkpt lat="42.31638" lon="2.48531">
        <ele>594.725</ele>
        <time>2010-05-01T08:37:33Z</time>
      </trkpt>
      <trkpt lat="42.31649" lon="2.48527">
        <ele>596.206</ele>
        <time>2010-05-01T08:37:42Z</time>
      </trkpt>
      <trkpt lat="42.31665" lon="2.48519">
        <ele>599.045</ele>
        <time>2010-05-01T08:37:56Z</time>
      </trkpt>
      <trkpt lat="42.31683" lon="2.48515">
        <ele>601.475</ele>
        <time>2010-05-01T08:38:10Z</time>
      </trkpt>
      <trkpt lat="42.31685" lon="2.48514">
        <ele>601.429</ele>
        <time>2010-05-01T08:38:11Z</time>
      </trkpt>
      <trkpt lat="42.317" lon="2.48508">
        <ele>604.363</ele>
        <time>2010-05-01T08:38:26Z</time>
      </trkpt>
      <trkpt lat="42.31702" lon="2.48508">
        <ele>604.329</ele>
        <time>2010-05-01T08:38:28Z</time>
      </trkpt>
      <trkpt lat="42.31705" lon="2.48507">
        <ele>604.853</ele>
        <time>2010-05-01T08:38:31Z</time>
      </trkpt>
      <trkpt lat="42.31711" lon="2.48507">
        <ele>605.395</ele>
        <time>2010-05-01T08:38:37Z</time>
      </trkpt>
      <trkpt lat="42.31715" lon="2.48507">
        <ele>605.849</ele>
        <time>2010-05-01T08:38:40Z</time>
      </trkpt>
      <trkpt lat="42.31735" lon="2.4851">
        <ele>607.723</ele>
        <time>2010-05-01T08:38:56Z</time>
      </trkpt>
      <trkpt lat="42.31759" lon="2.48522">
        <ele>609.606</ele>
        <time>2010-05-01T08:39:13Z</time>
      </trkpt>
      <trkpt lat="42.31775" lon="2.48528">
        <ele>611.597</ele>
        <time>2010-05-01T08:39:27Z</time>
      </trkpt>
      <trkpt lat="42.31777" lon="2.48533">
        <ele>612.057</ele>
        <time>2010-05-01T08:39:30Z</time>
      </trkpt>
      <trkpt lat="42.31777" lon="2.4854">
        <ele>613.521</ele>
        <time>2010-05-01T08:39:34Z</time>
      </trkpt>
      <trkpt lat="42.31775" lon="2.4854">
        <ele>613.985</ele>
        <time>2010-05-01T08:39:36Z</time>
      </trkpt>
      <trkpt lat="42.31767" lon="2.48543">
        <ele>614.911</ele>
        <time>2010-05-01T08:39:40Z</time>
      </trkpt>
      <trkpt lat="42.31764" lon="2.48543">
        <ele>614.955</ele>
        <time>2010-05-01T08:39:42Z</time>
      </trkpt>
      <trkpt lat="42.31759" lon="2.48541">
        <ele>615.978</ele>
        <time>2010-05-01T08:39:46Z</time>
      </trkpt>
      <trkpt lat="42.31747" lon="2.4854">
        <ele>617.333</ele>
        <time>2010-05-01T08:39:54Z</time>
      </trkpt>
      <trkpt lat="42.31724" lon="2.48541">
        <ele>620.226</ele>
        <time>2010-05-01T08:40:09Z</time>
      </trkpt>
      <trkpt lat="42.31716" lon="2.48545">
        <ele>621.606</ele>
        <time>2010-05-01T08:40:16Z</time>
      </trkpt>
      <trkpt lat="42.31713" lon="2.48552">
        <ele>621.645</ele>
        <time>2010-05-01T08:40:29Z</time>
      </trkpt>
      <trkpt lat="42.31713" lon="2.48547">
        <ele>621.625</ele>
        <time>2010-05-01T08:40:47Z</time>
      </trkpt>
      <trkpt lat="42.31711" lon="2.48554">
        <ele>622.689</ele>
        <time>2010-05-01T08:41:03Z</time>
      </trkpt>
      <trkpt lat="42.31707" lon="2.48605">
        <ele>625.033</ele>
        <time>2010-05-01T08:41:22Z</time>
      </trkpt>
      <trkpt lat="42.31705" lon="2.48631">
        <ele>626.979</ele>
        <time>2010-05-01T08:41:37Z</time>
      </trkpt>
      <trkpt lat="42.3169" lon="2.48644">
        <ele>628.443</ele>
        <time>2010-05-01T08:41:50Z</time>
      </trkpt>
      <trkpt lat="42.31687" lon="2.48658">
        <ele>628.414</ele>
        <time>2010-05-01T08:41:55Z</time>
      </trkpt>
      <trkpt lat="42.31683" lon="2.48666">
        <ele>628.854</ele>
        <time>2010-05-01T08:41:59Z</time>
      </trkpt>
      <trkpt lat="42.31677" lon="2.48691">
        <ele>630.809</ele>
        <time>2010-05-01T08:42:13Z</time>
      </trkpt>
      <trkpt lat="42.31676" lon="2.48701">
        <ele>631.206</ele>
        <time>2010-05-01T08:42:17Z</time>
      </trkpt>
      <trkpt lat="42.31672" lon="2.48714">
        <ele>632.259</ele>
        <time>2010-05-01T08:42:23Z</time>
      </trkpt>
      <trkpt lat="42.31671" lon="2.48717">
        <ele>632.719</ele>
        <time>2010-05-01T08:42:25Z</time>
      </trkpt>
      <trkpt lat="42.31671" lon="2.4873">
        <ele>633.653</ele>
        <time>2010-05-01T08:42:32Z</time>
      </trkpt>
      <trkpt lat="42.31667" lon="2.48756">
        <ele>636.067</ele>
        <time>2010-05-01T08:42:46Z</time>
      </trkpt>
      <trkpt lat="42.31667" lon="2.48788">
        <ele>638.993</ele>
        <time>2010-05-01T08:43:05Z</time>
      </trkpt>
      <trkpt lat="42.31669" lon="2.48814">
        <ele>641.817</ele>
        <time>2010-05-01T08:43:20Z</time>
      </trkpt>
      <trkpt lat="42.31671" lon="2.48838">
        <ele>643.732</ele>
        <time>2010-05-01T08:43:34Z</time>
      </trkpt>
      <trkpt lat="42.31673" lon="2.48863">
        <ele>646.192</ele>
        <time>2010-05-01T08:43:49Z</time>
      </trkpt>
      <trkpt lat="42.31671" lon="2.48877">
        <ele>648.111</ele>
        <time>2010-05-01T08:43:57Z</time>
      </trkpt>
      <trkpt lat="42.31669" lon="2.48887">
        <ele>648.506</ele>
        <time>2010-05-01T08:44:02Z</time>
      </trkpt>
      <trkpt lat="42.31659" lon="2.48912">
        <ele>651.951</ele>
        <time>2010-05-01T08:44:18Z</time>
      </trkpt>
      <trkpt lat="42.31649" lon="2.4893">
        <ele>654.341</ele>
        <time>2010-05-01T08:44:32Z</time>
      </trkpt>
      <trkpt lat="42.31644" lon="2.48952">
        <ele>655.865</ele>
        <time>2010-05-01T08:44:43Z</time>
      </trkpt>
      <trkpt lat="42.31645" lon="2.48961">
        <ele>658.229</ele>
        <time>2010-05-01T08:44:56Z</time>
      </trkpt>
      <trkpt lat="42.31654" lon="2.48963">
        <ele>658.615</ele>
        <time>2010-05-01T08:45:02Z</time>
      </trkpt>
      <trkpt lat="42.31657" lon="2.48964">
        <ele>659.689</ele>
        <time>2010-05-01T08:45:06Z</time>
      </trkpt>
      <trkpt lat="42.31666" lon="2.48976">
        <ele>662.022</ele>
        <time>2010-05-01T08:45:20Z</time>
      </trkpt>
      <trkpt lat="42.31671" lon="2.48996">
        <ele>665.462</ele>
        <time>2010-05-01T08:45:36Z</time>
      </trkpt>
      <trkpt lat="42.31674" lon="2.49012">
        <ele>668.308</ele>
        <time>2010-05-01T08:45:49Z</time>
      </trkpt>
      <trkpt lat="42.31676" lon="2.49012">
        <ele>667.806</ele>
        <time>2010-05-01T08:45:51Z</time>
      </trkpt>
      <trkpt lat="42.3168" lon="2.49016">
        <ele>669.26</ele>
        <time>2010-05-01T08:45:56Z</time>
      </trkpt>
      <trkpt lat="42.31679" lon="2.49019">
        <ele>669.74</ele>
        <time>2010-05-01T08:45:58Z</time>
      </trkpt>
      <trkpt lat="42.31681" lon="2.49027">
        <ele>671.144</ele>
        <time>2010-05-01T08:46:04Z</time>
      </trkpt>
      <trkpt lat="42.31684" lon="2.49028">
        <ele>674.048</ele>
        <time>2010-05-01T08:46:18Z</time>
      </trkpt>
      <trkpt lat="42.31683" lon="2.4902">
        <ele>674.524</ele>
        <time>2010-05-01T08:46:20Z</time>
      </trkpt>
      <trkpt lat="42.31689" lon="2.4903">
        <ele>676.988</ele>
        <time>2010-05-01T08:46:35Z</time>
      </trkpt>
      <trkpt lat="42.31697" lon="2.49048">
        <ele>677.441</ele>
        <time>2010-05-01T08:46:49Z</time>
      </trkpt>
      <trkpt lat="42.31706" lon="2.49061">
        <ele>676.981</ele>
        <time>2010-05-01T08:46:58Z</time>
      </trkpt>
      <trkpt lat="42.31725" lon="2.49079">
        <ele>674.009</ele>
        <time>2010-05-01T08:47:15Z</time>
      </trkpt>
      <trkpt lat="42.31743" lon="2.49097">
        <ele>671.606</ele>
        <time>2010-05-01T08:47:27Z</time>
      </trkpt>
      <trkpt lat="42.31755" lon="2.49117">
        <ele>668.312</ele>
        <time>2010-05-01T08:47:36Z</time>
      </trkpt>
      <trkpt lat="42.31781" lon="2.49136">
        <ele>664.972</ele>
        <time>2010-05-01T08:47:48Z</time>
      </trkpt>
      <trkpt lat="42.3181" lon="2.49141">
        <ele>662.556</ele>
        <time>2010-05-01T08:47:59Z</time>
      </trkpt>
      <trkpt lat="42.31835" lon="2.4913">
        <ele>659.62</ele>
        <time>2010-05-01T08:48:09Z</time>
      </trkpt>
      <trkpt lat="42.31839" lon="2.49128">
        <ele>658.696</ele>
        <time>2010-05-01T08:48:11Z</time>
      </trkpt>
      <trkpt lat="42.3185" lon="2.49127">
        <ele>657.23</ele>
        <time>2010-05-01T08:48:15Z</time>
      </trkpt>
      <trkpt lat="42.31865" lon="2.49137">
        <ele>654.863</ele>
        <time>2010-05-01T08:48:21Z</time>
      </trkpt>
      <trkpt lat="42.31875" lon="2.49143">
        <ele>652.944</ele>
        <time>2010-05-01T08:48:25Z</time>
      </trkpt>
      <trkpt lat="42.31888" lon="2.49148">
        <ele>651.418</ele>
        <time>2010-05-01T08:48:30Z</time>
      </trkpt>
      <trkpt lat="42.31903" lon="2.49144">
        <ele>648.106</ele>
        <time>2010-05-01T08:48:38Z</time>
      </trkpt>
      <trkpt lat="42.31906" lon="2.49146">
        <ele>647.664</ele>
        <time>2010-05-01T08:48:39Z</time>
      </trkpt>
      <trkpt lat="42.31905" lon="2.49159">
        <ele>644.764</ele>
        <time>2010-05-01T08:48:45Z</time>
      </trkpt>
      <trkpt lat="42.3188" lon="2.49154">
        <ele>640.928</ele>
        <time>2010-05-01T08:48:55Z</time>
      </trkpt>
      <trkpt lat="42.31863" lon="2.49171">
        <ele>637.532</ele>
        <time>2010-05-01T08:49:04Z</time>
      </trkpt>
      <trkpt lat="42.31863" lon="2.49193">
        <ele>633.628</ele>
        <time>2010-05-01T08:49:12Z</time>
      </trkpt>
      <trkpt lat="42.3188" lon="2.49192">
        <ele>630.852</ele>
        <time>2010-05-01T08:49:21Z</time>
      </trkpt>
      <trkpt lat="42.31883" lon="2.49192">
        <ele>629.827</ele>
        <time>2010-05-01T08:49:23Z</time>
      </trkpt>
      <trkpt lat="42.31903" lon="2.49193">
        <ele>626.468</ele>
        <time>2010-05-01T08:49:34Z</time>
      </trkpt>
      <trkpt lat="42.31907" lon="2.49197">
        <ele>625.514</ele>
        <time>2010-05-01T08:49:36Z</time>
      </trkpt>
      <trkpt lat="42.31919" lon="2.4922">
        <ele>622.606</ele>
        <time>2010-05-01T08:49:46Z</time>
      </trkpt>
      <trkpt lat="42.31933" lon="2.49237">
        <ele>619.27</ele>
        <time>2010-05-01T08:49:57Z</time>
      </trkpt>
      <trkpt lat="42.31937" lon="2.49272">
        <ele>617.88</ele>
        <time>2010-05-01T08:50:07Z</time>
      </trkpt>
      <trkpt lat="42.3196" lon="2.49311">
        <ele>618.354</ele>
        <time>2010-05-01T08:50:19Z</time>
      </trkpt>
      <trkpt lat="42.31966" lon="2.49318">
        <ele>617.828</ele>
        <time>2010-05-01T08:50:23Z</time>
      </trkpt>
      <trkpt lat="42.31969" lon="2.4935">
        <ele>616.864</ele>
        <time>2010-05-01T08:50:37Z</time>
      </trkpt>
      <trkpt lat="42.31972" lon="2.49381">
        <ele>615.988</ele>
        <time>2010-05-01T08:50:48Z</time>
      </trkpt>
      <trkpt lat="42.3198" lon="2.4942">
        <ele>614.968</ele>
        <time>2010-05-01T08:51:00Z</time>
      </trkpt>
      <trkpt lat="42.3199" lon="2.49455">
        <ele>614.442</ele>
        <time>2010-05-01T08:51:12Z</time>
      </trkpt>
      <trkpt lat="42.31998" lon="2.49491">
        <ele>614.426</ele>
        <time>2010-05-01T08:51:24Z</time>
      </trkpt>
      <trkpt lat="42.32017" lon="2.4952">
        <ele>614.906</ele>
        <time>2010-05-01T08:51:36Z</time>
      </trkpt>
      <trkpt lat="42.32034" lon="2.49529">
        <ele>615.494</ele>
        <time>2010-05-01T08:51:46Z</time>
      </trkpt>
      <trkpt lat="42.32047" lon="2.49531">
        <ele>615.914</ele>
        <time>2010-05-01T08:51:53Z</time>
      </trkpt>
      <trkpt lat="42.32062" lon="2.49533">
        <ele>617.378</ele>
        <time>2010-05-01T08:52:02Z</time>
      </trkpt>
      <trkpt lat="42.32066" lon="2.49536">
        <ele>617.882</ele>
        <time>2010-05-01T08:52:06Z</time>
      </trkpt>
      <trkpt lat="42.32076" lon="2.49569">
        <ele>620.778</ele>
        <time>2010-05-01T08:52:27Z</time>
      </trkpt>
      <trkpt lat="42.32081" lon="2.4959">
        <ele>623.112</ele>
        <time>2010-05-01T08:52:39Z</time>
      </trkpt>
      <trkpt lat="42.32082" lon="2.4959">
        <ele>623.131</ele>
        <time>2010-05-01T08:52:40Z</time>
      </trkpt>
      <trkpt lat="42.32087" lon="2.49599">
        <ele>624.061</ele>
        <time>2010-05-01T08:52:44Z</time>
      </trkpt>
      <trkpt lat="42.32101" lon="2.49621">
        <ele>626.907</ele>
        <time>2010-05-01T08:52:59Z</time>
      </trkpt>
      <trkpt lat="42.32104" lon="2.49623">
        <ele>627.906</ele>
        <time>2010-05-01T08:53:05Z</time>
      </trkpt>
      <trkpt lat="42.32117" lon="2.49636">
        <ele>629.871</ele>
        <time>2010-05-01T08:53:17Z</time>
      </trkpt>
      <trkpt lat="42.32119" lon="2.4964">
        <ele>630.351</ele>
        <time>2010-05-01T08:53:19Z</time>
      </trkpt>
      <trkpt lat="42.32127" lon="2.49645">
        <ele>631.295</ele>
        <time>2010-05-01T08:53:28Z</time>
      </trkpt>
      <trkpt lat="42.32131" lon="2.49649">
        <ele>631.759</ele>
        <time>2010-05-01T08:53:32Z</time>
      </trkpt>
      <trkpt lat="42.32145" lon="2.49655">
        <ele>633.655</ele>
        <time>2010-05-01T08:53:44Z</time>
      </trkpt>
      <trkpt lat="42.32153" lon="2.49662">
        <ele>634.669</ele>
        <time>2010-05-01T08:53:50Z</time>
      </trkpt>
      <trkpt lat="42.32164" lon="2.4967">
        <ele>635.697</ele>
        <time>2010-05-01T08:53:57Z</time>
      </trkpt>
      <trkpt lat="42.32163" lon="2.497">
        <ele>637.023</ele>
        <time>2010-05-01T08:54:10Z</time>
      </trkpt>
      <trkpt lat="42.32165" lon="2.49724">
        <ele>637.025</ele>
        <time>2010-05-01T08:54:20Z</time>
      </trkpt>
      <trkpt lat="42.32166" lon="2.49726">
        <ele>637.506</ele>
        <time>2010-05-01T08:54:22Z</time>
      </trkpt>
      <trkpt lat="42.32171" lon="2.49744">
        <ele>638.517</ele>
        <time>2010-05-01T08:54:34Z</time>
      </trkpt>
      <trkpt lat="42.32178" lon="2.49773">
        <ele>638.597</ele>
        <time>2010-05-01T08:54:46Z</time>
      </trkpt>
      <trkpt lat="42.3218" lon="2.49801">
        <ele>639.491</ele>
        <time>2010-05-01T08:54:57Z</time>
      </trkpt>
      <trkpt lat="42.32183" lon="2.49821">
        <ele>641.355</ele>
        <time>2010-05-01T08:55:11Z</time>
      </trkpt>
      <trkpt lat="42.32185" lon="2.49847">
        <ele>643.791</ele>
        <time>2010-05-01T08:55:24Z</time>
      </trkpt>
      <trkpt lat="42.32188" lon="2.49856">
        <ele>645.295</ele>
        <time>2010-05-01T08:55:32Z</time>
      </trkpt>
      <trkpt lat="42.3219" lon="2.49867">
        <ele>646.155</ele>
        <time>2010-05-01T08:55:36Z</time>
      </trkpt>
      <trkpt lat="42.32201" lon="2.49889">
        <ele>649.007</ele>
        <time>2010-05-01T08:55:51Z</time>
      </trkpt>
      <trkpt lat="42.32208" lon="2.49912">
        <ele>651.917</ele>
        <time>2010-05-01T08:56:03Z</time>
      </trkpt>
      <trkpt lat="42.32209" lon="2.49918">
        <ele>652.406</ele>
        <time>2010-05-01T08:56:06Z</time>
      </trkpt>
      <trkpt lat="42.32214" lon="2.49929">
        <ele>654.863</ele>
        <time>2010-05-01T08:56:15Z</time>
      </trkpt>
      <trkpt lat="42.32222" lon="2.49935">
        <ele>655.873</ele>
        <time>2010-05-01T08:56:21Z</time>
      </trkpt>
      <trkpt lat="42.32229" lon="2.49941">
        <ele>657.237</ele>
        <time>2010-05-01T08:56:30Z</time>
      </trkpt>
      <trkpt lat="42.32238" lon="2.49953">
        <ele>659.151</ele>
        <time>2010-05-01T08:56:42Z</time>
      </trkpt>
      <trkpt lat="42.3225" lon="2.49969">
        <ele>661.047</ele>
        <time>2010-05-01T08:56:54Z</time>
      </trkpt>
      <trkpt lat="42.32252" lon="2.49971">
        <ele>661.071</ele>
        <time>2010-05-01T08:56:57Z</time>
      </trkpt>
      <trkpt lat="42.32257" lon="2.50005">
        <ele>662.067</ele>
        <time>2010-05-01T08:57:10Z</time>
      </trkpt>
      <trkpt lat="42.32261" lon="2.50013">
        <ele>663.481</ele>
        <time>2010-05-01T08:57:20Z</time>
      </trkpt>
      <trkpt lat="42.32264" lon="2.50029">
        <ele>664.419</ele>
        <time>2010-05-01T08:57:26Z</time>
      </trkpt>
      <trkpt lat="42.32279" lon="2.50049">
        <ele>666.306</ele>
        <time>2010-05-01T08:57:40Z</time>
      </trkpt>
      <trkpt lat="42.32282" lon="2.50056">
        <ele>667.394</ele>
        <time>2010-05-01T08:57:46Z</time>
      </trkpt>
      <trkpt lat="42.32288" lon="2.50079">
        <ele>669.274</ele>
        <time>2010-05-01T08:57:57Z</time>
      </trkpt>
      <trkpt lat="42.32289" lon="2.50103">
        <ele>670.238</ele>
        <time>2010-05-01T08:58:08Z</time>
      </trkpt>
      <trkpt lat="42.32289" lon="2.50126">
        <ele>670.272</ele>
        <time>2010-05-01T08:58:18Z</time>
      </trkpt>
      <trkpt lat="42.32294" lon="2.50146">
        <ele>670.248</ele>
        <time>2010-05-01T08:58:29Z</time>
      </trkpt>
      <trkpt lat="42.32296" lon="2.50148">
        <ele>670.712</ele>
        <time>2010-05-01T08:58:32Z</time>
      </trkpt>
      <trkpt lat="42.32298" lon="2.50072">
        <ele>673.164</ele>
        <time>2010-05-01T08:58:42Z</time>
      </trkpt>
      <trkpt lat="42.323" lon="2.50041">
        <ele>675.006</ele>
        <time>2010-05-01T08:58:52Z</time>
      </trkpt>
      <trkpt lat="42.32296" lon="2.50032">
        <ele>675.016</ele>
        <time>2010-05-01T08:58:57Z</time>
      </trkpt>
      <trkpt lat="42.32307" lon="2.50032">
        <ele>674.006</ele>
        <time>2010-05-01T08:59:08Z</time>
      </trkpt>
      <trkpt lat="42.32272" lon="2.50011">
        <ele>673.124</ele>
        <time>2010-05-01T08:59:21Z</time>
      </trkpt>
      <trkpt lat="42.32264" lon="2.49998">
        <ele>673.514</ele>
        <time>2010-05-01T08:59:32Z</time>
      </trkpt>
      <trkpt lat="42.32242" lon="2.49978">
        <ele>675.028</ele>
        <time>2010-05-01T08:59:43Z</time>
      </trkpt>
      <trkpt lat="42.32222" lon="2.49962">
        <ele>676.922</ele>
        <time>2010-05-01T08:59:55Z</time>
      </trkpt>
      <trkpt lat="42.32203" lon="2.4995">
        <ele>680.368</ele>
        <time>2010-05-01T09:00:09Z</time>
      </trkpt>
      <trkpt lat="42.32181" lon="2.49952">
        <ele>683.262</ele>
        <time>2010-05-01T09:00:23Z</time>
      </trkpt>
      <trkpt lat="42.32166" lon="2.49958">
        <ele>686.548</ele>
        <time>2010-05-01T09:00:33Z</time>
      </trkpt>
      <trkpt lat="42.32148" lon="2.49962">
        <ele>689.961</ele>
        <time>2010-05-01T09:00:47Z</time>
      </trkpt>
      <trkpt lat="42.3213" lon="2.49965">
        <ele>692.817</ele>
        <time>2010-05-01T09:01:00Z</time>
      </trkpt>
      <trkpt lat="42.32113" lon="2.49946">
        <ele>695.706</ele>
        <time>2010-05-01T09:01:12Z</time>
      </trkpt>
      <trkpt lat="42.32097" lon="2.49928">
        <ele>698.542</ele>
        <time>2010-05-01T09:01:24Z</time>
      </trkpt>
      <trkpt lat="42.32087" lon="2.49922">
        <ele>701.462</ele>
        <time>2010-05-01T09:01:34Z</time>
      </trkpt>
      <trkpt lat="42.32073" lon="2.4992">
        <ele>704.816</ele>
        <time>2010-05-01T09:01:45Z</time>
      </trkpt>
      <trkpt lat="42.32055" lon="2.49913">
        <ele>707.71</ele>
        <time>2010-05-01T09:01:58Z</time>
      </trkpt>
      <trkpt lat="42.32037" lon="2.49902">
        <ele>711.086</ele>
        <time>2010-05-01T09:02:10Z</time>
      </trkpt>
      <trkpt lat="42.32021" lon="2.49892">
        <ele>713.46</ele>
        <time>2010-05-01T09:02:21Z</time>
      </trkpt>
      <trkpt lat="42.32018" lon="2.49895">
        <ele>714.459</ele>
        <time>2010-05-01T09:02:25Z</time>
      </trkpt>
      <trkpt lat="42.32" lon="2.49884">
        <ele>716.803</ele>
        <time>2010-05-01T09:02:38Z</time>
      </trkpt>
      <trkpt lat="42.31985" lon="2.49875">
        <ele>720.223</ele>
        <time>2010-05-01T09:02:49Z</time>
      </trkpt>
      <trkpt lat="42.31969" lon="2.49844">
        <ele>723.006</ele>
        <time>2010-05-01T09:03:01Z</time>
      </trkpt>
      <trkpt lat="42.31944" lon="2.4982">
        <ele>724.073</ele>
        <time>2010-05-01T09:03:17Z</time>
      </trkpt>
      <trkpt lat="42.31923" lon="2.49836">
        <ele>725.573</ele>
        <time>2010-05-01T09:03:30Z</time>
      </trkpt>
      <trkpt lat="42.31917" lon="2.49846">
        <ele>726.977</ele>
        <time>2010-05-01T09:03:37Z</time>
      </trkpt>
      <trkpt lat="42.31913" lon="2.49851">
        <ele>728.321</ele>
        <time>2010-05-01T09:03:42Z</time>
      </trkpt>
      <trkpt lat="42.31908" lon="2.49859">
        <ele>729.867</ele>
        <time>2010-05-01T09:03:48Z</time>
      </trkpt>
      <trkpt lat="42.31905" lon="2.49867">
        <ele>731.221</ele>
        <time>2010-05-01T09:03:53Z</time>
      </trkpt>
      <trkpt lat="42.31897" lon="2.49882">
        <ele>734.657</ele>
        <time>2010-05-01T09:04:03Z</time>
      </trkpt>
      <trkpt lat="42.31892" lon="2.49887">
        <ele>736</ele>
        <time>2010-05-01T09:04:08Z</time>
      </trkpt>
      <trkpt lat="42.31887" lon="2.49888">
        <ele>737.52</ele>
        <time>2010-05-01T09:04:12Z</time>
      </trkpt>
      <trkpt lat="42.31874" lon="2.49887">
        <ele>740.806</ele>
        <time>2010-05-01T09:04:22Z</time>
      </trkpt>
      <trkpt lat="42.31856" lon="2.49888">
        <ele>743.793</ele>
        <time>2010-05-01T09:04:33Z</time>
      </trkpt>
      <trkpt lat="42.31843" lon="2.49884">
        <ele>746.693</ele>
        <time>2010-05-01T09:04:42Z</time>
      </trkpt>
      <trkpt lat="42.31835" lon="2.49886">
        <ele>748.567</ele>
        <time>2010-05-01T09:04:47Z</time>
      </trkpt>
      <trkpt lat="42.31822" lon="2.49884">
        <ele>751.921</ele>
        <time>2010-05-01T09:04:57Z</time>
      </trkpt>
      <trkpt lat="42.31815" lon="2.4988">
        <ele>753.347</ele>
        <time>2010-05-01T09:05:03Z</time>
      </trkpt>
      <trkpt lat="42.31804" lon="2.49877">
        <ele>757.281</ele>
        <time>2010-05-01T09:05:12Z</time>
      </trkpt>
      <trkpt lat="42.31797" lon="2.49872">
        <ele>758.119</ele>
        <time>2010-05-01T09:05:16Z</time>
      </trkpt>
      <trkpt lat="42.31791" lon="2.49861">
        <ele>760.109</ele>
        <time>2010-05-01T09:05:21Z</time>
      </trkpt>
      <trkpt lat="42.31787" lon="2.49858">
        <ele>761.519</ele>
        <time>2010-05-01T09:05:25Z</time>
      </trkpt>
      <trkpt lat="42.31781" lon="2.4986">
        <ele>763.406</ele>
        <time>2010-05-01T09:05:31Z</time>
      </trkpt>
      <trkpt lat="42.31774" lon="2.49857">
        <ele>765.839</ele>
        <time>2010-05-01T09:05:37Z</time>
      </trkpt>
      <trkpt lat="42.31769" lon="2.49853">
        <ele>766.889</ele>
        <time>2010-05-01T09:05:41Z</time>
      </trkpt>
      <trkpt lat="42.31766" lon="2.49852">
        <ele>767.813</ele>
        <time>2010-05-01T09:05:43Z</time>
      </trkpt>
      <trkpt lat="42.31764" lon="2.4985">
        <ele>768.737</ele>
        <time>2010-05-01T09:05:45Z</time>
      </trkpt>
      <trkpt lat="42.31752" lon="2.49841">
        <ele>771.633</ele>
        <time>2010-05-01T09:05:55Z</time>
      </trkpt>
      <trkpt lat="42.31745" lon="2.49834">
        <ele>774.077</ele>
        <time>2010-05-01T09:06:01Z</time>
      </trkpt>
      <trkpt lat="42.31733" lon="2.49814">
        <ele>777.471</ele>
        <time>2010-05-01T09:06:13Z</time>
      </trkpt>
      <trkpt lat="42.3171" lon="2.49806">
        <ele>780.241</ele>
        <time>2010-05-01T09:06:26Z</time>
      </trkpt>
      <trkpt lat="42.31702" lon="2.49803">
        <ele>781.715</ele>
        <time>2010-05-01T09:06:31Z</time>
      </trkpt>
      <trkpt lat="42.31696" lon="2.4979">
        <ele>783.106</ele>
        <time>2010-05-01T09:06:36Z</time>
      </trkpt>
      <trkpt lat="42.31685" lon="2.49779">
        <ele>786.555</ele>
        <time>2010-05-01T09:06:46Z</time>
      </trkpt>
      <trkpt lat="42.31668" lon="2.49776">
        <ele>789.455</ele>
        <time>2010-05-01T09:06:58Z</time>
      </trkpt>
      <trkpt lat="42.31662" lon="2.49776">
        <ele>790.369</ele>
        <time>2010-05-01T09:07:01Z</time>
      </trkpt>
      <trkpt lat="42.31655" lon="2.49778">
        <ele>792.383</ele>
        <time>2010-05-01T09:07:07Z</time>
      </trkpt>
      <trkpt lat="42.31652" lon="2.4978">
        <ele>793.789</ele>
        <time>2010-05-01T09:07:11Z</time>
      </trkpt>
      <trkpt lat="42.31651" lon="2.49782">
        <ele>796.113</ele>
        <time>2010-05-01T09:07:17Z</time>
      </trkpt>
      <trkpt lat="42.31656" lon="2.49787">
        <ele>797.646</ele>
        <time>2010-05-01T09:07:21Z</time>
      </trkpt>
      <trkpt lat="42.31663" lon="2.49787">
        <ele>799.588</ele>
        <time>2010-05-01T09:07:26Z</time>
      </trkpt>
      <trkpt lat="42.31676" lon="2.49783">
        <ele>802.816</ele>
        <time>2010-05-01T09:07:34Z</time>
      </trkpt>
      <trkpt lat="42.31687" lon="2.49789">
        <ele>805.706</ele>
        <time>2010-05-01T09:07:44Z</time>
      </trkpt>
      <trkpt lat="42.31695" lon="2.49802">
        <ele>809.112</ele>
        <time>2010-05-01T09:07:56Z</time>
      </trkpt>
      <trkpt lat="42.31706" lon="2.49821">
        <ele>812.562</ele>
        <time>2010-05-01T09:08:09Z</time>
      </trkpt>
      <trkpt lat="42.31721" lon="2.49818">
        <ele>813.916</ele>
        <time>2010-05-01T09:08:17Z</time>
      </trkpt>
      <trkpt lat="42.31727" lon="2.49821">
        <ele>815.84</ele>
        <time>2010-05-01T09:08:22Z</time>
      </trkpt>
      <trkpt lat="42.31717" lon="2.4987">
        <ele>819.286</ele>
        <time>2010-05-01T09:08:32Z</time>
      </trkpt>
      <trkpt lat="42.31705" lon="2.49897">
        <ele>822.15</ele>
        <time>2010-05-01T09:08:41Z</time>
      </trkpt>
      <trkpt lat="42.31698" lon="2.49925">
        <ele>824.567</ele>
        <time>2010-05-01T09:08:49Z</time>
      </trkpt>
      <trkpt lat="42.31698" lon="2.49928">
        <ele>824.981</ele>
        <time>2010-05-01T09:08:50Z</time>
      </trkpt>
      <trkpt lat="42.31702" lon="2.49942">
        <ele>826.919</ele>
        <time>2010-05-01T09:08:57Z</time>
      </trkpt>
      <trkpt lat="42.31728" lon="2.49977">
        <ele>830.206</ele>
        <time>2010-05-01T09:09:09Z</time>
      </trkpt>
      <trkpt lat="42.31732" lon="2.49986">
        <ele>832.274</ele>
        <time>2010-05-01T09:09:15Z</time>
      </trkpt>
      <trkpt lat="42.31728" lon="2.49988">
        <ele>834.694</ele>
        <time>2010-05-01T09:09:22Z</time>
      </trkpt>
      <trkpt lat="42.31737" lon="2.50008">
        <ele>837.988</ele>
        <time>2010-05-01T09:09:34Z</time>
      </trkpt>
      <trkpt lat="42.31763" lon="2.50025">
        <ele>841.312</ele>
        <time>2010-05-01T09:09:46Z</time>
      </trkpt>
      <trkpt lat="42.31764" lon="2.5003">
        <ele>842.398</ele>
        <time>2010-05-01T09:09:50Z</time>
      </trkpt>
      <trkpt lat="42.31771" lon="2.50036">
        <ele>843.752</ele>
        <time>2010-05-01T09:09:55Z</time>
      </trkpt>
      <trkpt lat="42.31771" lon="2.50038">
        <ele>844.736</ele>
        <time>2010-05-01T09:09:58Z</time>
      </trkpt>
      <trkpt lat="42.31785" lon="2.50042">
        <ele>846.117</ele>
        <time>2010-05-01T09:10:05Z</time>
      </trkpt>
      <trkpt lat="42.31794" lon="2.50052">
        <ele>847.518</ele>
        <time>2010-05-01T09:10:12Z</time>
      </trkpt>
      <trkpt lat="42.31803" lon="2.50072">
        <ele>850.406</ele>
        <time>2010-05-01T09:10:25Z</time>
      </trkpt>
      <trkpt lat="42.31811" lon="2.50086">
        <ele>852.831</ele>
        <time>2010-05-01T09:10:34Z</time>
      </trkpt>
      <trkpt lat="42.31822" lon="2.50106">
        <ele>856.241</ele>
        <time>2010-05-01T09:10:45Z</time>
      </trkpt>
      <trkpt lat="42.31832" lon="2.5012">
        <ele>859.145</ele>
        <time>2010-05-01T09:10:56Z</time>
      </trkpt>
      <trkpt lat="42.31839" lon="2.50135">
        <ele>862.449</ele>
        <time>2010-05-01T09:11:07Z</time>
      </trkpt>
      <trkpt lat="42.31842" lon="2.50144">
        <ele>864.865</ele>
        <time>2010-05-01T09:11:14Z</time>
      </trkpt>
      <trkpt lat="42.31848" lon="2.5016">
        <ele>868.269</ele>
        <time>2010-05-01T09:11:25Z</time>
      </trkpt>
      <trkpt lat="42.31851" lon="2.50181">
        <ele>871.659</ele>
        <time>2010-05-01T09:11:36Z</time>
      </trkpt>
      <trkpt lat="42.31851" lon="2.50197">
        <ele>874.503</ele>
        <time>2010-05-01T09:11:47Z</time>
      </trkpt>
      <trkpt lat="42.31851" lon="2.50204">
        <ele>875.923</ele>
        <time>2010-05-01T09:11:52Z</time>
      </trkpt>
      <trkpt lat="42.31849" lon="2.50213">
        <ele>877.306</ele>
        <time>2010-05-01T09:11:57Z</time>
      </trkpt>
      <trkpt lat="42.31852" lon="2.50235">
        <ele>880.793</ele>
        <time>2010-05-01T09:12:09Z</time>
      </trkpt>
      <trkpt lat="42.31852" lon="2.50239">
        <ele>881.273</ele>
        <time>2010-05-01T09:12:12Z</time>
      </trkpt>
      <trkpt lat="42.31865" lon="2.50249">
        <ele>882.617</ele>
        <time>2010-05-01T09:12:24Z</time>
      </trkpt>
      <trkpt lat="42.31886" lon="2.50246">
        <ele>884.111</ele>
        <time>2010-05-01T09:12:35Z</time>
      </trkpt>
      <trkpt lat="42.31901" lon="2.50235">
        <ele>887.457</ele>
        <time>2010-05-01T09:12:46Z</time>
      </trkpt>
      <trkpt lat="42.31915" lon="2.50231">
        <ele>890.341</ele>
        <time>2010-05-01T09:12:56Z</time>
      </trkpt>
      <trkpt lat="42.31926" lon="2.50238">
        <ele>893.269</ele>
        <time>2010-05-01T09:13:06Z</time>
      </trkpt>
      <trkpt lat="42.31926" lon="2.50245">
        <ele>894.604</ele>
        <time>2010-05-01T09:13:10Z</time>
      </trkpt>
      <trkpt lat="42.31917" lon="2.50264">
        <ele>898.024</ele>
        <time>2010-05-01T09:13:21Z</time>
      </trkpt>
      <trkpt lat="42.3191" lon="2.50278">
        <ele>900.906</ele>
        <time>2010-05-01T09:13:32Z</time>
      </trkpt>
      <trkpt lat="42.31905" lon="2.50284">
        <ele>902.364</ele>
        <time>2010-05-01T09:13:37Z</time>
      </trkpt>
      <trkpt lat="42.31903" lon="2.50288">
        <ele>903.834</ele>
        <time>2010-05-01T09:13:41Z</time>
      </trkpt>
      <trkpt lat="42.31895" lon="2.50305">
        <ele>905.758</ele>
        <time>2010-05-01T09:13:52Z</time>
      </trkpt>
      <trkpt lat="42.31893" lon="2.50312">
        <ele>907.172</ele>
        <time>2010-05-01T09:13:56Z</time>
      </trkpt>
      <trkpt lat="42.31891" lon="2.50324">
        <ele>908.678</ele>
        <time>2010-05-01T09:14:02Z</time>
      </trkpt>
      <trkpt lat="42.31878" lon="2.50338">
        <ele>911.992</ele>
        <time>2010-05-01T09:14:16Z</time>
      </trkpt>
      <trkpt lat="42.31874" lon="2.50352">
        <ele>915.363</ele>
        <time>2010-05-01T09:14:29Z</time>
      </trkpt>
      <trkpt lat="42.3187" lon="2.50366">
        <ele>918.244</ele>
        <time>2010-05-01T09:14:41Z</time>
      </trkpt>
      <trkpt lat="42.31847" lon="2.50377">
        <ele>921.618</ele>
        <time>2010-05-01T09:14:54Z</time>
      </trkpt>
      <trkpt lat="42.31869" lon="2.50395">
        <ele>924.406</ele>
        <time>2010-05-01T09:15:08Z</time>
      </trkpt>
      <trkpt lat="42.31865" lon="2.50414">
        <ele>927.834</ele>
        <time>2010-05-01T09:15:19Z</time>
      </trkpt>
      <trkpt lat="42.31863" lon="2.50418">
        <ele>929.394</ele>
        <time>2010-05-01T09:15:26Z</time>
      </trkpt>
      <trkpt lat="42.31857" lon="2.50427">
        <ele>931.788</ele>
        <time>2010-05-01T09:15:34Z</time>
      </trkpt>
      <trkpt lat="42.31857" lon="2.50433">
        <ele>932.682</ele>
        <time>2010-05-01T09:15:37Z</time>
      </trkpt>
      <trkpt lat="42.31854" lon="2.50437">
        <ele>933.628</ele>
        <time>2010-05-01T09:15:41Z</time>
      </trkpt>
      <trkpt lat="42.31852" lon="2.50442">
        <ele>935.042</ele>
        <time>2010-05-01T09:15:45Z</time>
      </trkpt>
      <trkpt lat="42.31844" lon="2.50454">
        <ele>938.452</ele>
        <time>2010-05-01T09:15:57Z</time>
      </trkpt>
      <trkpt lat="42.31839" lon="2.50463">
        <ele>941.753</ele>
        <time>2010-05-01T09:16:08Z</time>
      </trkpt>
      <trkpt lat="42.31833" lon="2.50478">
        <ele>944.608</ele>
        <time>2010-05-01T09:16:19Z</time>
      </trkpt>
      <trkpt lat="42.3182" lon="2.50489">
        <ele>947.506</ele>
        <time>2010-05-01T09:16:30Z</time>
      </trkpt>
      <trkpt lat="42.31815" lon="2.50497">
        <ele>948.043</ele>
        <time>2010-05-01T09:16:34Z</time>
      </trkpt>
      <trkpt lat="42.31802" lon="2.50523">
        <ele>951.813</ele>
        <time>2010-05-01T09:16:50Z</time>
      </trkpt>
      <trkpt lat="42.3179" lon="2.50545">
        <ele>954.237</ele>
        <time>2010-05-01T09:17:02Z</time>
      </trkpt>
      <trkpt lat="42.31789" lon="2.50556">
        <ele>955.251</ele>
        <time>2010-05-01T09:17:09Z</time>
      </trkpt>
      <trkpt lat="42.3179" lon="2.50564">
        <ele>956.297</ele>
        <time>2010-05-01T09:17:13Z</time>
      </trkpt>
      <trkpt lat="42.31787" lon="2.50572">
        <ele>957.181</ele>
        <time>2010-05-01T09:17:18Z</time>
      </trkpt>
      <trkpt lat="42.31786" lon="2.50585">
        <ele>958.633</ele>
        <time>2010-05-01T09:17:25Z</time>
      </trkpt>
      <trkpt lat="42.31785" lon="2.506">
        <ele>960.023</ele>
        <time>2010-05-01T09:17:32Z</time>
      </trkpt>
      <trkpt lat="42.31786" lon="2.50632">
        <ele>962.915</ele>
        <time>2010-05-01T09:17:48Z</time>
      </trkpt>
      <trkpt lat="42.31784" lon="2.50657">
        <ele>965.306</ele>
        <time>2010-05-01T09:18:01Z</time>
      </trkpt>
      <trkpt lat="42.31774" lon="2.50675">
        <ele>967.251</ele>
        <time>2010-05-01T09:18:13Z</time>
      </trkpt>
      <trkpt lat="42.3177" lon="2.50696">
        <ele>969.171</ele>
        <time>2010-05-01T09:18:25Z</time>
      </trkpt>
      <trkpt lat="42.31776" lon="2.50716">
        <ele>971.555</ele>
        <time>2010-05-01T09:18:39Z</time>
      </trkpt>
      <trkpt lat="42.3178" lon="2.50726">
        <ele>971.599</ele>
        <time>2010-05-01T09:18:41Z</time>
      </trkpt>
      <trkpt lat="42.31787" lon="2.50729">
        <ele>973.095</ele>
        <time>2010-05-01T09:18:50Z</time>
      </trkpt>
      <trkpt lat="42.31787" lon="2.50712">
        <ele>975.469</ele>
        <time>2010-05-01T09:19:04Z</time>
      </trkpt>
      <trkpt lat="42.31795" lon="2.50696">
        <ele>977.882</ele>
        <time>2010-05-01T09:19:17Z</time>
      </trkpt>
      <trkpt lat="42.31804" lon="2.50705">
        <ele>978.343</ele>
        <time>2010-05-01T09:19:32Z</time>
      </trkpt>
      <trkpt lat="42.3182" lon="2.50712">
        <ele>978.817</ele>
        <time>2010-05-01T09:19:50Z</time>
      </trkpt>
      <trkpt lat="42.31825" lon="2.5072">
        <ele>979.206</ele>
        <time>2010-05-01T09:19:57Z</time>
      </trkpt>
      <trkpt lat="42.31851" lon="2.50748">
        <ele>982.196</ele>
        <time>2010-05-01T09:20:16Z</time>
      </trkpt>
      <trkpt lat="42.31859" lon="2.50754">
        <ele>982.616</ele>
        <time>2010-05-01T09:20:20Z</time>
      </trkpt>
      <trkpt lat="42.31865" lon="2.50752">
        <ele>983.62</ele>
        <time>2010-05-01T09:20:27Z</time>
      </trkpt>
      <trkpt lat="42.31868" lon="2.50726">
        <ele>984.014</ele>
        <time>2010-05-01T09:20:42Z</time>
      </trkpt>
      <trkpt lat="42.31869" lon="2.50728">
        <ele>984.05</ele>
        <time>2010-05-01T09:20:54Z</time>
      </trkpt>
      <trkpt lat="42.31869" lon="2.5072">
        <ele>983.634</ele>
        <time>2010-05-01T09:21:07Z</time>
      </trkpt>
      <trkpt lat="42.31879" lon="2.50721">
        <ele>986.016</ele>
        <time>2010-05-01T09:21:23Z</time>
      </trkpt>
      <trkpt lat="42.31883" lon="2.50726">
        <ele>987.476</ele>
        <time>2010-05-01T09:21:36Z</time>
      </trkpt>
      <trkpt lat="42.31894" lon="2.50722">
        <ele>989.813</ele>
        <time>2010-05-01T09:21:49Z</time>
      </trkpt>
      <trkpt lat="42.31904" lon="2.50719">
        <ele>992.206</ele>
        <time>2010-05-01T09:22:06Z</time>
      </trkpt>
      <trkpt lat="42.31923" lon="2.50738">
        <ele>994.699</ele>
        <time>2010-05-01T09:22:29Z</time>
      </trkpt>
      <trkpt lat="42.31923" lon="2.50745">
        <ele>995.149</ele>
        <time>2010-05-01T09:22:32Z</time>
      </trkpt>
      <trkpt lat="42.31925" lon="2.50763">
        <ele>994.133</ele>
        <time>2010-05-01T09:22:42Z</time>
      </trkpt>
      <trkpt lat="42.31935" lon="2.50772">
        <ele>994.147</ele>
        <time>2010-05-01T09:22:52Z</time>
      </trkpt>
      <trkpt lat="42.31952" lon="2.5077">
        <ele>995.673</ele>
        <time>2010-05-01T09:23:06Z</time>
      </trkpt>
      <trkpt lat="42.31953" lon="2.50771">
        <ele>996.117</ele>
        <time>2010-05-01T09:23:07Z</time>
      </trkpt>
      <trkpt lat="42.31959" lon="2.50774">
        <ele>997.562</ele>
        <time>2010-05-01T09:23:20Z</time>
      </trkpt>
      <trkpt lat="42.31963" lon="2.50784">
        <ele>998.583</ele>
        <time>2010-05-01T09:23:28Z</time>
      </trkpt>
      <trkpt lat="42.31973" lon="2.50791">
        <ele>1001.411</ele>
        <time>2010-05-01T09:23:45Z</time>
      </trkpt>
      <trkpt lat="42.31979" lon="2.50815">
        <ele>1001.406</ele>
        <time>2010-05-01T09:24:03Z</time>
      </trkpt>
      <trkpt lat="42.31978" lon="2.5083">
        <ele>1003.874</ele>
        <time>2010-05-01T09:24:20Z</time>
      </trkpt>
      <trkpt lat="42.31973" lon="2.5082">
        <ele>1005.714</ele>
        <time>2010-05-01T09:24:31Z</time>
      </trkpt>
      <trkpt lat="42.31977" lon="2.508">
        <ele>1008.138</ele>
        <time>2010-05-01T09:24:49Z</time>
      </trkpt>
      <trkpt lat="42.31978" lon="2.50801">
        <ele>1010.562</ele>
        <time>2010-05-01T09:24:57Z</time>
      </trkpt>
      <trkpt lat="42.31981" lon="2.50792">
        <ele>1013.498</ele>
        <time>2010-05-01T09:25:14Z</time>
      </trkpt>
      <trkpt lat="42.31992" lon="2.50788">
        <ele>1014.862</ele>
        <time>2010-05-01T09:25:28Z</time>
      </trkpt>
      <trkpt lat="42.32004" lon="2.50796">
        <ele>1018.278</ele>
        <time>2010-05-01T09:25:47Z</time>
      </trkpt>
      <trkpt lat="42.32016" lon="2.50797">
        <ele>1020.633</ele>
        <time>2010-05-01T09:26:06Z</time>
      </trkpt>
      <trkpt lat="42.3202" lon="2.50799">
        <ele>1023.026</ele>
        <time>2010-05-01T09:26:21Z</time>
      </trkpt>
      <trkpt lat="42.32024" lon="2.50799">
        <ele>1025.406</ele>
        <time>2010-05-01T09:26:35Z</time>
      </trkpt>
      <trkpt lat="42.32032" lon="2.50812">
        <ele>1028.365</ele>
        <time>2010-05-01T09:26:53Z</time>
      </trkpt>
      <trkpt lat="42.32038" lon="2.50811">
        <ele>1031.285</ele>
        <time>2010-05-01T09:27:10Z</time>
      </trkpt>
      <trkpt lat="42.32043" lon="2.5081">
        <ele>1033.159</ele>
        <time>2010-05-01T09:27:27Z</time>
      </trkpt>
      <trkpt lat="42.32046" lon="2.50808">
        <ele>1035.583</ele>
        <time>2010-05-01T09:27:44Z</time>
      </trkpt>
      <trkpt lat="42.32051" lon="2.50788">
        <ele>1038.429</ele>
        <time>2010-05-01T09:28:03Z</time>
      </trkpt>
      <trkpt lat="42.32055" lon="2.50775">
        <ele>1041.763</ele>
        <time>2010-05-01T09:28:21Z</time>
      </trkpt>
      <trkpt lat="42.32063" lon="2.50778">
        <ele>1044.683</ele>
        <time>2010-05-01T09:28:37Z</time>
      </trkpt>
      <trkpt lat="42.32068" lon="2.50797">
        <ele>1047.525</ele>
        <time>2010-05-01T09:28:57Z</time>
      </trkpt>
      <trkpt lat="42.32075" lon="2.50804">
        <ele>1049.417</ele>
        <time>2010-05-01T09:29:13Z</time>
      </trkpt>
      <trkpt lat="42.32082" lon="2.50817">
        <ele>1052.306</ele>
        <time>2010-05-01T09:29:31Z</time>
      </trkpt>
      <trkpt lat="42.32089" lon="2.50823">
        <ele>1054.766</ele>
        <time>2010-05-01T09:29:46Z</time>
      </trkpt>
      <trkpt lat="42.32093" lon="2.50825">
        <ele>1057.176</ele>
        <time>2010-05-01T09:30:03Z</time>
      </trkpt>
      <trkpt lat="42.32107" lon="2.50821">
        <ele>1059.51</ele>
        <time>2010-05-01T09:30:17Z</time>
      </trkpt>
      <trkpt lat="42.32109" lon="2.50838">
        <ele>1062.444</ele>
        <time>2010-05-01T09:30:37Z</time>
      </trkpt>
      <trkpt lat="42.32112" lon="2.50861">
        <ele>1065.84</ele>
        <time>2010-05-01T09:30:57Z</time>
      </trkpt>
      <trkpt lat="42.3212" lon="2.5088">
        <ele>1067.264</ele>
        <time>2010-05-01T09:31:22Z</time>
      </trkpt>
      <trkpt lat="42.32128" lon="2.50898">
        <ele>1070.657</ele>
        <time>2010-05-01T09:31:41Z</time>
      </trkpt>
      <trkpt lat="42.32134" lon="2.50917">
        <ele>1072.5</ele>
        <time>2010-05-01T09:31:59Z</time>
      </trkpt>
      <trkpt lat="42.32136" lon="2.50943">
        <ele>1075.42</ele>
        <time>2010-05-01T09:32:16Z</time>
      </trkpt>
      <trkpt lat="42.32137" lon="2.50951">
        <ele>1075.906</ele>
        <time>2010-05-01T09:32:20Z</time>
      </trkpt>
      <trkpt lat="42.32149" lon="2.50962">
        <ele>1079.243</ele>
        <time>2010-05-01T09:32:41Z</time>
      </trkpt>
      <trkpt lat="42.32156" lon="2.50996">
        <ele>1082.173</ele>
        <time>2010-05-01T09:32:59Z</time>
      </trkpt>
      <trkpt lat="42.32157" lon="2.51018">
        <ele>1085.057</ele>
        <time>2010-05-01T09:33:17Z</time>
      </trkpt>
      <trkpt lat="42.32165" lon="2.51025">
        <ele>1088.391</ele>
        <time>2010-05-01T09:33:34Z</time>
      </trkpt>
      <trkpt lat="42.32169" lon="2.51027">
        <ele>1091.287</ele>
        <time>2010-05-01T09:33:49Z</time>
      </trkpt>
      <trkpt lat="42.32176" lon="2.51034">
        <ele>1094.691</ele>
        <time>2010-05-01T09:34:05Z</time>
      </trkpt>
      <trkpt lat="42.32178" lon="2.5105">
        <ele>1098.061</ele>
        <time>2010-05-01T09:34:23Z</time>
      </trkpt>
      <trkpt lat="42.32182" lon="2.51071">
        <ele>1101.321</ele>
        <time>2010-05-01T09:34:39Z</time>
      </trkpt>
      <trkpt lat="42.3219" lon="2.51068">
        <ele>1103.713</ele>
        <time>2010-05-01T09:34:57Z</time>
      </trkpt>
      <trkpt lat="42.32199" lon="2.51062">
        <ele>1106.606</ele>
        <time>2010-05-01T09:35:13Z</time>
      </trkpt>
      <trkpt lat="42.32207" lon="2.51069">
        <ele>1110.094</ele>
        <time>2010-05-01T09:35:30Z</time>
      </trkpt>
      <trkpt lat="42.32204" lon="2.51063">
        <ele>1113.334</ele>
        <time>2010-05-01T09:35:48Z</time>
      </trkpt>
      <trkpt lat="42.32207" lon="2.51066">
        <ele>1116.238</ele>
        <time>2010-05-01T09:36:06Z</time>
      </trkpt>
      <trkpt lat="42.32213" lon="2.51071">
        <ele>1119.612</ele>
        <time>2010-05-01T09:36:27Z</time>
      </trkpt>
      <trkpt lat="42.32216" lon="2.51075">
        <ele>1122.078</ele>
        <time>2010-05-01T09:36:43Z</time>
      </trkpt>
      <trkpt lat="42.32218" lon="2.51086">
        <ele>1124.912</ele>
        <time>2010-05-01T09:37:05Z</time>
      </trkpt>
      <trkpt lat="42.32222" lon="2.51093">
        <ele>1128.291</ele>
        <time>2010-05-01T09:37:24Z</time>
      </trkpt>
      <trkpt lat="42.32223" lon="2.51101">
        <ele>1131.181</ele>
        <time>2010-05-01T09:37:43Z</time>
      </trkpt>
      <trkpt lat="42.32232" lon="2.51105">
        <ele>1133.119</ele>
        <time>2010-05-01T09:38:02Z</time>
      </trkpt>
      <trkpt lat="42.32231" lon="2.51104">
        <ele>1129.706</ele>
        <time>2010-05-01T09:39:13Z</time>
      </trkpt>
      <trkpt lat="42.32238" lon="2.51116">
        <ele>1129.227</ele>
        <time>2010-05-01T09:40:02Z</time>
      </trkpt>
      <trkpt lat="42.32259" lon="2.51124">
        <ele>1128.727</ele>
        <time>2010-05-01T09:40:25Z</time>
      </trkpt>
      <trkpt lat="42.32278" lon="2.51135">
        <ele>1129.751</ele>
        <time>2010-05-01T09:40:45Z</time>
      </trkpt>
      <trkpt lat="42.32278" lon="2.51151">
        <ele>1133.175</ele>
        <time>2010-05-01T09:41:00Z</time>
      </trkpt>
      <trkpt lat="42.32278" lon="2.51154">
        <ele>1133.151</ele>
        <time>2010-05-01T09:41:01Z</time>
      </trkpt>
      <trkpt lat="42.32278" lon="2.51161">
        <ele>1134.085</ele>
        <time>2010-05-01T09:41:04Z</time>
      </trkpt>
      <trkpt lat="42.32275" lon="2.51176">
        <ele>1135.938</ele>
        <time>2010-05-01T09:41:19Z</time>
      </trkpt>
      <trkpt lat="42.32286" lon="2.51168">
        <ele>1136.47</ele>
        <time>2010-05-01T09:42:51Z</time>
      </trkpt>
      <trkpt lat="42.3229" lon="2.51166">
        <ele>1137.417</ele>
        <time>2010-05-01T09:42:55Z</time>
      </trkpt>
      <trkpt lat="42.32298" lon="2.51166">
        <ele>1135.906</ele>
        <time>2010-05-01T09:43:01Z</time>
      </trkpt>
      <trkpt lat="42.32299" lon="2.51164">
        <ele>1134.511</ele>
        <time>2010-05-01T09:43:04Z</time>
      </trkpt>
      <trkpt lat="42.32309" lon="2.51186">
        <ele>1133.171</ele>
        <time>2010-05-01T09:43:18Z</time>
      </trkpt>
      <trkpt lat="42.32306" lon="2.51213">
        <ele>1133.525</ele>
        <time>2010-05-01T09:43:32Z</time>
      </trkpt>
      <trkpt lat="42.32308" lon="2.51227">
        <ele>1133.589</ele>
        <time>2010-05-01T09:43:45Z</time>
      </trkpt>
      <trkpt lat="42.32306" lon="2.51245">
        <ele>1135.965</ele>
        <time>2010-05-01T09:44:01Z</time>
      </trkpt>
      <trkpt lat="42.323" lon="2.51262">
        <ele>1139.319</ele>
        <time>2010-05-01T09:44:15Z</time>
      </trkpt>
      <trkpt lat="42.32296" lon="2.51276">
        <ele>1142.764</ele>
        <time>2010-05-01T09:44:29Z</time>
      </trkpt>
      <trkpt lat="42.32296" lon="2.51281">
        <ele>1143.606</ele>
        <time>2010-05-01T09:44:33Z</time>
      </trkpt>
      <trkpt lat="42.32296" lon="2.51289">
        <ele>1144.116</ele>
        <time>2010-05-01T09:44:38Z</time>
      </trkpt>
      <trkpt lat="42.32297" lon="2.51306">
        <ele>1145.106</ele>
        <time>2010-05-01T09:44:47Z</time>
      </trkpt>
      <trkpt lat="42.32313" lon="2.51323">
        <ele>1142.734</ele>
        <time>2010-05-01T09:45:01Z</time>
      </trkpt>
      <trkpt lat="42.32315" lon="2.51323">
        <ele>1142.254</ele>
        <time>2010-05-01T09:45:03Z</time>
      </trkpt>
      <trkpt lat="42.32317" lon="2.51331">
        <ele>1140.378</ele>
        <time>2010-05-01T09:45:07Z</time>
      </trkpt>
      <trkpt lat="42.3232" lon="2.51344">
        <ele>1139.372</ele>
        <time>2010-05-01T09:45:18Z</time>
      </trkpt>
      <trkpt lat="42.32328" lon="2.51367">
        <ele>1137.958</ele>
        <time>2010-05-01T09:45:32Z</time>
      </trkpt>
      <trkpt lat="42.32333" lon="2.51394">
        <ele>1140.362</ele>
        <time>2010-05-01T09:45:46Z</time>
      </trkpt>
      <trkpt lat="42.32332" lon="2.51406">
        <ele>1143.614</ele>
        <time>2010-05-01T09:45:57Z</time>
      </trkpt>
      <trkpt lat="42.32328" lon="2.51423">
        <ele>1146.554</ele>
        <time>2010-05-01T09:46:09Z</time>
      </trkpt>
      <trkpt lat="42.32323" lon="2.51435">
        <ele>1149.909</ele>
        <time>2010-05-01T09:46:25Z</time>
      </trkpt>
      <trkpt lat="42.32325" lon="2.51457">
        <ele>1152.806</ele>
        <time>2010-05-01T09:46:40Z</time>
      </trkpt>
      <trkpt lat="42.32328" lon="2.51468">
        <ele>1156.199</ele>
        <time>2010-05-01T09:46:56Z</time>
      </trkpt>
      <trkpt lat="42.32328" lon="2.51477">
        <ele>1157.189</ele>
        <time>2010-05-01T09:47:02Z</time>
      </trkpt>
      <trkpt lat="42.32325" lon="2.51499">
        <ele>1160.093</ele>
        <time>2010-05-01T09:47:25Z</time>
      </trkpt>
      <trkpt lat="42.3232" lon="2.51526">
        <ele>1161.457</ele>
        <time>2010-05-01T09:47:43Z</time>
      </trkpt>
      <trkpt lat="42.32323" lon="2.51538">
        <ele>1162.473</ele>
        <time>2010-05-01T09:47:52Z</time>
      </trkpt>
      <trkpt lat="42.32322" lon="2.51545">
        <ele>1162.427</ele>
        <time>2010-05-01T09:47:56Z</time>
      </trkpt>
      <trkpt lat="42.32328" lon="2.51575">
        <ele>1161.953</ele>
        <time>2010-05-01T09:48:11Z</time>
      </trkpt>
      <trkpt lat="42.3233" lon="2.51583">
        <ele>1161.904</ele>
        <time>2010-05-01T09:48:15Z</time>
      </trkpt>
      <trkpt lat="42.32332" lon="2.5159">
        <ele>1160.914</ele>
        <time>2010-05-01T09:48:20Z</time>
      </trkpt>
      <trkpt lat="42.32339" lon="2.51611">
        <ele>1159.506</ele>
        <time>2010-05-01T09:48:34Z</time>
      </trkpt>
      <trkpt lat="42.32341" lon="2.51628">
        <ele>1159.073</ele>
        <time>2010-05-01T09:48:41Z</time>
      </trkpt>
      <trkpt lat="42.32347" lon="2.51636">
        <ele>1159.073</ele>
        <time>2010-05-01T09:48:47Z</time>
      </trkpt>
      <trkpt lat="42.32354" lon="2.51657">
        <ele>1159.557</ele>
        <time>2010-05-01T09:49:03Z</time>
      </trkpt>
      <trkpt lat="42.32362" lon="2.5169">
        <ele>1161.481</ele>
        <time>2010-05-01T09:49:22Z</time>
      </trkpt>
      <trkpt lat="42.32361" lon="2.51706">
        <ele>1162.957</ele>
        <time>2010-05-01T09:49:30Z</time>
      </trkpt>
      <trkpt lat="42.32356" lon="2.51721">
        <ele>1162.961</ele>
        <time>2010-05-01T09:49:40Z</time>
      </trkpt>
      <trkpt lat="42.32354" lon="2.51723">
        <ele>1162.457</ele>
        <time>2010-05-01T09:49:42Z</time>
      </trkpt>
      <trkpt lat="42.32354" lon="2.51727">
        <ele>1162.4</ele>
        <time>2010-05-01T09:49:44Z</time>
      </trkpt>
      <trkpt lat="42.3235" lon="2.51769">
        <ele>1163.82</ele>
        <time>2010-05-01T09:49:58Z</time>
      </trkpt>
      <trkpt lat="42.32349" lon="2.51787">
        <ele>1163.806</ele>
        <time>2010-05-01T09:50:08Z</time>
      </trkpt>
      <trkpt lat="42.3235" lon="2.51798">
        <ele>1164.363</ele>
        <time>2010-05-01T09:50:13Z</time>
      </trkpt>
      <trkpt lat="42.32352" lon="2.51803">
        <ele>1164.893</ele>
        <time>2010-05-01T09:50:16Z</time>
      </trkpt>
      <trkpt lat="42.3235" lon="2.51809">
        <ele>1164.827</ele>
        <time>2010-05-01T09:50:20Z</time>
      </trkpt>
      <trkpt lat="42.32352" lon="2.51839">
        <ele>1164.311</ele>
        <time>2010-05-01T09:50:34Z</time>
      </trkpt>
      <trkpt lat="42.32357" lon="2.51854">
        <ele>1166.267</ele>
        <time>2010-05-01T09:50:41Z</time>
      </trkpt>
      <trkpt lat="42.32356" lon="2.51858">
        <ele>1166.291</ele>
        <time>2010-05-01T09:50:45Z</time>
      </trkpt>
      <trkpt lat="42.32351" lon="2.51878">
        <ele>1166.226</ele>
        <time>2010-05-01T09:50:55Z</time>
      </trkpt>
      <trkpt lat="42.32347" lon="2.51903">
        <ele>1167.247</ele>
        <time>2010-05-01T09:51:06Z</time>
      </trkpt>
      <trkpt lat="42.32344" lon="2.51914">
        <ele>1167.711</ele>
        <time>2010-05-01T09:51:12Z</time>
      </trkpt>
      <trkpt lat="42.32337" lon="2.51922">
        <ele>1168.106</ele>
        <time>2010-05-01T09:51:26Z</time>
      </trkpt>
      <trkpt lat="42.32341" lon="2.51926">
        <ele>1169.15</ele>
        <time>2010-05-01T09:53:00Z</time>
      </trkpt>
      <trkpt lat="42.32352" lon="2.51928">
        <ele>1170.53</ele>
        <time>2010-05-01T09:53:11Z</time>
      </trkpt>
      <trkpt lat="42.32364" lon="2.51927">
        <ele>1173.964</ele>
        <time>2010-05-01T09:53:28Z</time>
      </trkpt>
      <trkpt lat="42.32373" lon="2.51929">
        <ele>1176.858</ele>
        <time>2010-05-01T09:53:43Z</time>
      </trkpt>
      <trkpt lat="42.32376" lon="2.51942">
        <ele>1179.724</ele>
        <time>2010-05-01T09:53:59Z</time>
      </trkpt>
      <trkpt lat="42.32378" lon="2.51959">
        <ele>1182.678</ele>
        <time>2010-05-01T09:54:21Z</time>
      </trkpt>
      <trkpt lat="42.32384" lon="2.51984">
        <ele>1183.569</ele>
        <time>2010-05-01T09:54:40Z</time>
      </trkpt>
      <trkpt lat="42.32393" lon="2.51974">
        <ele>1186.904</ele>
        <time>2010-05-01T09:54:58Z</time>
      </trkpt>
      <trkpt lat="42.32402" lon="2.51968">
        <ele>1189.824</ele>
        <time>2010-05-01T09:55:13Z</time>
      </trkpt>
      <trkpt lat="42.3241" lon="2.51961">
        <ele>1192.706</ele>
        <time>2010-05-01T09:55:27Z</time>
      </trkpt>
      <trkpt lat="42.32419" lon="2.51956">
        <ele>1195.524</ele>
        <time>2010-05-01T09:55:42Z</time>
      </trkpt>
      <trkpt lat="42.32425" lon="2.51945">
        <ele>1197.954</ele>
        <time>2010-05-01T09:55:56Z</time>
      </trkpt>
      <trkpt lat="42.32434" lon="2.51934">
        <ele>1200.878</ele>
        <time>2010-05-01T09:56:12Z</time>
      </trkpt>
      <trkpt lat="42.32438" lon="2.51923">
        <ele>1204.242</ele>
        <time>2010-05-01T09:56:28Z</time>
      </trkpt>
      <trkpt lat="42.32443" lon="2.51918">
        <ele>1207.188</ele>
        <time>2010-05-01T09:56:46Z</time>
      </trkpt>
      <trkpt lat="42.32445" lon="2.519">
        <ele>1210.452</ele>
        <time>2010-05-01T09:57:02Z</time>
      </trkpt>
      <trkpt lat="42.32453" lon="2.51896">
        <ele>1210.916</ele>
        <time>2010-05-01T09:57:12Z</time>
      </trkpt>
      <trkpt lat="42.32454" lon="2.51901">
        <ele>1210.476</ele>
        <time>2010-05-01T09:57:25Z</time>
      </trkpt>
      <trkpt lat="42.32455" lon="2.51905">
        <ele>1210.913</ele>
        <time>2010-05-01T09:57:28Z</time>
      </trkpt>
      <trkpt lat="42.32458" lon="2.51916">
        <ele>1211.406</ele>
        <time>2010-05-01T09:57:34Z</time>
      </trkpt>
      <trkpt lat="42.32458" lon="2.51922">
        <ele>1211.489</ele>
        <time>2010-05-01T09:57:37Z</time>
      </trkpt>
      <trkpt lat="42.32461" lon="2.51932">
        <ele>1211.929</ele>
        <time>2010-05-01T09:57:42Z</time>
      </trkpt>
      <trkpt lat="42.32471" lon="2.5196">
        <ele>1212.413</ele>
        <time>2010-05-01T09:57:57Z</time>
      </trkpt>
      <trkpt lat="42.32481" lon="2.51964">
        <ele>1212.877</ele>
        <time>2010-05-01T09:58:01Z</time>
      </trkpt>
      <trkpt lat="42.32499" lon="2.51975">
        <ele>1215.233</ele>
        <time>2010-05-01T09:58:15Z</time>
      </trkpt>
      <trkpt lat="42.3251" lon="2.51979">
        <ele>1217.647</ele>
        <time>2010-05-01T09:58:24Z</time>
      </trkpt>
      <trkpt lat="42.3252" lon="2.51999">
        <ele>1220.555</ele>
        <time>2010-05-01T09:58:38Z</time>
      </trkpt>
      <trkpt lat="42.3252" lon="2.52">
        <ele>1220.507</ele>
        <time>2010-05-01T09:58:39Z</time>
      </trkpt>
      <trkpt lat="42.32524" lon="2.52006">
        <ele>1222.017</ele>
        <time>2010-05-01T09:58:44Z</time>
      </trkpt>
      <trkpt lat="42.32533" lon="2.52009">
        <ele>1225.306</ele>
        <time>2010-05-01T09:58:56Z</time>
      </trkpt>
      <trkpt lat="42.32535" lon="2.52009">
        <ele>1228.243</ele>
        <time>2010-05-01T09:59:08Z</time>
      </trkpt>
      <trkpt lat="42.32544" lon="2.52018">
        <ele>1230.643</ele>
        <time>2010-05-01T09:59:21Z</time>
      </trkpt>
      <trkpt lat="42.32552" lon="2.52031">
        <ele>1231.617</ele>
        <time>2010-05-01T09:59:32Z</time>
      </trkpt>
      <trkpt lat="42.32563" lon="2.52033">
        <ele>1234.551</ele>
        <time>2010-05-01T09:59:45Z</time>
      </trkpt>
      <trkpt lat="42.32573" lon="2.52039">
        <ele>1237.827</ele>
        <time>2010-05-01T09:59:58Z</time>
      </trkpt>
      <trkpt lat="42.32582" lon="2.52048">
        <ele>1240.711</ele>
        <time>2010-05-01T10:00:12Z</time>
      </trkpt>
      <trkpt lat="42.3259" lon="2.52055">
        <ele>1244.135</ele>
        <time>2010-05-01T10:00:25Z</time>
      </trkpt>
      <trkpt lat="42.32597" lon="2.52061">
        <ele>1247.086</ele>
        <time>2010-05-01T10:00:38Z</time>
      </trkpt>
      <trkpt lat="42.32599" lon="2.52059">
        <ele>1250.314</ele>
        <time>2010-05-01T10:00:54Z</time>
      </trkpt>
      <trkpt lat="42.32611" lon="2.52061">
        <ele>1253.206</ele>
        <time>2010-05-01T10:01:10Z</time>
      </trkpt>
      <trkpt lat="42.32621" lon="2.52062">
        <ele>1256.631</ele>
        <time>2010-05-01T10:01:28Z</time>
      </trkpt>
      <trkpt lat="42.32639" lon="2.52068">
        <ele>1259.531</ele>
        <time>2010-05-01T10:01:46Z</time>
      </trkpt>
      <trkpt lat="42.32641" lon="2.52074">
        <ele>1262.825</ele>
        <time>2010-05-01T10:02:02Z</time>
      </trkpt>
      <trkpt lat="42.32641" lon="2.52071">
        <ele>1266.279</ele>
        <time>2010-05-01T10:02:14Z</time>
      </trkpt>
      <trkpt lat="42.32637" lon="2.52065">
        <ele>1269.625</ele>
        <time>2010-05-01T10:02:30Z</time>
      </trkpt>
      <trkpt lat="42.32638" lon="2.52061">
        <ele>1272.429</ele>
        <time>2010-05-01T10:02:45Z</time>
      </trkpt>
      <trkpt lat="42.32646" lon="2.52046">
        <ele>1275.337</ele>
        <time>2010-05-01T10:03:02Z</time>
      </trkpt>
      <trkpt lat="42.32645" lon="2.52042">
        <ele>1278.749</ele>
        <time>2010-05-01T10:03:18Z</time>
      </trkpt>
      <trkpt lat="42.32644" lon="2.52033">
        <ele>1281.613</ele>
        <time>2010-05-01T10:03:35Z</time>
      </trkpt>
      <trkpt lat="42.32643" lon="2.52022">
        <ele>1284.506</ele>
        <time>2010-05-01T10:03:52Z</time>
      </trkpt>
      <trkpt lat="42.32643" lon="2.52011">
        <ele>1287.351</ele>
        <time>2010-05-01T10:04:08Z</time>
      </trkpt>
      <trkpt lat="42.32638" lon="2.52011">
        <ele>1290.291</ele>
        <time>2010-05-01T10:04:25Z</time>
      </trkpt>
      <trkpt lat="42.3264" lon="2.51997">
        <ele>1293.685</ele>
        <time>2010-05-01T10:04:41Z</time>
      </trkpt>
      <trkpt lat="42.32635" lon="2.51991">
        <ele>1296.579</ele>
        <time>2010-05-01T10:04:57Z</time>
      </trkpt>
      <trkpt lat="42.32629" lon="2.51984">
        <ele>1298.935</ele>
        <time>2010-05-01T10:05:15Z</time>
      </trkpt>
      <trkpt lat="42.32638" lon="2.51976">
        <ele>1299.449</ele>
        <time>2010-05-01T10:07:55Z</time>
      </trkpt>
      <trkpt lat="42.32645" lon="2.51983">
        <ele>1301.829</ele>
        <time>2010-05-01T10:08:08Z</time>
      </trkpt>
      <trkpt lat="42.32651" lon="2.51982">
        <ele>1305.1</ele>
        <time>2010-05-01T10:08:21Z</time>
      </trkpt>
      <trkpt lat="42.32666" lon="2.51987">
        <ele>1307.52</ele>
        <time>2010-05-01T10:08:34Z</time>
      </trkpt>
      <trkpt lat="42.32677" lon="2.51993">
        <ele>1309.006</ele>
        <time>2010-05-01T10:08:46Z</time>
      </trkpt>
      <trkpt lat="42.32678" lon="2.51996">
        <ele>1309.02</ele>
        <time>2010-05-01T10:08:48Z</time>
      </trkpt>
      <trkpt lat="42.32684" lon="2.52006">
        <ele>1308.02</ele>
        <time>2010-05-01T10:08:55Z</time>
      </trkpt>
      <trkpt lat="42.32688" lon="2.52007">
        <ele>1309.024</ele>
        <time>2010-05-01T10:09:00Z</time>
      </trkpt>
      <trkpt lat="42.32692" lon="2.52016">
        <ele>1309.518</ele>
        <time>2010-05-01T10:09:06Z</time>
      </trkpt>
      <trkpt lat="42.32708" lon="2.52033">
        <ele>1310.964</ele>
        <time>2010-05-01T10:09:24Z</time>
      </trkpt>
      <trkpt lat="42.32728" lon="2.52042">
        <ele>1312.338</ele>
        <time>2010-05-01T10:09:41Z</time>
      </trkpt>
      <trkpt lat="42.32747" lon="2.52058">
        <ele>1313.317</ele>
        <time>2010-05-01T10:09:57Z</time>
      </trkpt>
      <trkpt lat="42.32748" lon="2.52061">
        <ele>1313.387</ele>
        <time>2010-05-01T10:09:59Z</time>
      </trkpt>
      <trkpt lat="42.32766" lon="2.52065">
        <ele>1311.415</ele>
        <time>2010-05-01T10:10:13Z</time>
      </trkpt>
      <trkpt lat="42.32771" lon="2.52077">
        <ele>1308.006</ele>
        <time>2010-05-01T10:10:19Z</time>
      </trkpt>
      <trkpt lat="42.32773" lon="2.52079">
        <ele>1308.089</ele>
        <time>2010-05-01T10:10:20Z</time>
      </trkpt>
      <trkpt lat="42.32778" lon="2.52094">
        <ele>1305.179</ele>
        <time>2010-05-01T10:10:26Z</time>
      </trkpt>
      <trkpt lat="42.3278" lon="2.52097">
        <ele>1305.173</ele>
        <time>2010-05-01T10:10:27Z</time>
      </trkpt>
      <trkpt lat="42.3279" lon="2.5211">
        <ele>1301.897</ele>
        <time>2010-05-01T10:10:35Z</time>
      </trkpt>
      <trkpt lat="42.32802" lon="2.52127">
        <ele>1298.913</ele>
        <time>2010-05-01T10:10:42Z</time>
      </trkpt>
      <trkpt lat="42.32808" lon="2.52136">
        <ele>1297.477</ele>
        <time>2010-05-01T10:10:46Z</time>
      </trkpt>
      <trkpt lat="42.32823" lon="2.52159">
        <ele>1294.126</ele>
        <time>2010-05-01T10:10:57Z</time>
      </trkpt>
      <trkpt lat="42.32837" lon="2.52174">
        <ele>1291.247</ele>
        <time>2010-05-01T10:11:05Z</time>
      </trkpt>
      <trkpt lat="42.32852" lon="2.52192">
        <ele>1292.111</ele>
        <time>2010-05-01T10:11:17Z</time>
      </trkpt>
      <trkpt lat="42.32857" lon="2.52203">
        <ele>1294.106</ele>
        <time>2010-05-01T10:11:29Z</time>
      </trkpt>
      <trkpt lat="42.32869" lon="2.52211">
        <ele>1297.04</ele>
        <time>2010-05-01T10:11:40Z</time>
      </trkpt>
      <trkpt lat="42.32873" lon="2.52224">
        <ele>1299.84</ele>
        <time>2010-05-01T10:11:53Z</time>
      </trkpt>
      <trkpt lat="42.32878" lon="2.52237">
        <ele>1301.814</ele>
        <time>2010-05-01T10:12:05Z</time>
      </trkpt>
      <trkpt lat="42.32879" lon="2.52242">
        <ele>1302.288</ele>
        <time>2010-05-01T10:12:08Z</time>
      </trkpt>
      <trkpt lat="42.3288" lon="2.52255">
        <ele>1304.624</ele>
        <time>2010-05-01T10:12:21Z</time>
      </trkpt>
      <trkpt lat="42.32879" lon="2.52267">
        <ele>1308.088</ele>
        <time>2010-05-01T10:12:36Z</time>
      </trkpt>
      <trkpt lat="42.32879" lon="2.52274">
        <ele>1309.043</ele>
        <time>2010-05-01T10:12:42Z</time>
      </trkpt>
      <trkpt lat="42.3288" lon="2.52286">
        <ele>1309.064</ele>
        <time>2010-05-01T10:12:52Z</time>
      </trkpt>
      <trkpt lat="42.32883" lon="2.52293">
        <ele>1310.91</ele>
        <time>2010-05-01T10:13:00Z</time>
      </trkpt>
      <trkpt lat="42.32888" lon="2.5228">
        <ele>1314.306</ele>
        <time>2010-05-01T10:13:14Z</time>
      </trkpt>
      <trkpt lat="42.32889" lon="2.5228">
        <ele>1314.362</ele>
        <time>2010-05-01T10:13:15Z</time>
      </trkpt>
      <trkpt lat="42.32897" lon="2.52266">
        <ele>1317.632</ele>
        <time>2010-05-01T10:13:30Z</time>
      </trkpt>
      <trkpt lat="42.32897" lon="2.52265">
        <ele>1318.146</ele>
        <time>2010-05-01T10:13:31Z</time>
      </trkpt>
      <trkpt lat="42.32904" lon="2.52256">
        <ele>1319.59</ele>
        <time>2010-05-01T10:13:39Z</time>
      </trkpt>
      <trkpt lat="42.32905" lon="2.52254">
        <ele>1320.076</ele>
        <time>2010-05-01T10:13:41Z</time>
      </trkpt>
      <trkpt lat="42.32915" lon="2.52249">
        <ele>1321.91</ele>
        <time>2010-05-01T10:13:53Z</time>
      </trkpt>
      <trkpt lat="42.32918" lon="2.52247">
        <ele>1322.971</ele>
        <time>2010-05-01T10:13:56Z</time>
      </trkpt>
      <trkpt lat="42.32927" lon="2.52246">
        <ele>1324.441</ele>
        <time>2010-05-01T10:14:04Z</time>
      </trkpt>
      <trkpt lat="42.32944" lon="2.52244">
        <ele>1326.815</ele>
        <time>2010-05-01T10:14:19Z</time>
      </trkpt>
      <trkpt lat="42.32945" lon="2.5225">
        <ele>1329.206</ele>
        <time>2010-05-01T10:14:32Z</time>
      </trkpt>
      <trkpt lat="42.32946" lon="2.52258">
        <ele>1331.675</ele>
        <time>2010-05-01T10:14:44Z</time>
      </trkpt>
      <trkpt lat="42.32954" lon="2.5227">
        <ele>1334.015</ele>
        <time>2010-05-01T10:14:58Z</time>
      </trkpt>
      <trkpt lat="42.32959" lon="2.52275">
        <ele>1334.979</ele>
        <time>2010-05-01T10:15:03Z</time>
      </trkpt>
      <trkpt lat="42.32961" lon="2.5228">
        <ele>1335.933</ele>
        <time>2010-05-01T10:15:07Z</time>
      </trkpt>
      <trkpt lat="42.3298" lon="2.52297">
        <ele>1337.849</ele>
        <time>2010-05-01T10:15:25Z</time>
      </trkpt>
      <trkpt lat="42.3299" lon="2.52309">
        <ele>1340.733</ele>
        <time>2010-05-01T10:15:41Z</time>
      </trkpt>
      <trkpt lat="42.32997" lon="2.52315">
        <ele>1341.222</ele>
        <time>2010-05-01T10:15:48Z</time>
      </trkpt>
      <trkpt lat="42.3301" lon="2.52317">
        <ele>1343.662</ele>
        <time>2010-05-01T10:16:01Z</time>
      </trkpt>
      <trkpt lat="42.33022" lon="2.52321">
        <ele>1346.008</ele>
        <time>2010-05-01T10:16:15Z</time>
      </trkpt>
      <trkpt lat="42.33031" lon="2.52325">
        <ele>1348.406</ele>
        <time>2010-05-01T10:16:26Z</time>
      </trkpt>
      <trkpt lat="42.33038" lon="2.5233">
        <ele>1351.33</ele>
        <time>2010-05-01T10:16:40Z</time>
      </trkpt>
      <trkpt lat="42.33049" lon="2.52336">
        <ele>1354.24</ele>
        <time>2010-05-01T10:16:57Z</time>
      </trkpt>
      <trkpt lat="42.33054" lon="2.52346">
        <ele>1357.074</ele>
        <time>2010-05-01T10:17:11Z</time>
      </trkpt>
      <trkpt lat="42.33055" lon="2.52347">
        <ele>1357.548</ele>
        <time>2010-05-01T10:17:13Z</time>
      </trkpt>
      <trkpt lat="42.33057" lon="2.52353">
        <ele>1360.954</ele>
        <time>2010-05-01T10:17:27Z</time>
      </trkpt>
      <trkpt lat="42.33061" lon="2.52361">
        <ele>1362.888</ele>
        <time>2010-05-01T10:17:35Z</time>
      </trkpt>
      <trkpt lat="42.33065" lon="2.52377">
        <ele>1366.745</ele>
        <time>2010-05-01T10:17:48Z</time>
      </trkpt>
      <trkpt lat="42.3307" lon="2.52383">
        <ele>1369.547</ele>
        <time>2010-05-01T10:18:00Z</time>
      </trkpt>
      <trkpt lat="42.3307" lon="2.52391">
        <ele>1369.511</ele>
        <time>2010-05-01T10:18:04Z</time>
      </trkpt>
      <trkpt lat="42.33073" lon="2.52412">
        <ele>1372.906</ele>
        <time>2010-05-01T10:18:20Z</time>
      </trkpt>
      <trkpt lat="42.33077" lon="2.52428">
        <ele>1375.842</ele>
        <time>2010-05-01T10:18:33Z</time>
      </trkpt>
      <trkpt lat="42.33082" lon="2.52442">
        <ele>1379.132</ele>
        <time>2010-05-01T10:18:48Z</time>
      </trkpt>
      <trkpt lat="42.33084" lon="2.52444">
        <ele>1380.616</ele>
        <time>2010-05-01T10:18:53Z</time>
      </trkpt>
      <trkpt lat="42.33083" lon="2.52467">
        <ele>1383.57</ele>
        <time>2010-05-01T10:19:08Z</time>
      </trkpt>
      <trkpt lat="42.33082" lon="2.52473">
        <ele>1384.446</ele>
        <time>2010-05-01T10:19:12Z</time>
      </trkpt>
      <trkpt lat="42.33081" lon="2.52481">
        <ele>1385.98</ele>
        <time>2010-05-01T10:19:20Z</time>
      </trkpt>
      <trkpt lat="42.3308" lon="2.52483">
        <ele>1386.449</ele>
        <time>2010-05-01T10:19:22Z</time>
      </trkpt>
      <trkpt lat="42.33078" lon="2.525">
        <ele>1389.702</ele>
        <time>2010-05-01T10:19:37Z</time>
      </trkpt>
      <trkpt lat="42.3308" lon="2.52526">
        <ele>1392.622</ele>
        <time>2010-05-01T10:19:53Z</time>
      </trkpt>
      <trkpt lat="42.33079" lon="2.52549">
        <ele>1395.506</ele>
        <time>2010-05-01T10:20:09Z</time>
      </trkpt>
      <trkpt lat="42.3308" lon="2.52563">
        <ele>1398.992</ele>
        <time>2010-05-01T10:20:21Z</time>
      </trkpt>
      <trkpt lat="42.33081" lon="2.52563">
        <ele>1399.872</ele>
        <time>2010-05-01T10:20:25Z</time>
      </trkpt>
      <trkpt lat="42.3308" lon="2.52584">
        <ele>1402.766</ele>
        <time>2010-05-01T10:20:40Z</time>
      </trkpt>
      <trkpt lat="42.33081" lon="2.52591">
        <ele>1405.14</ele>
        <time>2010-05-01T10:20:47Z</time>
      </trkpt>
      <trkpt lat="42.33073" lon="2.52605">
        <ele>1406.576</ele>
        <time>2010-05-01T10:20:57Z</time>
      </trkpt>
      <trkpt lat="42.33072" lon="2.52626">
        <ele>1406.53</ele>
        <time>2010-05-01T10:21:11Z</time>
      </trkpt>
      <trkpt lat="42.33068" lon="2.52651">
        <ele>1405.673</ele>
        <time>2010-05-01T10:21:23Z</time>
      </trkpt>
      <trkpt lat="42.33064" lon="2.52678">
        <ele>1404.685</ele>
        <time>2010-05-01T10:21:36Z</time>
      </trkpt>
      <trkpt lat="42.3307" lon="2.52696">
        <ele>1406.113</ele>
        <time>2010-05-01T10:21:50Z</time>
      </trkpt>
      <trkpt lat="42.33075" lon="2.52703">
        <ele>1408.906</ele>
        <time>2010-05-01T10:22:01Z</time>
      </trkpt>
      <trkpt lat="42.3308" lon="2.52702">
        <ele>1411.485</ele>
        <time>2010-05-01T10:22:15Z</time>
      </trkpt>
      <trkpt lat="42.33085" lon="2.52704">
        <ele>1414.265</ele>
        <time>2010-05-01T10:22:27Z</time>
      </trkpt>
      <trkpt lat="42.33087" lon="2.527">
        <ele>1417.679</ele>
        <time>2010-05-01T10:22:43Z</time>
      </trkpt>
      <trkpt lat="42.33095" lon="2.52696">
        <ele>1420.073</ele>
        <time>2010-05-01T10:23:00Z</time>
      </trkpt>
      <trkpt lat="42.33098" lon="2.52694">
        <ele>1422.439</ele>
        <time>2010-05-01T10:23:14Z</time>
      </trkpt>
      <trkpt lat="42.33104" lon="2.52693">
        <ele>1425.333</ele>
        <time>2010-05-01T10:23:31Z</time>
      </trkpt>
      <trkpt lat="42.33106" lon="2.52694">
        <ele>1427.273</ele>
        <time>2010-05-01T10:23:44Z</time>
      </trkpt>
      <trkpt lat="42.33114" lon="2.52694">
        <ele>1430.685</ele>
        <time>2010-05-01T10:23:59Z</time>
      </trkpt>
      <trkpt lat="42.3312" lon="2.52681">
        <ele>1433.513</ele>
        <time>2010-05-01T10:24:16Z</time>
      </trkpt>
      <trkpt lat="42.33125" lon="2.5268">
        <ele>1435.906</ele>
        <time>2010-05-01T10:24:31Z</time>
      </trkpt>
      <trkpt lat="42.33129" lon="2.52679">
        <ele>1439.215</ele>
        <time>2010-05-01T10:24:47Z</time>
      </trkpt>
      <trkpt lat="42.3314" lon="2.52674">
        <ele>1442.155</ele>
        <time>2010-05-01T10:25:04Z</time>
      </trkpt>
      <trkpt lat="42.33148" lon="2.52679">
        <ele>1445.039</ele>
        <time>2010-05-01T10:25:20Z</time>
      </trkpt>
      <trkpt lat="42.33153" lon="2.52683">
        <ele>1448.433</ele>
        <time>2010-05-01T10:25:38Z</time>
      </trkpt>
      <trkpt lat="42.33155" lon="2.52683">
        <ele>1451.749</ele>
        <time>2010-05-01T10:25:55Z</time>
      </trkpt>
      <trkpt lat="42.3316" lon="2.52687">
        <ele>1454.123</ele>
        <time>2010-05-01T10:26:17Z</time>
      </trkpt>
      <trkpt lat="42.33167" lon="2.52688">
        <ele>1457.513</ele>
        <time>2010-05-01T10:26:33Z</time>
      </trkpt>
      <trkpt lat="42.33169" lon="2.52685">
        <ele>1460.443</ele>
        <time>2010-05-01T10:26:48Z</time>
      </trkpt>
      <trkpt lat="42.33173" lon="2.52687">
        <ele>1463.707</ele>
        <time>2010-05-01T10:27:06Z</time>
      </trkpt>
      <trkpt lat="42.33179" lon="2.52687">
        <ele>1467.106</ele>
        <time>2010-05-01T10:27:24Z</time>
      </trkpt>
      <trkpt lat="42.3319" lon="2.52691">
        <ele>1469.549</ele>
        <time>2010-05-01T10:27:46Z</time>
      </trkpt>
      <trkpt lat="42.33188" lon="2.52681">
        <ele>1472.479</ele>
        <time>2010-05-01T10:28:01Z</time>
      </trkpt>
      <trkpt lat="42.33193" lon="2.52676">
        <ele>1475.843</ele>
        <time>2010-05-01T10:28:17Z</time>
      </trkpt>
      <trkpt lat="42.33197" lon="2.52673">
        <ele>1478.627</ele>
        <time>2010-05-01T10:28:33Z</time>
      </trkpt>
      <trkpt lat="42.33205" lon="2.52667">
        <ele>1482.593</ele>
        <time>2010-05-01T10:28:48Z</time>
      </trkpt>
      <trkpt lat="42.3321" lon="2.52659">
        <ele>1485.427</ele>
        <time>2010-05-01T10:29:07Z</time>
      </trkpt>
      <trkpt lat="42.33213" lon="2.52657">
        <ele>1485.925</ele>
        <time>2010-05-01T10:29:13Z</time>
      </trkpt>
      <trkpt lat="42.33226" lon="2.52649">
        <ele>1488.726</ele>
        <time>2010-05-01T10:29:30Z</time>
      </trkpt>
      <trkpt lat="42.33229" lon="2.52649">
        <ele>1488.708</ele>
        <time>2010-05-01T10:29:33Z</time>
      </trkpt>
      <trkpt lat="42.33238" lon="2.52643">
        <ele>1491.106</ele>
        <time>2010-05-01T10:29:48Z</time>
      </trkpt>
      <trkpt lat="42.33246" lon="2.52646">
        <ele>1494.55</ele>
        <time>2010-05-01T10:30:04Z</time>
      </trkpt>
      <trkpt lat="42.33252" lon="2.52647">
        <ele>1497.42</ele>
        <time>2010-05-01T10:30:20Z</time>
      </trkpt>
      <trkpt lat="42.33254" lon="2.52647">
        <ele>1500.834</ele>
        <time>2010-05-01T10:30:37Z</time>
      </trkpt>
      <trkpt lat="42.33262" lon="2.52634">
        <ele>1502.758</ele>
        <time>2010-05-01T10:30:52Z</time>
      </trkpt>
      <trkpt lat="42.33267" lon="2.5264">
        <ele>1506.054</ele>
        <time>2010-05-01T10:31:06Z</time>
      </trkpt>
      <trkpt lat="42.33271" lon="2.52655">
        <ele>1508.918</ele>
        <time>2010-05-01T10:31:23Z</time>
      </trkpt>
      <trkpt lat="42.33275" lon="2.52654">
        <ele>1512.312</ele>
        <time>2010-05-01T10:31:40Z</time>
      </trkpt>
      <trkpt lat="42.3328" lon="2.52655">
        <ele>1515.732</ele>
        <time>2010-05-01T10:31:59Z</time>
      </trkpt>
      <trkpt lat="42.33289" lon="2.52657">
        <ele>1518.505</ele>
        <time>2010-05-01T10:32:15Z</time>
      </trkpt>
      <trkpt lat="42.33296" lon="2.52659">
        <ele>1520.006</ele>
        <time>2010-05-01T10:32:31Z</time>
      </trkpt>
      <trkpt lat="42.33298" lon="2.52662">
        <ele>1523.399</ele>
        <time>2010-05-01T10:32:51Z</time>
      </trkpt>
      <trkpt lat="42.33303" lon="2.52667">
        <ele>1525.349</ele>
        <time>2010-05-01T10:33:13Z</time>
      </trkpt>
      <trkpt lat="42.33308" lon="2.52669">
        <ele>1528.243</ele>
        <time>2010-05-01T10:33:27Z</time>
      </trkpt>
      <trkpt lat="42.33309" lon="2.52679">
        <ele>1531.077</ele>
        <time>2010-05-01T10:33:43Z</time>
      </trkpt>
      <trkpt lat="42.33314" lon="2.52681">
        <ele>1533.983</ele>
        <time>2010-05-01T10:33:58Z</time>
      </trkpt>
      <trkpt lat="42.33314" lon="2.52692">
        <ele>1537.317</ele>
        <time>2010-05-01T10:34:13Z</time>
      </trkpt>
      <trkpt lat="42.33316" lon="2.52701">
        <ele>1539.256</ele>
        <time>2010-05-01T10:34:34Z</time>
      </trkpt>
      <trkpt lat="42.33316" lon="2.52711">
        <ele>1542.659</ele>
        <time>2010-05-01T10:34:48Z</time>
      </trkpt>
      <trkpt lat="42.33324" lon="2.52717">
        <ele>1545.514</ele>
        <time>2010-05-01T10:35:02Z</time>
      </trkpt>
      <trkpt lat="42.33326" lon="2.5272">
        <ele>1546.406</ele>
        <time>2010-05-01T10:35:05Z</time>
      </trkpt>
      <trkpt lat="42.33323" lon="2.52726">
        <ele>1546.923</ele>
        <time>2010-05-01T10:35:10Z</time>
      </trkpt>
      <trkpt lat="42.33319" lon="2.52735">
        <ele>1547.433</ele>
        <time>2010-05-01T10:35:15Z</time>
      </trkpt>
      <trkpt lat="42.33321" lon="2.52745">
        <ele>1548.857</ele>
        <time>2010-05-01T10:35:23Z</time>
      </trkpt>
      <trkpt lat="42.33324" lon="2.52756">
        <ele>1550.371</ele>
        <time>2010-05-01T10:35:31Z</time>
      </trkpt>
      <trkpt lat="42.33325" lon="2.52765">
        <ele>1550.727</ele>
        <time>2010-05-01T10:35:37Z</time>
      </trkpt>
      <trkpt lat="42.3333" lon="2.52778">
        <ele>1551.261</ele>
        <time>2010-05-01T10:35:53Z</time>
      </trkpt>
      <trkpt lat="42.33331" lon="2.5278">
        <ele>1551.246</ele>
        <time>2010-05-01T10:36:27Z</time>
      </trkpt>
      <trkpt lat="42.33324" lon="2.52768">
        <ele>1551.288</ele>
        <time>2010-05-01T10:38:03Z</time>
      </trkpt>
      <trkpt lat="42.33331" lon="2.52783">
        <ele>1550.716</ele>
        <time>2010-05-01T10:44:50Z</time>
      </trkpt>
      <trkpt lat="42.33332" lon="2.52786">
        <ele>1550.706</ele>
        <time>2010-05-01T10:47:28Z</time>
      </trkpt>
      <trkpt lat="42.33331" lon="2.52794">
        <ele>1549.862</ele>
        <time>2010-05-01T10:48:08Z</time>
      </trkpt>
      <trkpt lat="42.33332" lon="2.52792">
        <ele>1550.382</ele>
        <time>2010-05-01T10:48:10Z</time>
      </trkpt>
      <trkpt lat="42.33332" lon="2.52789">
        <ele>1550.796</ele>
        <time>2010-05-01T10:48:17Z</time>
      </trkpt>
      <trkpt lat="42.33327" lon="2.52804">
        <ele>1549.36</ele>
        <time>2010-05-01T10:48:33Z</time>
      </trkpt>
      <trkpt lat="42.33333" lon="2.52812">
        <ele>1545.996</ele>
        <time>2010-05-01T10:48:42Z</time>
      </trkpt>
      <trkpt lat="42.33331" lon="2.52832">
        <ele>1543.15</ele>
        <time>2010-05-01T10:48:55Z</time>
      </trkpt>
      <trkpt lat="42.33328" lon="2.52841">
        <ele>1541.677</ele>
        <time>2010-05-01T10:49:00Z</time>
      </trkpt>
      <trkpt lat="42.33325" lon="2.52847">
        <ele>1541.161</ele>
        <time>2010-05-01T10:49:15Z</time>
      </trkpt>
      <trkpt lat="42.33325" lon="2.52873">
        <ele>1537.827</ele>
        <time>2010-05-01T10:49:28Z</time>
      </trkpt>
      <trkpt lat="42.33324" lon="2.52894">
        <ele>1535.806</ele>
        <time>2010-05-01T10:49:35Z</time>
      </trkpt>
      <trkpt lat="42.33324" lon="2.52906">
        <ele>1535.465</ele>
        <time>2010-05-01T10:49:39Z</time>
      </trkpt>
      <trkpt lat="42.33319" lon="2.52933">
        <ele>1533.925</ele>
        <time>2010-05-01T10:49:51Z</time>
      </trkpt>
      <trkpt lat="42.33318" lon="2.52942">
        <ele>1533.989</ele>
        <time>2010-05-01T10:49:58Z</time>
      </trkpt>
      <trkpt lat="42.33316" lon="2.52951">
        <ele>1534.463</ele>
        <time>2010-05-01T10:50:02Z</time>
      </trkpt>
      <trkpt lat="42.33306" lon="2.52981">
        <ele>1531.079</ele>
        <time>2010-05-01T10:50:19Z</time>
      </trkpt>
      <trkpt lat="42.33307" lon="2.5299">
        <ele>1529.153</ele>
        <time>2010-05-01T10:50:26Z</time>
      </trkpt>
      <trkpt lat="42.33308" lon="2.5301">
        <ele>1525.345</ele>
        <time>2010-05-01T10:50:40Z</time>
      </trkpt>
      <trkpt lat="42.33309" lon="2.53012">
        <ele>1524.847</ele>
        <time>2010-05-01T10:50:42Z</time>
      </trkpt>
      <trkpt lat="42.33309" lon="2.53013">
        <ele>1524.811</ele>
        <time>2010-05-01T10:50:43Z</time>
      </trkpt>
      <trkpt lat="42.33301" lon="2.53019">
        <ele>1524.306</ele>
        <time>2010-05-01T10:50:47Z</time>
      </trkpt>
      <trkpt lat="42.333" lon="2.5303">
        <ele>1522.432</ele>
        <time>2010-05-01T10:50:54Z</time>
      </trkpt>
      <trkpt lat="42.33305" lon="2.53049">
        <ele>1518.512</ele>
        <time>2010-05-01T10:51:07Z</time>
      </trkpt>
      <trkpt lat="42.33308" lon="2.53046">
        <ele>1517.156</ele>
        <time>2010-05-01T10:51:13Z</time>
      </trkpt>
      <trkpt lat="42.33312" lon="2.53049">
        <ele>1515.75</ele>
        <time>2010-05-01T10:51:17Z</time>
      </trkpt>
      <trkpt lat="42.33318" lon="2.53053">
        <ele>1512.886</ele>
        <time>2010-05-01T10:51:22Z</time>
      </trkpt>
      <trkpt lat="42.3332" lon="2.53056">
        <ele>1512.81</ele>
        <time>2010-05-01T10:51:24Z</time>
      </trkpt>
      <trkpt lat="42.33322" lon="2.53069">
        <ele>1509.923</ele>
        <time>2010-05-01T10:51:35Z</time>
      </trkpt>
      <trkpt lat="42.33326" lon="2.53078">
        <ele>1507.583</ele>
        <time>2010-05-01T10:51:40Z</time>
      </trkpt>
      <trkpt lat="42.33327" lon="2.5308">
        <ele>1507.511</ele>
        <time>2010-05-01T10:51:41Z</time>
      </trkpt>
      <trkpt lat="42.33328" lon="2.5309">
        <ele>1506.006</ele>
        <time>2010-05-01T10:51:45Z</time>
      </trkpt>
      <trkpt lat="42.33333" lon="2.53106">
        <ele>1504.16</ele>
        <time>2010-05-01T10:51:50Z</time>
      </trkpt>
      <trkpt lat="42.33324" lon="2.53143">
        <ele>1503.28</ele>
        <time>2010-05-01T10:52:03Z</time>
      </trkpt>
      <trkpt lat="42.33321" lon="2.53172">
        <ele>1502.784</ele>
        <time>2010-05-01T10:52:16Z</time>
      </trkpt>
      <trkpt lat="42.3332" lon="2.53189">
        <ele>1501.278</ele>
        <time>2010-05-01T10:52:23Z</time>
      </trkpt>
      <trkpt lat="42.33318" lon="2.53211">
        <ele>1499.324</ele>
        <time>2010-05-01T10:52:35Z</time>
      </trkpt>
      <trkpt lat="42.33315" lon="2.53253">
        <ele>1498.828</ele>
        <time>2010-05-01T10:52:48Z</time>
      </trkpt>
      <trkpt lat="42.33315" lon="2.53261">
        <ele>1498.874</ele>
        <time>2010-05-01T10:52:51Z</time>
      </trkpt>
      <trkpt lat="42.33318" lon="2.53297">
        <ele>1498.456</ele>
        <time>2010-05-01T10:53:03Z</time>
      </trkpt>
      <trkpt lat="42.33313" lon="2.53309">
        <ele>1496.421</ele>
        <time>2010-05-01T10:53:08Z</time>
      </trkpt>
      <trkpt lat="42.33311" lon="2.53321">
        <ele>1495.506</ele>
        <time>2010-05-01T10:53:15Z</time>
      </trkpt>
      <trkpt lat="42.3332" lon="2.53335">
        <ele>1491.695</ele>
        <time>2010-05-01T10:53:25Z</time>
      </trkpt>
      <trkpt lat="42.33321" lon="2.53338">
        <ele>1490.745</ele>
        <time>2010-05-01T10:53:27Z</time>
      </trkpt>
      <trkpt lat="42.33327" lon="2.53346">
        <ele>1486.849</ele>
        <time>2010-05-01T10:53:34Z</time>
      </trkpt>
      <trkpt lat="42.33334" lon="2.53351">
        <ele>1485.433</ele>
        <time>2010-05-01T10:53:38Z</time>
      </trkpt>
      <trkpt lat="42.33342" lon="2.53365">
        <ele>1482.089</ele>
        <time>2010-05-01T10:53:47Z</time>
      </trkpt>
      <trkpt lat="42.33347" lon="2.53373">
        <ele>1479.633</ele>
        <time>2010-05-01T10:53:53Z</time>
      </trkpt>
      <trkpt lat="42.3335" lon="2.53374">
        <ele>1477.778</ele>
        <time>2010-05-01T10:53:57Z</time>
      </trkpt>
      <trkpt lat="42.33352" lon="2.53376">
        <ele>1476.733</ele>
        <time>2010-05-01T10:53:59Z</time>
      </trkpt>
      <trkpt lat="42.33353" lon="2.53379">
        <ele>1475.826</ele>
        <time>2010-05-01T10:54:02Z</time>
      </trkpt>
      <trkpt lat="42.33358" lon="2.53382">
        <ele>1472.406</ele>
        <time>2010-05-01T10:54:07Z</time>
      </trkpt>
      <trkpt lat="42.33355" lon="2.53382">
        <ele>1470.525</ele>
        <time>2010-05-01T10:54:19Z</time>
      </trkpt>
      <trkpt lat="42.33356" lon="2.5339">
        <ele>1467.125</ele>
        <time>2010-05-01T10:54:28Z</time>
      </trkpt>
      <trkpt lat="42.33355" lon="2.53396">
        <ele>1463.369</ele>
        <time>2010-05-01T10:54:41Z</time>
      </trkpt>
      <trkpt lat="42.33356" lon="2.53395">
        <ele>1462.343</ele>
        <time>2010-05-01T10:54:43Z</time>
      </trkpt>
      <trkpt lat="42.33359" lon="2.53394">
        <ele>1458.929</ele>
        <time>2010-05-01T10:54:52Z</time>
      </trkpt>
      <trkpt lat="42.3336" lon="2.53393">
        <ele>1458.923</ele>
        <time>2010-05-01T10:54:53Z</time>
      </trkpt>
      <trkpt lat="42.3336" lon="2.53392">
        <ele>1456.569</ele>
        <time>2010-05-01T10:55:01Z</time>
      </trkpt>
      <trkpt lat="42.33382" lon="2.53397">
        <ele>1453.204</ele>
        <time>2010-05-01T10:55:17Z</time>
      </trkpt>
      <trkpt lat="42.3338" lon="2.53402">
        <ele>1452.224</ele>
        <time>2010-05-01T10:55:23Z</time>
      </trkpt>
      <trkpt lat="42.33382" lon="2.53406">
        <ele>1449.806</ele>
        <time>2010-05-01T10:55:28Z</time>
      </trkpt>
      <trkpt lat="42.3338" lon="2.53413">
        <ele>1446.954</ele>
        <time>2010-05-01T10:55:44Z</time>
      </trkpt>
      <trkpt lat="42.33378" lon="2.53412">
        <ele>1446.084</ele>
        <time>2010-05-01T10:55:47Z</time>
      </trkpt>
      <trkpt lat="42.33377" lon="2.53409">
        <ele>1446.048</ele>
        <time>2010-05-01T10:55:53Z</time>
      </trkpt>
      <trkpt lat="42.33382" lon="2.53414">
        <ele>1443.162</ele>
        <time>2010-05-01T10:55:56Z</time>
      </trkpt>
      <trkpt lat="42.33388" lon="2.53428">
        <ele>1438.358</ele>
        <time>2010-05-01T10:56:02Z</time>
      </trkpt>
      <trkpt lat="42.33397" lon="2.53442">
        <ele>1436.322</ele>
        <time>2010-05-01T10:56:09Z</time>
      </trkpt>
      <trkpt lat="42.334" lon="2.53454">
        <ele>1434.492</ele>
        <time>2010-05-01T10:56:13Z</time>
      </trkpt>
      <trkpt lat="42.33402" lon="2.53473">
        <ele>1432.573</ele>
        <time>2010-05-01T10:56:20Z</time>
      </trkpt>
      <trkpt lat="42.33402" lon="2.53485">
        <ele>1429.62</ele>
        <time>2010-05-01T10:56:31Z</time>
      </trkpt>
      <trkpt lat="42.33393" lon="2.53502">
        <ele>1426.306</ele>
        <time>2010-05-01T10:56:39Z</time>
      </trkpt>
      <trkpt lat="42.33395" lon="2.53516">
        <ele>1422.467</ele>
        <time>2010-05-01T10:56:46Z</time>
      </trkpt>
      <trkpt lat="42.33395" lon="2.53542">
        <ele>1419.527</ele>
        <time>2010-05-01T10:56:55Z</time>
      </trkpt>
      <trkpt lat="42.33396" lon="2.5355">
        <ele>1417.161</ele>
        <time>2010-05-01T10:56:58Z</time>
      </trkpt>
      <trkpt lat="42.33396" lon="2.53566">
        <ele>1413.895</ele>
        <time>2010-05-01T10:57:05Z</time>
      </trkpt>
      <trkpt lat="42.33398" lon="2.53582">
        <ele>1410.971</ele>
        <time>2010-05-01T10:57:10Z</time>
      </trkpt>
      <trkpt lat="42.334" lon="2.53595">
        <ele>1408.585</ele>
        <time>2010-05-01T10:57:15Z</time>
      </trkpt>
      <trkpt lat="42.33402" lon="2.53601">
        <ele>1407.597</ele>
        <time>2010-05-01T10:57:17Z</time>
      </trkpt>
      <trkpt lat="42.33401" lon="2.53613">
        <ele>1405.623</ele>
        <time>2010-05-01T10:57:26Z</time>
      </trkpt>
      <trkpt lat="42.334" lon="2.53617">
        <ele>1406.125</ele>
        <time>2010-05-01T10:57:29Z</time>
      </trkpt>
      <trkpt lat="42.33392" lon="2.53643">
        <ele>1405.106</ele>
        <time>2010-05-01T10:57:43Z</time>
      </trkpt>
      <trkpt lat="42.33391" lon="2.53677">
        <ele>1405.147</ele>
        <time>2010-05-01T10:57:55Z</time>
      </trkpt>
      <trkpt lat="42.33383" lon="2.5371">
        <ele>1405.617</ele>
        <time>2010-05-01T10:58:07Z</time>
      </trkpt>
      <trkpt lat="42.33385" lon="2.5373">
        <ele>1406.111</ele>
        <time>2010-05-01T10:58:15Z</time>
      </trkpt>
      <trkpt lat="42.33384" lon="2.53745">
        <ele>1406.515</ele>
        <time>2010-05-01T10:58:21Z</time>
      </trkpt>
      <trkpt lat="42.33383" lon="2.53758">
        <ele>1406.581</ele>
        <time>2010-05-01T10:58:26Z</time>
      </trkpt>
      <trkpt lat="42.33387" lon="2.5377">
        <ele>1406.545</ele>
        <time>2010-05-01T10:58:33Z</time>
      </trkpt>
      <trkpt lat="42.33391" lon="2.53805">
        <ele>1405.665</ele>
        <time>2010-05-01T10:58:48Z</time>
      </trkpt>
      <trkpt lat="42.33391" lon="2.53813">
        <ele>1405.668</ele>
        <time>2010-05-01T10:58:53Z</time>
      </trkpt>
      <trkpt lat="42.33391" lon="2.53826">
        <ele>1405.614</ele>
        <time>2010-05-01T10:58:58Z</time>
      </trkpt>
      <trkpt lat="42.33389" lon="2.53841">
        <ele>1404.606</ele>
        <time>2010-05-01T10:59:06Z</time>
      </trkpt>
      <trkpt lat="42.33387" lon="2.53868">
        <ele>1401.344</ele>
        <time>2010-05-01T10:59:18Z</time>
      </trkpt>
      <trkpt lat="42.33386" lon="2.53872">
        <ele>1401.344</ele>
        <time>2010-05-01T10:59:19Z</time>
      </trkpt>
      <trkpt lat="42.33376" lon="2.53915">
        <ele>1399.898</ele>
        <time>2010-05-01T10:59:32Z</time>
      </trkpt>
      <trkpt lat="42.33378" lon="2.53944">
        <ele>1399.352</ele>
        <time>2010-05-01T10:59:42Z</time>
      </trkpt>
      <trkpt lat="42.33381" lon="2.5396">
        <ele>1399.878</ele>
        <time>2010-05-01T10:59:50Z</time>
      </trkpt>
      <trkpt lat="42.33377" lon="2.53983">
        <ele>1400.332</ele>
        <time>2010-05-01T10:59:59Z</time>
      </trkpt>
      <trkpt lat="42.33375" lon="2.54003">
        <ele>1399.848</ele>
        <time>2010-05-01T11:00:06Z</time>
      </trkpt>
      <trkpt lat="42.33372" lon="2.54043">
        <ele>1399.861</ele>
        <time>2010-05-01T11:00:19Z</time>
      </trkpt>
      <trkpt lat="42.33372" lon="2.54081">
        <ele>1399.317</ele>
        <time>2010-05-01T11:00:33Z</time>
      </trkpt>
      <trkpt lat="42.3336" lon="2.5412">
        <ele>1397.406</ele>
        <time>2010-05-01T11:00:46Z</time>
      </trkpt>
      <trkpt lat="42.33351" lon="2.54159">
        <ele>1395.032</ele>
        <time>2010-05-01T11:00:59Z</time>
      </trkpt>
      <trkpt lat="42.33339" lon="2.54181">
        <ele>1391.252</ele>
        <time>2010-05-01T11:01:08Z</time>
      </trkpt>
      <trkpt lat="42.3333" lon="2.54214">
        <ele>1388.356</ele>
        <time>2010-05-01T11:01:20Z</time>
      </trkpt>
      <trkpt lat="42.33332" lon="2.54244">
        <ele>1384.93</ele>
        <time>2010-05-01T11:01:30Z</time>
      </trkpt>
      <trkpt lat="42.33333" lon="2.5425">
        <ele>1384.916</ele>
        <time>2010-05-01T11:01:32Z</time>
      </trkpt>
      <trkpt lat="42.33325" lon="2.5427">
        <ele>1381.62</ele>
        <time>2010-05-01T11:01:41Z</time>
      </trkpt>
      <trkpt lat="42.33322" lon="2.54277">
        <ele>1380.611</ele>
        <time>2010-05-01T11:01:44Z</time>
      </trkpt>
      <trkpt lat="42.33305" lon="2.54299">
        <ele>1377.721</ele>
        <time>2010-05-01T11:01:55Z</time>
      </trkpt>
      <trkpt lat="42.3329" lon="2.54327">
        <ele>1376.303</ele>
        <time>2010-05-01T11:02:06Z</time>
      </trkpt>
      <trkpt lat="42.33271" lon="2.54366">
        <ele>1374.806</ele>
        <time>2010-05-01T11:02:20Z</time>
      </trkpt>
      <trkpt lat="42.33255" lon="2.54398">
        <ele>1375.379</ele>
        <time>2010-05-01T11:02:34Z</time>
      </trkpt>
      <trkpt lat="42.33243" lon="2.54412">
        <ele>1372.489</ele>
        <time>2010-05-01T11:02:43Z</time>
      </trkpt>
      <trkpt lat="42.33237" lon="2.5442">
        <ele>1371.083</ele>
        <time>2010-05-01T11:02:49Z</time>
      </trkpt>
      <trkpt lat="42.3323" lon="2.54444">
        <ele>1368.617</ele>
        <time>2010-05-01T11:02:59Z</time>
      </trkpt>
      <trkpt lat="42.33224" lon="2.54452">
        <ele>1367.113</ele>
        <time>2010-05-01T11:03:09Z</time>
      </trkpt>
      <trkpt lat="42.33217" lon="2.54453">
        <ele>1366.247</ele>
        <time>2010-05-01T11:03:13Z</time>
      </trkpt>
      <trkpt lat="42.33214" lon="2.54455">
        <ele>1366.214</ele>
        <time>2010-05-01T11:03:16Z</time>
      </trkpt>
      <trkpt lat="42.33209" lon="2.54459">
        <ele>1366.754</ele>
        <time>2010-05-01T11:03:21Z</time>
      </trkpt>
      <trkpt lat="42.33204" lon="2.54469">
        <ele>1368.609</ele>
        <time>2010-05-01T11:03:30Z</time>
      </trkpt>
      <trkpt lat="42.33199" lon="2.5449">
        <ele>1366.206</ele>
        <time>2010-05-01T11:03:39Z</time>
      </trkpt>
      <trkpt lat="42.33191" lon="2.54501">
        <ele>1366.279</ele>
        <time>2010-05-01T11:04:00Z</time>
      </trkpt>
      <trkpt lat="42.33187" lon="2.54506">
        <ele>1363.869</ele>
        <time>2010-05-01T11:04:12Z</time>
      </trkpt>
      <trkpt lat="42.33186" lon="2.54508">
        <ele>1363.353</ele>
        <time>2010-05-01T11:04:14Z</time>
      </trkpt>
      <trkpt lat="42.33177" lon="2.54515">
        <ele>1359.977</ele>
        <time>2010-05-01T11:04:23Z</time>
      </trkpt>
      <trkpt lat="42.33172" lon="2.54522">
        <ele>1357.083</ele>
        <time>2010-05-01T11:04:31Z</time>
      </trkpt>
      <trkpt lat="42.33164" lon="2.54527">
        <ele>1355.157</ele>
        <time>2010-05-01T11:04:37Z</time>
      </trkpt>
      <trkpt lat="42.33154" lon="2.54536">
        <ele>1352.778</ele>
        <time>2010-05-01T11:04:44Z</time>
      </trkpt>
      <trkpt lat="42.33142" lon="2.5455">
        <ele>1349.333</ele>
        <time>2010-05-01T11:04:52Z</time>
      </trkpt>
      <trkpt lat="42.33135" lon="2.54564">
        <ele>1347.426</ele>
        <time>2010-05-01T11:04:59Z</time>
      </trkpt>
      <trkpt lat="42.33127" lon="2.54572">
        <ele>1346.506</ele>
        <time>2010-05-01T11:05:05Z</time>
      </trkpt>
      <trkpt lat="42.33123" lon="2.54578">
        <ele>1345.575</ele>
        <time>2010-05-01T11:05:10Z</time>
      </trkpt>
      <trkpt lat="42.33112" lon="2.54591">
        <ele>1342.115</ele>
        <time>2010-05-01T11:05:19Z</time>
      </trkpt>
      <trkpt lat="42.33092" lon="2.54621">
        <ele>1340.739</ele>
        <time>2010-05-01T11:05:32Z</time>
      </trkpt>
      <trkpt lat="42.33089" lon="2.54626">
        <ele>1340.753</ele>
        <time>2010-05-01T11:05:34Z</time>
      </trkpt>
      <trkpt lat="42.33082" lon="2.54644">
        <ele>1340.729</ele>
        <time>2010-05-01T11:05:47Z</time>
      </trkpt>
      <trkpt lat="42.33071" lon="2.54662">
        <ele>1340.763</ele>
        <time>2010-05-01T11:06:21Z</time>
      </trkpt>
      <trkpt lat="42.33069" lon="2.54668">
        <ele>1341.235</ele>
        <time>2010-05-01T11:06:24Z</time>
      </trkpt>
      <trkpt lat="42.33062" lon="2.54691">
        <ele>1341.286</ele>
        <time>2010-05-01T11:06:36Z</time>
      </trkpt>
      <trkpt lat="42.33058" lon="2.54699">
        <ele>1342.114</ele>
        <time>2010-05-01T11:06:41Z</time>
      </trkpt>
      <trkpt lat="42.33048" lon="2.54704">
        <ele>1343.106</ele>
        <time>2010-05-01T11:06:49Z</time>
      </trkpt>
      <trkpt lat="42.33042" lon="2.54739">
        <ele>1342.691</ele>
        <time>2010-05-01T11:07:03Z</time>
      </trkpt>
      <trkpt lat="42.33042" lon="2.54742">
        <ele>1342.691</ele>
        <time>2010-05-01T11:07:04Z</time>
      </trkpt>
      <trkpt lat="42.33041" lon="2.54751">
        <ele>1343.655</ele>
        <time>2010-05-01T11:07:11Z</time>
      </trkpt>
      <trkpt lat="42.33037" lon="2.54761">
        <ele>1343.619</ele>
        <time>2010-05-01T11:07:17Z</time>
      </trkpt>
      <trkpt lat="42.33035" lon="2.54772">
        <ele>1344.525</ele>
        <time>2010-05-01T11:07:23Z</time>
      </trkpt>
      <trkpt lat="42.33036" lon="2.54777">
        <ele>1345.539</ele>
        <time>2010-05-01T11:07:26Z</time>
      </trkpt>
      <trkpt lat="42.33026" lon="2.54792">
        <ele>1345.554</ele>
        <time>2010-05-01T11:07:36Z</time>
      </trkpt>
      <trkpt lat="42.33025" lon="2.54795">
        <ele>1346.056</ele>
        <time>2010-05-01T11:07:38Z</time>
      </trkpt>
      <trkpt lat="42.33024" lon="2.54801">
        <ele>1347.411</ele>
        <time>2010-05-01T11:07:43Z</time>
      </trkpt>
      <trkpt lat="42.33019" lon="2.54819">
        <ele>1349.806</ele>
        <time>2010-05-01T11:07:53Z</time>
      </trkpt>
      <trkpt lat="42.33017" lon="2.54831">
        <ele>1347.473</ele>
        <time>2010-05-01T11:08:01Z</time>
      </trkpt>
      <trkpt lat="42.33017" lon="2.54833">
        <ele>1346.993</ele>
        <time>2010-05-01T11:08:02Z</time>
      </trkpt>
      <trkpt lat="42.33015" lon="2.5484">
        <ele>1345.577</ele>
        <time>2010-05-01T11:08:06Z</time>
      </trkpt>
      <trkpt lat="42.33001" lon="2.54859">
        <ele>1345.021</ele>
        <time>2010-05-01T11:08:16Z</time>
      </trkpt>
      <trkpt lat="42.33" lon="2.54865">
        <ele>1344.557</ele>
        <time>2010-05-01T11:08:20Z</time>
      </trkpt>
      <trkpt lat="42.32993" lon="2.54884">
        <ele>1344.561</ele>
        <time>2010-05-01T11:08:33Z</time>
      </trkpt>
      <trkpt lat="42.32991" lon="2.5491">
        <ele>1341.712</ele>
        <time>2010-05-01T11:08:50Z</time>
      </trkpt>
      <trkpt lat="42.32988" lon="2.54927">
        <ele>1339.332</ele>
        <time>2010-05-01T11:09:00Z</time>
      </trkpt>
      <trkpt lat="42.32982" lon="2.54946">
        <ele>1335.905</ele>
        <time>2010-05-01T11:09:13Z</time>
      </trkpt>
      <trkpt lat="42.32973" lon="2.5496">
        <ele>1333.006</ele>
        <time>2010-05-01T11:09:26Z</time>
      </trkpt>
      <trkpt lat="42.32968" lon="2.54971">
        <ele>1329.629</ele>
        <time>2010-05-01T11:09:35Z</time>
      </trkpt>
      <trkpt lat="42.32967" lon="2.54972">
        <ele>1329.679</ele>
        <time>2010-05-01T11:09:36Z</time>
      </trkpt>
      <trkpt lat="42.32963" lon="2.54982">
        <ele>1326.383</ele>
        <time>2010-05-01T11:09:44Z</time>
      </trkpt>
      <trkpt lat="42.32963" lon="2.54983">
        <ele>1325.817</ele>
        <time>2010-05-01T11:09:45Z</time>
      </trkpt>
      <trkpt lat="42.32957" lon="2.54998">
        <ele>1322.493</ele>
        <time>2010-05-01T11:09:54Z</time>
      </trkpt>
      <trkpt lat="42.32947" lon="2.55017">
        <ele>1319.567</ele>
        <time>2010-05-01T11:10:06Z</time>
      </trkpt>
      <trkpt lat="42.32946" lon="2.55029">
        <ele>1316.217</ele>
        <time>2010-05-01T11:10:18Z</time>
      </trkpt>
      <trkpt lat="42.32945" lon="2.5504">
        <ele>1312.887</ele>
        <time>2010-05-01T11:10:24Z</time>
      </trkpt>
      <trkpt lat="42.32944" lon="2.55045">
        <ele>1311.915</ele>
        <time>2010-05-01T11:10:26Z</time>
      </trkpt>
      <trkpt lat="42.32929" lon="2.55058">
        <ele>1314.706</ele>
        <time>2010-05-01T11:10:39Z</time>
      </trkpt>
      <trkpt lat="42.32927" lon="2.55059">
        <ele>1315.799</ele>
        <time>2010-05-01T11:10:42Z</time>
      </trkpt>
      <trkpt lat="42.32916" lon="2.55051">
        <ele>1319.199</ele>
        <time>2010-05-01T11:10:54Z</time>
      </trkpt>
      <trkpt lat="42.32911" lon="2.55047">
        <ele>1321.973</ele>
        <time>2010-05-01T11:11:08Z</time>
      </trkpt>
      <trkpt lat="42.32903" lon="2.55049">
        <ele>1325.317</ele>
        <time>2010-05-01T11:11:20Z</time>
      </trkpt>
      <trkpt lat="42.329" lon="2.55049">
        <ele>1325.313</ele>
        <time>2010-05-01T11:11:44Z</time>
      </trkpt>
      <trkpt lat="42.32895" lon="2.55052">
        <ele>1323.427</ele>
        <time>2010-05-01T11:11:49Z</time>
      </trkpt>
      <trkpt lat="42.32892" lon="2.55055">
        <ele>1323.479</ele>
        <time>2010-05-01T11:11:51Z</time>
      </trkpt>
      <trkpt lat="42.32884" lon="2.5507">
        <ele>1324.405</ele>
        <time>2010-05-01T11:12:01Z</time>
      </trkpt>
      <trkpt lat="42.3288" lon="2.55077">
        <ele>1323.925</ele>
        <time>2010-05-01T11:12:07Z</time>
      </trkpt>
      <trkpt lat="42.32876" lon="2.5508">
        <ele>1323.906</ele>
        <time>2010-05-01T11:12:11Z</time>
      </trkpt>
      <trkpt lat="42.32861" lon="2.55093">
        <ele>1321.525</ele>
        <time>2010-05-01T11:12:24Z</time>
      </trkpt>
      <trkpt lat="42.32849" lon="2.551">
        <ele>1319.575</ele>
        <time>2010-05-01T11:12:31Z</time>
      </trkpt>
      <trkpt lat="42.32837" lon="2.55107">
        <ele>1321.969</ele>
        <time>2010-05-01T11:12:42Z</time>
      </trkpt>
      <trkpt lat="42.32832" lon="2.55115">
        <ele>1324.853</ele>
        <time>2010-05-01T11:12:54Z</time>
      </trkpt>
      <trkpt lat="42.32824" lon="2.55123">
        <ele>1327.729</ele>
        <time>2010-05-01T11:13:08Z</time>
      </trkpt>
      <trkpt lat="42.32817" lon="2.55125">
        <ele>1331.113</ele>
        <time>2010-05-01T11:13:24Z</time>
      </trkpt>
      <trkpt lat="42.32806" lon="2.55123">
        <ele>1334.026</ele>
        <time>2010-05-01T11:13:40Z</time>
      </trkpt>
      <trkpt lat="42.32799" lon="2.55124">
        <ele>1337.347</ele>
        <time>2010-05-01T11:13:57Z</time>
      </trkpt>
      <trkpt lat="42.32794" lon="2.55121">
        <ele>1340.211</ele>
        <time>2010-05-01T11:14:12Z</time>
      </trkpt>
      <trkpt lat="42.32787" lon="2.55121">
        <ele>1342.106</ele>
        <time>2010-05-01T11:14:26Z</time>
      </trkpt>
      <trkpt lat="42.3278" lon="2.55126">
        <ele>1342.69</ele>
        <time>2010-05-01T11:14:31Z</time>
      </trkpt>
      <trkpt lat="42.32762" lon="2.55145">
        <ele>1343.18</ele>
        <time>2010-05-01T11:14:48Z</time>
      </trkpt>
      <trkpt lat="42.32754" lon="2.55161">
        <ele>1343.194</ele>
        <time>2010-05-01T11:15:02Z</time>
      </trkpt>
      <trkpt lat="42.32747" lon="2.55177">
        <ele>1339.798</ele>
        <time>2010-05-01T11:15:13Z</time>
      </trkpt>
      <trkpt lat="42.32745" lon="2.55179">
        <ele>1339.754</ele>
        <time>2010-05-01T11:15:14Z</time>
      </trkpt>
      <trkpt lat="42.32739" lon="2.55188">
        <ele>1339.328</ele>
        <time>2010-05-01T11:15:20Z</time>
      </trkpt>
      <trkpt lat="42.32728" lon="2.55195">
        <ele>1337.848</ele>
        <time>2010-05-01T11:15:27Z</time>
      </trkpt>
      <trkpt lat="42.32713" lon="2.55224">
        <ele>1337.861</ele>
        <time>2010-05-01T11:15:40Z</time>
      </trkpt>
      <trkpt lat="42.32691" lon="2.55248">
        <ele>1334.917</ele>
        <time>2010-05-01T11:15:51Z</time>
      </trkpt>
      <trkpt lat="42.32678" lon="2.55256">
        <ele>1334.906</ele>
        <time>2010-05-01T11:15:58Z</time>
      </trkpt>
      <trkpt lat="42.32667" lon="2.5527">
        <ele>1334.432</ele>
        <time>2010-05-01T11:16:09Z</time>
      </trkpt>
      <trkpt lat="42.32643" lon="2.55296">
        <ele>1333.562</ele>
        <time>2010-05-01T11:16:24Z</time>
      </trkpt>
      <trkpt lat="42.32624" lon="2.55324">
        <ele>1333.086</ele>
        <time>2010-05-01T11:16:38Z</time>
      </trkpt>
      <trkpt lat="42.32615" lon="2.55337">
        <ele>1334.94</ele>
        <time>2010-05-01T11:16:50Z</time>
      </trkpt>
      <trkpt lat="42.32607" lon="2.55351">
        <ele>1337.346</ele>
        <time>2010-05-01T11:17:02Z</time>
      </trkpt>
      <trkpt lat="42.32602" lon="2.55369">
        <ele>1340.27</ele>
        <time>2010-05-01T11:17:18Z</time>
      </trkpt>
      <trkpt lat="42.32597" lon="2.55382">
        <ele>1343.122</ele>
        <time>2010-05-01T11:17:36Z</time>
      </trkpt>
      <trkpt lat="42.32597" lon="2.55388">
        <ele>1346.062</ele>
        <time>2010-05-01T11:17:48Z</time>
      </trkpt>
      <trkpt lat="42.32593" lon="2.55398">
        <ele>1348.908</ele>
        <time>2010-05-01T11:18:02Z</time>
      </trkpt>
      <trkpt lat="42.3259" lon="2.55407">
        <ele>1352.206</ele>
        <time>2010-05-01T11:18:17Z</time>
      </trkpt>
      <trkpt lat="42.32588" lon="2.55418">
        <ele>1355.18</ele>
        <time>2010-05-01T11:18:32Z</time>
      </trkpt>
      <trkpt lat="42.32584" lon="2.55433">
        <ele>1358.56</ele>
        <time>2010-05-01T11:18:50Z</time>
      </trkpt>
      <trkpt lat="42.32579" lon="2.55441">
        <ele>1361.484</ele>
        <time>2010-05-01T11:19:02Z</time>
      </trkpt>
      <trkpt lat="42.32573" lon="2.55448">
        <ele>1363.818</ele>
        <time>2010-05-01T11:19:14Z</time>
      </trkpt>
      <trkpt lat="42.3257" lon="2.5545">
        <ele>1364.244</ele>
        <time>2010-05-01T11:19:17Z</time>
      </trkpt>
      <trkpt lat="42.32565" lon="2.55457">
        <ele>1365.218</ele>
        <time>2010-05-01T11:19:30Z</time>
      </trkpt>
      <trkpt lat="42.32557" lon="2.55463">
        <ele>1368.152</ele>
        <time>2010-05-01T11:19:42Z</time>
      </trkpt>
      <trkpt lat="42.32547" lon="2.55475">
        <ele>1369.553</ele>
        <time>2010-05-01T11:19:57Z</time>
      </trkpt>
      <trkpt lat="42.32541" lon="2.55485">
        <ele>1370.008</ele>
        <time>2010-05-01T11:20:05Z</time>
      </trkpt>
      <trkpt lat="42.32536" lon="2.55498">
        <ele>1373.406</ele>
        <time>2010-05-01T11:20:19Z</time>
      </trkpt>
      <trkpt lat="42.32531" lon="2.55506">
        <ele>1373.493</ele>
        <time>2010-05-01T11:20:26Z</time>
      </trkpt>
      <trkpt lat="42.32521" lon="2.5552">
        <ele>1375.363</ele>
        <time>2010-05-01T11:20:39Z</time>
      </trkpt>
      <trkpt lat="42.32518" lon="2.55526">
        <ele>1378.767</ele>
        <time>2010-05-01T11:20:53Z</time>
      </trkpt>
      <trkpt lat="42.32514" lon="2.55533">
        <ele>1382.061</ele>
        <time>2010-05-01T11:21:06Z</time>
      </trkpt>
      <trkpt lat="42.32506" lon="2.55539">
        <ele>1384.917</ele>
        <time>2010-05-01T11:21:23Z</time>
      </trkpt>
      <trkpt lat="42.32499" lon="2.55539">
        <ele>1388.331</ele>
        <time>2010-05-01T11:21:37Z</time>
      </trkpt>
      <trkpt lat="42.32491" lon="2.55539">
        <ele>1390.751</ele>
        <time>2010-05-01T11:21:50Z</time>
      </trkpt>
      <trkpt lat="42.32488" lon="2.55539">
        <ele>1392.101</ele>
        <time>2010-05-01T11:21:55Z</time>
      </trkpt>
      <trkpt lat="42.32484" lon="2.55539">
        <ele>1392.111</ele>
        <time>2010-05-01T11:21:59Z</time>
      </trkpt>
      <trkpt lat="42.32472" lon="2.5554">
        <ele>1393.106</ele>
        <time>2010-05-01T11:22:14Z</time>
      </trkpt>
      <trkpt lat="42.32468" lon="2.55543">
        <ele>1393.633</ele>
        <time>2010-05-01T11:22:19Z</time>
      </trkpt>
      <trkpt lat="42.32453" lon="2.55548">
        <ele>1394.033</ele>
        <time>2010-05-01T11:22:33Z</time>
      </trkpt>
      <trkpt lat="42.3245" lon="2.55549">
        <ele>1393.647</ele>
        <time>2010-05-01T11:22:36Z</time>
      </trkpt>
      <trkpt lat="42.32449" lon="2.55548">
        <ele>1394.041</ele>
        <time>2010-05-01T11:22:51Z</time>
      </trkpt>
      <trkpt lat="42.32441" lon="2.55553">
        <ele>1392.677</ele>
        <time>2010-05-01T11:23:16Z</time>
      </trkpt>
      <trkpt lat="42.32434" lon="2.55552">
        <ele>1389.281</ele>
        <time>2010-05-01T11:23:29Z</time>
      </trkpt>
      <trkpt lat="42.32433" lon="2.55553">
        <ele>1388.892</ele>
        <time>2010-05-01T11:23:30Z</time>
      </trkpt>
      <trkpt lat="42.32427" lon="2.55554">
        <ele>1385.473</ele>
        <time>2010-05-01T11:23:46Z</time>
      </trkpt>
      <trkpt lat="42.32421" lon="2.55561">
        <ele>1382.02</ele>
        <time>2010-05-01T11:23:56Z</time>
      </trkpt>
      <trkpt lat="42.32415" lon="2.5556">
        <ele>1378.706</ele>
        <time>2010-05-01T11:24:07Z</time>
      </trkpt>
      <trkpt lat="42.32412" lon="2.55561">
        <ele>1376.387</ele>
        <time>2010-05-01T11:24:11Z</time>
      </trkpt>
      <trkpt lat="42.32407" lon="2.55564">
        <ele>1372.437</ele>
        <time>2010-05-01T11:24:17Z</time>
      </trkpt>
      <trkpt lat="42.32403" lon="2.55566">
        <ele>1371.061</ele>
        <time>2010-05-01T11:24:19Z</time>
      </trkpt>
      <trkpt lat="42.32396" lon="2.55571">
        <ele>1366.765</ele>
        <time>2010-05-01T11:24:26Z</time>
      </trkpt>
      <trkpt lat="42.32393" lon="2.55577">
        <ele>1365.281</ele>
        <time>2010-05-01T11:24:29Z</time>
      </trkpt>
      <trkpt lat="42.32387" lon="2.55582">
        <ele>1363.315</ele>
        <time>2010-05-01T11:24:33Z</time>
      </trkpt>
      <trkpt lat="42.32379" lon="2.55585">
        <ele>1360.464</ele>
        <time>2010-05-01T11:24:38Z</time>
      </trkpt>
      <trkpt lat="42.32374" lon="2.55585">
        <ele>1359.006</ele>
        <time>2010-05-01T11:24:41Z</time>
      </trkpt>
      <trkpt lat="42.32364" lon="2.5559">
        <ele>1355.616</ele>
        <time>2010-05-01T11:24:47Z</time>
      </trkpt>
      <trkpt lat="42.32356" lon="2.55593">
        <ele>1352.206</ele>
        <time>2010-05-01T11:24:53Z</time>
      </trkpt>
      <trkpt lat="42.32354" lon="2.55594">
        <ele>1351.844</ele>
        <time>2010-05-01T11:24:55Z</time>
      </trkpt>
      <trkpt lat="42.32346" lon="2.55595">
        <ele>1348.454</ele>
        <time>2010-05-01T11:25:01Z</time>
      </trkpt>
      <trkpt lat="42.32339" lon="2.55598">
        <ele>1346.528</ele>
        <time>2010-05-01T11:25:05Z</time>
      </trkpt>
      <trkpt lat="42.32335" lon="2.55598">
        <ele>1345.562</ele>
        <time>2010-05-01T11:25:07Z</time>
      </trkpt>
      <trkpt lat="42.32332" lon="2.55601">
        <ele>1343.638</ele>
        <time>2010-05-01T11:25:10Z</time>
      </trkpt>
      <trkpt lat="42.32313" lon="2.55609">
        <ele>1341.222</ele>
        <time>2010-05-01T11:25:21Z</time>
      </trkpt>
      <trkpt lat="42.32301" lon="2.55612">
        <ele>1342.664</ele>
        <time>2010-05-01T11:25:30Z</time>
      </trkpt>
      <trkpt lat="42.32298" lon="2.5562">
        <ele>1342.106</ele>
        <time>2010-05-01T11:25:36Z</time>
      </trkpt>
      <trkpt lat="42.32294" lon="2.55625">
        <ele>1341.216</ele>
        <time>2010-05-01T11:25:40Z</time>
      </trkpt>
      <trkpt lat="42.32286" lon="2.55644">
        <ele>1339.306</ele>
        <time>2010-05-01T11:25:55Z</time>
      </trkpt>
      <trkpt lat="42.32281" lon="2.55652">
        <ele>1336.954</ele>
        <time>2010-05-01T11:26:03Z</time>
      </trkpt>
      <trkpt lat="42.32277" lon="2.55658">
        <ele>1335.434</ele>
        <time>2010-05-01T11:26:06Z</time>
      </trkpt>
      <trkpt lat="42.32276" lon="2.55659">
        <ele>1335.418</ele>
        <time>2010-05-01T11:26:07Z</time>
      </trkpt>
      <trkpt lat="42.32274" lon="2.5566">
        <ele>1334.022</ele>
        <time>2010-05-01T11:26:09Z</time>
      </trkpt>
      <trkpt lat="42.3227" lon="2.55661">
        <ele>1333.028</ele>
        <time>2010-05-01T11:26:12Z</time>
      </trkpt>
      <trkpt lat="42.32267" lon="2.55669">
        <ele>1331.172</ele>
        <time>2010-05-01T11:26:15Z</time>
      </trkpt>
      <trkpt lat="42.32255" lon="2.55685">
        <ele>1332.027</ele>
        <time>2010-05-01T11:26:27Z</time>
      </trkpt>
      <trkpt lat="42.32248" lon="2.55686">
        <ele>1328.768</ele>
        <time>2010-05-01T11:26:37Z</time>
      </trkpt>
      <trkpt lat="42.32248" lon="2.55686">
        <ele>1328.714</ele>
        <time>2010-05-01T11:26:38Z</time>
      </trkpt>
      <trkpt lat="42.32238" lon="2.5569">
        <ele>1325.306</ele>
        <time>2010-05-01T11:26:51Z</time>
      </trkpt>
      <trkpt lat="42.32235" lon="2.55693">
        <ele>1323.94</ele>
        <time>2010-05-01T11:26:54Z</time>
      </trkpt>
      <trkpt lat="42.32231" lon="2.55696">
        <ele>1321.58</ele>
        <time>2010-05-01T11:26:58Z</time>
      </trkpt>
      <trkpt lat="42.32228" lon="2.55692">
        <ele>1318.694</ele>
        <time>2010-05-01T11:27:02Z</time>
      </trkpt>
      <trkpt lat="42.32222" lon="2.55691">
        <ele>1317.688</ele>
        <time>2010-05-01T11:27:04Z</time>
      </trkpt>
      <trkpt lat="42.32216" lon="2.55691">
        <ele>1316.264</ele>
        <time>2010-05-01T11:27:07Z</time>
      </trkpt>
      <trkpt lat="42.32212" lon="2.55693">
        <ele>1315.748</ele>
        <time>2010-05-01T11:27:09Z</time>
      </trkpt>
      <trkpt lat="42.32208" lon="2.5573">
        <ele>1313.882</ele>
        <time>2010-05-01T11:27:23Z</time>
      </trkpt>
      <trkpt lat="42.32207" lon="2.55735">
        <ele>1313.843</ele>
        <time>2010-05-01T11:27:26Z</time>
      </trkpt>
      <trkpt lat="42.32194" lon="2.55748">
        <ele>1311.417</ele>
        <time>2010-05-01T11:27:37Z</time>
      </trkpt>
      <trkpt lat="42.32189" lon="2.55748">
        <ele>1309.506</ele>
        <time>2010-05-01T11:27:41Z</time>
      </trkpt>
      <trkpt lat="42.32173" lon="2.55764">
        <ele>1307.076</ele>
        <time>2010-05-01T11:27:52Z</time>
      </trkpt>
      <trkpt lat="42.32161" lon="2.55777">
        <ele>1304.636</ele>
        <time>2010-05-01T11:28:04Z</time>
      </trkpt>
      <trkpt lat="42.32159" lon="2.5578">
        <ele>1304.62</ele>
        <time>2010-05-01T11:28:06Z</time>
      </trkpt>
      <trkpt lat="42.32154" lon="2.55784">
        <ele>1303.294</ele>
        <time>2010-05-01T11:28:10Z</time>
      </trkpt>
      <trkpt lat="42.32142" lon="2.55795">
        <ele>1299.81</ele>
        <time>2010-05-01T11:28:27Z</time>
      </trkpt>
      <trkpt lat="42.32141" lon="2.55807">
        <ele>1296.584</ele>
        <time>2010-05-01T11:28:36Z</time>
      </trkpt>
      <trkpt lat="42.32141" lon="2.5581">
        <ele>1295.037</ele>
        <time>2010-05-01T11:28:39Z</time>
      </trkpt>
      <trkpt lat="42.3214" lon="2.55814">
        <ele>1294.649</ele>
        <time>2010-05-01T11:28:41Z</time>
      </trkpt>
      <trkpt lat="42.32139" lon="2.55826">
        <ele>1292.113</ele>
        <time>2010-05-01T11:28:54Z</time>
      </trkpt>
      <trkpt lat="42.32138" lon="2.55829">
        <ele>1290.706</ele>
        <time>2010-05-01T11:28:57Z</time>
      </trkpt>
      <trkpt lat="42.32133" lon="2.55835">
        <ele>1287.311</ele>
        <time>2010-05-01T11:29:06Z</time>
      </trkpt>
      <trkpt lat="42.32131" lon="2.55837">
        <ele>1286.971</ele>
        <time>2010-05-01T11:29:08Z</time>
      </trkpt>
      <trkpt lat="42.32126" lon="2.55847">
        <ele>1284.025</ele>
        <time>2010-05-01T11:29:22Z</time>
      </trkpt>
      <trkpt lat="42.32124" lon="2.55843">
        <ele>1281.689</ele>
        <time>2010-05-01T11:29:28Z</time>
      </trkpt>
      <trkpt lat="42.3212" lon="2.55862">
        <ele>1280.635</ele>
        <time>2010-05-01T11:29:39Z</time>
      </trkpt>
      <trkpt lat="42.32117" lon="2.55873">
        <ele>1278.759</ele>
        <time>2010-05-01T11:29:56Z</time>
      </trkpt>
      <trkpt lat="42.32109" lon="2.55888">
        <ele>1275.829</ele>
        <time>2010-05-01T11:30:06Z</time>
      </trkpt>
      <trkpt lat="42.32108" lon="2.55891">
        <ele>1275.3</ele>
        <time>2010-05-01T11:30:07Z</time>
      </trkpt>
      <trkpt lat="42.32097" lon="2.55897">
        <ele>1272.02</ele>
        <time>2010-05-01T11:30:20Z</time>
      </trkpt>
      <trkpt lat="42.32095" lon="2.55902">
        <ele>1270.506</ele>
        <time>2010-05-01T11:30:24Z</time>
      </trkpt>
      <trkpt lat="42.3209" lon="2.55905">
        <ele>1269.16</ele>
        <time>2010-05-01T11:30:27Z</time>
      </trkpt>
      <trkpt lat="42.32087" lon="2.55919">
        <ele>1268.19</ele>
        <time>2010-05-01T11:30:36Z</time>
      </trkpt>
      <trkpt lat="42.32082" lon="2.55941">
        <ele>1269.194</ele>
        <time>2010-05-01T11:30:50Z</time>
      </trkpt>
      <trkpt lat="42.32079" lon="2.5595">
        <ele>1270.058</ele>
        <time>2010-05-01T11:30:56Z</time>
      </trkpt>
      <trkpt lat="42.32074" lon="2.55954">
        <ele>1268.664</ele>
        <time>2010-05-01T11:31:01Z</time>
      </trkpt>
      <trkpt lat="42.32075" lon="2.55965">
        <ele>1269.178</ele>
        <time>2010-05-01T11:31:06Z</time>
      </trkpt>
      <trkpt lat="42.3207" lon="2.55982">
        <ele>1267.668</ele>
        <time>2010-05-01T11:31:26Z</time>
      </trkpt>
      <trkpt lat="42.32061" lon="2.56007">
        <ele>1265.742</ele>
        <time>2010-05-01T11:31:37Z</time>
      </trkpt>
      <trkpt lat="42.32057" lon="2.56015">
        <ele>1264.826</ele>
        <time>2010-05-01T11:31:41Z</time>
      </trkpt>
      <trkpt lat="42.32047" lon="2.56044">
        <ele>1264.806</ele>
        <time>2010-05-01T11:31:53Z</time>
      </trkpt>
      <trkpt lat="42.32044" lon="2.56061">
        <ele>1266.294</ele>
        <time>2010-05-01T11:32:04Z</time>
      </trkpt>
      <trkpt lat="42.32036" lon="2.56083">
        <ele>1268.184</ele>
        <time>2010-05-01T11:32:19Z</time>
      </trkpt>
      <trkpt lat="42.32026" lon="2.5609">
        <ele>1265.278</ele>
        <time>2010-05-01T11:32:38Z</time>
      </trkpt>
      <trkpt lat="42.32014" lon="2.56096">
        <ele>1265.272</ele>
        <time>2010-05-01T11:32:51Z</time>
      </trkpt>
      <trkpt lat="42.32003" lon="2.56114">
        <ele>1268.178</ele>
        <time>2010-05-01T11:33:05Z</time>
      </trkpt>
      <trkpt lat="42.31999" lon="2.56122">
        <ele>1269.642</ele>
        <time>2010-05-01T11:33:16Z</time>
      </trkpt>
      <trkpt lat="42.31981" lon="2.56141">
        <ele>1271.091</ele>
        <time>2010-05-01T11:33:37Z</time>
      </trkpt>
      <trkpt lat="42.31979" lon="2.56147">
        <ele>1271.081</ele>
        <time>2010-05-01T11:33:42Z</time>
      </trkpt>
      <trkpt lat="42.31975" lon="2.56161">
        <ele>1274.819</ele>
        <time>2010-05-01T11:33:58Z</time>
      </trkpt>
      <trkpt lat="42.31969" lon="2.56169">
        <ele>1273.406</ele>
        <time>2010-05-01T11:34:09Z</time>
      </trkpt>
      <trkpt lat="42.3197" lon="2.56176">
        <ele>1271.027</ele>
        <time>2010-05-01T11:34:19Z</time>
      </trkpt>
      <trkpt lat="42.31966" lon="2.56171">
        <ele>1270.567</ele>
        <time>2010-05-01T11:34:22Z</time>
      </trkpt>
      <trkpt lat="42.31963" lon="2.56156">
        <ele>1267.211</ele>
        <time>2010-05-01T11:34:33Z</time>
      </trkpt>
      <trkpt lat="42.3196" lon="2.56151">
        <ele>1265.785</ele>
        <time>2010-05-01T11:34:36Z</time>
      </trkpt>
      <trkpt lat="42.31951" lon="2.56138">
        <ele>1262.361</ele>
        <time>2010-05-01T11:34:51Z</time>
      </trkpt>
      <trkpt lat="42.3195" lon="2.56135">
        <ele>1260.965</ele>
        <time>2010-05-01T11:34:54Z</time>
      </trkpt>
      <trkpt lat="42.31946" lon="2.5613">
        <ele>1257.124</ele>
        <time>2010-05-01T11:35:01Z</time>
      </trkpt>
      <trkpt lat="42.31944" lon="2.56127">
        <ele>1255.604</ele>
        <time>2010-05-01T11:35:04Z</time>
      </trkpt>
      <trkpt lat="42.31938" lon="2.56125">
        <ele>1253.214</ele>
        <time>2010-05-01T11:35:09Z</time>
      </trkpt>
      <trkpt lat="42.31932" lon="2.56127">
        <ele>1251.306</ele>
        <time>2010-05-01T11:35:14Z</time>
      </trkpt>
      <trkpt lat="42.31915" lon="2.56123">
        <ele>1250.33</ele>
        <time>2010-05-01T11:35:35Z</time>
      </trkpt>
      <trkpt lat="42.319" lon="2.5612">
        <ele>1252.75</ele>
        <time>2010-05-01T11:35:53Z</time>
      </trkpt>
      <trkpt lat="42.31875" lon="2.56105">
        <ele>1255.124</ele>
        <time>2010-05-01T11:36:21Z</time>
      </trkpt>
      <trkpt lat="42.31869" lon="2.56088">
        <ele>1256.118</ele>
        <time>2010-05-01T11:36:40Z</time>
      </trkpt>
      <trkpt lat="42.31857" lon="2.56086">
        <ele>1258.584</ele>
        <time>2010-05-01T11:37:01Z</time>
      </trkpt>
      <trkpt lat="42.31845" lon="2.56086">
        <ele>1259.938</ele>
        <time>2010-05-01T11:37:16Z</time>
      </trkpt>
      <trkpt lat="42.31829" lon="2.56093">
        <ele>1262.848</ele>
        <time>2010-05-01T11:37:33Z</time>
      </trkpt>
      <trkpt lat="42.31813" lon="2.56095">
        <ele>1264.361</ele>
        <time>2010-05-01T11:37:52Z</time>
      </trkpt>
      <trkpt lat="42.31787" lon="2.561">
        <ele>1266.217</ele>
        <time>2010-05-01T11:38:09Z</time>
      </trkpt>
      <trkpt lat="42.31773" lon="2.56107">
        <ele>1268.606</ele>
        <time>2010-05-01T11:38:28Z</time>
      </trkpt>
      <trkpt lat="42.31754" lon="2.56116">
        <ele>1270.022</ele>
        <time>2010-05-01T11:38:50Z</time>
      </trkpt>
      <trkpt lat="42.31735" lon="2.56115">
        <ele>1271.052</ele>
        <time>2010-05-01T11:39:07Z</time>
      </trkpt>
      <trkpt lat="42.3172" lon="2.56108">
        <ele>1273.936</ele>
        <time>2010-05-01T11:39:22Z</time>
      </trkpt>
      <trkpt lat="42.31705" lon="2.56084">
        <ele>1276.88</ele>
        <time>2010-05-01T11:39:46Z</time>
      </trkpt>
      <trkpt lat="42.31699" lon="2.5608">
        <ele>1278.726</ele>
        <time>2010-05-01T11:40:09Z</time>
      </trkpt>
      <trkpt lat="42.31685" lon="2.56069">
        <ele>1279.76</ele>
        <time>2010-05-01T11:40:28Z</time>
      </trkpt>
      <trkpt lat="42.3167" lon="2.56055">
        <ele>1278.784</ele>
        <time>2010-05-01T11:41:04Z</time>
      </trkpt>
      <trkpt lat="42.31667" lon="2.56059">
        <ele>1279.707</ele>
        <time>2010-05-01T11:41:19Z</time>
      </trkpt>
      <trkpt lat="42.31655" lon="2.56059">
        <ele>1275.817</ele>
        <time>2010-05-01T11:41:38Z</time>
      </trkpt>
      <trkpt lat="42.31654" lon="2.56058">
        <ele>1276.306</ele>
        <time>2010-05-01T11:41:39Z</time>
      </trkpt>
      <trkpt lat="42.3163" lon="2.56049">
        <ele>1273.496</ele>
        <time>2010-05-01T11:41:56Z</time>
      </trkpt>
      <trkpt lat="42.31626" lon="2.5605">
        <ele>1272.976</ele>
        <time>2010-05-01T11:41:58Z</time>
      </trkpt>
      <trkpt lat="42.31607" lon="2.56061">
        <ele>1272.47</ele>
        <time>2010-05-01T11:42:14Z</time>
      </trkpt>
      <trkpt lat="42.31601" lon="2.56062">
        <ele>1272.464</ele>
        <time>2010-05-01T11:42:18Z</time>
      </trkpt>
      <trkpt lat="42.3159" lon="2.56067">
        <ele>1272.45</ele>
        <time>2010-05-01T11:42:25Z</time>
      </trkpt>
      <trkpt lat="42.31572" lon="2.56076">
        <ele>1272.484</ele>
        <time>2010-05-01T11:42:36Z</time>
      </trkpt>
      <trkpt lat="42.31562" lon="2.56081">
        <ele>1272.446</ele>
        <time>2010-05-01T11:42:42Z</time>
      </trkpt>
      <trkpt lat="42.3156" lon="2.56084">
        <ele>1272.488</ele>
        <time>2010-05-01T11:42:44Z</time>
      </trkpt>
      <trkpt lat="42.31555" lon="2.56096">
        <ele>1272.416</ele>
        <time>2010-05-01T11:42:50Z</time>
      </trkpt>
      <trkpt lat="42.31539" lon="2.56118">
        <ele>1272.406</ele>
        <time>2010-05-01T11:43:04Z</time>
      </trkpt>
      <trkpt lat="42.31529" lon="2.5613">
        <ele>1271.022</ele>
        <time>2010-05-01T11:43:11Z</time>
      </trkpt>
      <trkpt lat="42.31518" lon="2.56157">
        <ele>1269.112</ele>
        <time>2010-05-01T11:43:25Z</time>
      </trkpt>
      <trkpt lat="42.31514" lon="2.56185">
        <ele>1267.286</ele>
        <time>2010-05-01T11:43:38Z</time>
      </trkpt>
      <trkpt lat="42.31514" lon="2.56208">
        <ele>1265.76</ele>
        <time>2010-05-01T11:43:53Z</time>
      </trkpt>
      <trkpt lat="42.31517" lon="2.5623">
        <ele>1262.336</ele>
        <time>2010-05-01T11:44:05Z</time>
      </trkpt>
      <trkpt lat="42.31517" lon="2.56232">
        <ele>1261.91</ele>
        <time>2010-05-01T11:44:06Z</time>
      </trkpt>
      <trkpt lat="42.31523" lon="2.56253">
        <ele>1260.464</ele>
        <time>2010-05-01T11:44:18Z</time>
      </trkpt>
      <trkpt lat="42.31524" lon="2.56262">
        <ele>1259.906</ele>
        <time>2010-05-01T11:44:21Z</time>
      </trkpt>
      <trkpt lat="42.31521" lon="2.56273">
        <ele>1259.916</ele>
        <time>2010-05-01T11:44:26Z</time>
      </trkpt>
      <trkpt lat="42.31518" lon="2.56282">
        <ele>1257.506</ele>
        <time>2010-05-01T11:44:32Z</time>
      </trkpt>
      <trkpt lat="42.31511" lon="2.56297">
        <ele>1257.574</ele>
        <time>2010-05-01T11:44:43Z</time>
      </trkpt>
      <trkpt lat="42.31507" lon="2.56324">
        <ele>1254.274</ele>
        <time>2010-05-01T11:44:55Z</time>
      </trkpt>
      <trkpt lat="42.31505" lon="2.5633">
        <ele>1253.798</ele>
        <time>2010-05-01T11:44:57Z</time>
      </trkpt>
      <trkpt lat="42.31506" lon="2.56332">
        <ele>1252.752</ele>
        <time>2010-05-01T11:44:58Z</time>
      </trkpt>
      <trkpt lat="42.31498" lon="2.56339">
        <ele>1251.378</ele>
        <time>2010-05-01T11:45:04Z</time>
      </trkpt>
      <trkpt lat="42.31489" lon="2.56337">
        <ele>1247.942</ele>
        <time>2010-05-01T11:45:10Z</time>
      </trkpt>
      <trkpt lat="42.3148" lon="2.5634">
        <ele>1245.544</ele>
        <time>2010-05-01T11:45:14Z</time>
      </trkpt>
      <trkpt lat="42.31477" lon="2.56342">
        <ele>1244.605</ele>
        <time>2010-05-01T11:45:16Z</time>
      </trkpt>
      <trkpt lat="42.31452" lon="2.56375">
        <ele>1242.615</ele>
        <time>2010-05-01T11:45:31Z</time>
      </trkpt>
      <trkpt lat="42.3145" lon="2.56377">
        <ele>1241.706</ele>
        <time>2010-05-01T11:45:32Z</time>
      </trkpt>
      <trkpt lat="42.31437" lon="2.56417">
        <ele>1241.242</ele>
        <time>2010-05-01T11:45:45Z</time>
      </trkpt>
      <trkpt lat="42.31427" lon="2.56451">
        <ele>1240.222</ele>
        <time>2010-05-01T11:45:56Z</time>
      </trkpt>
      <trkpt lat="42.31423" lon="2.5647">
        <ele>1238.896</ele>
        <time>2010-05-01T11:46:09Z</time>
      </trkpt>
      <trkpt lat="42.31426" lon="2.56466">
        <ele>1238.84</ele>
        <time>2010-05-01T11:48:06Z</time>
      </trkpt>
      <trkpt lat="42.31423" lon="2.56468">
        <ele>1238.816</ele>
        <time>2010-05-01T11:48:45Z</time>
      </trkpt>
      <trkpt lat="42.31414" lon="2.56472">
        <ele>1235.48</ele>
        <time>2010-05-01T11:48:56Z</time>
      </trkpt>
      <trkpt lat="42.31403" lon="2.56466">
        <ele>1232.543</ele>
        <time>2010-05-01T11:49:03Z</time>
      </trkpt>
      <trkpt lat="42.31398" lon="2.56461">
        <ele>1229.764</ele>
        <time>2010-05-01T11:49:09Z</time>
      </trkpt>
      <trkpt lat="42.31396" lon="2.56462">
        <ele>1229.21</ele>
        <time>2010-05-01T11:49:10Z</time>
      </trkpt>
      <trkpt lat="42.31389" lon="2.56467">
        <ele>1227.306</ele>
        <time>2010-05-01T11:49:16Z</time>
      </trkpt>
      <trkpt lat="42.31381" lon="2.56473">
        <ele>1225.892</ele>
        <time>2010-05-01T11:49:23Z</time>
      </trkpt>
      <trkpt lat="42.31373" lon="2.56481">
        <ele>1224.942</ele>
        <time>2010-05-01T11:49:27Z</time>
      </trkpt>
      <trkpt lat="42.31361" lon="2.56489">
        <ele>1223.416</ele>
        <time>2010-05-01T11:49:34Z</time>
      </trkpt>
      <trkpt lat="42.31357" lon="2.56499">
        <ele>1221.03</ele>
        <time>2010-05-01T11:49:42Z</time>
      </trkpt>
      <trkpt lat="42.31348" lon="2.56512">
        <ele>1218.146</ele>
        <time>2010-05-01T11:49:52Z</time>
      </trkpt>
      <trkpt lat="42.31345" lon="2.56513">
        <ele>1215.79</ele>
        <time>2010-05-01T11:49:57Z</time>
      </trkpt>
      <trkpt lat="42.31337" lon="2.56512">
        <ele>1213.311</ele>
        <time>2010-05-01T11:50:01Z</time>
      </trkpt>
      <trkpt lat="42.31329" lon="2.56506">
        <ele>1211.421</ele>
        <time>2010-05-01T11:50:08Z</time>
      </trkpt>
      <trkpt lat="42.31324" lon="2.56509">
        <ele>1209.503</ele>
        <time>2010-05-01T11:50:11Z</time>
      </trkpt>
      <trkpt lat="42.31312" lon="2.56516">
        <ele>1207.606</ele>
        <time>2010-05-01T11:50:20Z</time>
      </trkpt>
      <trkpt lat="42.31301" lon="2.56524">
        <ele>1207.659</ele>
        <time>2010-05-01T11:50:24Z</time>
      </trkpt>
      <trkpt lat="42.31271" lon="2.56548">
        <ele>1206.199</ele>
        <time>2010-05-01T11:50:37Z</time>
      </trkpt>
      <trkpt lat="42.31244" lon="2.5657">
        <ele>1205.633</ele>
        <time>2010-05-01T11:50:52Z</time>
      </trkpt>
      <trkpt lat="42.31225" lon="2.56579">
        <ele>1206.677</ele>
        <time>2010-05-01T11:51:01Z</time>
      </trkpt>
      <trkpt lat="42.31218" lon="2.5658">
        <ele>1204.743</ele>
        <time>2010-05-01T11:51:05Z</time>
      </trkpt>
      <trkpt lat="42.31216" lon="2.56581">
        <ele>1204.767</ele>
        <time>2010-05-01T11:51:07Z</time>
      </trkpt>
      <trkpt lat="42.31208" lon="2.56584">
        <ele>1203.246</ele>
        <time>2010-05-01T11:51:11Z</time>
      </trkpt>
      <trkpt lat="42.31202" lon="2.56586">
        <ele>1200.888</ele>
        <time>2010-05-01T11:51:16Z</time>
      </trkpt>
      <trkpt lat="42.31196" lon="2.56592">
        <ele>1199.416</ele>
        <time>2010-05-01T11:51:21Z</time>
      </trkpt>
      <trkpt lat="42.31187" lon="2.566">
        <ele>1196.006</ele>
        <time>2010-05-01T11:51:32Z</time>
      </trkpt>
      <trkpt lat="42.31178" lon="2.56606">
        <ele>1193.132</ele>
        <time>2010-05-01T11:51:44Z</time>
      </trkpt>
      <trkpt lat="42.31176" lon="2.5661">
        <ele>1189.852</ele>
        <time>2010-05-01T11:51:51Z</time>
      </trkpt>
      <trkpt lat="42.31175" lon="2.56614">
        <ele>1188.856</ele>
        <time>2010-05-01T11:51:54Z</time>
      </trkpt>
      <trkpt lat="42.31172" lon="2.56627">
        <ele>1185.99</ele>
        <time>2010-05-01T11:52:07Z</time>
      </trkpt>
      <trkpt lat="42.31169" lon="2.56629">
        <ele>1182.646</ele>
        <time>2010-05-01T11:52:13Z</time>
      </trkpt>
      <trkpt lat="42.31167" lon="2.56631">
        <ele>1182.19</ele>
        <time>2010-05-01T11:52:14Z</time>
      </trkpt>
      <trkpt lat="42.3116" lon="2.56633">
        <ele>1179.753</ele>
        <time>2010-05-01T11:52:20Z</time>
      </trkpt>
      <trkpt lat="42.31156" lon="2.56624">
        <ele>1176.304</ele>
        <time>2010-05-01T11:52:26Z</time>
      </trkpt>
      <trkpt lat="42.31155" lon="2.5662">
        <ele>1175.314</ele>
        <time>2010-05-01T11:52:28Z</time>
      </trkpt>
      <trkpt lat="42.31152" lon="2.56618">
        <ele>1173.906</ele>
        <time>2010-05-01T11:52:30Z</time>
      </trkpt>
      <trkpt lat="42.31142" lon="2.56616">
        <ele>1169.633</ele>
        <time>2010-05-01T11:52:37Z</time>
      </trkpt>
      <trkpt lat="42.31139" lon="2.56618">
        <ele>1168.153</ele>
        <time>2010-05-01T11:52:40Z</time>
      </trkpt>
      <trkpt lat="42.31132" lon="2.56621">
        <ele>1166.737</ele>
        <time>2010-05-01T11:52:43Z</time>
      </trkpt>
      <trkpt lat="42.31122" lon="2.56619">
        <ele>1164.351</ele>
        <time>2010-05-01T11:52:47Z</time>
      </trkpt>
      <trkpt lat="42.31107" lon="2.5662">
        <ele>1161.457</ele>
        <time>2010-05-01T11:52:53Z</time>
      </trkpt>
      <trkpt lat="42.31104" lon="2.56621">
        <ele>1160.021</ele>
        <time>2010-05-01T11:52:55Z</time>
      </trkpt>
      <trkpt lat="42.31101" lon="2.5662">
        <ele>1158.581</ele>
        <time>2010-05-01T11:52:57Z</time>
      </trkpt>
      <trkpt lat="42.31093" lon="2.56631">
        <ele>1157.161</ele>
        <time>2010-05-01T11:53:02Z</time>
      </trkpt>
      <trkpt lat="42.31091" lon="2.56642">
        <ele>1153.717</ele>
        <time>2010-05-01T11:53:12Z</time>
      </trkpt>
      <trkpt lat="42.31093" lon="2.56647">
        <ele>1152.306</ele>
        <time>2010-05-01T11:53:16Z</time>
      </trkpt>
      <trkpt lat="42.31102" lon="2.56659">
        <ele>1151.366</ele>
        <time>2010-05-01T11:53:28Z</time>
      </trkpt>
      <trkpt lat="42.31104" lon="2.56662">
        <ele>1150.886</ele>
        <time>2010-05-01T11:53:33Z</time>
      </trkpt>
      <trkpt lat="42.31106" lon="2.56663">
        <ele>1149.44</ele>
        <time>2010-05-01T11:53:38Z</time>
      </trkpt>
      <trkpt lat="42.31107" lon="2.56662">
        <ele>1148.424</ele>
        <time>2010-05-01T11:53:40Z</time>
      </trkpt>
      <trkpt lat="42.31094" lon="2.56659">
        <ele>1145.18</ele>
        <time>2010-05-01T11:53:48Z</time>
      </trkpt>
      <trkpt lat="42.31091" lon="2.56661">
        <ele>1142.784</ele>
        <time>2010-05-01T11:53:53Z</time>
      </trkpt>
      <trkpt lat="42.31086" lon="2.5667">
        <ele>1140.353</ele>
        <time>2010-05-01T11:53:58Z</time>
      </trkpt>
      <trkpt lat="42.31075" lon="2.56677">
        <ele>1136.904</ele>
        <time>2010-05-01T11:54:10Z</time>
      </trkpt>
      <trkpt lat="42.31076" lon="2.56673">
        <ele>1135.914</ele>
        <time>2010-05-01T11:54:12Z</time>
      </trkpt>
      <trkpt lat="42.31073" lon="2.56672">
        <ele>1134.506</ele>
        <time>2010-05-01T11:54:16Z</time>
      </trkpt>
      <trkpt lat="42.31068" lon="2.56676">
        <ele>1131.613</ele>
        <time>2010-05-01T11:54:22Z</time>
      </trkpt>
      <trkpt lat="42.31066" lon="2.5669">
        <ele>1130.683</ele>
        <time>2010-05-01T11:54:34Z</time>
      </trkpt>
      <trkpt lat="42.31064" lon="2.56692">
        <ele>1128.797</ele>
        <time>2010-05-01T11:54:38Z</time>
      </trkpt>
      <trkpt lat="42.31061" lon="2.56694">
        <ele>1128.711</ele>
        <time>2010-05-01T11:54:40Z</time>
      </trkpt>
      <trkpt lat="42.31047" lon="2.56709">
        <ele>1125.827</ele>
        <time>2010-05-01T11:54:48Z</time>
      </trkpt>
      <trkpt lat="42.31042" lon="2.56711">
        <ele>1123.911</ele>
        <time>2010-05-01T11:54:52Z</time>
      </trkpt>
      <trkpt lat="42.31023" lon="2.56723">
        <ele>1120.663</ele>
        <time>2010-05-01T11:55:03Z</time>
      </trkpt>
      <trkpt lat="42.31019" lon="2.56721">
        <ele>1118.244</ele>
        <time>2010-05-01T11:55:09Z</time>
      </trkpt>
      <trkpt lat="42.31014" lon="2.56715">
        <ele>1115.318</ele>
        <time>2010-05-01T11:55:16Z</time>
      </trkpt>
      <trkpt lat="42.31006" lon="2.56717">
        <ele>1111.406</ele>
        <time>2010-05-01T11:55:25Z</time>
      </trkpt>
      <trkpt lat="42.30994" lon="2.56723">
        <ele>1110.554</ele>
        <time>2010-05-01T11:55:36Z</time>
      </trkpt>
      <trkpt lat="42.30987" lon="2.56723">
        <ele>1107.154</ele>
        <time>2010-05-01T11:55:46Z</time>
      </trkpt>
      <trkpt lat="42.30976" lon="2.56725">
        <ele>1105.248</ele>
        <time>2010-05-01T11:55:55Z</time>
      </trkpt>
      <trkpt lat="42.30965" lon="2.56724">
        <ele>1101.892</ele>
        <time>2010-05-01T11:56:05Z</time>
      </trkpt>
      <trkpt lat="42.30949" lon="2.56727">
        <ele>1098.998</ele>
        <time>2010-05-01T11:56:17Z</time>
      </trkpt>
      <trkpt lat="42.30935" lon="2.56729">
        <ele>1097.082</ele>
        <time>2010-05-01T11:56:25Z</time>
      </trkpt>
      <trkpt lat="42.30926" lon="2.56727">
        <ele>1094.675</ele>
        <time>2010-05-01T11:56:32Z</time>
      </trkpt>
      <trkpt lat="42.30907" lon="2.56731">
        <ele>1092.728</ele>
        <time>2010-05-01T11:56:42Z</time>
      </trkpt>
      <trkpt lat="42.30893" lon="2.5673">
        <ele>1089.32</ele>
        <time>2010-05-01T11:56:51Z</time>
      </trkpt>
      <trkpt lat="42.30884" lon="2.5672">
        <ele>1087.406</ele>
        <time>2010-05-01T11:56:58Z</time>
      </trkpt>
      <trkpt lat="42.30876" lon="2.5672">
        <ele>1085.995</ele>
        <time>2010-05-01T11:57:02Z</time>
      </trkpt>
      <trkpt lat="42.30866" lon="2.56716">
        <ele>1085.015</ele>
        <time>2010-05-01T11:57:08Z</time>
      </trkpt>
      <trkpt lat="42.30857" lon="2.56712">
        <ele>1083.539</ele>
        <time>2010-05-01T11:57:17Z</time>
      </trkpt>
      <trkpt lat="42.30855" lon="2.56709">
        <ele>1083.113</ele>
        <time>2010-05-01T11:57:19Z</time>
      </trkpt>
      <trkpt lat="42.30841" lon="2.56703">
        <ele>1081.669</ele>
        <time>2010-05-01T11:57:27Z</time>
      </trkpt>
      <trkpt lat="42.3083" lon="2.56697">
        <ele>1080.243</ele>
        <time>2010-05-01T11:57:35Z</time>
      </trkpt>
      <trkpt lat="42.30822" lon="2.56687">
        <ele>1077.843</ele>
        <time>2010-05-01T11:57:42Z</time>
      </trkpt>
      <trkpt lat="42.30813" lon="2.56689">
        <ele>1075.964</ele>
        <time>2010-05-01T11:57:47Z</time>
      </trkpt>
      <trkpt lat="42.308" lon="2.56683">
        <ele>1074.41</ele>
        <time>2010-05-01T11:57:53Z</time>
      </trkpt>
      <trkpt lat="42.30776" lon="2.56684">
        <ele>1071.006</ele>
        <time>2010-05-01T11:58:05Z</time>
      </trkpt>
      <trkpt lat="42.30756" lon="2.56686">
        <ele>1070.182</ele>
        <time>2010-05-01T11:58:18Z</time>
      </trkpt>
      <trkpt lat="42.30746" lon="2.56686">
        <ele>1068.232</ele>
        <time>2010-05-01T11:58:26Z</time>
      </trkpt>
      <trkpt lat="42.30702" lon="2.56718">
        <ele>1066.776</ele>
        <time>2010-05-01T11:58:40Z</time>
      </trkpt>
      <trkpt lat="42.30685" lon="2.56718">
        <ele>1065.32</ele>
        <time>2010-05-01T11:58:50Z</time>
      </trkpt>
      <trkpt lat="42.30665" lon="2.56702">
        <ele>1065.826</ele>
        <time>2010-05-01T11:59:06Z</time>
      </trkpt>
      <trkpt lat="42.30649" lon="2.56695">
        <ele>1064.86</ele>
        <time>2010-05-01T11:59:19Z</time>
      </trkpt>
      <trkpt lat="42.30632" lon="2.56695">
        <ele>1063.419</ele>
        <time>2010-05-01T11:59:31Z</time>
      </trkpt>
      <trkpt lat="42.3062" lon="2.56706">
        <ele>1062.409</ele>
        <time>2010-05-01T11:59:49Z</time>
      </trkpt>
      <trkpt lat="42.30612" lon="2.56706">
        <ele>1061.419</ele>
        <time>2010-05-01T11:59:54Z</time>
      </trkpt>
      <trkpt lat="42.306" lon="2.56709">
        <ele>1061.406</ele>
        <time>2010-05-01T11:59:57Z</time>
      </trkpt>
      <trkpt lat="42.30585" lon="2.56721">
        <ele>1058.159</ele>
        <time>2010-05-01T12:00:14Z</time>
      </trkpt>
      <trkpt lat="42.30585" lon="2.56722">
        <ele>1058.119</ele>
        <time>2010-05-01T12:00:15Z</time>
      </trkpt>
      <trkpt lat="42.30585" lon="2.56734">
        <ele>1057.183</ele>
        <time>2010-05-01T12:00:21Z</time>
      </trkpt>
      <trkpt lat="42.30579" lon="2.56764">
        <ele>1054.747</ele>
        <time>2010-05-01T12:00:40Z</time>
      </trkpt>
      <trkpt lat="42.30571" lon="2.56767">
        <ele>1053.353</ele>
        <time>2010-05-01T12:00:47Z</time>
      </trkpt>
      <trkpt lat="42.30578" lon="2.56774">
        <ele>1054.257</ele>
        <time>2010-05-01T12:01:01Z</time>
      </trkpt>
      <trkpt lat="42.3058" lon="2.56756">
        <ele>1052.328</ele>
        <time>2010-05-01T12:01:18Z</time>
      </trkpt>
      <trkpt lat="42.30584" lon="2.56758">
        <ele>1051.389</ele>
        <time>2010-05-01T12:01:24Z</time>
      </trkpt>
      <trkpt lat="42.30583" lon="2.56759">
        <ele>1049.417</ele>
        <time>2010-05-01T12:01:35Z</time>
      </trkpt>
      <trkpt lat="42.30581" lon="2.56761">
        <ele>1048.506</ele>
        <time>2010-05-01T12:01:40Z</time>
      </trkpt>
      <trkpt lat="42.30577" lon="2.56753">
        <ele>1046.54</ele>
        <time>2010-05-01T12:01:46Z</time>
      </trkpt>
      <trkpt lat="42.30578" lon="2.56748">
        <ele>1045.67</ele>
        <time>2010-05-01T12:01:49Z</time>
      </trkpt>
      <trkpt lat="42.30573" lon="2.56746">
        <ele>1044.624</ele>
        <time>2010-05-01T12:01:54Z</time>
      </trkpt>
      <trkpt lat="42.3057" lon="2.56742">
        <ele>1043.678</ele>
        <time>2010-05-01T12:01:58Z</time>
      </trkpt>
      <trkpt lat="42.30567" lon="2.56729">
        <ele>1040.834</ele>
        <time>2010-05-01T12:02:10Z</time>
      </trkpt>
      <trkpt lat="42.30564" lon="2.56725">
        <ele>1039.888</ele>
        <time>2010-05-01T12:02:13Z</time>
      </trkpt>
      <trkpt lat="42.30561" lon="2.56715">
        <ele>1038.412</ele>
        <time>2010-05-01T12:02:17Z</time>
      </trkpt>
      <trkpt lat="42.30558" lon="2.56702">
        <ele>1037.432</ele>
        <time>2010-05-01T12:02:30Z</time>
      </trkpt>
      <trkpt lat="42.30555" lon="2.56691">
        <ele>1036.905</ele>
        <time>2010-05-01T12:02:36Z</time>
      </trkpt>
      <trkpt lat="42.30558" lon="2.56676">
        <ele>1036.406</ele>
        <time>2010-05-01T12:02:44Z</time>
      </trkpt>
      <trkpt lat="42.30565" lon="2.56667">
        <ele>1036.989</ele>
        <time>2010-05-01T12:02:50Z</time>
      </trkpt>
      <trkpt lat="42.30566" lon="2.56652">
        <ele>1033.699</ele>
        <time>2010-05-01T12:03:02Z</time>
      </trkpt>
      <trkpt lat="42.30572" lon="2.56624">
        <ele>1030.733</ele>
        <time>2010-05-01T12:03:20Z</time>
      </trkpt>
      <trkpt lat="42.30572" lon="2.56612">
        <ele>1028.367</ele>
        <time>2010-05-01T12:03:27Z</time>
      </trkpt>
      <trkpt lat="42.30572" lon="2.56607">
        <ele>1027.323</ele>
        <time>2010-05-01T12:03:30Z</time>
      </trkpt>
      <trkpt lat="42.30572" lon="2.56602">
        <ele>1026.387</ele>
        <time>2010-05-01T12:03:34Z</time>
      </trkpt>
      <trkpt lat="42.3058" lon="2.56587">
        <ele>1025.941</ele>
        <time>2010-05-01T12:03:42Z</time>
      </trkpt>
      <trkpt lat="42.3059" lon="2.56577">
        <ele>1025.481</ele>
        <time>2010-05-01T12:03:48Z</time>
      </trkpt>
      <trkpt lat="42.30608" lon="2.56576">
        <ele>1024.909</ele>
        <time>2010-05-01T12:04:02Z</time>
      </trkpt>
      <trkpt lat="42.30629" lon="2.56575">
        <ele>1025.406</ele>
        <time>2010-05-01T12:04:15Z</time>
      </trkpt>
      <trkpt lat="42.30645" lon="2.56571">
        <ele>1021.532</ele>
        <time>2010-05-01T12:04:25Z</time>
      </trkpt>
      <trkpt lat="42.30647" lon="2.5657">
        <ele>1021.592</ele>
        <time>2010-05-01T12:04:26Z</time>
      </trkpt>
      <trkpt lat="42.30667" lon="2.56574">
        <ele>1021.586</ele>
        <time>2010-05-01T12:04:37Z</time>
      </trkpt>
      <trkpt lat="42.30676" lon="2.56579">
        <ele>1019.69</ele>
        <time>2010-05-01T12:04:52Z</time>
      </trkpt>
      <trkpt lat="42.30682" lon="2.56587">
        <ele>1018.216</ele>
        <time>2010-05-01T12:05:13Z</time>
      </trkpt>
      <trkpt lat="42.30691" lon="2.56581">
        <ele>1014.86</ele>
        <time>2010-05-01T12:05:38Z</time>
      </trkpt>
      <trkpt lat="42.30692" lon="2.56574">
        <ele>1011.953</ele>
        <time>2010-05-01T12:05:45Z</time>
      </trkpt>
      <trkpt lat="42.30692" lon="2.56567">
        <ele>1009.504</ele>
        <time>2010-05-01T12:05:49Z</time>
      </trkpt>
      <trkpt lat="42.30693" lon="2.56564">
        <ele>1009.014</ele>
        <time>2010-05-01T12:05:51Z</time>
      </trkpt>
      <trkpt lat="42.30692" lon="2.56555">
        <ele>1005.706</ele>
        <time>2010-05-01T12:05:58Z</time>
      </trkpt>
      <trkpt lat="42.30688" lon="2.56549">
        <ele>1004.763</ele>
        <time>2010-05-01T12:06:04Z</time>
      </trkpt>
      <trkpt lat="42.30672" lon="2.56542">
        <ele>1003.363</ele>
        <time>2010-05-01T12:06:09Z</time>
      </trkpt>
      <trkpt lat="42.30656" lon="2.56523">
        <ele>1000.477</ele>
        <time>2010-05-01T12:06:23Z</time>
      </trkpt>
      <trkpt lat="42.30639" lon="2.56516">
        <ele>1000.911</ele>
        <time>2010-05-01T12:06:36Z</time>
      </trkpt>
      <trkpt lat="42.30632" lon="2.56511">
        <ele>1000.987</ele>
        <time>2010-05-01T12:06:40Z</time>
      </trkpt>
      <trkpt lat="42.30613" lon="2.56507">
        <ele>999.981</ele>
        <time>2010-05-01T12:06:47Z</time>
      </trkpt>
      <trkpt lat="42.30594" lon="2.56502">
        <ele>998.543</ele>
        <time>2010-05-01T12:06:57Z</time>
      </trkpt>
      <trkpt lat="42.30583" lon="2.56499">
        <ele>997.564</ele>
        <time>2010-05-01T12:07:04Z</time>
      </trkpt>
      <trkpt lat="42.30563" lon="2.56497">
        <ele>996.51</ele>
        <time>2010-05-01T12:07:16Z</time>
      </trkpt>
      <trkpt lat="42.30559" lon="2.56509">
        <ele>996.506</ele>
        <time>2010-05-01T12:07:19Z</time>
      </trkpt>
      <trkpt lat="42.30556" lon="2.56509">
        <ele>996.572</ele>
        <time>2010-05-01T12:07:21Z</time>
      </trkpt>
      <trkpt lat="42.3056" lon="2.56496">
        <ele>997.052</ele>
        <time>2010-05-01T12:07:33Z</time>
      </trkpt>
      <trkpt lat="42.30559" lon="2.565">
        <ele>997.516</ele>
        <time>2010-05-01T12:07:36Z</time>
      </trkpt>
      <trkpt lat="42.30558" lon="2.56504">
        <ele>998.06</ele>
        <time>2010-05-01T12:07:39Z</time>
      </trkpt>
      <trkpt lat="42.30555" lon="2.5652">
        <ele>1001.486</ele>
        <time>2010-05-01T12:07:54Z</time>
      </trkpt>
      <trkpt lat="42.30552" lon="2.5653">
        <ele>1003.33</ele>
        <time>2010-05-01T12:08:03Z</time>
      </trkpt>
      <trkpt lat="42.30543" lon="2.56555">
        <ele>1005.276</ele>
        <time>2010-05-01T12:08:17Z</time>
      </trkpt>
      <trkpt lat="42.30541" lon="2.56562">
        <ele>1005.29</ele>
        <time>2010-05-01T12:08:21Z</time>
      </trkpt>
      <trkpt lat="42.30538" lon="2.56569">
        <ele>1005.219</ele>
        <time>2010-05-01T12:08:25Z</time>
      </trkpt>
      <trkpt lat="42.30535" lon="2.56574">
        <ele>1004.206</ele>
        <time>2010-05-01T12:08:28Z</time>
      </trkpt>
      <trkpt lat="42.30529" lon="2.5658">
        <ele>1002.355</ele>
        <time>2010-05-01T12:08:33Z</time>
      </trkpt>
      <trkpt lat="42.30514" lon="2.56594">
        <ele>998.575</ele>
        <time>2010-05-01T12:08:44Z</time>
      </trkpt>
      <trkpt lat="42.30499" lon="2.56611">
        <ele>995.699</ele>
        <time>2010-05-01T12:08:53Z</time>
      </trkpt>
      <trkpt lat="42.30495" lon="2.56617">
        <ele>994.193</ele>
        <time>2010-05-01T12:08:56Z</time>
      </trkpt>
      <trkpt lat="42.30491" lon="2.56622">
        <ele>992.769</ele>
        <time>2010-05-01T12:08:59Z</time>
      </trkpt>
      <trkpt lat="42.30474" lon="2.56635">
        <ele>989.893</ele>
        <time>2010-05-01T12:09:08Z</time>
      </trkpt>
      <trkpt lat="42.30462" lon="2.56633">
        <ele>987.416</ele>
        <time>2010-05-01T12:09:14Z</time>
      </trkpt>
      <trkpt lat="42.30457" lon="2.56634">
        <ele>986.076</ele>
        <time>2010-05-01T12:09:17Z</time>
      </trkpt>
      <trkpt lat="42.30444" lon="2.56634">
        <ele>983.113</ele>
        <time>2010-05-01T12:09:24Z</time>
      </trkpt>
      <trkpt lat="42.30431" lon="2.56634">
        <ele>979.706</ele>
        <time>2010-05-01T12:09:31Z</time>
      </trkpt>
      <trkpt lat="42.30423" lon="2.56633">
        <ele>977.849</ele>
        <time>2010-05-01T12:09:35Z</time>
      </trkpt>
      <trkpt lat="42.30414" lon="2.56643">
        <ele>974.969</ele>
        <time>2010-05-01T12:09:41Z</time>
      </trkpt>
      <trkpt lat="42.30408" lon="2.5663">
        <ele>971.523</ele>
        <time>2010-05-01T12:09:49Z</time>
      </trkpt>
      <trkpt lat="42.30409" lon="2.56628">
        <ele>971.547</ele>
        <time>2010-05-01T12:09:50Z</time>
      </trkpt>
      <trkpt lat="42.30411" lon="2.56626">
        <ele>971.513</ele>
        <time>2010-05-01T12:09:51Z</time>
      </trkpt>
      <trkpt lat="42.30436" lon="2.56606">
        <ele>970.687</ele>
        <time>2010-05-01T12:10:05Z</time>
      </trkpt>
      <trkpt lat="42.30456" lon="2.56579">
        <ele>970.165</ele>
        <time>2010-05-01T12:10:19Z</time>
      </trkpt>
      <trkpt lat="42.30458" lon="2.56549">
        <ele>966.768</ele>
        <time>2010-05-01T12:10:30Z</time>
      </trkpt>
      <trkpt lat="42.30463" lon="2.56511">
        <ele>963.914</ele>
        <time>2010-05-01T12:10:43Z</time>
      </trkpt>
      <trkpt lat="42.30461" lon="2.56476">
        <ele>961.006</ele>
        <time>2010-05-01T12:10:56Z</time>
      </trkpt>
      <trkpt lat="42.3046" lon="2.56434">
        <ele>957.634</ele>
        <time>2010-05-01T12:11:10Z</time>
      </trkpt>
      <trkpt lat="42.30465" lon="2.56402">
        <ele>955.714</ele>
        <time>2010-05-01T12:11:22Z</time>
      </trkpt>
      <trkpt lat="42.30468" lon="2.56391">
        <ele>953.318</ele>
        <time>2010-05-01T12:11:27Z</time>
      </trkpt>
      <trkpt lat="42.30452" lon="2.56391">
        <ele>949.972</ele>
        <time>2010-05-01T12:11:35Z</time>
      </trkpt>
      <trkpt lat="42.30448" lon="2.56398">
        <ele>949.088</ele>
        <time>2010-05-01T12:11:38Z</time>
      </trkpt>
      <trkpt lat="42.30432" lon="2.56441">
        <ele>946.672</ele>
        <time>2010-05-01T12:11:52Z</time>
      </trkpt>
      <trkpt lat="42.30417" lon="2.56476">
        <ele>944.623</ele>
        <time>2010-05-01T12:12:05Z</time>
      </trkpt>
      <trkpt lat="42.30407" lon="2.56505">
        <ele>944.283</ele>
        <time>2010-05-01T12:12:16Z</time>
      </trkpt>
      <trkpt lat="42.30398" lon="2.56525">
        <ele>940.811</ele>
        <time>2010-05-01T12:12:25Z</time>
      </trkpt>
      <trkpt lat="42.30396" lon="2.56527">
        <ele>940.806</ele>
        <time>2010-05-01T12:12:26Z</time>
      </trkpt>
      <trkpt lat="42.30372" lon="2.56553">
        <ele>940.31</ele>
        <time>2010-05-01T12:12:39Z</time>
      </trkpt>
      <trkpt lat="42.30351" lon="2.56574">
        <ele>938.97</ele>
        <time>2010-05-01T12:12:50Z</time>
      </trkpt>
      <trkpt lat="42.30334" lon="2.56587">
        <ele>935.524</ele>
        <time>2010-05-01T12:13:00Z</time>
      </trkpt>
      <trkpt lat="42.30314" lon="2.56609">
        <ele>933.188</ele>
        <time>2010-05-01T12:13:12Z</time>
      </trkpt>
      <trkpt lat="42.30293" lon="2.56638">
        <ele>931.234</ele>
        <time>2010-05-01T12:13:25Z</time>
      </trkpt>
      <trkpt lat="42.30284" lon="2.56658">
        <ele>927.838</ele>
        <time>2010-05-01T12:13:35Z</time>
      </trkpt>
      <trkpt lat="42.30266" lon="2.56696">
        <ele>925.962</ele>
        <time>2010-05-01T12:13:48Z</time>
      </trkpt>
      <trkpt lat="42.3026" lon="2.56702">
        <ele>924.983</ele>
        <time>2010-05-01T12:13:50Z</time>
      </trkpt>
      <trkpt lat="42.30255" lon="2.5671">
        <ele>924.411</ele>
        <time>2010-05-01T12:14:00Z</time>
      </trkpt>
      <trkpt lat="42.30292" lon="2.56673">
        <ele>925.906</ele>
        <time>2010-05-01T12:14:44Z</time>
      </trkpt>
      <trkpt lat="42.30292" lon="2.56686">
        <ele>925.924</ele>
        <time>2010-05-01T12:14:45Z</time>
      </trkpt>
      <trkpt lat="42.30276" lon="2.56713">
        <ele>922.034</ele>
        <time>2010-05-01T12:14:56Z</time>
      </trkpt>
      <trkpt lat="42.30272" lon="2.56715">
        <ele>921.138</ele>
        <time>2010-05-01T12:14:58Z</time>
      </trkpt>
      <trkpt lat="42.30271" lon="2.56731">
        <ele>920.162</ele>
        <time>2010-05-01T12:15:08Z</time>
      </trkpt>
      <trkpt lat="42.30265" lon="2.56724">
        <ele>921.138</ele>
        <time>2010-05-01T12:16:06Z</time>
      </trkpt>
      <trkpt lat="42.30262" lon="2.56734">
        <ele>919.682</ele>
        <time>2010-05-01T12:16:14Z</time>
      </trkpt>
      <trkpt lat="42.30254" lon="2.56743">
        <ele>916.375</ele>
        <time>2010-05-01T12:16:28Z</time>
      </trkpt>
      <trkpt lat="42.30251" lon="2.56748">
        <ele>913.428</ele>
        <time>2010-05-01T12:16:44Z</time>
      </trkpt>
      <trkpt lat="42.30245" lon="2.56754">
        <ele>911.02</ele>
        <time>2010-05-01T12:16:53Z</time>
      </trkpt>
      <trkpt lat="42.30238" lon="2.56758">
        <ele>907.606</ele>
        <time>2010-05-01T12:17:09Z</time>
      </trkpt>
      <trkpt lat="42.30224" lon="2.56775">
        <ele>906.225</ele>
        <time>2010-05-01T12:17:19Z</time>
      </trkpt>
      <trkpt lat="42.30214" lon="2.56783">
        <ele>903.315</ele>
        <time>2010-05-01T12:17:31Z</time>
      </trkpt>
      <trkpt lat="42.30212" lon="2.56783">
        <ele>903.379</ele>
        <time>2010-05-01T12:17:32Z</time>
      </trkpt>
      <trkpt lat="42.30203" lon="2.56779">
        <ele>900.433</ele>
        <time>2010-05-01T12:17:39Z</time>
      </trkpt>
      <trkpt lat="42.30199" lon="2.5678">
        <ele>899.069</ele>
        <time>2010-05-01T12:17:42Z</time>
      </trkpt>
      <trkpt lat="42.30197" lon="2.56795">
        <ele>895.693</ele>
        <time>2010-05-01T12:17:48Z</time>
      </trkpt>
      <trkpt lat="42.30187" lon="2.56802">
        <ele>893.246</ele>
        <time>2010-05-01T12:17:54Z</time>
      </trkpt>
      <trkpt lat="42.30175" lon="2.56809">
        <ele>890.888</ele>
        <time>2010-05-01T12:18:00Z</time>
      </trkpt>
      <trkpt lat="42.3017" lon="2.56811">
        <ele>889.416</ele>
        <time>2010-05-01T12:18:02Z</time>
      </trkpt>
      <trkpt lat="42.30166" lon="2.56817">
        <ele>888.906</ele>
        <time>2010-05-01T12:18:06Z</time>
      </trkpt>
      <trkpt lat="42.30164" lon="2.56819">
        <ele>888.992</ele>
        <time>2010-05-01T12:18:08Z</time>
      </trkpt>
      <trkpt lat="42.30161" lon="2.56822">
        <ele>887.412</ele>
        <time>2010-05-01T12:18:10Z</time>
      </trkpt>
      <trkpt lat="42.3016" lon="2.56825">
        <ele>886.566</ele>
        <time>2010-05-01T12:18:12Z</time>
      </trkpt>
      <trkpt lat="42.30147" lon="2.56836">
        <ele>884.19</ele>
        <time>2010-05-01T12:18:21Z</time>
      </trkpt>
      <trkpt lat="42.30141" lon="2.56843">
        <ele>883.166</ele>
        <time>2010-05-01T12:18:25Z</time>
      </trkpt>
      <trkpt lat="42.30141" lon="2.56849">
        <ele>882.62</ele>
        <time>2010-05-01T12:18:27Z</time>
      </trkpt>
      <trkpt lat="42.30126" lon="2.56853">
        <ele>881.289</ele>
        <time>2010-05-01T12:18:32Z</time>
      </trkpt>
      <trkpt lat="42.30137" lon="2.56862">
        <ele>879.306</ele>
        <time>2010-05-01T12:18:37Z</time>
      </trkpt>
      <trkpt lat="42.30167" lon="2.56876">
        <ele>876.426</ele>
        <time>2010-05-01T12:18:50Z</time>
      </trkpt>
      <trkpt lat="42.30179" lon="2.56914">
        <ele>874.006</ele>
        <time>2010-05-01T12:19:01Z</time>
      </trkpt>
      <trkpt lat="42.30174" lon="2.56922">
        <ele>873.556</ele>
        <time>2010-05-01T12:19:04Z</time>
      </trkpt>
      <trkpt lat="42.3017" lon="2.56929">
        <ele>872.116</ele>
        <time>2010-05-01T12:19:07Z</time>
      </trkpt>
      <trkpt lat="42.30168" lon="2.56933">
        <ele>872.19</ele>
        <time>2010-05-01T12:19:08Z</time>
      </trkpt>
      <trkpt lat="42.30155" lon="2.56962">
        <ele>868.234</ele>
        <time>2010-05-01T12:19:19Z</time>
      </trkpt>
      <trkpt lat="42.30151" lon="2.56973">
        <ele>866.81</ele>
        <time>2010-05-01T12:19:23Z</time>
      </trkpt>
      <trkpt lat="42.30146" lon="2.5698">
        <ele>864.834</ele>
        <time>2010-05-01T12:19:28Z</time>
      </trkpt>
      <trkpt lat="42.30142" lon="2.56986">
        <ele>862.418</ele>
        <time>2010-05-01T12:19:34Z</time>
      </trkpt>
      <trkpt lat="42.30138" lon="2.56989">
        <ele>860.098</ele>
        <time>2010-05-01T12:19:37Z</time>
      </trkpt>
      <trkpt lat="42.30131" lon="2.57008">
        <ele>856.717</ele>
        <time>2010-05-01T12:19:45Z</time>
      </trkpt>
      <trkpt lat="42.30129" lon="2.57027">
        <ele>853.306</ele>
        <time>2010-05-01T12:19:52Z</time>
      </trkpt>
      <trkpt lat="42.30127" lon="2.57043">
        <ele>850.469</ele>
        <time>2010-05-01T12:19:58Z</time>
      </trkpt>
      <trkpt lat="42.30128" lon="2.57054">
        <ele>848.599</ele>
        <time>2010-05-01T12:20:03Z</time>
      </trkpt>
      <trkpt lat="42.30127" lon="2.57061">
        <ele>846.673</ele>
        <time>2010-05-01T12:20:06Z</time>
      </trkpt>
      <trkpt lat="42.30127" lon="2.57064">
        <ele>846.137</ele>
        <time>2010-05-01T12:20:07Z</time>
      </trkpt>
      <trkpt lat="42.30121" lon="2.57088">
        <ele>841.863</ele>
        <time>2010-05-01T12:20:16Z</time>
      </trkpt>
      <trkpt lat="42.30121" lon="2.57091">
        <ele>840.837</ele>
        <time>2010-05-01T12:20:17Z</time>
      </trkpt>
      <trkpt lat="42.30121" lon="2.57098">
        <ele>839.865</ele>
        <time>2010-05-01T12:20:19Z</time>
      </trkpt>
      <trkpt lat="42.30128" lon="2.57117">
        <ele>840.868</ele>
        <time>2010-05-01T12:20:29Z</time>
      </trkpt>
      <trkpt lat="42.30129" lon="2.57125">
        <ele>841.314</ele>
        <time>2010-05-01T12:20:33Z</time>
      </trkpt>
      <trkpt lat="42.30135" lon="2.57137">
        <ele>842.306</ele>
        <time>2010-05-01T12:20:40Z</time>
      </trkpt>
      <trkpt lat="42.30136" lon="2.57141">
        <ele>842.394</ele>
        <time>2010-05-01T12:20:42Z</time>
      </trkpt>
      <trkpt lat="42.30139" lon="2.57151">
        <ele>841.884</ele>
        <time>2010-05-01T12:20:48Z</time>
      </trkpt>
      <trkpt lat="42.30142" lon="2.57163">
        <ele>841.328</ele>
        <time>2010-05-01T12:20:54Z</time>
      </trkpt>
      <trkpt lat="42.30152" lon="2.57204">
        <ele>840.342</ele>
        <time>2010-05-01T12:21:08Z</time>
      </trkpt>
      <trkpt lat="42.30151" lon="2.57208">
        <ele>839.848</ele>
        <time>2010-05-01T12:21:10Z</time>
      </trkpt>
      <trkpt lat="42.30153" lon="2.57213">
        <ele>839.482</ele>
        <time>2010-05-01T12:21:19Z</time>
      </trkpt>
      <trkpt lat="42.30156" lon="2.57221">
        <ele>836.569</ele>
        <time>2010-05-01T12:21:24Z</time>
      </trkpt>
      <trkpt lat="42.30156" lon="2.57229">
        <ele>834.604</ele>
        <time>2010-05-01T12:21:29Z</time>
      </trkpt>
      <trkpt lat="42.30147" lon="2.57239">
        <ele>830.724</ele>
        <time>2010-05-01T12:21:34Z</time>
      </trkpt>
      <trkpt lat="42.30143" lon="2.57247">
        <ele>829.806</ele>
        <time>2010-05-01T12:21:37Z</time>
      </trkpt>
      <trkpt lat="42.3013" lon="2.57252">
        <ele>828.334</ele>
        <time>2010-05-01T12:21:48Z</time>
      </trkpt>
      <trkpt lat="42.30129" lon="2.57251">
        <ele>826.434</ele>
        <time>2010-05-01T12:22:46Z</time>
      </trkpt>
      <trkpt lat="42.30133" lon="2.57252">
        <ele>825.478</ele>
        <time>2010-05-01T12:23:05Z</time>
      </trkpt>
      <trkpt lat="42.3014" lon="2.57245">
        <ele>825.412</ele>
        <time>2010-05-01T12:23:19Z</time>
      </trkpt>
      <trkpt lat="42.30141" lon="2.57245">
        <ele>825.458</ele>
        <time>2010-05-01T12:23:20Z</time>
      </trkpt>
      <trkpt lat="42.30139" lon="2.57245">
        <ele>825.482</ele>
        <time>2010-05-01T12:23:36Z</time>
      </trkpt>
      <trkpt lat="42.30132" lon="2.57251">
        <ele>824.511</ele>
        <time>2010-05-01T12:23:42Z</time>
      </trkpt>
      <trkpt lat="42.30128" lon="2.57252">
        <ele>824.021</ele>
        <time>2010-05-01T12:24:04Z</time>
      </trkpt>
      <trkpt lat="42.30129" lon="2.5726">
        <ele>823.003</ele>
        <time>2010-05-01T12:24:25Z</time>
      </trkpt>
      <trkpt lat="42.30124" lon="2.5726">
        <ele>821.106</ele>
        <time>2010-05-01T12:25:19Z</time>
      </trkpt>
      <trkpt lat="42.30093" lon="2.5725">
        <ele>819.779</ele>
        <time>2010-05-01T12:25:36Z</time>
      </trkpt>
      <trkpt lat="42.3008" lon="2.57247">
        <ele>819.279</ele>
        <time>2010-05-01T12:25:50Z</time>
      </trkpt>
      <trkpt lat="42.30069" lon="2.57246">
        <ele>817.723</ele>
        <time>2010-05-01T12:26:10Z</time>
      </trkpt>
      <trkpt lat="42.30062" lon="2.57244">
        <ele>817.327</ele>
        <time>2010-05-01T12:26:14Z</time>
      </trkpt>
      <trkpt lat="42.30056" lon="2.57244">
        <ele>816.843</ele>
        <time>2010-05-01T12:26:18Z</time>
      </trkpt>
      <trkpt lat="42.30045" lon="2.57245">
        <ele>814.997</ele>
        <time>2010-05-01T12:26:24Z</time>
      </trkpt>
      <trkpt lat="42.30022" lon="2.57242">
        <ele>812.038</ele>
        <time>2010-05-01T12:26:36Z</time>
      </trkpt>
      <trkpt lat="42.30021" lon="2.57242">
        <ele>811.57</ele>
        <time>2010-05-01T12:26:37Z</time>
      </trkpt>
      <trkpt lat="42.30012" lon="2.57232">
        <ele>810.017</ele>
        <time>2010-05-01T12:26:46Z</time>
      </trkpt>
      <trkpt lat="42.30002" lon="2.57239">
        <ele>806.706</ele>
        <time>2010-05-01T12:27:00Z</time>
      </trkpt>
      <trkpt lat="42.29984" lon="2.57238">
        <ele>803.821</ele>
        <time>2010-05-01T12:27:16Z</time>
      </trkpt>
      <trkpt lat="42.29988" lon="2.57236">
        <ele>802.841</ele>
        <time>2010-05-01T12:27:52Z</time>
      </trkpt>
      <trkpt lat="42.29991" lon="2.57235">
        <ele>800.035</ele>
        <time>2010-05-01T12:29:47Z</time>
      </trkpt>
      <trkpt lat="42.29996" lon="2.57239">
        <ele>800.059</ele>
        <time>2010-05-01T12:30:06Z</time>
      </trkpt>
      <trkpt lat="42.30005" lon="2.57253">
        <ele>795.665</ele>
        <time>2010-05-01T12:30:16Z</time>
      </trkpt>
      <trkpt lat="42.30005" lon="2.57254">
        <ele>795.169</ele>
        <time>2010-05-01T12:30:17Z</time>
      </trkpt>
      <trkpt lat="42.30004" lon="2.57264">
        <ele>793.254</ele>
        <time>2010-05-01T12:30:20Z</time>
      </trkpt>
      <trkpt lat="42.30004" lon="2.57279">
        <ele>790.856</ele>
        <time>2010-05-01T12:30:26Z</time>
      </trkpt>
      <trkpt lat="42.30011" lon="2.57294">
        <ele>786.511</ele>
        <time>2010-05-01T12:30:35Z</time>
      </trkpt>
      <trkpt lat="42.30023" lon="2.57309">
        <ele>783.606</ele>
        <time>2010-05-01T12:30:42Z</time>
      </trkpt>
      <trkpt lat="42.30028" lon="2.57315">
        <ele>782.263</ele>
        <time>2010-05-01T12:30:46Z</time>
      </trkpt>
      <trkpt lat="42.30032" lon="2.57321">
        <ele>780.763</ele>
        <time>2010-05-01T12:30:49Z</time>
      </trkpt>
      <trkpt lat="42.30034" lon="2.57328">
        <ele>779.837</ele>
        <time>2010-05-01T12:30:52Z</time>
      </trkpt>
      <trkpt lat="42.30062" lon="2.57354">
        <ele>776.991</ele>
        <time>2010-05-01T12:31:06Z</time>
      </trkpt>
      <trkpt lat="42.30076" lon="2.5737">
        <ele>773.527</ele>
        <time>2010-05-01T12:31:17Z</time>
      </trkpt>
      <trkpt lat="42.30079" lon="2.57377">
        <ele>773.591</ele>
        <time>2010-05-01T12:31:19Z</time>
      </trkpt>
      <trkpt lat="42.30102" lon="2.57407">
        <ele>771.611</ele>
        <time>2010-05-01T12:31:35Z</time>
      </trkpt>
      <trkpt lat="42.3011" lon="2.57421">
        <ele>769.721</ele>
        <time>2010-05-01T12:31:41Z</time>
      </trkpt>
      <trkpt lat="42.30124" lon="2.5744">
        <ele>767.803</ele>
        <time>2010-05-01T12:31:48Z</time>
      </trkpt>
      <trkpt lat="42.30123" lon="2.57449">
        <ele>766.306</ele>
        <time>2010-05-01T12:31:52Z</time>
      </trkpt>
      <trkpt lat="42.30124" lon="2.57461">
        <ele>763.949</ele>
        <time>2010-05-01T12:32:02Z</time>
      </trkpt>
      <trkpt lat="42.30121" lon="2.57473">
        <ele>760.549</ele>
        <time>2010-05-01T12:32:17Z</time>
      </trkpt>
      <trkpt lat="42.30116" lon="2.57472">
        <ele>758.123</ele>
        <time>2010-05-01T12:32:24Z</time>
      </trkpt>
      <trkpt lat="42.30108" lon="2.57467">
        <ele>756.797</ele>
        <time>2010-05-01T12:32:27Z</time>
      </trkpt>
      <trkpt lat="42.30102" lon="2.57466">
        <ele>754.393</ele>
        <time>2010-05-01T12:32:32Z</time>
      </trkpt>
      <trkpt lat="42.30097" lon="2.57474">
        <ele>751.917</ele>
        <time>2010-05-01T12:32:35Z</time>
      </trkpt>
      <trkpt lat="42.30096" lon="2.57484">
        <ele>750.034</ele>
        <time>2010-05-01T12:32:41Z</time>
      </trkpt>
      <trkpt lat="42.30102" lon="2.57496">
        <ele>746.655</ele>
        <time>2010-05-01T12:32:50Z</time>
      </trkpt>
      <trkpt lat="42.30114" lon="2.57506">
        <ele>743.21</ele>
        <time>2010-05-01T12:32:59Z</time>
      </trkpt>
      <trkpt lat="42.30115" lon="2.57507">
        <ele>743.206</ele>
        <time>2010-05-01T12:33:00Z</time>
      </trkpt>
      <trkpt lat="42.30114" lon="2.57513">
        <ele>742.341</ele>
        <time>2010-05-01T12:33:02Z</time>
      </trkpt>
      <trkpt lat="42.30119" lon="2.57519">
        <ele>740.471</ele>
        <time>2010-05-01T12:33:06Z</time>
      </trkpt>
      <trkpt lat="42.30122" lon="2.57529">
        <ele>737.565</ele>
        <time>2010-05-01T12:33:12Z</time>
      </trkpt>
      <trkpt lat="42.3012" lon="2.57535">
        <ele>736.059</ele>
        <time>2010-05-01T12:33:14Z</time>
      </trkpt>
      <trkpt lat="42.30119" lon="2.57539">
        <ele>735.135</ele>
        <time>2010-05-01T12:33:16Z</time>
      </trkpt>
      <trkpt lat="42.3012" lon="2.57541">
        <ele>734.159</ele>
        <time>2010-05-01T12:33:18Z</time>
      </trkpt>
      <trkpt lat="42.30125" lon="2.57546">
        <ele>732.754</ele>
        <time>2010-05-01T12:33:21Z</time>
      </trkpt>
      <trkpt lat="42.30127" lon="2.57548">
        <ele>732.256</ele>
        <time>2010-05-01T12:33:22Z</time>
      </trkpt>
      <trkpt lat="42.30128" lon="2.57556">
        <ele>730.311</ele>
        <time>2010-05-01T12:33:26Z</time>
      </trkpt>
      <trkpt lat="42.30132" lon="2.57565">
        <ele>728.306</ele>
        <time>2010-05-01T12:33:30Z</time>
      </trkpt>
      <trkpt lat="42.30136" lon="2.57571">
        <ele>726.463</ele>
        <time>2010-05-01T12:33:34Z</time>
      </trkpt>
      <trkpt lat="42.30137" lon="2.57574">
        <ele>725.563</ele>
        <time>2010-05-01T12:33:36Z</time>
      </trkpt>
      <trkpt lat="42.30142" lon="2.5758">
        <ele>722.677</ele>
        <time>2010-05-01T12:33:41Z</time>
      </trkpt>
      <trkpt lat="42.30144" lon="2.57581">
        <ele>721.641</ele>
        <time>2010-05-01T12:33:42Z</time>
      </trkpt>
      <trkpt lat="42.30148" lon="2.57582">
        <ele>721.147</ele>
        <time>2010-05-01T12:33:44Z</time>
      </trkpt>
      <trkpt lat="42.30155" lon="2.57582">
        <ele>719.781</ele>
        <time>2010-05-01T12:33:48Z</time>
      </trkpt>
      <trkpt lat="42.30171" lon="2.57574">
        <ele>717.859</ele>
        <time>2010-05-01T12:33:59Z</time>
      </trkpt>
      <trkpt lat="42.30172" lon="2.57572">
        <ele>717.803</ele>
        <time>2010-05-01T12:34:00Z</time>
      </trkpt>
      <trkpt lat="42.30195" lon="2.57555">
        <ele>715.823</ele>
        <time>2010-05-01T12:34:13Z</time>
      </trkpt>
      <trkpt lat="42.30205" lon="2.57554">
        <ele>714.906</ele>
        <time>2010-05-01T12:34:24Z</time>
      </trkpt>
      <trkpt lat="42.30216" lon="2.57549">
        <ele>713.073</ele>
        <time>2010-05-01T12:35:03Z</time>
      </trkpt>
      <trkpt lat="42.30224" lon="2.57544">
        <ele>712.023</ele>
        <time>2010-05-01T12:35:40Z</time>
      </trkpt>
      <trkpt lat="42.30223" lon="2.57543">
        <ele>710.667</ele>
        <time>2010-05-01T12:36:35Z</time>
      </trkpt>
      <trkpt lat="42.30235" lon="2.57542">
        <ele>709.631</ele>
        <time>2010-05-01T12:36:44Z</time>
      </trkpt>
      <trkpt lat="42.30248" lon="2.57542">
        <ele>708.147</ele>
        <time>2010-05-01T12:36:58Z</time>
      </trkpt>
      <trkpt lat="42.30256" lon="2.57537">
        <ele>707.221</ele>
        <time>2010-05-01T12:37:09Z</time>
      </trkpt>
      <trkpt lat="42.30267" lon="2.57538">
        <ele>705.321</ele>
        <time>2010-05-01T12:37:18Z</time>
      </trkpt>
      <trkpt lat="42.3027" lon="2.57528">
        <ele>704.841</ele>
        <time>2010-05-01T12:37:24Z</time>
      </trkpt>
      <trkpt lat="42.30272" lon="2.57515">
        <ele>704.305</ele>
        <time>2010-05-01T12:37:34Z</time>
      </trkpt>
      <trkpt lat="42.30277" lon="2.57508">
        <ele>702.406</ele>
        <time>2010-05-01T12:37:46Z</time>
      </trkpt>
      <trkpt lat="42.30282" lon="2.57505">
        <ele>702.47</ele>
        <time>2010-05-01T12:37:53Z</time>
      </trkpt>
      <trkpt lat="42.30292" lon="2.57497">
        <ele>700.99</ele>
        <time>2010-05-01T12:38:07Z</time>
      </trkpt>
      <trkpt lat="42.30291" lon="2.57505">
        <ele>700.984</ele>
        <time>2010-05-01T12:38:11Z</time>
      </trkpt>
      <trkpt lat="42.30293" lon="2.57526">
        <ele>700.968</ele>
        <time>2010-05-01T12:38:24Z</time>
      </trkpt>
      <trkpt lat="42.30303" lon="2.57542">
        <ele>702.444</ele>
        <time>2010-05-01T12:38:43Z</time>
      </trkpt>
      <trkpt lat="42.30304" lon="2.57543">
        <ele>702.458</ele>
        <time>2010-05-01T12:38:44Z</time>
      </trkpt>
      <trkpt lat="42.30306" lon="2.57545">
        <ele>702.918</ele>
        <time>2010-05-01T12:38:46Z</time>
      </trkpt>
      <trkpt lat="42.30308" lon="2.57561">
        <ele>703.898</ele>
        <time>2010-05-01T12:38:56Z</time>
      </trkpt>
      <trkpt lat="42.3032" lon="2.57581">
        <ele>706.217</ele>
        <time>2010-05-01T12:39:10Z</time>
      </trkpt>
      <trkpt lat="42.3032" lon="2.5759">
        <ele>706.706</ele>
        <time>2010-05-01T12:39:14Z</time>
      </trkpt>
      <trkpt lat="42.3032" lon="2.57592">
        <ele>707.269</ele>
        <time>2010-05-01T12:39:17Z</time>
      </trkpt>
      <trkpt lat="42.3033" lon="2.57607">
        <ele>708.159</ele>
        <time>2010-05-01T12:39:30Z</time>
      </trkpt>
      <trkpt lat="42.30342" lon="2.57619">
        <ele>708.613</ele>
        <time>2010-05-01T12:39:44Z</time>
      </trkpt>
      <trkpt lat="42.30347" lon="2.57634">
        <ele>709.657</ele>
        <time>2010-05-01T12:40:08Z</time>
      </trkpt>
      <trkpt lat="42.30348" lon="2.57647">
        <ele>710.113</ele>
        <time>2010-05-01T12:40:22Z</time>
      </trkpt>
      <trkpt lat="42.30354" lon="2.57653">
        <ele>711.037</ele>
        <time>2010-05-01T12:40:35Z</time>
      </trkpt>
      <trkpt lat="42.30364" lon="2.57646">
        <ele>708.649</ele>
        <time>2010-05-01T12:40:42Z</time>
      </trkpt>
      <trkpt lat="42.30371" lon="2.57656">
        <ele>708.102</ele>
        <time>2010-05-01T12:40:48Z</time>
      </trkpt>
      <trkpt lat="42.30371" lon="2.57666">
        <ele>707.222</ele>
        <time>2010-05-01T12:40:52Z</time>
      </trkpt>
      <trkpt lat="42.3037" lon="2.57676">
        <ele>706.706</ele>
        <time>2010-05-01T12:40:57Z</time>
      </trkpt>
      <trkpt lat="42.3037" lon="2.57698">
        <ele>703.362</ele>
        <time>2010-05-01T12:41:09Z</time>
      </trkpt>
      <trkpt lat="42.30382" lon="2.57721">
        <ele>701.422</ele>
        <time>2010-05-01T12:41:22Z</time>
      </trkpt>
      <trkpt lat="42.30392" lon="2.5774">
        <ele>701.936</ele>
        <time>2010-05-01T12:41:34Z</time>
      </trkpt>
      <trkpt lat="42.30393" lon="2.57744">
        <ele>701.41</ele>
        <time>2010-05-01T12:41:36Z</time>
      </trkpt>
      <trkpt lat="42.30395" lon="2.57774">
        <ele>699.566</ele>
        <time>2010-05-01T12:41:50Z</time>
      </trkpt>
      <trkpt lat="42.30396" lon="2.57778">
        <ele>699.03</ele>
        <time>2010-05-01T12:41:52Z</time>
      </trkpt>
      <trkpt lat="42.30389" lon="2.57783">
        <ele>698.196</ele>
        <time>2010-05-01T12:41:56Z</time>
      </trkpt>
      <trkpt lat="42.30389" lon="2.57795">
        <ele>696.631</ele>
        <time>2010-05-01T12:42:09Z</time>
      </trkpt>
      <trkpt lat="42.30385" lon="2.57801">
        <ele>694.724</ele>
        <time>2010-05-01T12:42:16Z</time>
      </trkpt>
      <trkpt lat="42.30384" lon="2.57804">
        <ele>693.706</ele>
        <time>2010-05-01T12:42:18Z</time>
      </trkpt>
      <trkpt lat="42.30384" lon="2.57814">
        <ele>691.827</ele>
        <time>2010-05-01T12:42:23Z</time>
      </trkpt>
      <trkpt lat="42.30389" lon="2.5783">
        <ele>691.847</ele>
        <time>2010-05-01T12:42:35Z</time>
      </trkpt>
      <trkpt lat="42.30388" lon="2.57837">
        <ele>692.391</ele>
        <time>2010-05-01T12:42:36Z</time>
      </trkpt>
      <trkpt lat="42.30396" lon="2.57854">
        <ele>694.735</ele>
        <time>2010-05-01T12:42:51Z</time>
      </trkpt>
      <trkpt lat="42.30399" lon="2.57859">
        <ele>695.271</ele>
        <time>2010-05-01T12:42:54Z</time>
      </trkpt>
      <trkpt lat="42.30407" lon="2.57891">
        <ele>697.135</ele>
        <time>2010-05-01T12:43:10Z</time>
      </trkpt>
      <trkpt lat="42.30405" lon="2.57903">
        <ele>697.116</ele>
        <time>2010-05-01T12:43:16Z</time>
      </trkpt>
      <trkpt lat="42.30403" lon="2.5791">
        <ele>697.176</ele>
        <time>2010-05-01T12:43:21Z</time>
      </trkpt>
      <trkpt lat="42.30398" lon="2.57944">
        <ele>697.613</ele>
        <time>2010-05-01T12:43:37Z</time>
      </trkpt>
      <trkpt lat="42.30392" lon="2.5796">
        <ele>696.106</ele>
        <time>2010-05-01T12:43:43Z</time>
      </trkpt>
      <trkpt lat="42.30384" lon="2.57996">
        <ele>692.829</ele>
        <time>2010-05-01T12:43:56Z</time>
      </trkpt>
      <trkpt lat="42.30383" lon="2.58002">
        <ele>691.339</ele>
        <time>2010-05-01T12:44:00Z</time>
      </trkpt>
      <trkpt lat="42.3038" lon="2.58005">
        <ele>690.493</ele>
        <time>2010-05-01T12:44:03Z</time>
      </trkpt>
      <trkpt lat="42.30381" lon="2.58018">
        <ele>688.427</ele>
        <time>2010-05-01T12:44:12Z</time>
      </trkpt>
      <trkpt lat="42.30376" lon="2.58029">
        <ele>686.023</ele>
        <time>2010-05-01T12:44:17Z</time>
      </trkpt>
      <trkpt lat="42.30379" lon="2.58041">
        <ele>684.187</ele>
        <time>2010-05-01T12:44:22Z</time>
      </trkpt>
      <trkpt lat="42.30382" lon="2.58052">
        <ele>681.245</ele>
        <time>2010-05-01T12:44:31Z</time>
      </trkpt>
      <trkpt lat="42.30383" lon="2.58058">
        <ele>679.847</ele>
        <time>2010-05-01T12:44:35Z</time>
      </trkpt>
      <trkpt lat="42.30389" lon="2.58062">
        <ele>678.311</ele>
        <time>2010-05-01T12:44:40Z</time>
      </trkpt>
      <trkpt lat="42.3039" lon="2.58071">
        <ele>677.906</ele>
        <time>2010-05-01T12:44:44Z</time>
      </trkpt>
      <trkpt lat="42.30395" lon="2.58087">
        <ele>676.942</ele>
        <time>2010-05-01T12:44:50Z</time>
      </trkpt>
      <trkpt lat="42.30397" lon="2.58092">
        <ele>675.962</ele>
        <time>2010-05-01T12:44:52Z</time>
      </trkpt>
      <trkpt lat="42.30399" lon="2.58103">
        <ele>675.056</ele>
        <time>2010-05-01T12:44:56Z</time>
      </trkpt>
      <trkpt lat="42.30402" lon="2.58133">
        <ele>671.66</ele>
        <time>2010-05-01T12:45:08Z</time>
      </trkpt>
      <trkpt lat="42.30401" lon="2.58161">
        <ele>668.326</ele>
        <time>2010-05-01T12:45:22Z</time>
      </trkpt>
      <trkpt lat="42.30398" lon="2.5817">
        <ele>667.34</ele>
        <time>2010-05-01T12:45:27Z</time>
      </trkpt>
      <trkpt lat="42.30392" lon="2.58194">
        <ele>663.912</ele>
        <time>2010-05-01T12:45:41Z</time>
      </trkpt>
      <trkpt lat="42.30391" lon="2.58197">
        <ele>663.032</ele>
        <time>2010-05-01T12:45:43Z</time>
      </trkpt>
      <trkpt lat="42.30385" lon="2.58212">
        <ele>661.005</ele>
        <time>2010-05-01T12:45:52Z</time>
      </trkpt>
      <trkpt lat="42.30383" lon="2.58224">
        <ele>659.606</ele>
        <time>2010-05-01T12:45:58Z</time>
      </trkpt>
      <trkpt lat="42.30383" lon="2.58236">
        <ele>658.249</ele>
        <time>2010-05-01T12:46:04Z</time>
      </trkpt>
      <trkpt lat="42.30383" lon="2.58246">
        <ele>657.289</ele>
        <time>2010-05-01T12:46:08Z</time>
      </trkpt>
      <trkpt lat="42.30383" lon="2.58251">
        <ele>656.733</ele>
        <time>2010-05-01T12:46:10Z</time>
      </trkpt>
      <trkpt lat="42.30384" lon="2.5826">
        <ele>656.277</ele>
        <time>2010-05-01T12:46:14Z</time>
      </trkpt>
      <trkpt lat="42.30384" lon="2.58289">
        <ele>652.423</ele>
        <time>2010-05-01T12:46:27Z</time>
      </trkpt>
      <trkpt lat="42.30387" lon="2.58303">
        <ele>649.547</ele>
        <time>2010-05-01T12:46:36Z</time>
      </trkpt>
      <trkpt lat="42.30387" lon="2.58304">
        <ele>648.516</ele>
        <time>2010-05-01T12:46:37Z</time>
      </trkpt>
      <trkpt lat="42.30408" lon="2.58332">
        <ele>645.276</ele>
        <time>2010-05-01T12:46:52Z</time>
      </trkpt>
      <trkpt lat="42.30411" lon="2.58355">
        <ele>641.813</ele>
        <time>2010-05-01T12:47:01Z</time>
      </trkpt>
      <trkpt lat="42.30414" lon="2.58368">
        <ele>640.406</ele>
        <time>2010-05-01T12:47:06Z</time>
      </trkpt>
      <trkpt lat="42.30415" lon="2.5837">
        <ele>639.969</ele>
        <time>2010-05-01T12:47:08Z</time>
      </trkpt>
      <trkpt lat="42.30416" lon="2.58388">
        <ele>636.079</ele>
        <time>2010-05-01T12:47:19Z</time>
      </trkpt>
      <trkpt lat="42.30421" lon="2.58397">
        <ele>632.793</ele>
        <time>2010-05-01T12:47:27Z</time>
      </trkpt>
      <trkpt lat="42.30423" lon="2.584">
        <ele>632.227</ele>
        <time>2010-05-01T12:47:29Z</time>
      </trkpt>
      <trkpt lat="42.30429" lon="2.58422">
        <ele>630.353</ele>
        <time>2010-05-01T12:47:39Z</time>
      </trkpt>
      <trkpt lat="42.30425" lon="2.58434">
        <ele>629.337</ele>
        <time>2010-05-01T12:47:45Z</time>
      </trkpt>
      <trkpt lat="42.30427" lon="2.58439">
        <ele>628.842</ele>
        <time>2010-05-01T12:47:48Z</time>
      </trkpt>
      <trkpt lat="42.3043" lon="2.58446">
        <ele>627.922</ele>
        <time>2010-05-01T12:47:51Z</time>
      </trkpt>
      <trkpt lat="42.30434" lon="2.58453">
        <ele>626.914</ele>
        <time>2010-05-01T12:47:55Z</time>
      </trkpt>
      <trkpt lat="42.30439" lon="2.5847">
        <ele>625.006</ele>
        <time>2010-05-01T12:48:03Z</time>
      </trkpt>
      <trkpt lat="42.30438" lon="2.58474">
        <ele>624.512</ele>
        <time>2010-05-01T12:48:05Z</time>
      </trkpt>
      <trkpt lat="42.3044" lon="2.58476">
        <ele>624.572</ele>
        <time>2010-05-01T12:48:07Z</time>
      </trkpt>
      <trkpt lat="42.30446" lon="2.58492">
        <ele>622.646</ele>
        <time>2010-05-01T12:48:16Z</time>
      </trkpt>
      <trkpt lat="42.30445" lon="2.58499">
        <ele>621.67</ele>
        <time>2010-05-01T12:48:18Z</time>
      </trkpt>
      <trkpt lat="42.30445" lon="2.58504">
        <ele>620.276</ele>
        <time>2010-05-01T12:48:23Z</time>
      </trkpt>
      <trkpt lat="42.30446" lon="2.58512">
        <ele>619.75</ele>
        <time>2010-05-01T12:48:27Z</time>
      </trkpt>
      <trkpt lat="42.30453" lon="2.58515">
        <ele>618.338</ele>
        <time>2010-05-01T12:48:33Z</time>
      </trkpt>
      <trkpt lat="42.3046" lon="2.58519">
        <ele>614.97</ele>
        <time>2010-05-01T12:48:43Z</time>
      </trkpt>
      <trkpt lat="42.30461" lon="2.58522">
        <ele>613.917</ele>
        <time>2010-05-01T12:48:46Z</time>
      </trkpt>
      <trkpt lat="42.30469" lon="2.58529">
        <ele>612.506</ele>
        <time>2010-05-01T12:48:53Z</time>
      </trkpt>
      <trkpt lat="42.30473" lon="2.58537">
        <ele>611.551</ele>
        <time>2010-05-01T12:48:57Z</time>
      </trkpt>
      <trkpt lat="42.30476" lon="2.58553">
        <ele>609.621</ele>
        <time>2010-05-01T12:49:04Z</time>
      </trkpt>
      <trkpt lat="42.30478" lon="2.58562">
        <ele>607.795</ele>
        <time>2010-05-01T12:49:09Z</time>
      </trkpt>
      <trkpt lat="42.30484" lon="2.58579">
        <ele>604.379</ele>
        <time>2010-05-01T12:49:17Z</time>
      </trkpt>
      <trkpt lat="42.30484" lon="2.58582">
        <ele>603.835</ele>
        <time>2010-05-01T12:49:18Z</time>
      </trkpt>
      <trkpt lat="42.30486" lon="2.58596">
        <ele>601.989</ele>
        <time>2010-05-01T12:49:24Z</time>
      </trkpt>
      <trkpt lat="42.30486" lon="2.58606">
        <ele>599.518</ele>
        <time>2010-05-01T12:49:29Z</time>
      </trkpt>
      <trkpt lat="42.30487" lon="2.58617">
        <ele>597.698</ele>
        <time>2010-05-01T12:49:33Z</time>
      </trkpt>
      <trkpt lat="42.3049" lon="2.58638">
        <ele>594.217</ele>
        <time>2010-05-01T12:49:41Z</time>
      </trkpt>
      <trkpt lat="42.30489" lon="2.58639">
        <ele>593.806</ele>
        <time>2010-05-01T12:49:42Z</time>
      </trkpt>
      <trkpt lat="42.30488" lon="2.58643">
        <ele>592.899</ele>
        <time>2010-05-01T12:49:44Z</time>
      </trkpt>
      <trkpt lat="42.30488" lon="2.58653">
        <ele>590.469</ele>
        <time>2010-05-01T12:49:49Z</time>
      </trkpt>
      <trkpt lat="42.30487" lon="2.58661">
        <ele>588.593</ele>
        <time>2010-05-01T12:49:53Z</time>
      </trkpt>
      <trkpt lat="42.30484" lon="2.58695">
        <ele>586.567</ele>
        <time>2010-05-01T12:50:08Z</time>
      </trkpt>
      <trkpt lat="42.30485" lon="2.58713">
        <ele>585.183</ele>
        <time>2010-05-01T12:50:14Z</time>
      </trkpt>
      <trkpt lat="42.30489" lon="2.58722">
        <ele>584.177</ele>
        <time>2010-05-01T12:50:18Z</time>
      </trkpt>
      <trkpt lat="42.30488" lon="2.58744">
        <ele>580.827</ele>
        <time>2010-05-01T12:50:31Z</time>
      </trkpt>
      <trkpt lat="42.30489" lon="2.58745">
        <ele>580.368</ele>
        <time>2010-05-01T12:50:32Z</time>
      </trkpt>
      <trkpt lat="42.3049" lon="2.58777">
        <ele>576.914</ele>
        <time>2010-05-01T12:50:44Z</time>
      </trkpt>
      <trkpt lat="42.30489" lon="2.58782">
        <ele>576.906</ele>
        <time>2010-05-01T12:50:46Z</time>
      </trkpt>
      <trkpt lat="42.30493" lon="2.588">
        <ele>575.02</ele>
        <time>2010-05-01T12:50:55Z</time>
      </trkpt>
      <trkpt lat="42.30501" lon="2.588">
        <ele>575.55</ele>
        <time>2010-05-01T12:51:00Z</time>
      </trkpt>
      <trkpt lat="42.30514" lon="2.58808">
        <ele>575.534</ele>
        <time>2010-05-01T12:51:10Z</time>
      </trkpt>
      <trkpt lat="42.30516" lon="2.58817">
        <ele>576.428</ele>
        <time>2010-05-01T12:51:15Z</time>
      </trkpt>
      <trkpt lat="42.30516" lon="2.58823">
        <ele>576.444</ele>
        <time>2010-05-01T12:51:18Z</time>
      </trkpt>
      <trkpt lat="42.30518" lon="2.58827">
        <ele>577.448</ele>
        <time>2010-05-01T12:51:21Z</time>
      </trkpt>
      <trkpt lat="42.30526" lon="2.58822">
        <ele>578.924</ele>
        <time>2010-05-01T12:51:28Z</time>
      </trkpt>
      <trkpt lat="42.30535" lon="2.58813">
        <ele>579.804</ele>
        <time>2010-05-01T12:51:36Z</time>
      </trkpt>
      <trkpt lat="42.30542" lon="2.58814">
        <ele>582.214</ele>
        <time>2010-05-01T12:51:48Z</time>
      </trkpt>
      <trkpt lat="42.30554" lon="2.58815">
        <ele>585.106</ele>
        <time>2010-05-01T12:52:01Z</time>
      </trkpt>
      <trkpt lat="42.30569" lon="2.58813">
        <ele>587.08</ele>
        <time>2010-05-01T12:52:14Z</time>
      </trkpt>
      <trkpt lat="42.30576" lon="2.58803">
        <ele>589.49</ele>
        <time>2010-05-01T12:52:25Z</time>
      </trkpt>
      <trkpt lat="42.30586" lon="2.58802">
        <ele>591.324</ele>
        <time>2010-05-01T12:52:36Z</time>
      </trkpt>
      <trkpt lat="42.30592" lon="2.58788">
        <ele>589.948</ele>
        <time>2010-05-01T12:52:53Z</time>
      </trkpt>
      <trkpt lat="42.30593" lon="2.58785">
        <ele>589.494</ele>
        <time>2010-05-01T12:52:55Z</time>
      </trkpt>
      <trkpt lat="42.30604" lon="2.58777">
        <ele>588.068</ele>
        <time>2010-05-01T12:53:04Z</time>
      </trkpt>
      <trkpt lat="42.30637" lon="2.58796">
        <ele>586.563</ele>
        <time>2010-05-01T12:53:18Z</time>
      </trkpt>
      <trkpt lat="42.30659" lon="2.58802">
        <ele>585.144</ele>
        <time>2010-05-01T12:53:27Z</time>
      </trkpt>
      <trkpt lat="42.30685" lon="2.58769">
        <ele>583.218</ele>
        <time>2010-05-01T12:53:41Z</time>
      </trkpt>
      <trkpt lat="42.30693" lon="2.58745">
        <ele>580.306</ele>
        <time>2010-05-01T12:53:51Z</time>
      </trkpt>
      <trkpt lat="42.30696" lon="2.58718">
        <ele>577.454</ele>
        <time>2010-05-01T12:54:03Z</time>
      </trkpt>
      <trkpt lat="42.30704" lon="2.58684">
        <ele>576.964</ele>
        <time>2010-05-01T12:54:16Z</time>
      </trkpt>
      <trkpt lat="42.30708" lon="2.5868">
        <ele>576.488</ele>
        <time>2010-05-01T12:54:19Z</time>
      </trkpt>
      <trkpt lat="42.30729" lon="2.5867">
        <ele>574.022</ele>
        <time>2010-05-01T12:54:27Z</time>
      </trkpt>
      <trkpt lat="42.30737" lon="2.58653">
        <ele>572.648</ele>
        <time>2010-05-01T12:54:36Z</time>
      </trkpt>
      <trkpt lat="42.30747" lon="2.58649">
        <ele>570.212</ele>
        <time>2010-05-01T12:54:42Z</time>
      </trkpt>
      <trkpt lat="42.30752" lon="2.5865">
        <ele>568.822</ele>
        <time>2010-05-01T12:54:45Z</time>
      </trkpt>
      <trkpt lat="42.30763" lon="2.58653">
        <ele>565.962</ele>
        <time>2010-05-01T12:54:50Z</time>
      </trkpt>
      <trkpt lat="42.30777" lon="2.58657">
        <ele>562.508</ele>
        <time>2010-05-01T12:54:56Z</time>
      </trkpt>
      <trkpt lat="42.30783" lon="2.58661">
        <ele>559.106</ele>
        <time>2010-05-01T12:55:02Z</time>
      </trkpt>
      <trkpt lat="42.30786" lon="2.58664">
        <ele>557.78</ele>
        <time>2010-05-01T12:55:05Z</time>
      </trkpt>
      <trkpt lat="42.30794" lon="2.58669">
        <ele>555.83</ele>
        <time>2010-05-01T12:55:09Z</time>
      </trkpt>
      <trkpt lat="42.30812" lon="2.58683">
        <ele>552.914</ele>
        <time>2010-05-01T12:55:18Z</time>
      </trkpt>
      <trkpt lat="42.30817" lon="2.58687">
        <ele>551.578</ele>
        <time>2010-05-01T12:55:22Z</time>
      </trkpt>
      <trkpt lat="42.30821" lon="2.58687">
        <ele>550.044</ele>
        <time>2010-05-01T12:55:25Z</time>
      </trkpt>
      <trkpt lat="42.30826" lon="2.58685">
        <ele>548.658</ele>
        <time>2010-05-01T12:55:28Z</time>
      </trkpt>
      <trkpt lat="42.30842" lon="2.58678">
        <ele>546.626</ele>
        <time>2010-05-01T12:55:38Z</time>
      </trkpt>
      <trkpt lat="42.30848" lon="2.58674">
        <ele>545.247</ele>
        <time>2010-05-01T12:55:43Z</time>
      </trkpt>
      <trkpt lat="42.30849" lon="2.58674">
        <ele>543.311</ele>
        <time>2010-05-01T12:55:48Z</time>
      </trkpt>
      <trkpt lat="42.30861" lon="2.58675">
        <ele>542.306</ele>
        <time>2010-05-01T12:55:53Z</time>
      </trkpt>
      <trkpt lat="42.30867" lon="2.58673">
        <ele>542.83</ele>
        <time>2010-05-01T12:55:57Z</time>
      </trkpt>
      <trkpt lat="42.30871" lon="2.58674">
        <ele>543.81</ele>
        <time>2010-05-01T12:56:00Z</time>
      </trkpt>
      <trkpt lat="42.30884" lon="2.58689">
        <ele>545.274</ele>
        <time>2010-05-01T12:56:07Z</time>
      </trkpt>
      <trkpt lat="42.30888" lon="2.5869">
        <ele>545.748</ele>
        <time>2010-05-01T12:56:10Z</time>
      </trkpt>
      <trkpt lat="42.3089" lon="2.58693">
        <ele>546.234</ele>
        <time>2010-05-01T12:56:12Z</time>
      </trkpt>
      <trkpt lat="42.30902" lon="2.58693">
        <ele>548.648</ele>
        <time>2010-05-01T12:56:22Z</time>
      </trkpt>
      <trkpt lat="42.30907" lon="2.58696">
        <ele>549.549</ele>
        <time>2010-05-01T12:56:27Z</time>
      </trkpt>
      <trkpt lat="42.30911" lon="2.58697">
        <ele>550.002</ele>
        <time>2010-05-01T12:56:30Z</time>
      </trkpt>
      <trkpt lat="42.30918" lon="2.58702">
        <ele>552.422</ele>
        <time>2010-05-01T12:56:39Z</time>
      </trkpt>
      <trkpt lat="42.30924" lon="2.58704">
        <ele>554.806</ele>
        <time>2010-05-01T12:56:51Z</time>
      </trkpt>
      <trkpt lat="42.30927" lon="2.58713">
        <ele>558.272</ele>
        <time>2010-05-01T12:57:04Z</time>
      </trkpt>
      <trkpt lat="42.30926" lon="2.58709">
        <ele>560.622</ele>
        <time>2010-05-01T12:57:15Z</time>
      </trkpt>
      <trkpt lat="42.30927" lon="2.58707">
        <ele>561.126</ele>
        <time>2010-05-01T12:57:17Z</time>
      </trkpt>
      <trkpt lat="42.30933" lon="2.58699">
        <ele>562.58</ele>
        <time>2010-05-01T12:57:22Z</time>
      </trkpt>
      <trkpt lat="42.30935" lon="2.58693">
        <ele>563.076</ele>
        <time>2010-05-01T12:57:24Z</time>
      </trkpt>
      <trkpt lat="42.3095" lon="2.58661">
        <ele>565.96</ele>
        <time>2010-05-01T12:57:37Z</time>
      </trkpt>
      <trkpt lat="42.3095" lon="2.58667">
        <ele>567.346</ele>
        <time>2010-05-01T12:57:50Z</time>
      </trkpt>
      <trkpt lat="42.30954" lon="2.5866">
        <ele>567.888</ele>
        <time>2010-05-01T12:57:55Z</time>
      </trkpt>
      <trkpt lat="42.30963" lon="2.58659">
        <ele>567.816</ele>
        <time>2010-05-01T12:58:01Z</time>
      </trkpt>
      <trkpt lat="42.30984" lon="2.58635">
        <ele>567.806</ele>
        <time>2010-05-01T12:58:10Z</time>
      </trkpt>
      <trkpt lat="42.30986" lon="2.58639">
        <ele>568.392</ele>
        <time>2010-05-01T12:58:12Z</time>
      </trkpt>
      <trkpt lat="42.30995" lon="2.58629">
        <ele>569.242</ele>
        <time>2010-05-01T12:58:18Z</time>
      </trkpt>
      <trkpt lat="42.30998" lon="2.58627">
        <ele>570.766</ele>
        <time>2010-05-01T12:58:23Z</time>
      </trkpt>
      <trkpt lat="42.31004" lon="2.58621">
        <ele>571.63</ele>
        <time>2010-05-01T12:58:26Z</time>
      </trkpt>
      <trkpt lat="42.31009" lon="2.58614">
        <ele>574.096</ele>
        <time>2010-05-01T12:58:35Z</time>
      </trkpt>
      <trkpt lat="42.31009" lon="2.58634">
        <ele>574.54</ele>
        <time>2010-05-01T12:58:40Z</time>
      </trkpt>
      <trkpt lat="42.31026" lon="2.58639">
        <ele>572.161</ele>
        <time>2010-05-01T12:58:54Z</time>
      </trkpt>
      <trkpt lat="42.31031" lon="2.58636">
        <ele>572.621</ele>
        <time>2010-05-01T12:58:57Z</time>
      </trkpt>
      <trkpt lat="42.31051" lon="2.58632">
        <ele>573.613</ele>
        <time>2010-05-01T12:59:06Z</time>
      </trkpt>
      <trkpt lat="42.31068" lon="2.58628">
        <ele>574.506</ele>
        <time>2010-05-01T12:59:14Z</time>
      </trkpt>
      <trkpt lat="42.31082" lon="2.58639">
        <ele>576.024</ele>
        <time>2010-05-01T12:59:29Z</time>
      </trkpt>
      <trkpt lat="42.31086" lon="2.58637">
        <ele>574.594</ele>
        <time>2010-05-01T12:59:33Z</time>
      </trkpt>
      <trkpt lat="42.31089" lon="2.58634">
        <ele>573.168</ele>
        <time>2010-05-01T12:59:36Z</time>
      </trkpt>
      <trkpt lat="42.31096" lon="2.58627">
        <ele>569.722</ele>
        <time>2010-05-01T12:59:43Z</time>
      </trkpt>
      <trkpt lat="42.31098" lon="2.58625">
        <ele>568.848</ele>
        <time>2010-05-01T12:59:45Z</time>
      </trkpt>
      <trkpt lat="42.31106" lon="2.58616">
        <ele>565.432</ele>
        <time>2010-05-01T12:59:53Z</time>
      </trkpt>
      <trkpt lat="42.31113" lon="2.58609">
        <ele>562.572</ele>
        <time>2010-05-01T13:00:01Z</time>
      </trkpt>
      <trkpt lat="42.31115" lon="2.58617">
        <ele>559.613</ele>
        <time>2010-05-01T13:00:09Z</time>
      </trkpt>
      <trkpt lat="42.31114" lon="2.58626">
        <ele>556.314</ele>
        <time>2010-05-01T13:00:15Z</time>
      </trkpt>
      <trkpt lat="42.3112" lon="2.58636">
        <ele>553.406</ele>
        <time>2010-05-01T13:00:23Z</time>
      </trkpt>
      <trkpt lat="42.31123" lon="2.58635">
        <ele>552.465</ele>
        <time>2010-05-01T13:00:25Z</time>
      </trkpt>
      <trkpt lat="42.31124" lon="2.58634">
        <ele>551.985</ele>
        <time>2010-05-01T13:00:26Z</time>
      </trkpt>
      <trkpt lat="42.31127" lon="2.5863">
        <ele>550.519</ele>
        <time>2010-05-01T13:00:29Z</time>
      </trkpt>
      <trkpt lat="42.3113" lon="2.58624">
        <ele>550.553</ele>
        <time>2010-05-01T13:00:31Z</time>
      </trkpt>
      <trkpt lat="42.31152" lon="2.58593">
        <ele>550.539</ele>
        <time>2010-05-01T13:00:45Z</time>
      </trkpt>
      <trkpt lat="42.31173" lon="2.58566">
        <ele>551.583</ele>
        <time>2010-05-01T13:01:01Z</time>
      </trkpt>
      <trkpt lat="42.31182" lon="2.58557">
        <ele>552.456</ele>
        <time>2010-05-01T13:01:06Z</time>
      </trkpt>
      <trkpt lat="42.31204" lon="2.58524">
        <ele>550.559</ele>
        <time>2010-05-01T13:01:21Z</time>
      </trkpt>
      <trkpt lat="42.31212" lon="2.58515">
        <ele>549.514</ele>
        <time>2010-05-01T13:01:26Z</time>
      </trkpt>
      <trkpt lat="42.31214" lon="2.58512">
        <ele>548.606</ele>
        <time>2010-05-01T13:01:29Z</time>
      </trkpt>
      <trkpt lat="42.31217" lon="2.58514">
        <ele>547.643</ele>
        <time>2010-05-01T13:01:32Z</time>
      </trkpt>
      <trkpt lat="42.3124" lon="2.58518">
        <ele>543.813</ele>
        <time>2010-05-01T13:01:44Z</time>
      </trkpt>
      <trkpt lat="42.31242" lon="2.58523">
        <ele>541.877</ele>
        <time>2010-05-01T13:01:49Z</time>
      </trkpt>
      <trkpt lat="42.31247" lon="2.58522">
        <ele>541.431</ele>
        <time>2010-05-01T13:01:51Z</time>
      </trkpt>
      <trkpt lat="42.31251" lon="2.58522">
        <ele>539.447</ele>
        <time>2010-05-01T13:01:55Z</time>
      </trkpt>
      <trkpt lat="42.31267" lon="2.58527">
        <ele>536.121</ele>
        <time>2010-05-01T13:02:03Z</time>
      </trkpt>
      <trkpt lat="42.31269" lon="2.58527">
        <ele>536.188</ele>
        <time>2010-05-01T13:02:04Z</time>
      </trkpt>
      <trkpt lat="42.31275" lon="2.58526">
        <ele>535.624</ele>
        <time>2010-05-01T13:02:07Z</time>
      </trkpt>
      <trkpt lat="42.31311" lon="2.58503">
        <ele>535.626</ele>
        <time>2010-05-01T13:02:23Z</time>
      </trkpt>
      <trkpt lat="42.31336" lon="2.58498">
        <ele>533.706</ele>
        <time>2010-05-01T13:02:34Z</time>
      </trkpt>
      <trkpt lat="42.31357" lon="2.58488">
        <ele>535.636</ele>
        <time>2010-05-01T13:02:46Z</time>
      </trkpt>
      <trkpt lat="42.31366" lon="2.58488">
        <ele>536.136</ele>
        <time>2010-05-01T13:02:53Z</time>
      </trkpt>
      <trkpt lat="42.3137" lon="2.58493">
        <ele>536.67</ele>
        <time>2010-05-01T13:02:56Z</time>
      </trkpt>
      <trkpt lat="42.31389" lon="2.58517">
        <ele>536.114</ele>
        <time>2010-05-01T13:03:09Z</time>
      </trkpt>
      <trkpt lat="42.31392" lon="2.58521">
        <ele>536.66</ele>
        <time>2010-05-01T13:03:11Z</time>
      </trkpt>
      <trkpt lat="42.31399" lon="2.58543">
        <ele>534.684</ele>
        <time>2010-05-01T13:03:18Z</time>
      </trkpt>
      <trkpt lat="42.31402" lon="2.5855">
        <ele>533.296</ele>
        <time>2010-05-01T13:03:23Z</time>
      </trkpt>
      <trkpt lat="42.31405" lon="2.58553">
        <ele>529.831</ele>
        <time>2010-05-01T13:03:34Z</time>
      </trkpt>
      <trkpt lat="42.31401" lon="2.58556">
        <ele>528.424</ele>
        <time>2010-05-01T13:03:38Z</time>
      </trkpt>
      <trkpt lat="42.31403" lon="2.58571">
        <ele>525.506</ele>
        <time>2010-05-01T13:03:45Z</time>
      </trkpt>
      <trkpt lat="42.3141" lon="2.58575">
        <ele>523.167</ele>
        <time>2010-05-01T13:03:50Z</time>
      </trkpt>
      <trkpt lat="42.31417" lon="2.58571">
        <ele>520.767</ele>
        <time>2010-05-01T13:03:58Z</time>
      </trkpt>
      <trkpt lat="42.31426" lon="2.58569">
        <ele>518.861</ele>
        <time>2010-05-01T13:04:02Z</time>
      </trkpt>
      <trkpt lat="42.3143" lon="2.5857">
        <ele>517.395</ele>
        <time>2010-05-01T13:04:06Z</time>
      </trkpt>
      <trkpt lat="42.31432" lon="2.58571">
        <ele>515.941</ele>
        <time>2010-05-01T13:04:08Z</time>
      </trkpt>
      <trkpt lat="42.31458" lon="2.58573">
        <ele>515.495</ele>
        <time>2010-05-01T13:04:22Z</time>
      </trkpt>
      <trkpt lat="42.31461" lon="2.58574">
        <ele>514.966</ele>
        <time>2010-05-01T13:04:24Z</time>
      </trkpt>
      <trkpt lat="42.31482" lon="2.5858">
        <ele>513.029</ele>
        <time>2010-05-01T13:04:32Z</time>
      </trkpt>
      <trkpt lat="42.315" lon="2.58582">
        <ele>511.621</ele>
        <time>2010-05-01T13:04:40Z</time>
      </trkpt>
      <trkpt lat="42.31504" lon="2.58582">
        <ele>511.606</ele>
        <time>2010-05-01T13:04:42Z</time>
      </trkpt>
      <trkpt lat="42.3152" lon="2.58592">
        <ele>510.164</ele>
        <time>2010-05-01T13:04:49Z</time>
      </trkpt>
      <trkpt lat="42.31527" lon="2.58602">
        <ele>507.794</ele>
        <time>2010-05-01T13:04:55Z</time>
      </trkpt>
      <trkpt lat="42.31547" lon="2.5861">
        <ele>504.398</ele>
        <time>2010-05-01T13:05:06Z</time>
      </trkpt>
      <trkpt lat="42.3155" lon="2.58613">
        <ele>504.392</ele>
        <time>2010-05-01T13:05:08Z</time>
      </trkpt>
      <trkpt lat="42.31567" lon="2.5863">
        <ele>501.938</ele>
        <time>2010-05-01T13:05:17Z</time>
      </trkpt>
      <trkpt lat="42.31572" lon="2.58637">
        <ele>501.562</ele>
        <time>2010-05-01T13:05:20Z</time>
      </trkpt>
      <trkpt lat="42.31585" lon="2.5865">
        <ele>500.574</ele>
        <time>2010-05-01T13:05:27Z</time>
      </trkpt>
      <trkpt lat="42.31588" lon="2.58658">
        <ele>499.156</ele>
        <time>2010-05-01T13:05:31Z</time>
      </trkpt>
      <trkpt lat="42.31587" lon="2.58688">
        <ele>495.721</ele>
        <time>2010-05-01T13:05:43Z</time>
      </trkpt>
      <trkpt lat="42.31586" lon="2.58702">
        <ele>493.306</ele>
        <time>2010-05-01T13:05:51Z</time>
      </trkpt>
      <trkpt lat="42.31592" lon="2.58713">
        <ele>490.945</ele>
        <time>2010-05-01T13:05:57Z</time>
      </trkpt>
      <trkpt lat="42.31606" lon="2.5873">
        <ele>487.585</ele>
        <time>2010-05-01T13:06:08Z</time>
      </trkpt>
      <trkpt lat="42.31614" lon="2.58741">
        <ele>486.629</ele>
        <time>2010-05-01T13:06:14Z</time>
      </trkpt>
      <trkpt lat="42.31633" lon="2.58743">
        <ele>484.623</ele>
        <time>2010-05-01T13:06:21Z</time>
      </trkpt>
      <trkpt lat="42.31642" lon="2.58741">
        <ele>482.239</ele>
        <time>2010-05-01T13:06:27Z</time>
      </trkpt>
      <trkpt lat="42.31652" lon="2.5873">
        <ele>479.413</ele>
        <time>2010-05-01T13:06:35Z</time>
      </trkpt>
      <trkpt lat="42.31653" lon="2.58726">
        <ele>477.987</ele>
        <time>2010-05-01T13:06:38Z</time>
      </trkpt>
      <trkpt lat="42.31655" lon="2.5872">
        <ele>476.542</ele>
        <time>2010-05-01T13:06:41Z</time>
      </trkpt>
      <trkpt lat="42.31654" lon="2.58714">
        <ele>476.026</ele>
        <time>2010-05-01T13:06:43Z</time>
      </trkpt>
      <trkpt lat="42.31652" lon="2.58704">
        <ele>473.606</ele>
        <time>2010-05-01T13:06:50Z</time>
      </trkpt>
      <trkpt lat="42.31652" lon="2.58696">
        <ele>471.766</ele>
        <time>2010-05-01T13:07:01Z</time>
      </trkpt>
      <trkpt lat="42.31656" lon="2.58697">
        <ele>471.266</ele>
        <time>2010-05-01T13:07:04Z</time>
      </trkpt>
      <trkpt lat="42.31676" lon="2.58706">
        <ele>471.25</ele>
        <time>2010-05-01T13:07:18Z</time>
      </trkpt>
      <trkpt lat="42.31682" lon="2.58727">
        <ele>469.384</ele>
        <time>2010-05-01T13:07:31Z</time>
      </trkpt>
      <trkpt lat="42.31687" lon="2.5873">
        <ele>469.71</ele>
        <time>2010-05-01T13:07:47Z</time>
      </trkpt>
      <trkpt lat="42.31687" lon="2.58735">
        <ele>468.374</ele>
        <time>2010-05-01T13:08:24Z</time>
      </trkpt>
      <trkpt lat="42.31699" lon="2.58729">
        <ele>466.933</ele>
        <time>2010-05-01T13:10:23Z</time>
      </trkpt>
      <trkpt lat="42.31702" lon="2.58733">
        <ele>464.923</ele>
        <time>2010-05-01T13:15:37Z</time>
      </trkpt>
      <trkpt lat="42.31693" lon="2.58733">
        <ele>462.115</ele>
        <time>2010-05-01T13:23:43Z</time>
      </trkpt>
      <trkpt lat="42.31692" lon="2.58733">
        <ele>463.006</ele>
        <time>2010-05-01T13:26:08Z</time>
      </trkpt>
      <trkpt lat="42.31703" lon="2.58734">
        <ele>462.551</ele>
        <time>2010-05-01T13:28:34Z</time>
      </trkpt>
      <trkpt lat="42.31699" lon="2.58743">
        <ele>461.191</ele>
        <time>2010-05-01T13:28:44Z</time>
      </trkpt>
      <trkpt lat="42.31689" lon="2.58751">
        <ele>459.615</ele>
        <time>2010-05-01T13:28:52Z</time>
      </trkpt>
      <trkpt lat="42.31685" lon="2.58755">
        <ele>459.229</ele>
        <time>2010-05-01T13:28:55Z</time>
      </trkpt>
      <trkpt lat="42.31685" lon="2.58759">
        <ele>458.275</ele>
        <time>2010-05-01T13:28:58Z</time>
      </trkpt>
      <trkpt lat="42.31691" lon="2.58772">
        <ele>456.859</ele>
        <time>2010-05-01T13:29:06Z</time>
      </trkpt>
      <trkpt lat="42.31701" lon="2.58788">
        <ele>453.988</ele>
        <time>2010-05-01T13:29:20Z</time>
      </trkpt>
      <trkpt lat="42.31705" lon="2.58788">
        <ele>452.424</ele>
        <time>2010-05-01T13:29:24Z</time>
      </trkpt>
      <trkpt lat="42.31708" lon="2.58785">
        <ele>452.026</ele>
        <time>2010-05-01T13:29:26Z</time>
      </trkpt>
      <trkpt lat="42.31715" lon="2.58805">
        <ele>451.506</ele>
        <time>2010-05-01T13:29:39Z</time>
      </trkpt>
      <trkpt lat="42.31721" lon="2.58808">
        <ele>452.066</ele>
        <time>2010-05-01T13:29:44Z</time>
      </trkpt>
      <trkpt lat="42.31719" lon="2.58816">
        <ele>452.496</ele>
        <time>2010-05-01T13:29:54Z</time>
      </trkpt>
      <trkpt lat="42.31715" lon="2.58822">
        <ele>452.92</ele>
        <time>2010-05-01T13:30:00Z</time>
      </trkpt>
      <trkpt lat="42.31712" lon="2.58828">
        <ele>453.484</ele>
        <time>2010-05-01T13:30:03Z</time>
      </trkpt>
      <trkpt lat="42.31707" lon="2.58835">
        <ele>453.94</ele>
        <time>2010-05-01T13:30:09Z</time>
      </trkpt>
      <trkpt lat="42.31691" lon="2.58844">
        <ele>456.384</ele>
        <time>2010-05-01T13:30:27Z</time>
      </trkpt>
      <trkpt lat="42.31677" lon="2.58852">
        <ele>459.624</ele>
        <time>2010-05-01T13:30:40Z</time>
      </trkpt>
      <trkpt lat="42.31669" lon="2.58862">
        <ele>461.604</ele>
        <time>2010-05-01T13:30:50Z</time>
      </trkpt>
      <trkpt lat="42.31653" lon="2.58875">
        <ele>461.114</ele>
        <time>2010-05-01T13:31:05Z</time>
      </trkpt>
      <trkpt lat="42.31637" lon="2.58884">
        <ele>458.706</ele>
        <time>2010-05-01T13:31:14Z</time>
      </trkpt>
      <trkpt lat="42.31623" lon="2.58886">
        <ele>458.26</ele>
        <time>2010-05-01T13:31:22Z</time>
      </trkpt>
      <trkpt lat="42.31619" lon="2.58888">
        <ele>457.77</ele>
        <time>2010-05-01T13:31:24Z</time>
      </trkpt>
      <trkpt lat="42.31617" lon="2.58897">
        <ele>457.274</ele>
        <time>2010-05-01T13:31:28Z</time>
      </trkpt>
      <trkpt lat="42.31593" lon="2.58894">
        <ele>455.388</ele>
        <time>2010-05-01T13:31:40Z</time>
      </trkpt>
      <trkpt lat="42.31584" lon="2.58893">
        <ele>454.864</ele>
        <time>2010-05-01T13:31:43Z</time>
      </trkpt>
      <trkpt lat="42.3156" lon="2.58862">
        <ele>451.548</ele>
        <time>2010-05-01T13:31:57Z</time>
      </trkpt>
      <trkpt lat="42.31535" lon="2.5885">
        <ele>451.056</ele>
        <time>2010-05-01T13:32:10Z</time>
      </trkpt>
      <trkpt lat="42.31517" lon="2.58839">
        <ele>449.659</ele>
        <time>2010-05-01T13:32:21Z</time>
      </trkpt>
      <trkpt lat="42.31497" lon="2.58827">
        <ele>449.114</ele>
        <time>2010-05-01T13:32:32Z</time>
      </trkpt>
      <trkpt lat="42.31488" lon="2.5882">
        <ele>449.106</ele>
        <time>2010-05-01T13:32:36Z</time>
      </trkpt>
      <trkpt lat="42.31465" lon="2.58807">
        <ele>450.013</ele>
        <time>2010-05-01T13:32:46Z</time>
      </trkpt>
      <trkpt lat="42.31457" lon="2.58805">
        <ele>450.513</ele>
        <time>2010-05-01T13:32:49Z</time>
      </trkpt>
      <trkpt lat="42.31455" lon="2.58797">
        <ele>450.027</ele>
        <time>2010-05-01T13:32:55Z</time>
      </trkpt>
      <trkpt lat="42.31455" lon="2.58798">
        <ele>448.121</ele>
        <time>2010-05-01T13:32:58Z</time>
      </trkpt>
      <trkpt lat="42.31455" lon="2.58804">
        <ele>446.797</ele>
        <time>2010-05-01T13:33:03Z</time>
      </trkpt>
      <trkpt lat="42.31452" lon="2.58826">
        <ele>447.291</ele>
        <time>2010-05-01T13:33:10Z</time>
      </trkpt>
      <trkpt lat="42.31452" lon="2.58835">
        <ele>447.249</ele>
        <time>2010-05-01T13:33:14Z</time>
      </trkpt>
      <trkpt lat="42.31453" lon="2.58839">
        <ele>448.102</ele>
        <time>2010-05-01T13:33:18Z</time>
      </trkpt>
      <trkpt lat="42.31456" lon="2.58842">
        <ele>448.622</ele>
        <time>2010-05-01T13:33:21Z</time>
      </trkpt>
      <trkpt lat="42.31458" lon="2.58862">
        <ele>450.506</ele>
        <time>2010-05-01T13:33:34Z</time>
      </trkpt>
      <trkpt lat="42.31454" lon="2.58891">
        <ele>449.142</ele>
        <time>2010-05-01T13:33:47Z</time>
      </trkpt>
      <trkpt lat="42.31441" lon="2.58918">
        <ele>447.692</ele>
        <time>2010-05-01T13:34:00Z</time>
      </trkpt>
      <trkpt lat="42.31437" lon="2.5893">
        <ele>447.626</ele>
        <time>2010-05-01T13:34:03Z</time>
      </trkpt>
      <trkpt lat="42.31426" lon="2.58947">
        <ele>451.07</ele>
        <time>2010-05-01T13:34:17Z</time>
      </trkpt>
      <trkpt lat="42.31406" lon="2.5897">
        <ele>452.936</ele>
        <time>2010-05-01T13:34:35Z</time>
      </trkpt>
      <trkpt lat="42.31389" lon="2.58986">
        <ele>454.87</ele>
        <time>2010-05-01T13:34:47Z</time>
      </trkpt>
      <trkpt lat="42.31388" lon="2.58988">
        <ele>454.837</ele>
        <time>2010-05-01T13:34:48Z</time>
      </trkpt>
      <trkpt lat="42.31377" lon="2.58995">
        <ele>453.949</ele>
        <time>2010-05-01T13:34:55Z</time>
      </trkpt>
      <trkpt lat="42.31357" lon="2.5901">
        <ele>451.513</ele>
        <time>2010-05-01T13:35:08Z</time>
      </trkpt>
      <trkpt lat="42.31347" lon="2.59012">
        <ele>449.606</ele>
        <time>2010-05-01T13:35:16Z</time>
      </trkpt>
      <trkpt lat="42.3134" lon="2.59021">
        <ele>448.121</ele>
        <time>2010-05-01T13:35:21Z</time>
      </trkpt>
      <trkpt lat="42.31345" lon="2.59038">
        <ele>447.611</ele>
        <time>2010-05-01T13:35:25Z</time>
      </trkpt>
      <trkpt lat="42.31337" lon="2.59033">
        <ele>443.865</ele>
        <time>2010-05-01T13:35:34Z</time>
      </trkpt>
      <trkpt lat="42.31336" lon="2.59033">
        <ele>443.879</ele>
        <time>2010-05-01T13:35:35Z</time>
      </trkpt>
      <trkpt lat="42.3133" lon="2.59027">
        <ele>441.915</ele>
        <time>2010-05-01T13:35:39Z</time>
      </trkpt>
      <trkpt lat="42.31325" lon="2.59022">
        <ele>440.429</ele>
        <time>2010-05-01T13:35:43Z</time>
      </trkpt>
      <trkpt lat="42.31317" lon="2.59011">
        <ele>439.097</ele>
        <time>2010-05-01T13:35:48Z</time>
      </trkpt>
      <trkpt lat="42.31308" lon="2.59011">
        <ele>437.523</ele>
        <time>2010-05-01T13:35:54Z</time>
      </trkpt>
      <trkpt lat="42.31316" lon="2.59016">
        <ele>435.625</ele>
        <time>2010-05-01T13:36:06Z</time>
      </trkpt>
      <trkpt lat="42.31318" lon="2.59022">
        <ele>434.206</ele>
        <time>2010-05-01T13:36:10Z</time>
      </trkpt>
      <trkpt lat="42.31321" lon="2.59042">
        <ele>431.897</ele>
        <time>2010-05-01T13:36:19Z</time>
      </trkpt>
      <trkpt lat="42.31316" lon="2.5909">
        <ele>432.317</ele>
        <time>2010-05-01T13:36:33Z</time>
      </trkpt>
      <trkpt lat="42.31317" lon="2.59103">
        <ele>431.851</ele>
        <time>2010-05-01T13:36:35Z</time>
      </trkpt>
      <trkpt lat="42.3131" lon="2.59117">
        <ele>430.845</ele>
        <time>2010-05-01T13:36:52Z</time>
      </trkpt>
      <trkpt lat="42.31306" lon="2.59111">
        <ele>430.881</ele>
        <time>2010-05-01T13:37:19Z</time>
      </trkpt>
      <trkpt lat="42.31306" lon="2.59102">
        <ele>432.375</ele>
        <time>2010-05-01T13:37:49Z</time>
      </trkpt>
      <trkpt lat="42.313" lon="2.59107">
        <ele>433.773</ele>
        <time>2010-05-01T13:37:58Z</time>
      </trkpt>
      <trkpt lat="42.31296" lon="2.59141">
        <ele>436.685</ele>
        <time>2010-05-01T13:38:16Z</time>
      </trkpt>
      <trkpt lat="42.31299" lon="2.59156">
        <ele>439.013</ele>
        <time>2010-05-01T13:38:29Z</time>
      </trkpt>
      <trkpt lat="42.31296" lon="2.59183">
        <ele>441.906</ele>
        <time>2010-05-01T13:38:48Z</time>
      </trkpt>
      <trkpt lat="42.31288" lon="2.59191">
        <ele>442.315</ele>
        <time>2010-05-01T13:38:53Z</time>
      </trkpt>
      <trkpt lat="42.31285" lon="2.59202">
        <ele>442.865</ele>
        <time>2010-05-01T13:39:00Z</time>
      </trkpt>
      <trkpt lat="42.31287" lon="2.59222">
        <ele>446.279</ele>
        <time>2010-05-01T13:39:14Z</time>
      </trkpt>
      <trkpt lat="42.31293" lon="2.59247">
        <ele>448.683</ele>
        <time>2010-05-01T13:39:30Z</time>
      </trkpt>
      <trkpt lat="42.31291" lon="2.59259">
        <ele>449.149</ele>
        <time>2010-05-01T13:39:36Z</time>
      </trkpt>
      <trkpt lat="42.31295" lon="2.59281">
        <ele>451.073</ele>
        <time>2010-05-01T13:39:51Z</time>
      </trkpt>
      <trkpt lat="42.313" lon="2.5929">
        <ele>452.024</ele>
        <time>2010-05-01T13:39:57Z</time>
      </trkpt>
      <trkpt lat="42.31291" lon="2.59297">
        <ele>454.804</ele>
        <time>2010-05-01T13:40:11Z</time>
      </trkpt>
      <trkpt lat="42.31292" lon="2.59305">
        <ele>457.714</ele>
        <time>2010-05-01T13:40:27Z</time>
      </trkpt>
      <trkpt lat="42.31291" lon="2.59318">
        <ele>461.106</ele>
        <time>2010-05-01T13:40:42Z</time>
      </trkpt>
      <trkpt lat="42.31287" lon="2.59321">
        <ele>464.07</ele>
        <time>2010-05-01T13:40:57Z</time>
      </trkpt>
      <trkpt lat="42.3128" lon="2.59327">
        <ele>466.96</ele>
        <time>2010-05-01T13:41:13Z</time>
      </trkpt>
      <trkpt lat="42.31259" lon="2.59319">
        <ele>470.244</ele>
        <time>2010-05-01T13:41:37Z</time>
      </trkpt>
      <trkpt lat="42.31255" lon="2.59321">
        <ele>472.168</ele>
        <time>2010-05-01T13:41:54Z</time>
      </trkpt>
      <trkpt lat="42.31256" lon="2.59324">
        <ele>472.684</ele>
        <time>2010-05-01T13:41:57Z</time>
      </trkpt>
      <trkpt lat="42.31262" lon="2.59334">
        <ele>474.568</ele>
        <time>2010-05-01T13:42:10Z</time>
      </trkpt>
      <trkpt lat="42.31249" lon="2.59334">
        <ele>477.914</ele>
        <time>2010-05-01T13:42:30Z</time>
      </trkpt>
      <trkpt lat="42.31248" lon="2.59342">
        <ele>480.854</ele>
        <time>2010-05-01T13:42:45Z</time>
      </trkpt>
      <trkpt lat="42.31248" lon="2.59345">
        <ele>484.209</ele>
        <time>2010-05-01T13:42:59Z</time>
      </trkpt>
      <trkpt lat="42.31234" lon="2.59352">
        <ele>487.006</ele>
        <time>2010-05-01T13:43:17Z</time>
      </trkpt>
      <trkpt lat="42.31241" lon="2.59365">
        <ele>490.469</ele>
        <time>2010-05-01T13:43:32Z</time>
      </trkpt>
      <trkpt lat="42.31245" lon="2.59376">
        <ele>493.319</ele>
        <time>2010-05-01T13:43:46Z</time>
      </trkpt>
      <trkpt lat="42.31242" lon="2.59383">
        <ele>496.233</ele>
        <time>2010-05-01T13:44:03Z</time>
      </trkpt>
      <trkpt lat="42.31248" lon="2.59399">
        <ele>499.567</ele>
        <time>2010-05-01T13:44:21Z</time>
      </trkpt>
      <trkpt lat="42.31264" lon="2.59423">
        <ele>502.473</ele>
        <time>2010-05-01T13:44:40Z</time>
      </trkpt>
      <trkpt lat="42.31261" lon="2.59429">
        <ele>505.887</ele>
        <time>2010-05-01T13:44:58Z</time>
      </trkpt>
      <trkpt lat="42.31263" lon="2.5944">
        <ele>508.716</ele>
        <time>2010-05-01T13:45:14Z</time>
      </trkpt>
      <trkpt lat="42.31261" lon="2.59441">
        <ele>510.676</ele>
        <time>2010-05-01T13:45:28Z</time>
      </trkpt>
      <trkpt lat="42.31265" lon="2.59449">
        <ele>513.513</ele>
        <time>2010-05-01T13:45:43Z</time>
      </trkpt>
      <trkpt lat="42.31285" lon="2.59473">
        <ele>515.406</ele>
        <time>2010-05-01T13:45:59Z</time>
      </trkpt>
      <trkpt lat="42.31292" lon="2.59483">
        <ele>517.329</ele>
        <time>2010-05-01T13:46:12Z</time>
      </trkpt>
      <trkpt lat="42.31302" lon="2.59491">
        <ele>520.769</ele>
        <time>2010-05-01T13:46:27Z</time>
      </trkpt>
      <trkpt lat="42.31298" lon="2.59506">
        <ele>523.673</ele>
        <time>2010-05-01T13:46:45Z</time>
      </trkpt>
      <trkpt lat="42.31298" lon="2.59519">
        <ele>526.997</ele>
        <time>2010-05-01T13:46:58Z</time>
      </trkpt>
      <trkpt lat="42.313" lon="2.59533">
        <ele>529.883</ele>
        <time>2010-05-01T13:47:12Z</time>
      </trkpt>
      <trkpt lat="42.31299" lon="2.59549">
        <ele>533.297</ele>
        <time>2010-05-01T13:47:28Z</time>
      </trkpt>
      <trkpt lat="42.31305" lon="2.59561">
        <ele>536.175</ele>
        <time>2010-05-01T13:47:44Z</time>
      </trkpt>
      <trkpt lat="42.3131" lon="2.59577">
        <ele>539.028</ele>
        <time>2010-05-01T13:47:58Z</time>
      </trkpt>
      <trkpt lat="42.31315" lon="2.59589">
        <ele>541.82</ele>
        <time>2010-05-01T13:48:14Z</time>
      </trkpt>
      <trkpt lat="42.31324" lon="2.596">
        <ele>545.206</ele>
        <time>2010-05-01T13:48:31Z</time>
      </trkpt>
      <trkpt lat="42.31331" lon="2.59611">
        <ele>546.645</ele>
        <time>2010-05-01T13:48:44Z</time>
      </trkpt>
      <trkpt lat="42.31332" lon="2.59628">
        <ele>549.115</ele>
        <time>2010-05-01T13:49:00Z</time>
      </trkpt>
      <trkpt lat="42.31331" lon="2.59625">
        <ele>550.059</ele>
        <time>2010-05-01T13:49:05Z</time>
      </trkpt>
      <trkpt lat="42.3131" lon="2.59621">
        <ele>553.443</ele>
        <time>2010-05-01T13:49:25Z</time>
      </trkpt>
      <trkpt lat="42.31312" lon="2.59632">
        <ele>556.329</ele>
        <time>2010-05-01T13:49:39Z</time>
      </trkpt>
      <trkpt lat="42.31307" lon="2.59635">
        <ele>557.733</ele>
        <time>2010-05-01T13:49:48Z</time>
      </trkpt>
      <trkpt lat="42.31305" lon="2.59634">
        <ele>558.264</ele>
        <time>2010-05-01T13:49:50Z</time>
      </trkpt>
      <trkpt lat="42.31303" lon="2.59638">
        <ele>559.606</ele>
        <time>2010-05-01T13:49:57Z</time>
      </trkpt>
      <trkpt lat="42.31306" lon="2.59649">
        <ele>561.116</ele>
        <time>2010-05-01T13:50:05Z</time>
      </trkpt>
      <trkpt lat="42.31302" lon="2.59661">
        <ele>561.506</ele>
        <time>2010-05-01T13:50:11Z</time>
      </trkpt>
      <trkpt lat="42.313" lon="2.5967">
        <ele>564.034</ele>
        <time>2010-05-01T13:50:22Z</time>
      </trkpt>
      <trkpt lat="42.31299" lon="2.59677">
        <ele>564.934</ele>
        <time>2010-05-01T13:50:30Z</time>
      </trkpt>
      <trkpt lat="42.31299" lon="2.59688">
        <ele>566.438</ele>
        <time>2010-05-01T13:50:37Z</time>
      </trkpt>
      <trkpt lat="42.313" lon="2.59694">
        <ele>566.842</ele>
        <time>2010-05-01T13:50:41Z</time>
      </trkpt>
      <trkpt lat="42.31305" lon="2.59708">
        <ele>569.758</ele>
        <time>2010-05-01T13:50:57Z</time>
      </trkpt>
      <trkpt lat="42.31308" lon="2.59721">
        <ele>573.162</ele>
        <time>2010-05-01T13:51:10Z</time>
      </trkpt>
      <trkpt lat="42.31311" lon="2.59735">
        <ele>576.065</ele>
        <time>2010-05-01T13:51:25Z</time>
      </trkpt>
      <trkpt lat="42.31313" lon="2.59748">
        <ele>579.368</ele>
        <time>2010-05-01T13:51:38Z</time>
      </trkpt>
      <trkpt lat="42.31316" lon="2.59766">
        <ele>581.714</ele>
        <time>2010-05-01T13:51:55Z</time>
      </trkpt>
      <trkpt lat="42.31313" lon="2.59788">
        <ele>585.106</ele>
        <time>2010-05-01T13:52:13Z</time>
      </trkpt>
      <trkpt lat="42.31316" lon="2.59806">
        <ele>588.044</ele>
        <time>2010-05-01T13:52:30Z</time>
      </trkpt>
      <trkpt lat="42.31316" lon="2.59821">
        <ele>591.314</ele>
        <time>2010-05-01T13:52:46Z</time>
      </trkpt>
      <trkpt lat="42.31314" lon="2.5984">
        <ele>594.228</ele>
        <time>2010-05-01T13:53:04Z</time>
      </trkpt>
      <trkpt lat="42.3131" lon="2.59862">
        <ele>597.662</ele>
        <time>2010-05-01T13:53:24Z</time>
      </trkpt>
      <trkpt lat="42.31311" lon="2.59873">
        <ele>599.558</ele>
        <time>2010-05-01T13:53:37Z</time>
      </trkpt>
      <trkpt lat="42.31313" lon="2.59887">
        <ele>602.472</ele>
        <time>2010-05-01T13:53:51Z</time>
      </trkpt>
      <trkpt lat="42.3131" lon="2.59897">
        <ele>605.333</ele>
        <time>2010-05-01T13:54:06Z</time>
      </trkpt>
      <trkpt lat="42.31311" lon="2.5992">
        <ele>608.223</ele>
        <time>2010-05-01T13:54:23Z</time>
      </trkpt>
      <trkpt lat="42.3131" lon="2.5994">
        <ele>611.115</ele>
        <time>2010-05-01T13:54:39Z</time>
      </trkpt>
      <trkpt lat="42.31308" lon="2.5996">
        <ele>614.406</ele>
        <time>2010-05-01T13:54:54Z</time>
      </trkpt>
      <trkpt lat="42.31313" lon="2.59979">
        <ele>617.371</ele>
        <time>2010-05-01T13:55:10Z</time>
      </trkpt>
      <trkpt lat="42.31315" lon="2.59999">
        <ele>620.771</ele>
        <time>2010-05-01T13:55:27Z</time>
      </trkpt>
      <trkpt lat="42.31317" lon="2.60016">
        <ele>623.675</ele>
        <time>2010-05-01T13:55:44Z</time>
      </trkpt>
      <trkpt lat="42.31325" lon="2.60032">
        <ele>625.589</ele>
        <time>2010-05-01T13:55:56Z</time>
      </trkpt>
      <trkpt lat="42.31323" lon="2.60049">
        <ele>628.455</ele>
        <time>2010-05-01T13:56:13Z</time>
      </trkpt>
      <trkpt lat="42.31328" lon="2.60058">
        <ele>631.739</ele>
        <time>2010-05-01T13:56:30Z</time>
      </trkpt>
      <trkpt lat="42.31337" lon="2.60071">
        <ele>634.694</ele>
        <time>2010-05-01T13:56:45Z</time>
      </trkpt>
      <trkpt lat="42.31338" lon="2.60091">
        <ele>638.057</ele>
        <time>2010-05-01T13:57:03Z</time>
      </trkpt>
      <trkpt lat="42.31343" lon="2.60107">
        <ele>640.922</ele>
        <time>2010-05-01T13:57:18Z</time>
      </trkpt>
      <trkpt lat="42.3135" lon="2.60115">
        <ele>642.806</ele>
        <time>2010-05-01T13:57:28Z</time>
      </trkpt>
      <trkpt lat="42.31368" lon="2.60131">
        <ele>645.737</ele>
        <time>2010-05-01T13:57:48Z</time>
      </trkpt>
      <trkpt lat="42.3137" lon="2.60135">
        <ele>649.027</ele>
        <time>2010-05-01T13:58:01Z</time>
      </trkpt>
      <trkpt lat="42.31373" lon="2.60144">
        <ele>651.981</ele>
        <time>2010-05-01T13:58:17Z</time>
      </trkpt>
      <trkpt lat="42.3138" lon="2.60155">
        <ele>655.375</ele>
        <time>2010-05-01T13:58:34Z</time>
      </trkpt>
      <trkpt lat="42.31395" lon="2.60174">
        <ele>658.211</ele>
        <time>2010-05-01T13:58:49Z</time>
      </trkpt>
      <trkpt lat="42.31393" lon="2.60189">
        <ele>661.075</ele>
        <time>2010-05-01T13:59:05Z</time>
      </trkpt>
      <trkpt lat="42.31392" lon="2.60199">
        <ele>664.456</ele>
        <time>2010-05-01T13:59:19Z</time>
      </trkpt>
      <trkpt lat="42.31399" lon="2.60217">
        <ele>667.359</ele>
        <time>2010-05-01T13:59:35Z</time>
      </trkpt>
      <trkpt lat="42.31399" lon="2.60232">
        <ele>670.714</ele>
        <time>2010-05-01T13:59:49Z</time>
      </trkpt>
      <trkpt lat="42.31403" lon="2.60237">
        <ele>672.606</ele>
        <time>2010-05-01T13:59:58Z</time>
      </trkpt>
      <trkpt lat="42.31404" lon="2.60263">
        <ele>675.583</ele>
        <time>2010-05-01T14:00:16Z</time>
      </trkpt>
      <trkpt lat="42.31406" lon="2.60278">
        <ele>677.933</ele>
        <time>2010-05-01T14:00:29Z</time>
      </trkpt>
      <trkpt lat="42.31401" lon="2.60293">
        <ele>678.897</ele>
        <time>2010-05-01T14:00:38Z</time>
      </trkpt>
      <trkpt lat="42.31397" lon="2.60297">
        <ele>678.881</ele>
        <time>2010-05-01T14:00:42Z</time>
      </trkpt>
      <trkpt lat="42.31383" lon="2.60314">
        <ele>678.867</ele>
        <time>2010-05-01T14:00:54Z</time>
      </trkpt>
      <trkpt lat="42.31381" lon="2.60315">
        <ele>678.811</ele>
        <time>2010-05-01T14:00:55Z</time>
      </trkpt>
      <trkpt lat="42.31375" lon="2.60324">
        <ele>677.972</ele>
        <time>2010-05-01T14:01:03Z</time>
      </trkpt>
      <trkpt lat="42.31369" lon="2.60367">
        <ele>676.413</ele>
        <time>2010-05-01T14:01:19Z</time>
      </trkpt>
      <trkpt lat="42.3137" lon="2.60385">
        <ele>676.914</ele>
        <time>2010-05-01T14:01:30Z</time>
      </trkpt>
      <trkpt lat="42.31372" lon="2.60417">
        <ele>676.906</ele>
        <time>2010-05-01T14:01:44Z</time>
      </trkpt>
      <trkpt lat="42.31368" lon="2.60429">
        <ele>677.415</ele>
        <time>2010-05-01T14:01:51Z</time>
      </trkpt>
      <trkpt lat="42.31358" lon="2.60446">
        <ele>677.475</ele>
        <time>2010-05-01T14:01:59Z</time>
      </trkpt>
      <trkpt lat="42.31358" lon="2.60459">
        <ele>678.329</ele>
        <time>2010-05-01T14:02:06Z</time>
      </trkpt>
      <trkpt lat="42.31368" lon="2.60471">
        <ele>677.933</ele>
        <time>2010-05-01T14:02:14Z</time>
      </trkpt>
      <trkpt lat="42.31365" lon="2.60477">
        <ele>678.389</ele>
        <time>2010-05-01T14:02:18Z</time>
      </trkpt>
      <trkpt lat="42.31366" lon="2.605">
        <ele>681.783</ele>
        <time>2010-05-01T14:02:33Z</time>
      </trkpt>
      <trkpt lat="42.31366" lon="2.60503">
        <ele>681.767</ele>
        <time>2010-05-01T14:02:35Z</time>
      </trkpt>
      <trkpt lat="42.31362" lon="2.60516">
        <ele>683.281</ele>
        <time>2010-05-01T14:02:43Z</time>
      </trkpt>
      <trkpt lat="42.31361" lon="2.60541">
        <ele>685.619</ele>
        <time>2010-05-01T14:02:59Z</time>
      </trkpt>
      <trkpt lat="42.31358" lon="2.60551">
        <ele>686.506</ele>
        <time>2010-05-01T14:03:05Z</time>
      </trkpt>
      <trkpt lat="42.31357" lon="2.60557">
        <ele>687.094</ele>
        <time>2010-05-01T14:03:09Z</time>
      </trkpt>
      <trkpt lat="42.31355" lon="2.60572">
        <ele>689.924</ele>
        <time>2010-05-01T14:03:22Z</time>
      </trkpt>
      <trkpt lat="42.31357" lon="2.6058">
        <ele>692.358</ele>
        <time>2010-05-01T14:03:40Z</time>
      </trkpt>
      <trkpt lat="42.31349" lon="2.60595">
        <ele>695.772</ele>
        <time>2010-05-01T14:04:17Z</time>
      </trkpt>
      <trkpt lat="42.31346" lon="2.606">
        <ele>695.778</ele>
        <time>2010-05-01T14:04:20Z</time>
      </trkpt>
      <trkpt lat="42.31338" lon="2.6062">
        <ele>698.172</ele>
        <time>2010-05-01T14:04:36Z</time>
      </trkpt>
      <trkpt lat="42.31337" lon="2.60626">
        <ele>698.538</ele>
        <time>2010-05-01T14:04:40Z</time>
      </trkpt>
      <trkpt lat="42.31334" lon="2.6063">
        <ele>698.57</ele>
        <time>2010-05-01T14:04:42Z</time>
      </trkpt>
      <trkpt lat="42.31335" lon="2.60635">
        <ele>699.017</ele>
        <time>2010-05-01T14:04:45Z</time>
      </trkpt>
      <trkpt lat="42.31333" lon="2.60641">
        <ele>699.506</ele>
        <time>2010-05-01T14:04:50Z</time>
      </trkpt>
      <trkpt lat="42.31323" lon="2.60657">
        <ele>700.521</ele>
        <time>2010-05-01T14:05:01Z</time>
      </trkpt>
      <trkpt lat="42.31325" lon="2.6066">
        <ele>700.911</ele>
        <time>2010-05-01T14:05:04Z</time>
      </trkpt>
      <trkpt lat="42.3133" lon="2.60676">
        <ele>703.355</ele>
        <time>2010-05-01T14:05:23Z</time>
      </trkpt>
      <trkpt lat="42.31324" lon="2.6069">
        <ele>706.759</ele>
        <time>2010-05-01T14:05:36Z</time>
      </trkpt>
      <trkpt lat="42.31333" lon="2.607">
        <ele>709.615</ele>
        <time>2010-05-01T14:05:50Z</time>
      </trkpt>
      <trkpt lat="42.31331" lon="2.60708">
        <ele>712.589</ele>
        <time>2010-05-01T14:06:04Z</time>
      </trkpt>
      <trkpt lat="42.31331" lon="2.60715">
        <ele>715.499</ele>
        <time>2010-05-01T14:06:18Z</time>
      </trkpt>
      <trkpt lat="42.31337" lon="2.60726">
        <ele>717.807</ele>
        <time>2010-05-01T14:06:38Z</time>
      </trkpt>
      <trkpt lat="42.31345" lon="2.60741">
        <ele>720.227</ele>
        <time>2010-05-01T14:07:56Z</time>
      </trkpt>
      <trkpt lat="42.31347" lon="2.60746">
        <ele>720.606</ele>
        <time>2010-05-01T14:08:00Z</time>
      </trkpt>
      <trkpt lat="42.31348" lon="2.60761">
        <ele>720.657</ele>
        <time>2010-05-01T14:08:09Z</time>
      </trkpt>
      <trkpt lat="42.3136" lon="2.60779">
        <ele>720.617</ele>
        <time>2010-05-01T14:08:24Z</time>
      </trkpt>
      <trkpt lat="42.31366" lon="2.60787">
        <ele>721.681</ele>
        <time>2010-05-01T14:08:28Z</time>
      </trkpt>
      <trkpt lat="42.31371" lon="2.60804">
        <ele>724.515</ele>
        <time>2010-05-01T14:08:42Z</time>
      </trkpt>
      <trkpt lat="42.31373" lon="2.60806">
        <ele>724.531</ele>
        <time>2010-05-01T14:08:43Z</time>
      </trkpt>
      <trkpt lat="42.31373" lon="2.60812">
        <ele>725.535</ele>
        <time>2010-05-01T14:08:47Z</time>
      </trkpt>
      <trkpt lat="42.31373" lon="2.60833">
        <ele>727.946</ele>
        <time>2010-05-01T14:09:01Z</time>
      </trkpt>
      <trkpt lat="42.31378" lon="2.60846">
        <ele>731.288</ele>
        <time>2010-05-01T14:09:14Z</time>
      </trkpt>
      <trkpt lat="42.31381" lon="2.6085">
        <ele>731.216</ele>
        <time>2010-05-01T14:09:17Z</time>
      </trkpt>
      <trkpt lat="42.31382" lon="2.60865">
        <ele>732.706</ele>
        <time>2010-05-01T14:09:26Z</time>
      </trkpt>
      <trkpt lat="42.31388" lon="2.60878">
        <ele>736.572</ele>
        <time>2010-05-01T14:09:44Z</time>
      </trkpt>
      <trkpt lat="42.31389" lon="2.60894">
        <ele>739.422</ele>
        <time>2010-05-01T14:10:00Z</time>
      </trkpt>
      <trkpt lat="42.31397" lon="2.60911">
        <ele>742.826</ele>
        <time>2010-05-01T14:10:15Z</time>
      </trkpt>
      <trkpt lat="42.31404" lon="2.60933">
        <ele>744.76</ele>
        <time>2010-05-01T14:10:30Z</time>
      </trkpt>
      <trkpt lat="42.31405" lon="2.60944">
        <ele>747.636</ele>
        <time>2010-05-01T14:10:46Z</time>
      </trkpt>
      <trkpt lat="42.31406" lon="2.60951">
        <ele>750.45</ele>
        <time>2010-05-01T14:11:02Z</time>
      </trkpt>
      <trkpt lat="42.31412" lon="2.60955">
        <ele>751.411</ele>
        <time>2010-05-01T14:11:06Z</time>
      </trkpt>
      <trkpt lat="42.31416" lon="2.60981">
        <ele>754.321</ele>
        <time>2010-05-01T14:11:22Z</time>
      </trkpt>
      <trkpt lat="42.31422" lon="2.60985">
        <ele>756.703</ele>
        <time>2010-05-01T14:11:41Z</time>
      </trkpt>
      <trkpt lat="42.31439" lon="2.6101">
        <ele>759.606</ele>
        <time>2010-05-01T14:11:59Z</time>
      </trkpt>
      <trkpt lat="42.31438" lon="2.61023">
        <ele>762.519</ele>
        <time>2010-05-01T14:12:14Z</time>
      </trkpt>
      <trkpt lat="42.31452" lon="2.61035">
        <ele>764.919</ele>
        <time>2010-05-01T14:12:32Z</time>
      </trkpt>
      <trkpt lat="42.31457" lon="2.61035">
        <ele>764.983</ele>
        <time>2010-05-01T14:12:36Z</time>
      </trkpt>
      <trkpt lat="42.31469" lon="2.61023">
        <ele>766.837</ele>
        <time>2010-05-01T14:12:56Z</time>
      </trkpt>
      <trkpt lat="42.31482" lon="2.61009">
        <ele>768.713</ele>
        <time>2010-05-01T14:13:11Z</time>
      </trkpt>
      <trkpt lat="42.31489" lon="2.61002">
        <ele>770.237</ele>
        <time>2010-05-01T14:13:18Z</time>
      </trkpt>
      <trkpt lat="42.31493" lon="2.61">
        <ele>770.294</ele>
        <time>2010-05-01T14:13:21Z</time>
      </trkpt>
      <trkpt lat="42.315" lon="2.60992">
        <ele>772.157</ele>
        <time>2010-05-01T14:13:29Z</time>
      </trkpt>
      <trkpt lat="42.31503" lon="2.60985">
        <ele>772.622</ele>
        <time>2010-05-01T14:13:34Z</time>
      </trkpt>
      <trkpt lat="42.31513" lon="2.60972">
        <ele>774.006</ele>
        <time>2010-05-01T14:13:44Z</time>
      </trkpt>
      <trkpt lat="42.3152" lon="2.60956">
        <ele>776.987</ele>
        <time>2010-05-01T14:13:59Z</time>
      </trkpt>
      <trkpt lat="42.31522" lon="2.60984">
        <ele>779.867</ele>
        <time>2010-05-01T14:14:17Z</time>
      </trkpt>
      <trkpt lat="42.31516" lon="2.60999">
        <ele>783.121</ele>
        <time>2010-05-01T14:14:33Z</time>
      </trkpt>
      <trkpt lat="42.31515" lon="2.61022">
        <ele>785.515</ele>
        <time>2010-05-01T14:14:46Z</time>
      </trkpt>
      <trkpt lat="42.3151" lon="2.61047">
        <ele>788.991</ele>
        <time>2010-05-01T14:15:07Z</time>
      </trkpt>
      <trkpt lat="42.31509" lon="2.6107">
        <ele>792.325</ele>
        <time>2010-05-01T14:15:25Z</time>
      </trkpt>
      <trkpt lat="42.31503" lon="2.61095">
        <ele>795.112</ele>
        <time>2010-05-01T14:15:44Z</time>
      </trkpt>
      <trkpt lat="42.31505" lon="2.61121">
        <ele>798.032</ele>
        <time>2010-05-01T14:16:05Z</time>
      </trkpt>
      <trkpt lat="42.31505" lon="2.61138">
        <ele>801.405</ele>
        <time>2010-05-01T14:16:21Z</time>
      </trkpt>
      <trkpt lat="42.31504" lon="2.61152">
        <ele>804.306</ele>
        <time>2010-05-01T14:16:37Z</time>
      </trkpt>
      <trkpt lat="42.31494" lon="2.61166">
        <ele>806.719</ele>
        <time>2010-05-01T14:16:51Z</time>
      </trkpt>
      <trkpt lat="42.31491" lon="2.61182">
        <ele>809.689</ele>
        <time>2010-05-01T14:17:06Z</time>
      </trkpt>
      <trkpt lat="42.31488" lon="2.612">
        <ele>812.983</ele>
        <time>2010-05-01T14:17:22Z</time>
      </trkpt>
      <trkpt lat="42.31488" lon="2.61209">
        <ele>816.377</ele>
        <time>2010-05-01T14:17:38Z</time>
      </trkpt>
      <trkpt lat="42.31488" lon="2.61211">
        <ele>816.383</ele>
        <time>2010-05-01T14:18:03Z</time>
      </trkpt>
      <trkpt lat="42.31495" lon="2.6123">
        <ele>813.997</ele>
        <time>2010-05-01T14:18:23Z</time>
      </trkpt>
      <trkpt lat="42.31502" lon="2.61235">
        <ele>812.921</ele>
        <time>2010-05-01T14:18:27Z</time>
      </trkpt>
      <trkpt lat="42.31512" lon="2.61254">
        <ele>811.041</ele>
        <time>2010-05-01T14:18:38Z</time>
      </trkpt>
      <trkpt lat="42.31523" lon="2.61276">
        <ele>812.005</ele>
        <time>2010-05-01T14:18:53Z</time>
      </trkpt>
      <trkpt lat="42.31529" lon="2.61282">
        <ele>814.406</ele>
        <time>2010-05-01T14:19:04Z</time>
      </trkpt>
      <trkpt lat="42.31535" lon="2.61279">
        <ele>817.39</ele>
        <time>2010-05-01T14:19:18Z</time>
      </trkpt>
      <trkpt lat="42.31538" lon="2.61281">
        <ele>820.67</ele>
        <time>2010-05-01T14:19:34Z</time>
      </trkpt>
      <trkpt lat="42.31553" lon="2.61298">
        <ele>824.094</ele>
        <time>2010-05-01T14:19:49Z</time>
      </trkpt>
      <trkpt lat="42.31566" lon="2.61311">
        <ele>826.978</ele>
        <time>2010-05-01T14:20:04Z</time>
      </trkpt>
      <trkpt lat="42.31565" lon="2.61339">
        <ele>829.814</ele>
        <time>2010-05-01T14:20:20Z</time>
      </trkpt>
      <trkpt lat="42.31568" lon="2.61347">
        <ele>831.248</ele>
        <time>2010-05-01T14:20:28Z</time>
      </trkpt>
      <trkpt lat="42.31574" lon="2.61362">
        <ele>833.649</ele>
        <time>2010-05-01T14:20:43Z</time>
      </trkpt>
      <trkpt lat="42.31582" lon="2.61374">
        <ele>837.002</ele>
        <time>2010-05-01T14:20:59Z</time>
      </trkpt>
      <trkpt lat="42.31588" lon="2.614">
        <ele>838.922</ele>
        <time>2010-05-01T14:21:19Z</time>
      </trkpt>
      <trkpt lat="42.31602" lon="2.61423">
        <ele>842.306</ele>
        <time>2010-05-01T14:21:40Z</time>
      </trkpt>
      <trkpt lat="42.31613" lon="2.61446">
        <ele>844.742</ele>
        <time>2010-05-01T14:21:58Z</time>
      </trkpt>
      <trkpt lat="42.31614" lon="2.61448">
        <ele>845.142</ele>
        <time>2010-05-01T14:22:01Z</time>
      </trkpt>
      <trkpt lat="42.31629" lon="2.61447">
        <ele>848.556</ele>
        <time>2010-05-01T14:22:16Z</time>
      </trkpt>
      <trkpt lat="42.31644" lon="2.6145">
        <ele>851.94</ele>
        <time>2010-05-01T14:22:31Z</time>
      </trkpt>
      <trkpt lat="42.31658" lon="2.61461">
        <ele>854.716</ele>
        <time>2010-05-01T14:22:48Z</time>
      </trkpt>
      <trkpt lat="42.31666" lon="2.61481">
        <ele>857.61</ele>
        <time>2010-05-01T14:23:06Z</time>
      </trkpt>
      <trkpt lat="42.31668" lon="2.61493">
        <ele>859.157</ele>
        <time>2010-05-01T14:23:13Z</time>
      </trkpt>
      <trkpt lat="42.31674" lon="2.61504">
        <ele>861</ele>
        <time>2010-05-01T14:23:22Z</time>
      </trkpt>
      <trkpt lat="42.31684" lon="2.61518">
        <ele>862.92</ele>
        <time>2010-05-01T14:23:34Z</time>
      </trkpt>
      <trkpt lat="42.31701" lon="2.61527">
        <ele>863.906</ele>
        <time>2010-05-01T14:23:49Z</time>
      </trkpt>
      <trkpt lat="42.31718" lon="2.61528">
        <ele>865.893</ele>
        <time>2010-05-01T14:24:04Z</time>
      </trkpt>
      <trkpt lat="42.31723" lon="2.61527">
        <ele>865.383</ele>
        <time>2010-05-01T14:24:08Z</time>
      </trkpt>
      <trkpt lat="42.3173" lon="2.61529">
        <ele>864.497</ele>
        <time>2010-05-01T14:24:13Z</time>
      </trkpt>
      <trkpt lat="42.3174" lon="2.61528">
        <ele>865.851</ele>
        <time>2010-05-01T14:24:23Z</time>
      </trkpt>
      <trkpt lat="42.31754" lon="2.61531">
        <ele>868.767</ele>
        <time>2010-05-01T14:24:36Z</time>
      </trkpt>
      <trkpt lat="42.31773" lon="2.61536">
        <ele>865.871</ele>
        <time>2010-05-01T14:24:46Z</time>
      </trkpt>
      <trkpt lat="42.31778" lon="2.61542">
        <ele>863.953</ele>
        <time>2010-05-01T14:24:50Z</time>
      </trkpt>
      <trkpt lat="42.318" lon="2.6156">
        <ele>862.904</ele>
        <time>2010-05-01T14:25:03Z</time>
      </trkpt>
      <trkpt lat="42.31803" lon="2.61563">
        <ele>862.914</ele>
        <time>2010-05-01T14:25:05Z</time>
      </trkpt>
      <trkpt lat="42.31807" lon="2.61567">
        <ele>862.906</ele>
        <time>2010-05-01T14:25:08Z</time>
      </trkpt>
      <trkpt lat="42.31823" lon="2.61576">
        <ele>864.883</ele>
        <time>2010-05-01T14:25:20Z</time>
      </trkpt>
      <trkpt lat="42.31822" lon="2.61595">
        <ele>864.463</ele>
        <time>2010-05-01T14:26:07Z</time>
      </trkpt>
      <trkpt lat="42.31822" lon="2.61603">
        <ele>864.477</ele>
        <time>2010-05-01T14:26:10Z</time>
      </trkpt>
      <trkpt lat="42.3182" lon="2.61647">
        <ele>865.851</ele>
        <time>2010-05-01T14:26:33Z</time>
      </trkpt>
      <trkpt lat="42.3182" lon="2.61649">
        <ele>866.387</ele>
        <time>2010-05-01T14:26:34Z</time>
      </trkpt>
      <trkpt lat="42.31816" lon="2.61673">
        <ele>866.851</ele>
        <time>2010-05-01T14:26:43Z</time>
      </trkpt>
      <trkpt lat="42.31816" lon="2.61682">
        <ele>867.284</ele>
        <time>2010-05-01T14:26:48Z</time>
      </trkpt>
      <trkpt lat="42.31815" lon="2.61685">
        <ele>867.707</ele>
        <time>2010-05-01T14:26:50Z</time>
      </trkpt>
      <trkpt lat="42.31819" lon="2.61696">
        <ele>869.217</ele>
        <time>2010-05-01T14:26:56Z</time>
      </trkpt>
      <trkpt lat="42.31828" lon="2.617">
        <ele>869.206</ele>
        <time>2010-05-01T14:27:02Z</time>
      </trkpt>
      <trkpt lat="42.31842" lon="2.61702">
        <ele>868.716</ele>
        <time>2010-05-01T14:27:13Z</time>
      </trkpt>
      <trkpt lat="42.31847" lon="2.61702">
        <ele>868.756</ele>
        <time>2010-05-01T14:27:16Z</time>
      </trkpt>
      <trkpt lat="42.31853" lon="2.61704">
        <ele>868.21</ele>
        <time>2010-05-01T14:27:24Z</time>
      </trkpt>
      <trkpt lat="42.31858" lon="2.61709">
        <ele>867.744</ele>
        <time>2010-05-01T14:27:26Z</time>
      </trkpt>
      <trkpt lat="42.31876" lon="2.6172">
        <ele>867.71</ele>
        <time>2010-05-01T14:27:37Z</time>
      </trkpt>
      <trkpt lat="42.31889" lon="2.61729">
        <ele>867.264</ele>
        <time>2010-05-01T14:27:45Z</time>
      </trkpt>
      <trkpt lat="42.31917" lon="2.6174">
        <ele>866.832</ele>
        <time>2010-05-01T14:27:55Z</time>
      </trkpt>
      <trkpt lat="42.31917" lon="2.61741">
        <ele>866.892</ele>
        <time>2010-05-01T14:27:56Z</time>
      </trkpt>
      <trkpt lat="42.31934" lon="2.61753">
        <ele>864.811</ele>
        <time>2010-05-01T14:28:10Z</time>
      </trkpt>
      <trkpt lat="42.31942" lon="2.61755">
        <ele>861.506</ele>
        <time>2010-05-01T14:28:17Z</time>
      </trkpt>
      <trkpt lat="42.31941" lon="2.61763">
        <ele>858.661</ele>
        <time>2010-05-01T14:28:22Z</time>
      </trkpt>
      <trkpt lat="42.31945" lon="2.61774">
        <ele>856.231</ele>
        <time>2010-05-01T14:28:28Z</time>
      </trkpt>
      <trkpt lat="42.31943" lon="2.61778">
        <ele>853.385</ele>
        <time>2010-05-01T14:28:36Z</time>
      </trkpt>
      <trkpt lat="42.31947" lon="2.61786">
        <ele>849.969</ele>
        <time>2010-05-01T14:28:45Z</time>
      </trkpt>
      <trkpt lat="42.31953" lon="2.6179">
        <ele>849.085</ele>
        <time>2010-05-01T14:28:47Z</time>
      </trkpt>
      <trkpt lat="42.3195" lon="2.61809">
        <ele>849.079</ele>
        <time>2010-05-01T14:29:00Z</time>
      </trkpt>
      <trkpt lat="42.31943" lon="2.61829">
        <ele>850.431</ele>
        <time>2010-05-01T14:29:13Z</time>
      </trkpt>
      <trkpt lat="42.31942" lon="2.61833">
        <ele>851.461</ele>
        <time>2010-05-01T14:29:17Z</time>
      </trkpt>
      <trkpt lat="42.31942" lon="2.61844">
        <ele>854.307</ele>
        <time>2010-05-01T14:29:30Z</time>
      </trkpt>
      <trkpt lat="42.31938" lon="2.61854">
        <ele>856.206</ele>
        <time>2010-05-01T14:29:37Z</time>
      </trkpt>
      <trkpt lat="42.31933" lon="2.61876">
        <ele>858.141</ele>
        <time>2010-05-01T14:29:50Z</time>
      </trkpt>
      <trkpt lat="42.31927" lon="2.61889">
        <ele>861.541</ele>
        <time>2010-05-01T14:30:06Z</time>
      </trkpt>
      <trkpt lat="42.31909" lon="2.61917">
        <ele>863.995</ele>
        <time>2010-05-01T14:30:28Z</time>
      </trkpt>
      <trkpt lat="42.31903" lon="2.61935">
        <ele>866.829</ele>
        <time>2010-05-01T14:30:43Z</time>
      </trkpt>
      <trkpt lat="42.31902" lon="2.6194">
        <ele>868.275</ele>
        <time>2010-05-01T14:30:48Z</time>
      </trkpt>
      <trkpt lat="42.3189" lon="2.61951">
        <ele>869.269</ele>
        <time>2010-05-01T14:30:58Z</time>
      </trkpt>
      <trkpt lat="42.31883" lon="2.61956">
        <ele>871.678</ele>
        <time>2010-05-01T14:31:14Z</time>
      </trkpt>
      <trkpt lat="42.31878" lon="2.61965">
        <ele>874.533</ele>
        <time>2010-05-01T14:31:28Z</time>
      </trkpt>
      <trkpt lat="42.31882" lon="2.61968">
        <ele>877.826</ele>
        <time>2010-05-01T14:31:39Z</time>
      </trkpt>
      <trkpt lat="42.31881" lon="2.61978">
        <ele>880.706</ele>
        <time>2010-05-01T14:31:54Z</time>
      </trkpt>
      <trkpt lat="42.31876" lon="2.61989">
        <ele>884.155</ele>
        <time>2010-05-01T14:32:08Z</time>
      </trkpt>
      <trkpt lat="42.31877" lon="2.6199">
        <ele>884.145</ele>
        <time>2010-05-01T14:32:10Z</time>
      </trkpt>
      <trkpt lat="42.31879" lon="2.61996">
        <ele>884.639</ele>
        <time>2010-05-01T14:32:14Z</time>
      </trkpt>
      <trkpt lat="42.31894" lon="2.61996">
        <ele>887.083</ele>
        <time>2010-05-01T14:32:28Z</time>
      </trkpt>
      <trkpt lat="42.31904" lon="2.61997">
        <ele>889.859</ele>
        <time>2010-05-01T14:32:43Z</time>
      </trkpt>
      <trkpt lat="42.31906" lon="2.61997">
        <ele>890.843</ele>
        <time>2010-05-01T14:32:47Z</time>
      </trkpt>
      <trkpt lat="42.31914" lon="2.61996">
        <ele>893.232</ele>
        <time>2010-05-01T14:33:02Z</time>
      </trkpt>
      <trkpt lat="42.31915" lon="2.61995">
        <ele>894.292</ele>
        <time>2010-05-01T14:33:07Z</time>
      </trkpt>
      <trkpt lat="42.31911" lon="2.62019">
        <ele>894.611</ele>
        <time>2010-05-01T14:33:19Z</time>
      </trkpt>
      <trkpt lat="42.31914" lon="2.62023">
        <ele>894.606</ele>
        <time>2010-05-01T14:33:22Z</time>
      </trkpt>
      <trkpt lat="42.3192" lon="2.62029">
        <ele>894.661</ele>
        <time>2010-05-01T14:33:29Z</time>
      </trkpt>
      <trkpt lat="42.3193" lon="2.62037">
        <ele>895.181</ele>
        <time>2010-05-01T14:33:38Z</time>
      </trkpt>
      <trkpt lat="42.31931" lon="2.62051">
        <ele>895.195</ele>
        <time>2010-05-01T14:33:51Z</time>
      </trkpt>
      <trkpt lat="42.31924" lon="2.62057">
        <ele>895.689</ele>
        <time>2010-05-01T14:35:08Z</time>
      </trkpt>
      <trkpt lat="42.31927" lon="2.62057">
        <ele>895.685</ele>
        <time>2010-05-01T14:35:47Z</time>
      </trkpt>
      <trkpt lat="42.31936" lon="2.62067">
        <ele>899.089</ele>
        <time>2010-05-01T14:36:57Z</time>
      </trkpt>
      <trkpt lat="42.31943" lon="2.62075">
        <ele>900.971</ele>
        <time>2010-05-01T14:37:19Z</time>
      </trkpt>
      <trkpt lat="42.31952" lon="2.6208">
        <ele>902.841</ele>
        <time>2010-05-01T14:37:48Z</time>
      </trkpt>
      <trkpt lat="42.31962" lon="2.62078">
        <ele>904.315</ele>
        <time>2010-05-01T14:37:56Z</time>
      </trkpt>
      <trkpt lat="42.31973" lon="2.62074">
        <ele>906.706</ele>
        <time>2010-05-01T14:38:08Z</time>
      </trkpt>
      <trkpt lat="42.31974" lon="2.62075">
        <ele>906.275</ele>
        <time>2010-05-01T14:38:09Z</time>
      </trkpt>
      <trkpt lat="42.31981" lon="2.62091">
        <ele>908.185</ele>
        <time>2010-05-01T14:38:23Z</time>
      </trkpt>
      <trkpt lat="42.31987" lon="2.62117">
        <ele>907.179</ele>
        <time>2010-05-01T14:38:39Z</time>
      </trkpt>
      <trkpt lat="42.3199" lon="2.62122">
        <ele>906.723</ele>
        <time>2010-05-01T14:38:42Z</time>
      </trkpt>
      <trkpt lat="42.31992" lon="2.62129">
        <ele>906.249</ele>
        <time>2010-05-01T14:38:46Z</time>
      </trkpt>
      <trkpt lat="42.31995" lon="2.62136">
        <ele>906.293</ele>
        <time>2010-05-01T14:38:50Z</time>
      </trkpt>
      <trkpt lat="42.31996" lon="2.62147">
        <ele>905.247</ele>
        <time>2010-05-01T14:38:55Z</time>
      </trkpt>
      <trkpt lat="42.31998" lon="2.62151">
        <ele>904.729</ele>
        <time>2010-05-01T14:38:58Z</time>
      </trkpt>
      <trkpt lat="42.32003" lon="2.62168">
        <ele>904.321</ele>
        <time>2010-05-01T14:39:06Z</time>
      </trkpt>
      <trkpt lat="42.32011" lon="2.62183">
        <ele>902.806</ele>
        <time>2010-05-01T14:39:15Z</time>
      </trkpt>
      <trkpt lat="42.32013" lon="2.62185">
        <ele>902.892</ele>
        <time>2010-05-01T14:39:16Z</time>
      </trkpt>
      <trkpt lat="42.32023" lon="2.62197">
        <ele>902.822</ele>
        <time>2010-05-01T14:39:25Z</time>
      </trkpt>
      <trkpt lat="42.32037" lon="2.62205">
        <ele>903.856</ele>
        <time>2010-05-01T14:39:34Z</time>
      </trkpt>
      <trkpt lat="42.32041" lon="2.62207">
        <ele>903.34</ele>
        <time>2010-05-01T14:39:36Z</time>
      </trkpt>
      <trkpt lat="42.32044" lon="2.62211">
        <ele>903.836</ele>
        <time>2010-05-01T14:39:40Z</time>
      </trkpt>
      <trkpt lat="42.32044" lon="2.62228">
        <ele>902.83</ele>
        <time>2010-05-01T14:39:48Z</time>
      </trkpt>
      <trkpt lat="42.32047" lon="2.62235">
        <ele>903.389</ele>
        <time>2010-05-01T14:39:52Z</time>
      </trkpt>
      <trkpt lat="42.32047" lon="2.62242">
        <ele>902.806</ele>
        <time>2010-05-01T14:39:56Z</time>
      </trkpt>
      <trkpt lat="42.32051" lon="2.62249">
        <ele>902.326</ele>
        <time>2010-05-01T14:40:00Z</time>
      </trkpt>
      <trkpt lat="42.32058" lon="2.62252">
        <ele>902.806</ele>
        <time>2010-05-01T14:40:04Z</time>
      </trkpt>
      <trkpt lat="42.32065" lon="2.62259">
        <ele>903.396</ele>
        <time>2010-05-01T14:40:11Z</time>
      </trkpt>
      <trkpt lat="42.32066" lon="2.62266">
        <ele>903.826</ele>
        <time>2010-05-01T14:40:16Z</time>
      </trkpt>
      <trkpt lat="42.32067" lon="2.62283">
        <ele>903.81</ele>
        <time>2010-05-01T14:40:26Z</time>
      </trkpt>
      <trkpt lat="42.3208" lon="2.62289">
        <ele>903.354</ele>
        <time>2010-05-01T14:40:37Z</time>
      </trkpt>
      <trkpt lat="42.32082" lon="2.62294">
        <ele>903.84</ele>
        <time>2010-05-01T14:40:40Z</time>
      </trkpt>
      <trkpt lat="42.32089" lon="2.62316">
        <ele>902.894</ele>
        <time>2010-05-01T14:40:54Z</time>
      </trkpt>
      <trkpt lat="42.32096" lon="2.62345">
        <ele>902.872</ele>
        <time>2010-05-01T14:41:08Z</time>
      </trkpt>
      <trkpt lat="42.32101" lon="2.62354">
        <ele>902.813</ele>
        <time>2010-05-01T14:41:12Z</time>
      </trkpt>
      <trkpt lat="42.32107" lon="2.62375">
        <ele>904.314</ele>
        <time>2010-05-01T14:41:22Z</time>
      </trkpt>
      <trkpt lat="42.3211" lon="2.62381">
        <ele>904.306</ele>
        <time>2010-05-01T14:41:26Z</time>
      </trkpt>
      <trkpt lat="42.32114" lon="2.624">
        <ele>905.255</ele>
        <time>2010-05-01T14:41:37Z</time>
      </trkpt>
      <trkpt lat="42.32112" lon="2.62419">
        <ele>903.825</ele>
        <time>2010-05-01T14:41:48Z</time>
      </trkpt>
      <trkpt lat="42.32109" lon="2.62428">
        <ele>902.829</ele>
        <time>2010-05-01T14:41:52Z</time>
      </trkpt>
      <trkpt lat="42.32112" lon="2.62445">
        <ele>903.373</ele>
        <time>2010-05-01T14:42:06Z</time>
      </trkpt>
      <trkpt lat="42.32117" lon="2.62459">
        <ele>904.369</ele>
        <time>2010-05-01T14:42:26Z</time>
      </trkpt>
      <trkpt lat="42.32116" lon="2.62464">
        <ele>903.873</ele>
        <time>2010-05-01T14:42:29Z</time>
      </trkpt>
      <trkpt lat="42.32117" lon="2.62498">
        <ele>902.347</ele>
        <time>2010-05-01T14:42:45Z</time>
      </trkpt>
      <trkpt lat="42.32117" lon="2.62516">
        <ele>904.329</ele>
        <time>2010-05-01T14:42:54Z</time>
      </trkpt>
      <trkpt lat="42.32118" lon="2.62517">
        <ele>905.221</ele>
        <time>2010-05-01T14:42:58Z</time>
      </trkpt>
      <trkpt lat="42.3212" lon="2.62535">
        <ele>905.706</ele>
        <time>2010-05-01T14:43:11Z</time>
      </trkpt>
      <trkpt lat="42.32123" lon="2.62552">
        <ele>907.692</ele>
        <time>2010-05-01T14:43:21Z</time>
      </trkpt>
      <trkpt lat="42.32123" lon="2.62553">
        <ele>907.642</ele>
        <time>2010-05-01T14:43:22Z</time>
      </trkpt>
      <trkpt lat="42.32128" lon="2.62561">
        <ele>908.676</ele>
        <time>2010-05-01T14:43:28Z</time>
      </trkpt>
      <trkpt lat="42.32127" lon="2.62572">
        <ele>909.57</ele>
        <time>2010-05-01T14:43:34Z</time>
      </trkpt>
      <trkpt lat="42.32136" lon="2.62589">
        <ele>908.186</ele>
        <time>2010-05-01T14:43:50Z</time>
      </trkpt>
      <trkpt lat="42.32138" lon="2.62594">
        <ele>907.12</ele>
        <time>2010-05-01T14:43:54Z</time>
      </trkpt>
      <trkpt lat="42.32139" lon="2.62601">
        <ele>906.737</ele>
        <time>2010-05-01T14:43:58Z</time>
      </trkpt>
      <trkpt lat="42.32146" lon="2.62611">
        <ele>903.349</ele>
        <time>2010-05-01T14:44:09Z</time>
      </trkpt>
      <trkpt lat="42.32146" lon="2.62618">
        <ele>901.913</ele>
        <time>2010-05-01T14:44:13Z</time>
      </trkpt>
      <trkpt lat="42.32142" lon="2.62632">
        <ele>898.006</ele>
        <time>2010-05-01T14:44:24Z</time>
      </trkpt>
      <trkpt lat="42.32144" lon="2.62641">
        <ele>894.691</ele>
        <time>2010-05-01T14:44:33Z</time>
      </trkpt>
      <trkpt lat="42.32161" lon="2.62641">
        <ele>891.811</ele>
        <time>2010-05-01T14:44:43Z</time>
      </trkpt>
      <trkpt lat="42.32167" lon="2.62644">
        <ele>890.875</ele>
        <time>2010-05-01T14:44:47Z</time>
      </trkpt>
      <trkpt lat="42.3219" lon="2.6266">
        <ele>887.489</ele>
        <time>2010-05-01T14:45:01Z</time>
      </trkpt>
      <trkpt lat="42.32198" lon="2.6266">
        <ele>890.315</ele>
        <time>2010-05-01T14:45:21Z</time>
      </trkpt>
      <trkpt lat="42.32197" lon="2.62668">
        <ele>893.759</ele>
        <time>2010-05-01T14:45:35Z</time>
      </trkpt>
      <trkpt lat="42.3219" lon="2.6268">
        <ele>897.092</ele>
        <time>2010-05-01T14:45:48Z</time>
      </trkpt>
      <trkpt lat="42.32186" lon="2.62689">
        <ele>900.473</ele>
        <time>2010-05-01T14:46:00Z</time>
      </trkpt>
      <trkpt lat="42.32184" lon="2.62694">
        <ele>903.32</ele>
        <time>2010-05-01T14:46:12Z</time>
      </trkpt>
      <trkpt lat="42.32181" lon="2.62696">
        <ele>906.706</ele>
        <time>2010-05-01T14:46:25Z</time>
      </trkpt>
      <trkpt lat="42.32179" lon="2.62711">
        <ele>910.057</ele>
        <time>2010-05-01T14:46:43Z</time>
      </trkpt>
      <trkpt lat="42.32165" lon="2.62724">
        <ele>912.937</ele>
        <time>2010-05-01T14:46:57Z</time>
      </trkpt>
      <trkpt lat="42.32163" lon="2.62729">
        <ele>916.311</ele>
        <time>2010-05-01T14:47:10Z</time>
      </trkpt>
      <trkpt lat="42.32148" lon="2.62742">
        <ele>918.225</ele>
        <time>2010-05-01T14:47:36Z</time>
      </trkpt>
      <trkpt lat="42.32145" lon="2.62741">
        <ele>918.211</ele>
        <time>2010-05-01T14:47:39Z</time>
      </trkpt>
      <trkpt lat="42.32127" lon="2.62741">
        <ele>918.215</ele>
        <time>2010-05-01T14:47:57Z</time>
      </trkpt>
      <trkpt lat="42.32113" lon="2.62739">
        <ele>919.297</ele>
        <time>2010-05-01T14:48:06Z</time>
      </trkpt>
      <trkpt lat="42.321" lon="2.62753">
        <ele>917.723</ele>
        <time>2010-05-01T14:48:16Z</time>
      </trkpt>
      <trkpt lat="42.32091" lon="2.62762">
        <ele>916.825</ele>
        <time>2010-05-01T14:48:24Z</time>
      </trkpt>
      <trkpt lat="42.32077" lon="2.62768">
        <ele>918.206</ele>
        <time>2010-05-01T14:48:35Z</time>
      </trkpt>
      <trkpt lat="42.32075" lon="2.62772">
        <ele>920.127</ele>
        <time>2010-05-01T14:48:43Z</time>
      </trkpt>
      <trkpt lat="42.32073" lon="2.62786">
        <ele>921.667</ele>
        <time>2010-05-01T14:48:50Z</time>
      </trkpt>
      <trkpt lat="42.32066" lon="2.62793">
        <ele>924.981</ele>
        <time>2010-05-01T14:49:05Z</time>
      </trkpt>
      <trkpt lat="42.32064" lon="2.62801">
        <ele>928.385</ele>
        <time>2010-05-01T14:49:21Z</time>
      </trkpt>
      <trkpt lat="42.32071" lon="2.62811">
        <ele>931.261</ele>
        <time>2010-05-01T14:49:35Z</time>
      </trkpt>
      <trkpt lat="42.32069" lon="2.62824">
        <ele>934.575</ele>
        <time>2010-05-01T14:49:51Z</time>
      </trkpt>
      <trkpt lat="42.32073" lon="2.62842">
        <ele>936.938</ele>
        <time>2010-05-01T14:50:09Z</time>
      </trkpt>
      <trkpt lat="42.32076" lon="2.62851">
        <ele>939.87</ele>
        <time>2010-05-01T14:50:27Z</time>
      </trkpt>
      <trkpt lat="42.32078" lon="2.62843">
        <ele>943.217</ele>
        <time>2010-05-01T14:50:42Z</time>
      </trkpt>
      <trkpt lat="42.32087" lon="2.62841">
        <ele>946.106</ele>
        <time>2010-05-01T14:50:57Z</time>
      </trkpt>
      <trkpt lat="42.32095" lon="2.62831">
        <ele>949.431</ele>
        <time>2010-05-01T14:51:14Z</time>
      </trkpt>
      <trkpt lat="42.32098" lon="2.62829">
        <ele>949.031</ele>
        <time>2010-05-01T14:51:18Z</time>
      </trkpt>
      <trkpt lat="42.32114" lon="2.62827">
        <ele>952.375</ele>
        <time>2010-05-01T14:51:38Z</time>
      </trkpt>
      <trkpt lat="42.32109" lon="2.62836">
        <ele>955.299</ele>
        <time>2010-05-01T14:51:54Z</time>
      </trkpt>
      <trkpt lat="42.32113" lon="2.6285">
        <ele>958.655</ele>
        <time>2010-05-01T14:52:08Z</time>
      </trkpt>
      <trkpt lat="42.3211" lon="2.62871">
        <ele>961.949</ele>
        <time>2010-05-01T14:52:27Z</time>
      </trkpt>
      <trkpt lat="42.32106" lon="2.62881">
        <ele>964.872</ele>
        <time>2010-05-01T14:52:41Z</time>
      </trkpt>
      <trkpt lat="42.32109" lon="2.62893">
        <ele>968.213</ele>
        <time>2010-05-01T14:52:54Z</time>
      </trkpt>
      <trkpt lat="42.32107" lon="2.62901">
        <ele>971.114</ele>
        <time>2010-05-01T14:53:10Z</time>
      </trkpt>
      <trkpt lat="42.3211" lon="2.62917">
        <ele>974.406</ele>
        <time>2010-05-01T14:53:29Z</time>
      </trkpt>
      <trkpt lat="42.32111" lon="2.62932">
        <ele>977.345</ele>
        <time>2010-05-01T14:53:42Z</time>
      </trkpt>
      <trkpt lat="42.32113" lon="2.62938">
        <ele>980.745</ele>
        <time>2010-05-01T14:53:59Z</time>
      </trkpt>
      <trkpt lat="42.32113" lon="2.62948">
        <ele>983.699</ele>
        <time>2010-05-01T14:54:15Z</time>
      </trkpt>
      <trkpt lat="42.32114" lon="2.62948">
        <ele>986.983</ele>
        <time>2010-05-01T14:54:31Z</time>
      </trkpt>
      <trkpt lat="42.32114" lon="2.62949">
        <ele>990.379</ele>
        <time>2010-05-01T14:54:47Z</time>
      </trkpt>
      <trkpt lat="42.32113" lon="2.62958">
        <ele>993.233</ele>
        <time>2010-05-01T14:55:02Z</time>
      </trkpt>
      <trkpt lat="42.32112" lon="2.62986">
        <ele>996.177</ele>
        <time>2010-05-01T14:55:21Z</time>
      </trkpt>
      <trkpt lat="42.32109" lon="2.63015">
        <ele>999.461</ele>
        <time>2010-05-01T14:55:41Z</time>
      </trkpt>
      <trkpt lat="42.32108" lon="2.63043">
        <ele>1000.927</ele>
        <time>2010-05-01T14:55:56Z</time>
      </trkpt>
      <trkpt lat="42.32111" lon="2.63067">
        <ele>1004.206</ele>
        <time>2010-05-01T14:56:12Z</time>
      </trkpt>
      <trkpt lat="42.32116" lon="2.63088">
        <ele>1007.685</ele>
        <time>2010-05-01T14:56:26Z</time>
      </trkpt>
      <trkpt lat="42.32112" lon="2.63122">
        <ele>1010.525</ele>
        <time>2010-05-01T14:56:44Z</time>
      </trkpt>
      <trkpt lat="42.32113" lon="2.63141">
        <ele>1013.439</ele>
        <time>2010-05-01T14:57:00Z</time>
      </trkpt>
      <trkpt lat="42.32115" lon="2.63151">
        <ele>1016.753</ele>
        <time>2010-05-01T14:57:17Z</time>
      </trkpt>
      <trkpt lat="42.32115" lon="2.63155">
        <ele>1019.619</ele>
        <time>2010-05-01T14:57:31Z</time>
      </trkpt>
      <trkpt lat="42.32116" lon="2.63163">
        <ele>1023.063</ele>
        <time>2010-05-01T14:57:53Z</time>
      </trkpt>
      <trkpt lat="42.32116" lon="2.63175">
        <ele>1026.324</ele>
        <time>2010-05-01T14:58:13Z</time>
      </trkpt>
      <trkpt lat="42.32122" lon="2.63179">
        <ele>1029.204</ele>
        <time>2010-05-01T14:58:31Z</time>
      </trkpt>
      <trkpt lat="42.32126" lon="2.6319">
        <ele>1032.114</ele>
        <time>2010-05-01T14:58:53Z</time>
      </trkpt>
      <trkpt lat="42.32129" lon="2.63208">
        <ele>1035.006</ele>
        <time>2010-05-01T14:59:10Z</time>
      </trkpt>
      <trkpt lat="42.32128" lon="2.63219">
        <ele>1038.45</ele>
        <time>2010-05-01T14:59:25Z</time>
      </trkpt>
      <trkpt lat="42.32124" lon="2.63239">
        <ele>1040.88</ele>
        <time>2010-05-01T14:59:41Z</time>
      </trkpt>
      <trkpt lat="42.32125" lon="2.6325">
        <ele>1043.674</ele>
        <time>2010-05-01T14:59:57Z</time>
      </trkpt>
      <trkpt lat="42.32122" lon="2.63265">
        <ele>1047.058</ele>
        <time>2010-05-01T15:00:16Z</time>
      </trkpt>
      <trkpt lat="42.32125" lon="2.63287">
        <ele>1049.994</ele>
        <time>2010-05-01T15:00:36Z</time>
      </trkpt>
      <trkpt lat="42.32112" lon="2.63304">
        <ele>1052.868</ele>
        <time>2010-05-01T15:01:00Z</time>
      </trkpt>
      <trkpt lat="42.32117" lon="2.63313">
        <ele>1055.753</ele>
        <time>2010-05-01T15:01:19Z</time>
      </trkpt>
      <trkpt lat="42.32092" lon="2.63316">
        <ele>1054.204</ele>
        <time>2010-05-01T15:02:15Z</time>
      </trkpt>
      <trkpt lat="42.32084" lon="2.63328">
        <ele>1051.314</ele>
        <time>2010-05-01T15:03:29Z</time>
      </trkpt>
      <trkpt lat="42.32076" lon="2.63361">
        <ele>1053.306</ele>
        <time>2010-05-01T15:04:23Z</time>
      </trkpt>
      <trkpt lat="42.32081" lon="2.63365">
        <ele>1053.793</ele>
        <time>2010-05-01T15:04:28Z</time>
      </trkpt>
      <trkpt lat="42.32078" lon="2.63384">
        <ele>1056.673</ele>
        <time>2010-05-01T15:04:45Z</time>
      </trkpt>
      <trkpt lat="42.32081" lon="2.63396">
        <ele>1060.067</ele>
        <time>2010-05-01T15:05:02Z</time>
      </trkpt>
      <trkpt lat="42.32087" lon="2.63408">
        <ele>1063.441</ele>
        <time>2010-05-01T15:05:17Z</time>
      </trkpt>
      <trkpt lat="42.32096" lon="2.63416">
        <ele>1065.367</ele>
        <time>2010-05-01T15:05:28Z</time>
      </trkpt>
      <trkpt lat="42.32101" lon="2.63421">
        <ele>1067.231</ele>
        <time>2010-05-01T15:05:47Z</time>
      </trkpt>
      <trkpt lat="42.32094" lon="2.63427">
        <ele>1068.686</ele>
        <time>2010-05-01T15:06:10Z</time>
      </trkpt>
      <trkpt lat="42.32086" lon="2.63444">
        <ele>1072.06</ele>
        <time>2010-05-01T15:06:32Z</time>
      </trkpt>
      <trkpt lat="42.32084" lon="2.63447">
        <ele>1072.526</ele>
        <time>2010-05-01T15:06:37Z</time>
      </trkpt>
      <trkpt lat="42.32061" lon="2.63453">
        <ele>1074.906</ele>
        <time>2010-05-01T15:06:59Z</time>
      </trkpt>
      <trkpt lat="42.32046" lon="2.63458">
        <ele>1078.346</ele>
        <time>2010-05-01T15:07:17Z</time>
      </trkpt>
      <trkpt lat="42.32025" lon="2.63483">
        <ele>1077.886</ele>
        <time>2010-05-01T15:07:41Z</time>
      </trkpt>
      <trkpt lat="42.32003" lon="2.635">
        <ele>1077.38</ele>
        <time>2010-05-01T15:07:57Z</time>
      </trkpt>
      <trkpt lat="42.31992" lon="2.6351">
        <ele>1077.374</ele>
        <time>2010-05-01T15:08:03Z</time>
      </trkpt>
      <trkpt lat="42.31983" lon="2.63518">
        <ele>1077.32</ele>
        <time>2010-05-01T15:08:06Z</time>
      </trkpt>
      <trkpt lat="42.31965" lon="2.63547">
        <ele>1077.894</ele>
        <time>2010-05-01T15:08:20Z</time>
      </trkpt>
      <trkpt lat="42.31939" lon="2.63561">
        <ele>1076.341</ele>
        <time>2010-05-01T15:08:32Z</time>
      </trkpt>
      <trkpt lat="42.31917" lon="2.63576">
        <ele>1075.981</ele>
        <time>2010-05-01T15:08:42Z</time>
      </trkpt>
      <trkpt lat="42.3191" lon="2.63596">
        <ele>1075.909</ele>
        <time>2010-05-01T15:08:49Z</time>
      </trkpt>
      <trkpt lat="42.31905" lon="2.63605">
        <ele>1076.806</ele>
        <time>2010-05-01T15:08:55Z</time>
      </trkpt>
      <trkpt lat="42.319" lon="2.63608">
        <ele>1077.862</ele>
        <time>2010-05-01T15:08:59Z</time>
      </trkpt>
      <trkpt lat="42.31896" lon="2.63614">
        <ele>1078.762</ele>
        <time>2010-05-01T15:09:05Z</time>
      </trkpt>
      <trkpt lat="42.31884" lon="2.63627">
        <ele>1078.776</ele>
        <time>2010-05-01T15:09:23Z</time>
      </trkpt>
      <trkpt lat="42.31861" lon="2.63612">
        <ele>1077.37</ele>
        <time>2010-05-01T15:10:09Z</time>
      </trkpt>
      <trkpt lat="42.31856" lon="2.63608">
        <ele>1076.836</ele>
        <time>2010-05-01T15:10:13Z</time>
      </trkpt>
      <trkpt lat="42.31837" lon="2.63606">
        <ele>1075.96</ele>
        <time>2010-05-01T15:10:23Z</time>
      </trkpt>
      <trkpt lat="42.31823" lon="2.63601">
        <ele>1075.467</ele>
        <time>2010-05-01T15:10:31Z</time>
      </trkpt>
      <trkpt lat="42.3182" lon="2.636">
        <ele>1075.481</ele>
        <time>2010-05-01T15:10:34Z</time>
      </trkpt>
      <trkpt lat="42.31797" lon="2.63585">
        <ele>1074.419</ele>
        <time>2010-05-01T15:10:48Z</time>
      </trkpt>
      <trkpt lat="42.31795" lon="2.63593">
        <ele>1073.006</ele>
        <time>2010-05-01T15:10:53Z</time>
      </trkpt>
      <trkpt lat="42.3179" lon="2.63602">
        <ele>1072.054</ele>
        <time>2010-05-01T15:10:59Z</time>
      </trkpt>
      <trkpt lat="42.3179" lon="2.63622">
        <ele>1070.124</ele>
        <time>2010-05-01T15:11:08Z</time>
      </trkpt>
      <trkpt lat="42.31786" lon="2.63643">
        <ele>1068.688</ele>
        <time>2010-05-01T15:11:17Z</time>
      </trkpt>
      <trkpt lat="42.31785" lon="2.63671">
        <ele>1069.192</ele>
        <time>2010-05-01T15:11:25Z</time>
      </trkpt>
      <trkpt lat="42.31783" lon="2.63677">
        <ele>1069.138</ele>
        <time>2010-05-01T15:11:27Z</time>
      </trkpt>
      <trkpt lat="42.31789" lon="2.63719">
        <ele>1068.612</ele>
        <time>2010-05-01T15:11:41Z</time>
      </trkpt>
      <trkpt lat="42.31786" lon="2.63746">
        <ele>1068.673</ele>
        <time>2010-05-01T15:11:49Z</time>
      </trkpt>
      <trkpt lat="42.31788" lon="2.63796">
        <ele>1065.385</ele>
        <time>2010-05-01T15:12:03Z</time>
      </trkpt>
      <trkpt lat="42.31792" lon="2.63808">
        <ele>1064.313</ele>
        <time>2010-05-01T15:12:08Z</time>
      </trkpt>
      <trkpt lat="42.31786" lon="2.63846">
        <ele>1063.806</ele>
        <time>2010-05-01T15:12:20Z</time>
      </trkpt>
      <trkpt lat="42.31788" lon="2.6386">
        <ele>1063.885</ele>
        <time>2010-05-01T15:12:25Z</time>
      </trkpt>
      <trkpt lat="42.31789" lon="2.63882">
        <ele>1063.475</ele>
        <time>2010-05-01T15:12:32Z</time>
      </trkpt>
      <trkpt lat="42.31772" lon="2.6392">
        <ele>1061.479</ele>
        <time>2010-05-01T15:12:44Z</time>
      </trkpt>
      <trkpt lat="42.31772" lon="2.63938">
        <ele>1060.563</ele>
        <time>2010-05-01T15:12:50Z</time>
      </trkpt>
      <trkpt lat="42.31773" lon="2.63951">
        <ele>1060.579</ele>
        <time>2010-05-01T15:12:55Z</time>
      </trkpt>
      <trkpt lat="42.31768" lon="2.63969">
        <ele>1060.093</ele>
        <time>2010-05-01T15:13:01Z</time>
      </trkpt>
      <trkpt lat="42.31737" lon="2.63996">
        <ele>1058.517</ele>
        <time>2010-05-01T15:13:14Z</time>
      </trkpt>
      <trkpt lat="42.31718" lon="2.6401">
        <ele>1058.587</ele>
        <time>2010-05-01T15:13:23Z</time>
      </trkpt>
      <trkpt lat="42.31699" lon="2.6403">
        <ele>1058.515</ele>
        <time>2010-05-01T15:13:35Z</time>
      </trkpt>
      <trkpt lat="42.31668" lon="2.64045">
        <ele>1058.106</ele>
        <time>2010-05-01T15:13:47Z</time>
      </trkpt>
      <trkpt lat="42.31654" lon="2.64041">
        <ele>1056.129</ele>
        <time>2010-05-01T15:13:54Z</time>
      </trkpt>
      <trkpt lat="42.3165" lon="2.64036">
        <ele>1056.129</ele>
        <time>2010-05-01T15:13:59Z</time>
      </trkpt>
      <trkpt lat="42.31623" lon="2.64031">
        <ele>1054.283</ele>
        <time>2010-05-01T15:14:14Z</time>
      </trkpt>
      <trkpt lat="42.31608" lon="2.6401">
        <ele>1050.957</ele>
        <time>2010-05-01T15:14:23Z</time>
      </trkpt>
      <trkpt lat="42.31592" lon="2.63984">
        <ele>1048.073</ele>
        <time>2010-05-01T15:14:33Z</time>
      </trkpt>
      <trkpt lat="42.31578" lon="2.6396">
        <ele>1045.147</ele>
        <time>2010-05-01T15:14:45Z</time>
      </trkpt>
      <trkpt lat="42.31571" lon="2.63958">
        <ele>1042.788</ele>
        <time>2010-05-01T15:14:51Z</time>
      </trkpt>
      <trkpt lat="42.31564" lon="2.63955">
        <ele>1042.224</ele>
        <time>2010-05-01T15:15:03Z</time>
      </trkpt>
      <trkpt lat="42.31565" lon="2.63964">
        <ele>1039.326</ele>
        <time>2010-05-01T15:15:20Z</time>
      </trkpt>
      <trkpt lat="42.31561" lon="2.6397">
        <ele>1036.406</ele>
        <time>2010-05-01T15:15:29Z</time>
      </trkpt>
      <trkpt lat="42.31568" lon="2.63986">
        <ele>1034.096</ele>
        <time>2010-05-01T15:15:41Z</time>
      </trkpt>
      <trkpt lat="42.31567" lon="2.63992">
        <ele>1033.146</ele>
        <time>2010-05-01T15:15:46Z</time>
      </trkpt>
      <trkpt lat="42.31571" lon="2.64022">
        <ele>1032.19</ele>
        <time>2010-05-01T15:15:59Z</time>
      </trkpt>
      <trkpt lat="42.31568" lon="2.64065">
        <ele>1029.274</ele>
        <time>2010-05-01T15:16:16Z</time>
      </trkpt>
      <trkpt lat="42.31564" lon="2.64089">
        <ele>1025.97</ele>
        <time>2010-05-01T15:16:29Z</time>
      </trkpt>
      <trkpt lat="42.3155" lon="2.64114">
        <ele>1022.564</ele>
        <time>2010-05-01T15:16:40Z</time>
      </trkpt>
      <trkpt lat="42.3155" lon="2.64122">
        <ele>1022.029</ele>
        <time>2010-05-01T15:16:44Z</time>
      </trkpt>
      <trkpt lat="42.31548" lon="2.64124">
        <ele>1021.1</ele>
        <time>2010-05-01T15:16:46Z</time>
      </trkpt>
      <trkpt lat="42.31545" lon="2.64126">
        <ele>1020.12</ele>
        <time>2010-05-01T15:16:48Z</time>
      </trkpt>
      <trkpt lat="42.3154" lon="2.64145">
        <ele>1017.206</ele>
        <time>2010-05-01T15:17:01Z</time>
      </trkpt>
      <trkpt lat="42.31544" lon="2.64162">
        <ele>1013.81</ele>
        <time>2010-05-01T15:17:12Z</time>
      </trkpt>
      <trkpt lat="42.31539" lon="2.6417">
        <ele>1012.93</ele>
        <time>2010-05-01T15:17:15Z</time>
      </trkpt>
      <trkpt lat="42.31535" lon="2.64174">
        <ele>1011.964</ele>
        <time>2010-05-01T15:17:18Z</time>
      </trkpt>
      <trkpt lat="42.3153" lon="2.64171">
        <ele>1011.028</ele>
        <time>2010-05-01T15:17:21Z</time>
      </trkpt>
      <trkpt lat="42.31525" lon="2.64157">
        <ele>1007.134</ele>
        <time>2010-05-01T15:17:32Z</time>
      </trkpt>
      <trkpt lat="42.31523" lon="2.64159">
        <ele>1007.188</ele>
        <time>2010-05-01T15:17:34Z</time>
      </trkpt>
      <trkpt lat="42.31519" lon="2.64164">
        <ele>1005.798</ele>
        <time>2010-05-01T15:17:37Z</time>
      </trkpt>
      <trkpt lat="42.31517" lon="2.64166">
        <ele>1005.715</ele>
        <time>2010-05-01T15:17:38Z</time>
      </trkpt>
      <trkpt lat="42.31515" lon="2.6417">
        <ele>1005.226</ele>
        <time>2010-05-01T15:17:40Z</time>
      </trkpt>
      <trkpt lat="42.31516" lon="2.64185">
        <ele>1004.206</ele>
        <time>2010-05-01T15:17:46Z</time>
      </trkpt>
      <trkpt lat="42.31516" lon="2.64198">
        <ele>1002.337</ele>
        <time>2010-05-01T15:17:55Z</time>
      </trkpt>
      <trkpt lat="42.31507" lon="2.64204">
        <ele>999.967</ele>
        <time>2010-05-01T15:18:03Z</time>
      </trkpt>
      <trkpt lat="42.31496" lon="2.64188">
        <ele>996.541</ele>
        <time>2010-05-01T15:18:17Z</time>
      </trkpt>
      <trkpt lat="42.31501" lon="2.64191">
        <ele>993.745</ele>
        <time>2010-05-01T15:18:28Z</time>
      </trkpt>
      <trkpt lat="42.315" lon="2.64194">
        <ele>992.771</ele>
        <time>2010-05-01T15:18:31Z</time>
      </trkpt>
      <trkpt lat="42.31498" lon="2.64226">
        <ele>991.315</ele>
        <time>2010-05-01T15:18:46Z</time>
      </trkpt>
      <trkpt lat="42.31501" lon="2.64239">
        <ele>991.372</ele>
        <time>2010-05-01T15:18:52Z</time>
      </trkpt>
      <trkpt lat="42.3149" lon="2.64263">
        <ele>988.413</ele>
        <time>2010-05-01T15:19:07Z</time>
      </trkpt>
      <trkpt lat="42.31489" lon="2.6425">
        <ele>986.014</ele>
        <time>2010-05-01T15:19:16Z</time>
      </trkpt>
      <trkpt lat="42.31489" lon="2.64245">
        <ele>985.006</ele>
        <time>2010-05-01T15:19:19Z</time>
      </trkpt>
      <trkpt lat="42.31488" lon="2.64243">
        <ele>982.615</ele>
        <time>2010-05-01T15:19:27Z</time>
      </trkpt>
      <trkpt lat="42.31481" lon="2.64239">
        <ele>979.775</ele>
        <time>2010-05-01T15:19:39Z</time>
      </trkpt>
      <trkpt lat="42.31478" lon="2.64242">
        <ele>977.359</ele>
        <time>2010-05-01T15:19:46Z</time>
      </trkpt>
      <trkpt lat="42.3147" lon="2.64254">
        <ele>973.513</ele>
        <time>2010-05-01T15:19:57Z</time>
      </trkpt>
      <trkpt lat="42.31461" lon="2.64277">
        <ele>970.699</ele>
        <time>2010-05-01T15:20:08Z</time>
      </trkpt>
      <trkpt lat="42.3146" lon="2.64281">
        <ele>970.173</ele>
        <time>2010-05-01T15:20:11Z</time>
      </trkpt>
      <trkpt lat="42.31453" lon="2.64276">
        <ele>969.152</ele>
        <time>2010-05-01T15:20:16Z</time>
      </trkpt>
      <trkpt lat="42.31448" lon="2.64256">
        <ele>966.353</ele>
        <time>2010-05-01T15:20:26Z</time>
      </trkpt>
      <trkpt lat="42.31447" lon="2.64255">
        <ele>965.308</ele>
        <time>2010-05-01T15:20:28Z</time>
      </trkpt>
      <trkpt lat="42.31446" lon="2.64257">
        <ele>965.306</ele>
        <time>2010-05-01T15:20:30Z</time>
      </trkpt>
      <trkpt lat="42.3144" lon="2.64273">
        <ele>961.983</ele>
        <time>2010-05-01T15:20:41Z</time>
      </trkpt>
      <trkpt lat="42.31439" lon="2.64273">
        <ele>961.543</ele>
        <time>2010-05-01T15:20:42Z</time>
      </trkpt>
      <trkpt lat="42.31437" lon="2.64281">
        <ele>961.077</ele>
        <time>2010-05-01T15:20:45Z</time>
      </trkpt>
      <trkpt lat="42.31435" lon="2.64281">
        <ele>959.551</ele>
        <time>2010-05-01T15:20:50Z</time>
      </trkpt>
      <trkpt lat="42.31427" lon="2.64294">
        <ele>956.677</ele>
        <time>2010-05-01T15:20:58Z</time>
      </trkpt>
      <trkpt lat="42.31426" lon="2.64297">
        <ele>956.231</ele>
        <time>2010-05-01T15:21:00Z</time>
      </trkpt>
      <trkpt lat="42.31424" lon="2.64301">
        <ele>954.233</ele>
        <time>2010-05-01T15:21:05Z</time>
      </trkpt>
      <trkpt lat="42.31422" lon="2.64305">
        <ele>952.823</ele>
        <time>2010-05-01T15:21:10Z</time>
      </trkpt>
      <trkpt lat="42.31422" lon="2.64308">
        <ele>951.815</ele>
        <time>2010-05-01T15:21:13Z</time>
      </trkpt>
      <trkpt lat="42.31414" lon="2.64315">
        <ele>950.406</ele>
        <time>2010-05-01T15:21:17Z</time>
      </trkpt>
      <trkpt lat="42.31409" lon="2.64315">
        <ele>948.531</ele>
        <time>2010-05-01T15:21:24Z</time>
      </trkpt>
      <trkpt lat="42.31402" lon="2.64332">
        <ele>946.111</ele>
        <time>2010-05-01T15:21:34Z</time>
      </trkpt>
      <trkpt lat="42.31396" lon="2.64341">
        <ele>942.245</ele>
        <time>2010-05-01T15:21:43Z</time>
      </trkpt>
      <trkpt lat="42.31395" lon="2.6435">
        <ele>940.389</ele>
        <time>2010-05-01T15:21:58Z</time>
      </trkpt>
      <trkpt lat="42.31388" lon="2.64355">
        <ele>936.965</ele>
        <time>2010-05-01T15:22:09Z</time>
      </trkpt>
      <trkpt lat="42.31387" lon="2.64355">
        <ele>936.959</ele>
        <time>2010-05-01T15:22:10Z</time>
      </trkpt>
      <trkpt lat="42.31384" lon="2.6434">
        <ele>933.677</ele>
        <time>2010-05-01T15:22:21Z</time>
      </trkpt>
      <trkpt lat="42.3138" lon="2.64347">
        <ele>929.761</ele>
        <time>2010-05-01T15:22:30Z</time>
      </trkpt>
      <trkpt lat="42.31379" lon="2.64341">
        <ele>930.227</ele>
        <time>2010-05-01T15:23:01Z</time>
      </trkpt>
      <trkpt lat="42.31385" lon="2.6435">
        <ele>933.106</ele>
        <time>2010-05-01T15:24:33Z</time>
      </trkpt>
      <trkpt lat="42.31384" lon="2.6435">
        <ele>936.015</ele>
        <time>2010-05-01T15:26:46Z</time>
      </trkpt>
      <trkpt lat="42.3138" lon="2.64363">
        <ele>933.135</ele>
        <time>2010-05-01T15:27:16Z</time>
      </trkpt>
      <trkpt lat="42.31377" lon="2.64369">
        <ele>932.659</ele>
        <time>2010-05-01T15:27:22Z</time>
      </trkpt>
      <trkpt lat="42.31371" lon="2.64368">
        <ele>930.783</ele>
        <time>2010-05-01T15:27:27Z</time>
      </trkpt>
      <trkpt lat="42.31368" lon="2.64347">
        <ele>928.339</ele>
        <time>2010-05-01T15:27:43Z</time>
      </trkpt>
      <trkpt lat="42.31367" lon="2.64343">
        <ele>924.943</ele>
        <time>2010-05-01T15:27:54Z</time>
      </trkpt>
      <trkpt lat="42.31362" lon="2.64353">
        <ele>923.071</ele>
        <time>2010-05-01T15:28:02Z</time>
      </trkpt>
      <trkpt lat="42.31355" lon="2.64367">
        <ele>919.641</ele>
        <time>2010-05-01T15:28:15Z</time>
      </trkpt>
      <trkpt lat="42.31353" lon="2.64369">
        <ele>919.215</ele>
        <time>2010-05-01T15:28:17Z</time>
      </trkpt>
      <trkpt lat="42.31343" lon="2.64389">
        <ele>915.806</ele>
        <time>2010-05-01T15:28:28Z</time>
      </trkpt>
      <trkpt lat="42.31344" lon="2.6439">
        <ele>915.885</ele>
        <time>2010-05-01T15:28:29Z</time>
      </trkpt>
      <trkpt lat="42.31343" lon="2.64399">
        <ele>914.465</ele>
        <time>2010-05-01T15:28:35Z</time>
      </trkpt>
      <trkpt lat="42.31339" lon="2.6441">
        <ele>911.519</ele>
        <time>2010-05-01T15:28:46Z</time>
      </trkpt>
      <trkpt lat="42.31335" lon="2.6442">
        <ele>908.153</ele>
        <time>2010-05-01T15:28:55Z</time>
      </trkpt>
      <trkpt lat="42.31327" lon="2.64426">
        <ele>905.769</ele>
        <time>2010-05-01T15:29:03Z</time>
      </trkpt>
      <trkpt lat="42.31325" lon="2.64424">
        <ele>905.283</ele>
        <time>2010-05-01T15:29:05Z</time>
      </trkpt>
      <trkpt lat="42.31321" lon="2.64419">
        <ele>903.311</ele>
        <time>2010-05-01T15:29:11Z</time>
      </trkpt>
      <trkpt lat="42.31319" lon="2.64422">
        <ele>901.921</ele>
        <time>2010-05-01T15:29:15Z</time>
      </trkpt>
      <trkpt lat="42.31314" lon="2.64444">
        <ele>899.503</ele>
        <time>2010-05-01T15:29:28Z</time>
      </trkpt>
      <trkpt lat="42.31313" lon="2.64448">
        <ele>899.006</ele>
        <time>2010-05-01T15:29:30Z</time>
      </trkpt>
      <trkpt lat="42.31314" lon="2.6447">
        <ele>896.199</ele>
        <time>2010-05-01T15:29:44Z</time>
      </trkpt>
      <trkpt lat="42.31306" lon="2.64483">
        <ele>893.289</ele>
        <time>2010-05-01T15:29:55Z</time>
      </trkpt>
      <trkpt lat="42.313" lon="2.64483">
        <ele>889.863</ele>
        <time>2010-05-01T15:30:07Z</time>
      </trkpt>
      <trkpt lat="42.31296" lon="2.64493">
        <ele>886.597</ele>
        <time>2010-05-01T15:30:18Z</time>
      </trkpt>
      <trkpt lat="42.3129" lon="2.64507">
        <ele>883.133</ele>
        <time>2010-05-01T15:30:30Z</time>
      </trkpt>
      <trkpt lat="42.31284" lon="2.64511">
        <ele>880.717</ele>
        <time>2010-05-01T15:30:39Z</time>
      </trkpt>
      <trkpt lat="42.31283" lon="2.64508">
        <ele>879.786</ele>
        <time>2010-05-01T15:30:42Z</time>
      </trkpt>
      <trkpt lat="42.31278" lon="2.64521">
        <ele>876.46</ele>
        <time>2010-05-01T15:30:56Z</time>
      </trkpt>
      <trkpt lat="42.31275" lon="2.64533">
        <ele>873.526</ele>
        <time>2010-05-01T15:31:08Z</time>
      </trkpt>
      <trkpt lat="42.31275" lon="2.64544">
        <ele>870.606</ele>
        <time>2010-05-01T15:31:16Z</time>
      </trkpt>
      <trkpt lat="42.31271" lon="2.64554">
        <ele>867.776</ele>
        <time>2010-05-01T15:31:30Z</time>
      </trkpt>
      <trkpt lat="42.3127" lon="2.64559">
        <ele>864.466</ele>
        <time>2010-05-01T15:31:43Z</time>
      </trkpt>
      <trkpt lat="42.3127" lon="2.64575">
        <ele>861.09</ele>
        <time>2010-05-01T15:31:56Z</time>
      </trkpt>
      <trkpt lat="42.31269" lon="2.64592">
        <ele>858.134</ele>
        <time>2010-05-01T15:32:08Z</time>
      </trkpt>
      <trkpt lat="42.31271" lon="2.64605">
        <ele>854.74</ele>
        <time>2010-05-01T15:32:20Z</time>
      </trkpt>
      <trkpt lat="42.31267" lon="2.64622">
        <ele>851.424</ele>
        <time>2010-05-01T15:32:33Z</time>
      </trkpt>
      <trkpt lat="42.31268" lon="2.64644">
        <ele>849.558</ele>
        <time>2010-05-01T15:32:53Z</time>
      </trkpt>
      <trkpt lat="42.3127" lon="2.64653">
        <ele>849.952</ele>
        <time>2010-05-01T15:33:15Z</time>
      </trkpt>
      <trkpt lat="42.31269" lon="2.64654">
        <ele>848.517</ele>
        <time>2010-05-01T15:33:32Z</time>
      </trkpt>
      <trkpt lat="42.31265" lon="2.64676">
        <ele>845.106</ele>
        <time>2010-05-01T15:33:43Z</time>
      </trkpt>
      <trkpt lat="42.31264" lon="2.64701">
        <ele>842.733</ele>
        <time>2010-05-01T15:33:53Z</time>
      </trkpt>
      <trkpt lat="42.31263" lon="2.64721">
        <ele>840.333</ele>
        <time>2010-05-01T15:34:04Z</time>
      </trkpt>
      <trkpt lat="42.31265" lon="2.64735">
        <ele>837.997</ele>
        <time>2010-05-01T15:34:14Z</time>
      </trkpt>
      <trkpt lat="42.31263" lon="2.64753">
        <ele>833.621</ele>
        <time>2010-05-01T15:34:22Z</time>
      </trkpt>
      <trkpt lat="42.31261" lon="2.64768">
        <ele>830.297</ele>
        <time>2010-05-01T15:34:29Z</time>
      </trkpt>
      <trkpt lat="42.3126" lon="2.64775">
        <ele>826.941</ele>
        <time>2010-05-01T15:34:37Z</time>
      </trkpt>
      <trkpt lat="42.31259" lon="2.64776">
        <ele>826.466</ele>
        <time>2010-05-01T15:34:38Z</time>
      </trkpt>
      <trkpt lat="42.31255" lon="2.6478">
        <ele>824.029</ele>
        <time>2010-05-01T15:34:45Z</time>
      </trkpt>
      <trkpt lat="42.31251" lon="2.64801">
        <ele>821.121</ele>
        <time>2010-05-01T15:34:53Z</time>
      </trkpt>
      <trkpt lat="42.31249" lon="2.64808">
        <ele>818.706</ele>
        <time>2010-05-01T15:34:57Z</time>
      </trkpt>
      <trkpt lat="42.31249" lon="2.64813">
        <ele>815.874</ele>
        <time>2010-05-01T15:35:01Z</time>
      </trkpt>
      <trkpt lat="42.31249" lon="2.64807">
        <ele>812.924</ele>
        <time>2010-05-01T15:35:07Z</time>
      </trkpt>
      <trkpt lat="42.3125" lon="2.64813">
        <ele>811.578</ele>
        <time>2010-05-01T15:35:10Z</time>
      </trkpt>
      <trkpt lat="42.31251" lon="2.64823">
        <ele>810.552</ele>
        <time>2010-05-01T15:35:26Z</time>
      </trkpt>
      <trkpt lat="42.31251" lon="2.64822">
        <ele>809.668</ele>
        <time>2010-05-01T15:35:28Z</time>
      </trkpt>
      <trkpt lat="42.31246" lon="2.64821">
        <ele>807.252</ele>
        <time>2010-05-01T15:35:33Z</time>
      </trkpt>
      <trkpt lat="42.3124" lon="2.64826">
        <ele>804.377</ele>
        <time>2010-05-01T15:35:46Z</time>
      </trkpt>
      <trkpt lat="42.31239" lon="2.64839">
        <ele>804.861</ele>
        <time>2010-05-01T15:35:53Z</time>
      </trkpt>
      <trkpt lat="42.31241" lon="2.64845">
        <ele>805.227</ele>
        <time>2010-05-01T15:36:15Z</time>
      </trkpt>
      <trkpt lat="42.31243" lon="2.64847">
        <ele>805.206</ele>
        <time>2010-05-01T15:36:23Z</time>
      </trkpt>
      <trkpt lat="42.31263" lon="2.64876">
        <ele>804.885</ele>
        <time>2010-05-01T15:36:44Z</time>
      </trkpt>
      <trkpt lat="42.31284" lon="2.64898">
        <ele>805.765</ele>
        <time>2010-05-01T15:37:01Z</time>
      </trkpt>
      <trkpt lat="42.31294" lon="2.64915">
        <ele>805.249</ele>
        <time>2010-05-01T15:37:13Z</time>
      </trkpt>
      <trkpt lat="42.31299" lon="2.64922">
        <ele>805.293</ele>
        <time>2010-05-01T15:37:18Z</time>
      </trkpt>
      <trkpt lat="42.31306" lon="2.64943">
        <ele>803.339</ele>
        <time>2010-05-01T15:37:29Z</time>
      </trkpt>
      <trkpt lat="42.31309" lon="2.64947">
        <ele>803.323</ele>
        <time>2010-05-01T15:37:33Z</time>
      </trkpt>
      <trkpt lat="42.31312" lon="2.64962">
        <ele>803.316</ele>
        <time>2010-05-01T15:37:43Z</time>
      </trkpt>
      <trkpt lat="42.31307" lon="2.64974">
        <ele>803.376</ele>
        <time>2010-05-01T15:37:48Z</time>
      </trkpt>
      <trkpt lat="42.31305" lon="2.64979">
        <ele>803.313</ele>
        <time>2010-05-01T15:37:51Z</time>
      </trkpt>
      <trkpt lat="42.31304" lon="2.64997">
        <ele>803.306</ele>
        <time>2010-05-01T15:37:59Z</time>
      </trkpt>
      <trkpt lat="42.31303" lon="2.65001">
        <ele>803.859</ele>
        <time>2010-05-01T15:38:01Z</time>
      </trkpt>
      <trkpt lat="42.31305" lon="2.65005">
        <ele>803.839</ele>
        <time>2010-05-01T15:38:04Z</time>
      </trkpt>
      <trkpt lat="42.31297" lon="2.65016">
        <ele>801.943</ele>
        <time>2010-05-01T15:38:09Z</time>
      </trkpt>
      <trkpt lat="42.31297" lon="2.65019">
        <ele>801.477</ele>
        <time>2010-05-01T15:38:11Z</time>
      </trkpt>
      <trkpt lat="42.31287" lon="2.65047">
        <ele>798.093</ele>
        <time>2010-05-01T15:38:22Z</time>
      </trkpt>
      <trkpt lat="42.31284" lon="2.65053">
        <ele>797.617</ele>
        <time>2010-05-01T15:38:26Z</time>
      </trkpt>
      <trkpt lat="42.31282" lon="2.65057">
        <ele>797.148</ele>
        <time>2010-05-01T15:38:29Z</time>
      </trkpt>
      <trkpt lat="42.31276" lon="2.65078">
        <ele>794.261</ele>
        <time>2010-05-01T15:38:43Z</time>
      </trkpt>
      <trkpt lat="42.31268" lon="2.65103">
        <ele>790.817</ele>
        <time>2010-05-01T15:38:59Z</time>
      </trkpt>
      <trkpt lat="42.31261" lon="2.65114">
        <ele>787.906</ele>
        <time>2010-05-01T15:39:10Z</time>
      </trkpt>
      <trkpt lat="42.31258" lon="2.65117">
        <ele>787.522</ele>
        <time>2010-05-01T15:39:13Z</time>
      </trkpt>
      <trkpt lat="42.31255" lon="2.65117">
        <ele>786.052</ele>
        <time>2010-05-01T15:39:16Z</time>
      </trkpt>
      <trkpt lat="42.31253" lon="2.65118">
        <ele>786.046</ele>
        <time>2010-05-01T15:39:17Z</time>
      </trkpt>
      <trkpt lat="42.31239" lon="2.65144">
        <ele>783.67</ele>
        <time>2010-05-01T15:39:30Z</time>
      </trkpt>
      <trkpt lat="42.31231" lon="2.65149">
        <ele>782.266</ele>
        <time>2010-05-01T15:39:35Z</time>
      </trkpt>
      <trkpt lat="42.31223" lon="2.65168">
        <ele>780.78</ele>
        <time>2010-05-01T15:39:44Z</time>
      </trkpt>
      <trkpt lat="42.31216" lon="2.65178">
        <ele>779.863</ele>
        <time>2010-05-01T15:39:49Z</time>
      </trkpt>
      <trkpt lat="42.31207" lon="2.65188">
        <ele>778.344</ele>
        <time>2010-05-01T15:39:59Z</time>
      </trkpt>
      <trkpt lat="42.31203" lon="2.6519">
        <ele>775.918</ele>
        <time>2010-05-01T15:40:03Z</time>
      </trkpt>
      <trkpt lat="42.31197" lon="2.65187">
        <ele>774.006</ele>
        <time>2010-05-01T15:40:09Z</time>
      </trkpt>
      <trkpt lat="42.31191" lon="2.65182">
        <ele>772.114</ele>
        <time>2010-05-01T15:40:13Z</time>
      </trkpt>
      <trkpt lat="42.31185" lon="2.65171">
        <ele>768.734</ele>
        <time>2010-05-01T15:40:21Z</time>
      </trkpt>
      <trkpt lat="42.3118" lon="2.65168">
        <ele>767.838</ele>
        <time>2010-05-01T15:40:29Z</time>
      </trkpt>
      <trkpt lat="42.31172" lon="2.65174">
        <ele>765.852</ele>
        <time>2010-05-01T15:40:38Z</time>
      </trkpt>
      <trkpt lat="42.3116" lon="2.65186">
        <ele>764.998</ele>
        <time>2010-05-01T15:40:51Z</time>
      </trkpt>
      <trkpt lat="42.31157" lon="2.6519">
        <ele>764.472</ele>
        <time>2010-05-01T15:41:09Z</time>
      </trkpt>
      <trkpt lat="42.31158" lon="2.65193">
        <ele>765.841</ele>
        <time>2010-05-01T15:41:24Z</time>
      </trkpt>
      <trkpt lat="42.31153" lon="2.65182">
        <ele>765.381</ele>
        <time>2010-05-01T15:41:42Z</time>
      </trkpt>
      <trkpt lat="42.31154" lon="2.65199">
        <ele>765.309</ele>
        <time>2010-05-01T15:42:30Z</time>
      </trkpt>
      <trkpt lat="42.3116" lon="2.65209">
        <ele>765.306</ele>
        <time>2010-05-01T15:42:55Z</time>
      </trkpt>
      <trkpt lat="42.3116" lon="2.65209">
        <ele>765.352</ele>
        <time>2010-05-01T15:43:11Z</time>
      </trkpt>
      <trkpt lat="42.31167" lon="2.65208">
        <ele>765.812</ele>
        <time>2010-05-01T15:56:33Z</time>
      </trkpt>
      <trkpt lat="42.31162" lon="2.65203">
        <ele>767.366</ele>
        <time>2010-05-01T15:58:27Z</time>
      </trkpt>
      <trkpt lat="42.31156" lon="2.65196">
        <ele>767.88</ele>
        <time>2010-05-01T15:59:18Z</time>
      </trkpt>
      <trkpt lat="42.31155" lon="2.65186">
        <ele>766.836</ele>
        <time>2010-05-01T15:59:30Z</time>
      </trkpt>
      <trkpt lat="42.31161" lon="2.65219">
        <ele>764.45</ele>
        <time>2010-05-01T15:59:42Z</time>
      </trkpt>
      <trkpt lat="42.31174" lon="2.65248">
        <ele>762.093</ele>
        <time>2010-05-01T15:59:56Z</time>
      </trkpt>
      <trkpt lat="42.31182" lon="2.65282">
        <ele>761.565</ele>
        <time>2010-05-01T16:00:09Z</time>
      </trkpt>
      <trkpt lat="42.31178" lon="2.65314">
        <ele>761.521</ele>
        <time>2010-05-01T16:00:21Z</time>
      </trkpt>
      <trkpt lat="42.31159" lon="2.65327">
        <ele>759.606</ele>
        <time>2010-05-01T16:00:32Z</time>
      </trkpt>
      <trkpt lat="42.31129" lon="2.65335">
        <ele>757.277</ele>
        <time>2010-05-01T16:00:44Z</time>
      </trkpt>
      <trkpt lat="42.3111" lon="2.6535">
        <ele>755.777</ele>
        <time>2010-05-01T16:00:54Z</time>
      </trkpt>
      <trkpt lat="42.31094" lon="2.65371">
        <ele>753.881</ele>
        <time>2010-05-01T16:01:05Z</time>
      </trkpt>
      <trkpt lat="42.31074" lon="2.6539">
        <ele>751.955</ele>
        <time>2010-05-01T16:01:16Z</time>
      </trkpt>
      <trkpt lat="42.31055" lon="2.65418">
        <ele>750.411</ele>
        <time>2010-05-01T16:01:27Z</time>
      </trkpt>
      <trkpt lat="42.3105" lon="2.65437">
        <ele>749.055</ele>
        <time>2010-05-01T16:01:38Z</time>
      </trkpt>
      <trkpt lat="42.31043" lon="2.6545">
        <ele>746.169</ele>
        <time>2010-05-01T16:01:55Z</time>
      </trkpt>
      <trkpt lat="42.31034" lon="2.65463">
        <ele>743.204</ele>
        <time>2010-05-01T16:02:10Z</time>
      </trkpt>
      <trkpt lat="42.31033" lon="2.65465">
        <ele>743.224</ele>
        <time>2010-05-01T16:02:11Z</time>
      </trkpt>
      <trkpt lat="42.31027" lon="2.6547">
        <ele>740.406</ele>
        <time>2010-05-01T16:02:18Z</time>
      </trkpt>
      <trkpt lat="42.31014" lon="2.65482">
        <ele>736.534</ele>
        <time>2010-05-01T16:02:32Z</time>
      </trkpt>
      <trkpt lat="42.31003" lon="2.655">
        <ele>733.634</ele>
        <time>2010-05-01T16:02:43Z</time>
      </trkpt>
      <trkpt lat="42.30997" lon="2.6551">
        <ele>730.378</ele>
        <time>2010-05-01T16:02:54Z</time>
      </trkpt>
      <trkpt lat="42.3099" lon="2.6552">
        <ele>727.462</ele>
        <time>2010-05-01T16:03:05Z</time>
      </trkpt>
      <trkpt lat="42.30985" lon="2.65524">
        <ele>725.958</ele>
        <time>2010-05-01T16:03:09Z</time>
      </trkpt>
      <trkpt lat="42.30983" lon="2.65528">
        <ele>724.012</ele>
        <time>2010-05-01T16:03:15Z</time>
      </trkpt>
      <trkpt lat="42.30959" lon="2.65527">
        <ele>721.625</ele>
        <time>2010-05-01T16:03:27Z</time>
      </trkpt>
      <trkpt lat="42.30955" lon="2.65526">
        <ele>721.626</ele>
        <time>2010-05-01T16:03:29Z</time>
      </trkpt>
      <trkpt lat="42.30942" lon="2.65521">
        <ele>721.108</ele>
        <time>2010-05-01T16:03:34Z</time>
      </trkpt>
      <trkpt lat="42.30927" lon="2.65485">
        <ele>722.106</ele>
        <time>2010-05-01T16:03:48Z</time>
      </trkpt>
      <trkpt lat="42.30906" lon="2.65441">
        <ele>722.13</ele>
        <time>2010-05-01T16:04:01Z</time>
      </trkpt>
      <trkpt lat="42.30872" lon="2.65421">
        <ele>720.68</ele>
        <time>2010-05-01T16:04:16Z</time>
      </trkpt>
      <trkpt lat="42.30852" lon="2.65406">
        <ele>719.714</ele>
        <time>2010-05-01T16:04:29Z</time>
      </trkpt>
      <trkpt lat="42.30824" lon="2.65417">
        <ele>719.768</ele>
        <time>2010-05-01T16:04:42Z</time>
      </trkpt>
      <trkpt lat="42.30795" lon="2.65427">
        <ele>718.754</ele>
        <time>2010-05-01T16:04:57Z</time>
      </trkpt>
      <trkpt lat="42.30792" lon="2.65428">
        <ele>718.748</ele>
        <time>2010-05-01T16:04:58Z</time>
      </trkpt>
      <trkpt lat="42.3078" lon="2.6544">
        <ele>718.235</ele>
        <time>2010-05-01T16:05:05Z</time>
      </trkpt>
      <trkpt lat="42.30745" lon="2.65451">
        <ele>717.886</ele>
        <time>2010-05-01T16:05:19Z</time>
      </trkpt>
      <trkpt lat="42.30714" lon="2.6546">
        <ele>716.314</ele>
        <time>2010-05-01T16:05:33Z</time>
      </trkpt>
      <trkpt lat="42.30681" lon="2.65468">
        <ele>714.406</ele>
        <time>2010-05-01T16:05:46Z</time>
      </trkpt>
      <trkpt lat="42.30653" lon="2.65475">
        <ele>713.411</ele>
        <time>2010-05-01T16:05:58Z</time>
      </trkpt>
      <trkpt lat="42.30621" lon="2.65477">
        <ele>712.521</ele>
        <time>2010-05-01T16:06:10Z</time>
      </trkpt>
      <trkpt lat="42.30616" lon="2.65478">
        <ele>712.055</ele>
        <time>2010-05-01T16:06:11Z</time>
      </trkpt>
      <trkpt lat="42.30603" lon="2.65482">
        <ele>711.559</ele>
        <time>2010-05-01T16:06:16Z</time>
      </trkpt>
      <trkpt lat="42.30576" lon="2.65494">
        <ele>709.615</ele>
        <time>2010-05-01T16:06:29Z</time>
      </trkpt>
      <trkpt lat="42.30543" lon="2.65512">
        <ele>707.779</ele>
        <time>2010-05-01T16:06:42Z</time>
      </trkpt>
      <trkpt lat="42.30507" lon="2.65527">
        <ele>705.751</ele>
        <time>2010-05-01T16:06:55Z</time>
      </trkpt>
      <trkpt lat="42.30481" lon="2.65541">
        <ele>704.301</ele>
        <time>2010-05-01T16:07:08Z</time>
      </trkpt>
      <trkpt lat="42.30462" lon="2.6556">
        <ele>702.411</ele>
        <time>2010-05-01T16:07:18Z</time>
      </trkpt>
      <trkpt lat="42.30433" lon="2.65578">
        <ele>700.506</ele>
        <time>2010-05-01T16:07:30Z</time>
      </trkpt>
      <trkpt lat="42.30416" lon="2.65602">
        <ele>699.513</ele>
        <time>2010-05-01T16:07:40Z</time>
      </trkpt>
      <trkpt lat="42.30409" lon="2.65617">
        <ele>699.543</ele>
        <time>2010-05-01T16:07:47Z</time>
      </trkpt>
      <trkpt lat="42.30407" lon="2.65621">
        <ele>700.087</ele>
        <time>2010-05-01T16:07:50Z</time>
      </trkpt>
      <trkpt lat="42.30401" lon="2.65637">
        <ele>701.471</ele>
        <time>2010-05-01T16:07:58Z</time>
      </trkpt>
      <trkpt lat="42.30398" lon="2.65645">
        <ele>702.927</ele>
        <time>2010-05-01T16:08:03Z</time>
      </trkpt>
      <trkpt lat="42.30392" lon="2.65655">
        <ele>703.391</ele>
        <time>2010-05-01T16:08:08Z</time>
      </trkpt>
      <trkpt lat="42.3039" lon="2.65667">
        <ele>704.344</ele>
        <time>2010-05-01T16:08:14Z</time>
      </trkpt>
      <trkpt lat="42.30386" lon="2.65674">
        <ele>705.305</ele>
        <time>2010-05-01T16:08:18Z</time>
      </trkpt>
      <trkpt lat="42.30385" lon="2.65693">
        <ele>706.715</ele>
        <time>2010-05-01T16:08:28Z</time>
      </trkpt>
      <trkpt lat="42.30381" lon="2.65709">
        <ele>707.706</ele>
        <time>2010-05-01T16:08:36Z</time>
      </trkpt>
      <trkpt lat="42.3038" lon="2.65739">
        <ele>710.172</ele>
        <time>2010-05-01T16:08:50Z</time>
      </trkpt>
      <trkpt lat="42.30379" lon="2.65741">
        <ele>710.142</ele>
        <time>2010-05-01T16:08:51Z</time>
      </trkpt>
      <trkpt lat="42.30376" lon="2.65767">
        <ele>712.066</ele>
        <time>2010-05-01T16:09:03Z</time>
      </trkpt>
      <trkpt lat="42.30375" lon="2.6577">
        <ele>712.02</ele>
        <time>2010-05-01T16:09:05Z</time>
      </trkpt>
      <trkpt lat="42.30375" lon="2.6578">
        <ele>713.036</ele>
        <time>2010-05-01T16:09:09Z</time>
      </trkpt>
      <trkpt lat="42.30369" lon="2.6579">
        <ele>713.47</ele>
        <time>2010-05-01T16:09:15Z</time>
      </trkpt>
      <trkpt lat="42.30362" lon="2.65819">
        <ele>715.838</ele>
        <time>2010-05-01T16:09:30Z</time>
      </trkpt>
      <trkpt lat="42.30352" lon="2.65843">
        <ele>717.87</ele>
        <time>2010-05-01T16:09:43Z</time>
      </trkpt>
      <trkpt lat="42.30338" lon="2.65869">
        <ele>719.217</ele>
        <time>2010-05-01T16:09:56Z</time>
      </trkpt>
      <trkpt lat="42.30335" lon="2.6588">
        <ele>719.706</ele>
        <time>2010-05-01T16:10:02Z</time>
      </trkpt>
      <trkpt lat="42.30317" lon="2.65906">
        <ele>720.691</ele>
        <time>2010-05-01T16:10:17Z</time>
      </trkpt>
      <trkpt lat="42.30305" lon="2.6593">
        <ele>721.641</ele>
        <time>2010-05-01T16:10:30Z</time>
      </trkpt>
      <trkpt lat="42.303" lon="2.65946">
        <ele>722.135</ele>
        <time>2010-05-01T16:10:39Z</time>
      </trkpt>
      <trkpt lat="42.30276" lon="2.6597">
        <ele>723.059</ele>
        <time>2010-05-01T16:10:52Z</time>
      </trkpt>
      <trkpt lat="42.3025" lon="2.65984">
        <ele>724.055</ele>
        <time>2010-05-01T16:11:04Z</time>
      </trkpt>
      <trkpt lat="42.30229" lon="2.65998">
        <ele>725.929</ele>
        <time>2010-05-01T16:11:17Z</time>
      </trkpt>
      <trkpt lat="42.30211" lon="2.66014">
        <ele>727.478</ele>
        <time>2010-05-01T16:11:29Z</time>
      </trkpt>
      <trkpt lat="42.30207" lon="2.66016">
        <ele>727.433</ele>
        <time>2010-05-01T16:11:31Z</time>
      </trkpt>
      <trkpt lat="42.302" lon="2.66017">
        <ele>728.326</ele>
        <time>2010-05-01T16:11:36Z</time>
      </trkpt>
      <trkpt lat="42.30182" lon="2.66021">
        <ele>729.306</ele>
        <time>2010-05-01T16:11:49Z</time>
      </trkpt>
      <trkpt lat="42.30155" lon="2.66026">
        <ele>731.235</ele>
        <time>2010-05-01T16:12:06Z</time>
      </trkpt>
      <trkpt lat="42.30134" lon="2.6603">
        <ele>732.285</ele>
        <time>2010-05-01T16:12:18Z</time>
      </trkpt>
      <trkpt lat="42.30111" lon="2.66018">
        <ele>732.279</ele>
        <time>2010-05-01T16:12:29Z</time>
      </trkpt>
      <trkpt lat="42.30089" lon="2.66021">
        <ele>733.623</ele>
        <time>2010-05-01T16:12:40Z</time>
      </trkpt>
      <trkpt lat="42.30063" lon="2.66034">
        <ele>734.619</ele>
        <time>2010-05-01T16:12:53Z</time>
      </trkpt>
      <trkpt lat="42.30038" lon="2.66059">
        <ele>735.583</ele>
        <time>2010-05-01T16:13:06Z</time>
      </trkpt>
      <trkpt lat="42.30019" lon="2.66078">
        <ele>736.513</ele>
        <time>2010-05-01T16:13:18Z</time>
      </trkpt>
      <trkpt lat="42.29991" lon="2.66094">
        <ele>737.543</ele>
        <time>2010-05-01T16:13:31Z</time>
      </trkpt>
      <trkpt lat="42.29967" lon="2.66099">
        <ele>738.407</ele>
        <time>2010-05-01T16:13:44Z</time>
      </trkpt>
      <trkpt lat="42.29942" lon="2.66117">
        <ele>739.406</ele>
        <time>2010-05-01T16:13:56Z</time>
      </trkpt>
      <trkpt lat="42.29925" lon="2.66139">
        <ele>739.979</ele>
        <time>2010-05-01T16:14:08Z</time>
      </trkpt>
      <trkpt lat="42.29926" lon="2.66145">
        <ele>740.439</ele>
        <time>2010-05-01T16:14:10Z</time>
      </trkpt>
      <trkpt lat="42.29922" lon="2.6616">
        <ele>740.853</ele>
        <time>2010-05-01T16:14:17Z</time>
      </trkpt>
      <trkpt lat="42.29899" lon="2.66186">
        <ele>741.867</ele>
        <time>2010-05-01T16:14:31Z</time>
      </trkpt>
      <trkpt lat="42.29875" lon="2.66208">
        <ele>743.243</ele>
        <time>2010-05-01T16:14:45Z</time>
      </trkpt>
      <trkpt lat="42.29848" lon="2.6622">
        <ele>744.247</ele>
        <time>2010-05-01T16:14:58Z</time>
      </trkpt>
      <trkpt lat="42.29819" lon="2.66227">
        <ele>745.288</ele>
        <time>2010-05-01T16:15:12Z</time>
      </trkpt>
      <trkpt lat="42.29794" lon="2.66237">
        <ele>745.624</ele>
        <time>2010-05-01T16:15:25Z</time>
      </trkpt>
      <trkpt lat="42.29766" lon="2.66254">
        <ele>747.126</ele>
        <time>2010-05-01T16:15:38Z</time>
      </trkpt>
      <trkpt lat="42.29744" lon="2.66269">
        <ele>748.006</ele>
        <time>2010-05-01T16:15:50Z</time>
      </trkpt>
      <trkpt lat="42.29719" lon="2.66293">
        <ele>749.056</ele>
        <time>2010-05-01T16:16:06Z</time>
      </trkpt>
      <trkpt lat="42.29697" lon="2.66324">
        <ele>750.426</ele>
        <time>2010-05-01T16:16:21Z</time>
      </trkpt>
      <trkpt lat="42.29678" lon="2.66354">
        <ele>751.97</ele>
        <time>2010-05-01T16:16:36Z</time>
      </trkpt>
      <trkpt lat="42.29656" lon="2.66367">
        <ele>752.464</ele>
        <time>2010-05-01T16:16:47Z</time>
      </trkpt>
      <trkpt lat="42.29635" lon="2.66387">
        <ele>752.86</ele>
        <time>2010-05-01T16:16:59Z</time>
      </trkpt>
      <trkpt lat="42.29614" lon="2.66407">
        <ele>752.874</ele>
        <time>2010-05-01T16:17:11Z</time>
      </trkpt>
      <trkpt lat="42.29599" lon="2.66441">
        <ele>752.875</ele>
        <time>2010-05-01T16:17:25Z</time>
      </trkpt>
      <trkpt lat="42.29593" lon="2.66476">
        <ele>752.428</ele>
        <time>2010-05-01T16:17:36Z</time>
      </trkpt>
      <trkpt lat="42.29588" lon="2.66516">
        <ele>753.32</ele>
        <time>2010-05-01T16:17:50Z</time>
      </trkpt>
      <trkpt lat="42.29582" lon="2.66548">
        <ele>754.806</ele>
        <time>2010-05-01T16:18:02Z</time>
      </trkpt>
      <trkpt lat="42.29577" lon="2.66576">
        <ele>755.715</ele>
        <time>2010-05-01T16:18:15Z</time>
      </trkpt>
      <trkpt lat="42.29572" lon="2.66604">
        <ele>757.245</ele>
        <time>2010-05-01T16:18:28Z</time>
      </trkpt>
      <trkpt lat="42.29564" lon="2.66635">
        <ele>759.149</ele>
        <time>2010-05-01T16:18:44Z</time>
      </trkpt>
      <trkpt lat="42.29563" lon="2.66637">
        <ele>759.153</ele>
        <time>2010-05-01T16:18:45Z</time>
      </trkpt>
      <trkpt lat="42.29562" lon="2.66644">
        <ele>759.649</ele>
        <time>2010-05-01T16:18:49Z</time>
      </trkpt>
      <trkpt lat="42.29543" lon="2.6667">
        <ele>762.053</ele>
        <time>2010-05-01T16:19:04Z</time>
      </trkpt>
      <trkpt lat="42.2953" lon="2.66687">
        <ele>764.469</ele>
        <time>2010-05-01T16:19:18Z</time>
      </trkpt>
      <trkpt lat="42.2952" lon="2.66704">
        <ele>765.804</ele>
        <time>2010-05-01T16:19:30Z</time>
      </trkpt>
      <trkpt lat="42.29508" lon="2.66722">
        <ele>767.324</ele>
        <time>2010-05-01T16:19:42Z</time>
      </trkpt>
      <trkpt lat="42.29494" lon="2.66738">
        <ele>767.806</ele>
        <time>2010-05-01T16:19:55Z</time>
      </trkpt>
      <trkpt lat="42.29486" lon="2.66744">
        <ele>768.244</ele>
        <time>2010-05-01T16:20:02Z</time>
      </trkpt>
      <trkpt lat="42.29464" lon="2.66757">
        <ele>768.734</ele>
        <time>2010-05-01T16:20:16Z</time>
      </trkpt>
      <trkpt lat="42.29447" lon="2.66767">
        <ele>769.268</ele>
        <time>2010-05-01T16:20:28Z</time>
      </trkpt>
      <trkpt lat="42.29438" lon="2.66783">
        <ele>771.162</ele>
        <time>2010-05-01T16:20:38Z</time>
      </trkpt>
      <trkpt lat="42.29442" lon="2.66802">
        <ele>773.028</ele>
        <time>2010-05-01T16:20:49Z</time>
      </trkpt>
      <trkpt lat="42.2945" lon="2.66833">
        <ele>775.482</ele>
        <time>2010-05-01T16:21:04Z</time>
      </trkpt>
      <trkpt lat="42.29451" lon="2.66839">
        <ele>775.946</ele>
        <time>2010-05-01T16:21:08Z</time>
      </trkpt>
      <trkpt lat="42.29461" lon="2.66865">
        <ele>778.388</ele>
        <time>2010-05-01T16:21:23Z</time>
      </trkpt>
      <trkpt lat="42.29466" lon="2.66894">
        <ele>780.216</ele>
        <time>2010-05-01T16:21:37Z</time>
      </trkpt>
      <trkpt lat="42.29469" lon="2.66903">
        <ele>780.706</ele>
        <time>2010-05-01T16:21:42Z</time>
      </trkpt>
      <trkpt lat="42.29473" lon="2.66919">
        <ele>782.212</ele>
        <time>2010-05-01T16:21:52Z</time>
      </trkpt>
      <trkpt lat="42.29477" lon="2.66929">
        <ele>783.162</ele>
        <time>2010-05-01T16:21:57Z</time>
      </trkpt>
      <trkpt lat="42.29481" lon="2.66941">
        <ele>784.136</ele>
        <time>2010-05-01T16:22:04Z</time>
      </trkpt>
      <trkpt lat="42.29485" lon="2.66954">
        <ele>785.19</ele>
        <time>2010-05-01T16:22:11Z</time>
      </trkpt>
      <trkpt lat="42.29491" lon="2.66965">
        <ele>786.026</ele>
        <time>2010-05-01T16:22:18Z</time>
      </trkpt>
      <trkpt lat="42.29494" lon="2.66972">
        <ele>786.56</ele>
        <time>2010-05-01T16:22:22Z</time>
      </trkpt>
      <trkpt lat="42.295" lon="2.66998">
        <ele>787.925</ele>
        <time>2010-05-01T16:22:36Z</time>
      </trkpt>
      <trkpt lat="42.29499" lon="2.66999">
        <ele>787.926</ele>
        <time>2010-05-01T16:22:37Z</time>
      </trkpt>
      <trkpt lat="42.295" lon="2.67008">
        <ele>788.408</ele>
        <time>2010-05-01T16:22:41Z</time>
      </trkpt>
      <trkpt lat="42.29495" lon="2.67037">
        <ele>788.906</ele>
        <time>2010-05-01T16:22:54Z</time>
      </trkpt>
      <trkpt lat="42.29495" lon="2.67039">
        <ele>788.95</ele>
        <time>2010-05-01T16:22:55Z</time>
      </trkpt>
      <trkpt lat="42.29495" lon="2.6705">
        <ele>788.98</ele>
        <time>2010-05-01T16:23:00Z</time>
      </trkpt>
      <trkpt lat="42.29491" lon="2.67059">
        <ele>788.914</ele>
        <time>2010-05-01T16:23:04Z</time>
      </trkpt>
      <trkpt lat="42.295" lon="2.67084">
        <ele>789.958</ele>
        <time>2010-05-01T16:23:18Z</time>
      </trkpt>
      <trkpt lat="42.29508" lon="2.67118">
        <ele>791.384</ele>
        <time>2010-05-01T16:23:35Z</time>
      </trkpt>
      <trkpt lat="42.29513" lon="2.67145">
        <ele>793.248</ele>
        <time>2010-05-01T16:23:49Z</time>
      </trkpt>
      <trkpt lat="42.29518" lon="2.67174">
        <ele>793.719</ele>
        <time>2010-05-01T16:24:03Z</time>
      </trkpt>
      <trkpt lat="42.29517" lon="2.6718">
        <ele>793.709</ele>
        <time>2010-05-01T16:24:06Z</time>
      </trkpt>
      <trkpt lat="42.29525" lon="2.67211">
        <ele>794.719</ele>
        <time>2010-05-01T16:24:21Z</time>
      </trkpt>
      <trkpt lat="42.29524" lon="2.67232">
        <ele>795.606</ele>
        <time>2010-05-01T16:24:32Z</time>
      </trkpt>
      <trkpt lat="42.29523" lon="2.67264">
        <ele>795.659</ele>
        <time>2010-05-01T16:24:48Z</time>
      </trkpt>
      <trkpt lat="42.29517" lon="2.67292">
        <ele>796.629</ele>
        <time>2010-05-01T16:25:01Z</time>
      </trkpt>
      <trkpt lat="42.29516" lon="2.67304">
        <ele>796.653</ele>
        <time>2010-05-01T16:25:07Z</time>
      </trkpt>
      <trkpt lat="42.29512" lon="2.67311">
        <ele>796.697</ele>
        <time>2010-05-01T16:25:11Z</time>
      </trkpt>
      <trkpt lat="42.29503" lon="2.67343">
        <ele>797.653</ele>
        <time>2010-05-01T16:25:26Z</time>
      </trkpt>
      <trkpt lat="42.29497" lon="2.67365">
        <ele>797.647</ele>
        <time>2010-05-01T16:25:39Z</time>
      </trkpt>
      <trkpt lat="42.2949" lon="2.67383">
        <ele>798.063</ele>
        <time>2010-05-01T16:25:48Z</time>
      </trkpt>
      <trkpt lat="42.29489" lon="2.67394">
        <ele>798.544</ele>
        <time>2010-05-01T16:25:54Z</time>
      </trkpt>
      <trkpt lat="42.29488" lon="2.67399">
        <ele>798.518</ele>
        <time>2010-05-01T16:25:57Z</time>
      </trkpt>
      <trkpt lat="42.29481" lon="2.67432">
        <ele>797.606</ele>
        <time>2010-05-01T16:26:12Z</time>
      </trkpt>
      <trkpt lat="42.29478" lon="2.67449">
        <ele>797.184</ele>
        <time>2010-05-01T16:26:18Z</time>
      </trkpt>
      <trkpt lat="42.29478" lon="2.67475">
        <ele>797.194</ele>
        <time>2010-05-01T16:26:27Z</time>
      </trkpt>
      <trkpt lat="42.29486" lon="2.67525">
        <ele>797.668</ele>
        <time>2010-05-01T16:26:43Z</time>
      </trkpt>
      <trkpt lat="42.29483" lon="2.67546">
        <ele>799.052</ele>
        <time>2010-05-01T16:26:52Z</time>
      </trkpt>
      <trkpt lat="42.29482" lon="2.67568">
        <ele>799.598</ele>
        <time>2010-05-01T16:27:01Z</time>
      </trkpt>
      <trkpt lat="42.29483" lon="2.67585">
        <ele>800.412</ele>
        <time>2010-05-01T16:27:10Z</time>
      </trkpt>
      <trkpt lat="42.29486" lon="2.67631">
        <ele>802.427</ele>
        <time>2010-05-01T16:27:25Z</time>
      </trkpt>
      <trkpt lat="42.29489" lon="2.67655">
        <ele>803.368</ele>
        <time>2010-05-01T16:27:36Z</time>
      </trkpt>
      <trkpt lat="42.29494" lon="2.67683">
        <ele>804.314</ele>
        <time>2010-05-01T16:27:50Z</time>
      </trkpt>
      <trkpt lat="42.295" lon="2.67712">
        <ele>804.806</ele>
        <time>2010-05-01T16:28:03Z</time>
      </trkpt>
      <trkpt lat="42.29506" lon="2.67743">
        <ele>804.82</ele>
        <time>2010-05-01T16:28:16Z</time>
      </trkpt>
      <trkpt lat="42.29513" lon="2.6778">
        <ele>804.36</ele>
        <time>2010-05-01T16:28:28Z</time>
      </trkpt>
      <trkpt lat="42.29534" lon="2.67823">
        <ele>803.394</ele>
        <time>2010-05-01T16:28:44Z</time>
      </trkpt>
      <trkpt lat="42.29554" lon="2.67857">
        <ele>800.988</ele>
        <time>2010-05-01T16:28:58Z</time>
      </trkpt>
      <trkpt lat="42.29575" lon="2.6789">
        <ele>799.074</ele>
        <time>2010-05-01T16:29:12Z</time>
      </trkpt>
      <trkpt lat="42.29595" lon="2.67908">
        <ele>799.538</ele>
        <time>2010-05-01T16:29:25Z</time>
      </trkpt>
      <trkpt lat="42.2962" lon="2.67933">
        <ele>797.613</ele>
        <time>2010-05-01T16:29:38Z</time>
      </trkpt>
      <trkpt lat="42.29631" lon="2.67958">
        <ele>794.243</ele>
        <time>2010-05-01T16:29:48Z</time>
      </trkpt>
      <trkpt lat="42.29635" lon="2.67994">
        <ele>792.707</ele>
        <time>2010-05-01T16:30:01Z</time>
      </trkpt>
      <trkpt lat="42.2964" lon="2.68019">
        <ele>793.706</ele>
        <time>2010-05-01T16:30:14Z</time>
      </trkpt>
      <trkpt lat="42.29648" lon="2.68033">
        <ele>795.129</ele>
        <time>2010-05-01T16:30:23Z</time>
      </trkpt>
      <trkpt lat="42.29665" lon="2.68049">
        <ele>795.649</ele>
        <time>2010-05-01T16:30:37Z</time>
      </trkpt>
      <trkpt lat="42.29669" lon="2.68058">
        <ele>796.183</ele>
        <time>2010-05-01T16:30:41Z</time>
      </trkpt>
      <trkpt lat="42.2968" lon="2.6808">
        <ele>796.137</ele>
        <time>2010-05-01T16:30:55Z</time>
      </trkpt>
      <trkpt lat="42.29681" lon="2.68083">
        <ele>796.673</ele>
        <time>2010-05-01T16:30:57Z</time>
      </trkpt>
      <trkpt lat="42.29683" lon="2.6809">
        <ele>796.137</ele>
        <time>2010-05-01T16:31:01Z</time>
      </trkpt>
      <trkpt lat="42.29694" lon="2.68119">
        <ele>796.657</ele>
        <time>2010-05-01T16:31:15Z</time>
      </trkpt>
      <trkpt lat="42.29704" lon="2.68153">
        <ele>797.1</ele>
        <time>2010-05-01T16:31:28Z</time>
      </trkpt>
      <trkpt lat="42.29712" lon="2.6818">
        <ele>797.12</ele>
        <time>2010-05-01T16:31:40Z</time>
      </trkpt>
      <trkpt lat="42.29712" lon="2.68184">
        <ele>797.606</ele>
        <time>2010-05-01T16:31:42Z</time>
      </trkpt>
      <trkpt lat="42.29713" lon="2.68188">
        <ele>797.653</ele>
        <time>2010-05-01T16:31:44Z</time>
      </trkpt>
      <trkpt lat="42.29712" lon="2.68219">
        <ele>799.093</ele>
        <time>2010-05-01T16:31:57Z</time>
      </trkpt>
      <trkpt lat="42.2971" lon="2.68222">
        <ele>799.087</ele>
        <time>2010-05-01T16:31:59Z</time>
      </trkpt>
      <trkpt lat="42.29724" lon="2.68265">
        <ele>799.041</ele>
        <time>2010-05-01T16:32:12Z</time>
      </trkpt>
      <trkpt lat="42.29722" lon="2.6831">
        <ele>799.527</ele>
        <time>2010-05-01T16:32:25Z</time>
      </trkpt>
      <trkpt lat="42.29718" lon="2.68355">
        <ele>800.051</ele>
        <time>2010-05-01T16:32:39Z</time>
      </trkpt>
      <trkpt lat="42.29714" lon="2.68363">
        <ele>800.426</ele>
        <time>2010-05-01T16:32:44Z</time>
      </trkpt>
      <trkpt lat="42.29698" lon="2.68386">
        <ele>801.447</ele>
        <time>2010-05-01T16:32:57Z</time>
      </trkpt>
      <trkpt lat="42.29682" lon="2.68409">
        <ele>801.911</ele>
        <time>2010-05-01T16:33:10Z</time>
      </trkpt>
      <trkpt lat="42.29674" lon="2.68429">
        <ele>802.806</ele>
        <time>2010-05-01T16:33:22Z</time>
      </trkpt>
      <trkpt lat="42.29665" lon="2.68452">
        <ele>803.37</ele>
        <time>2010-05-01T16:33:35Z</time>
      </trkpt>
      <trkpt lat="42.29661" lon="2.68469">
        <ele>803.33</ele>
        <time>2010-05-01T16:33:44Z</time>
      </trkpt>
      <trkpt lat="42.29658" lon="2.68478">
        <ele>803.874</ele>
        <time>2010-05-01T16:33:49Z</time>
      </trkpt>
      <trkpt lat="42.29654" lon="2.68487">
        <ele>803.328</ele>
        <time>2010-05-01T16:33:54Z</time>
      </trkpt>
      <trkpt lat="42.29648" lon="2.68519">
        <ele>803.394</ele>
        <time>2010-05-01T16:34:09Z</time>
      </trkpt>
      <trkpt lat="42.29642" lon="2.68542">
        <ele>803.868</ele>
        <time>2010-05-01T16:34:21Z</time>
      </trkpt>
      <trkpt lat="42.29638" lon="2.68557">
        <ele>804.845</ele>
        <time>2010-05-01T16:34:29Z</time>
      </trkpt>
      <trkpt lat="42.29633" lon="2.6857">
        <ele>804.347</ele>
        <time>2010-05-01T16:34:36Z</time>
      </trkpt>
      <trkpt lat="42.29624" lon="2.68595">
        <ele>805.211</ele>
        <time>2010-05-01T16:34:48Z</time>
      </trkpt>
      <trkpt lat="42.2962" lon="2.68627">
        <ele>806.206</ele>
        <time>2010-05-01T16:35:03Z</time>
      </trkpt>
      <trkpt lat="42.29614" lon="2.68652">
        <ele>806.782</ele>
        <time>2010-05-01T16:35:15Z</time>
      </trkpt>
      <trkpt lat="42.29606" lon="2.68672">
        <ele>807.692</ele>
        <time>2010-05-01T16:35:27Z</time>
      </trkpt>
      <trkpt lat="42.29603" lon="2.6869">
        <ele>808.196</ele>
        <time>2010-05-01T16:35:36Z</time>
      </trkpt>
      <trkpt lat="42.29603" lon="2.68698">
        <ele>808.13</ele>
        <time>2010-05-01T16:35:40Z</time>
      </trkpt>
      <trkpt lat="42.29597" lon="2.68719">
        <ele>808.626</ele>
        <time>2010-05-01T16:35:52Z</time>
      </trkpt>
      <trkpt lat="42.29594" lon="2.68738">
        <ele>808.61</ele>
        <time>2010-05-01T16:36:01Z</time>
      </trkpt>
      <trkpt lat="42.29576" lon="2.68771">
        <ele>808.115</ele>
        <time>2010-05-01T16:36:16Z</time>
      </trkpt>
      <trkpt lat="42.29559" lon="2.68799">
        <ele>806.765</ele>
        <time>2010-05-01T16:36:28Z</time>
      </trkpt>
      <trkpt lat="42.29541" lon="2.68832">
        <ele>803.811</ele>
        <time>2010-05-01T16:36:38Z</time>
      </trkpt>
      <trkpt lat="42.29522" lon="2.68859">
        <ele>803.806</ele>
        <time>2010-05-01T16:36:49Z</time>
      </trkpt>
      <trkpt lat="42.29515" lon="2.6889">
        <ele>804.869</ele>
        <time>2010-05-01T16:36:58Z</time>
      </trkpt>
      <trkpt lat="42.29501" lon="2.68912">
        <ele>804.349</ele>
        <time>2010-05-01T16:37:07Z</time>
      </trkpt>
      <trkpt lat="42.29477" lon="2.6894">
        <ele>805.773</ele>
        <time>2010-05-01T16:37:22Z</time>
      </trkpt>
      <trkpt lat="42.29463" lon="2.68973">
        <ele>807.277</ele>
        <time>2010-05-01T16:37:34Z</time>
      </trkpt>
      <trkpt lat="42.29449" lon="2.69014">
        <ele>807.293</ele>
        <time>2010-05-01T16:37:48Z</time>
      </trkpt>
      <trkpt lat="42.2944" lon="2.69048">
        <ele>807.217</ele>
        <time>2010-05-01T16:37:59Z</time>
      </trkpt>
      <trkpt lat="42.2943" lon="2.69086">
        <ele>806.269</ele>
        <time>2010-05-01T16:38:11Z</time>
      </trkpt>
      <trkpt lat="42.29417" lon="2.69105">
        <ele>805.204</ele>
        <time>2010-05-01T16:38:22Z</time>
      </trkpt>
      <trkpt lat="42.29412" lon="2.69114">
        <ele>804.824</ele>
        <time>2010-05-01T16:38:42Z</time>
      </trkpt>
      <trkpt lat="42.29402" lon="2.69115">
        <ele>804.306</ele>
        <time>2010-05-01T16:39:03Z</time>
      </trkpt>
      <trkpt lat="42.29402" lon="2.69119">
        <ele>804.354</ele>
        <time>2010-05-01T16:40:17Z</time>
      </trkpt>
      <trkpt lat="42.29402" lon="2.69118">
        <ele>803.334</ele>
        <time>2010-05-01T16:44:37Z</time>
      </trkpt>
      <trkpt lat="42.29401" lon="2.69122">
        <ele>802.888</ele>
        <time>2010-05-01T16:48:50Z</time>
      </trkpt>
      <trkpt lat="42.29379" lon="2.6915">
        <ele>801.992</ele>
        <time>2010-05-01T16:49:03Z</time>
      </trkpt>
      <trkpt lat="42.29366" lon="2.69169">
        <ele>800.918</ele>
        <time>2010-05-01T16:49:10Z</time>
      </trkpt>
      <trkpt lat="42.29348" lon="2.69188">
        <ele>797.682</ele>
        <time>2010-05-01T16:49:19Z</time>
      </trkpt>
      <trkpt lat="42.2933" lon="2.69204">
        <ele>794.711</ele>
        <time>2010-05-01T16:49:29Z</time>
      </trkpt>
      <trkpt lat="42.29338" lon="2.69234">
        <ele>791.321</ele>
        <time>2010-05-01T16:49:39Z</time>
      </trkpt>
      <trkpt lat="42.29345" lon="2.69251">
        <ele>789.403</ele>
        <time>2010-05-01T16:49:44Z</time>
      </trkpt>
      <trkpt lat="42.29344" lon="2.6926">
        <ele>788.406</ele>
        <time>2010-05-01T16:49:46Z</time>
      </trkpt>
      <trkpt lat="42.29333" lon="2.69272">
        <ele>787.569</ele>
        <time>2010-05-01T16:49:51Z</time>
      </trkpt>
      <trkpt lat="42.29302" lon="2.69281">
        <ele>785.159</ele>
        <time>2010-05-01T16:50:04Z</time>
      </trkpt>
      <trkpt lat="42.29294" lon="2.69285">
        <ele>785.173</ele>
        <time>2010-05-01T16:50:08Z</time>
      </trkpt>
      <trkpt lat="42.29284" lon="2.69294">
        <ele>784.637</ele>
        <time>2010-05-01T16:50:13Z</time>
      </trkpt>
      <trkpt lat="42.2925" lon="2.69314">
        <ele>785.123</ele>
        <time>2010-05-01T16:50:25Z</time>
      </trkpt>
      <trkpt lat="42.29222" lon="2.6934">
        <ele>784.677</ele>
        <time>2010-05-01T16:50:39Z</time>
      </trkpt>
      <trkpt lat="42.29201" lon="2.69362">
        <ele>784.111</ele>
        <time>2010-05-01T16:50:50Z</time>
      </trkpt>
      <trkpt lat="42.2918" lon="2.69393">
        <ele>782.721</ele>
        <time>2010-05-01T16:51:03Z</time>
      </trkpt>
      <trkpt lat="42.2917" lon="2.69414">
        <ele>781.703</ele>
        <time>2010-05-01T16:51:11Z</time>
      </trkpt>
      <trkpt lat="42.29162" lon="2.69423">
        <ele>780.706</ele>
        <time>2010-05-01T16:51:19Z</time>
      </trkpt>
      <trkpt lat="42.29135" lon="2.69431">
        <ele>779.849</ele>
        <time>2010-05-01T16:51:32Z</time>
      </trkpt>
      <trkpt lat="42.29104" lon="2.69432">
        <ele>780.279</ele>
        <time>2010-05-01T16:51:44Z</time>
      </trkpt>
      <trkpt lat="42.29076" lon="2.69436">
        <ele>778.853</ele>
        <time>2010-05-01T16:51:55Z</time>
      </trkpt>
      <trkpt lat="42.29048" lon="2.69431">
        <ele>775.497</ele>
        <time>2010-05-01T16:52:06Z</time>
      </trkpt>
      <trkpt lat="42.29023" lon="2.69415">
        <ele>772.643</ele>
        <time>2010-05-01T16:52:18Z</time>
      </trkpt>
      <trkpt lat="42.28994" lon="2.69391">
        <ele>771.657</ele>
        <time>2010-05-01T16:52:29Z</time>
      </trkpt>
      <trkpt lat="42.28969" lon="2.69356">
        <ele>769.216</ele>
        <time>2010-05-01T16:52:42Z</time>
      </trkpt>
      <trkpt lat="42.28935" lon="2.69334">
        <ele>765.376</ele>
        <time>2010-05-01T16:52:56Z</time>
      </trkpt>
      <trkpt lat="42.28913" lon="2.69325">
        <ele>762.013</ele>
        <time>2010-05-01T16:53:04Z</time>
      </trkpt>
      <trkpt lat="42.289" lon="2.6929">
        <ele>759.106</ele>
        <time>2010-05-01T16:53:14Z</time>
      </trkpt>
      <trkpt lat="42.28874" lon="2.6926">
        <ele>755.799</ele>
        <time>2010-05-01T16:53:26Z</time>
      </trkpt>
      <trkpt lat="42.28852" lon="2.69238">
        <ele>752.819</ele>
        <time>2010-05-01T16:53:37Z</time>
      </trkpt>
      <trkpt lat="42.28824" lon="2.69222">
        <ele>750.933</ele>
        <time>2010-05-01T16:53:48Z</time>
      </trkpt>
      <trkpt lat="42.28804" lon="2.69191">
        <ele>750.997</ele>
        <time>2010-05-01T16:54:00Z</time>
      </trkpt>
      <trkpt lat="42.28785" lon="2.69164">
        <ele>750.983</ele>
        <time>2010-05-01T16:54:12Z</time>
      </trkpt>
      <trkpt lat="42.28778" lon="2.69153">
        <ele>751.477</ele>
        <time>2010-05-01T16:54:17Z</time>
      </trkpt>
      <trkpt lat="42.28761" lon="2.69136">
        <ele>753.317</ele>
        <time>2010-05-01T16:54:31Z</time>
      </trkpt>
      <trkpt lat="42.2874" lon="2.6913">
        <ele>754.887</ele>
        <time>2010-05-01T16:54:45Z</time>
      </trkpt>
      <trkpt lat="42.28719" lon="2.69128">
        <ele>755.715</ele>
        <time>2010-05-01T16:54:59Z</time>
      </trkpt>
      <trkpt lat="42.28689" lon="2.69126">
        <ele>755.706</ele>
        <time>2010-05-01T16:55:13Z</time>
      </trkpt>
      <trkpt lat="42.28657" lon="2.69139">
        <ele>756.229</ele>
        <time>2010-05-01T16:55:26Z</time>
      </trkpt>
      <trkpt lat="42.28629" lon="2.69149">
        <ele>755.319</ele>
        <time>2010-05-01T16:55:38Z</time>
      </trkpt>
      <trkpt lat="42.28601" lon="2.6916">
        <ele>754.873</ele>
        <time>2010-05-01T16:55:49Z</time>
      </trkpt>
      <trkpt lat="42.28574" lon="2.69173">
        <ele>752.847</ele>
        <time>2010-05-01T16:56:00Z</time>
      </trkpt>
      <trkpt lat="42.28545" lon="2.69196">
        <ele>750.993</ele>
        <time>2010-05-01T16:56:13Z</time>
      </trkpt>
      <trkpt lat="42.28524" lon="2.69213">
        <ele>750.467</ele>
        <time>2010-05-01T16:56:24Z</time>
      </trkpt>
      <trkpt lat="42.28501" lon="2.69227">
        <ele>749.527</ele>
        <time>2010-05-01T16:56:33Z</time>
      </trkpt>
      <trkpt lat="42.28472" lon="2.69236">
        <ele>748.568</ele>
        <time>2010-05-01T16:56:45Z</time>
      </trkpt>
      <trkpt lat="42.28447" lon="2.69231">
        <ele>748.514</ele>
        <time>2010-05-01T16:56:56Z</time>
      </trkpt>
      <trkpt lat="42.2842" lon="2.69229">
        <ele>747.606</ele>
        <time>2010-05-01T16:57:08Z</time>
      </trkpt>
      <trkpt lat="42.2838" lon="2.69224">
        <ele>747.61</ele>
        <time>2010-05-01T16:57:21Z</time>
      </trkpt>
      <trkpt lat="42.28347" lon="2.69225">
        <ele>747.64</ele>
        <time>2010-05-01T16:57:34Z</time>
      </trkpt>
      <trkpt lat="42.28316" lon="2.69227">
        <ele>746.114</ele>
        <time>2010-05-01T16:57:46Z</time>
      </trkpt>
      <trkpt lat="42.28288" lon="2.69229">
        <ele>744.228</ele>
        <time>2010-05-01T16:57:56Z</time>
      </trkpt>
      <trkpt lat="42.28263" lon="2.69213">
        <ele>741.374</ele>
        <time>2010-05-01T16:58:07Z</time>
      </trkpt>
      <trkpt lat="42.28236" lon="2.69214">
        <ele>738.488</ele>
        <time>2010-05-01T16:58:19Z</time>
      </trkpt>
      <trkpt lat="42.28213" lon="2.69214">
        <ele>738.445</ele>
        <time>2010-05-01T16:58:29Z</time>
      </trkpt>
      <trkpt lat="42.28198" lon="2.69235">
        <ele>738.447</ele>
        <time>2010-05-01T16:58:39Z</time>
      </trkpt>
      <trkpt lat="42.28197" lon="2.69236">
        <ele>738.411</ele>
        <time>2010-05-01T16:58:40Z</time>
      </trkpt>
      <trkpt lat="42.28206" lon="2.69258">
        <ele>738.906</ele>
        <time>2010-05-01T16:58:52Z</time>
      </trkpt>
      <trkpt lat="42.28212" lon="2.69266">
        <ele>739.932</ele>
        <time>2010-05-01T16:58:58Z</time>
      </trkpt>
      <trkpt lat="42.28211" lon="2.69286">
        <ele>741.872</ele>
        <time>2010-05-01T16:59:10Z</time>
      </trkpt>
      <trkpt lat="42.28211" lon="2.69304">
        <ele>744.776</ele>
        <time>2010-05-01T16:59:24Z</time>
      </trkpt>
      <trkpt lat="42.28209" lon="2.69329">
        <ele>746.64</ele>
        <time>2010-05-01T16:59:38Z</time>
      </trkpt>
      <trkpt lat="42.28205" lon="2.69344">
        <ele>748.536</ele>
        <time>2010-05-01T16:59:49Z</time>
      </trkpt>
      <trkpt lat="42.28198" lon="2.69366">
        <ele>748.51</ele>
        <time>2010-05-01T17:00:01Z</time>
      </trkpt>
      <trkpt lat="42.28194" lon="2.69368">
        <ele>749.065</ele>
        <time>2010-05-01T17:00:04Z</time>
      </trkpt>
      <trkpt lat="42.28182" lon="2.69375">
        <ele>749.568</ele>
        <time>2010-05-01T17:00:15Z</time>
      </trkpt>
      <trkpt lat="42.28143" lon="2.69368">
        <ele>748.014</ele>
        <time>2010-05-01T17:00:33Z</time>
      </trkpt>
      <trkpt lat="42.28133" lon="2.69368">
        <ele>748.006</ele>
        <time>2010-05-01T17:00:37Z</time>
      </trkpt>
      <trkpt lat="42.28122" lon="2.69373">
        <ele>749.034</ele>
        <time>2010-05-01T17:00:49Z</time>
      </trkpt>
      <trkpt lat="42.28118" lon="2.6938">
        <ele>749.514</ele>
        <time>2010-05-01T17:00:55Z</time>
      </trkpt>
      <trkpt lat="42.28117" lon="2.69391">
        <ele>750.038</ele>
        <time>2010-05-01T17:01:02Z</time>
      </trkpt>
      <trkpt lat="42.2812" lon="2.69399">
        <ele>750.092</ele>
        <time>2010-05-01T17:01:06Z</time>
      </trkpt>
      <trkpt lat="42.28131" lon="2.6942">
        <ele>750.498</ele>
        <time>2010-05-01T17:01:16Z</time>
      </trkpt>
      <trkpt lat="42.28127" lon="2.69436">
        <ele>751.922</ele>
        <time>2010-05-01T17:01:24Z</time>
      </trkpt>
      <trkpt lat="42.28127" lon="2.69467">
        <ele>753.336</ele>
        <time>2010-05-01T17:01:39Z</time>
      </trkpt>
      <trkpt lat="42.28129" lon="2.69482">
        <ele>753.317</ele>
        <time>2010-05-01T17:01:48Z</time>
      </trkpt>
      <trkpt lat="42.28131" lon="2.6952">
        <ele>754.318</ele>
        <time>2010-05-01T17:02:04Z</time>
      </trkpt>
      <trkpt lat="42.2813" lon="2.6953">
        <ele>754.806</ele>
        <time>2010-05-01T17:02:09Z</time>
      </trkpt>
      <trkpt lat="42.28128" lon="2.69539">
        <ele>755.331</ele>
        <time>2010-05-01T17:02:13Z</time>
      </trkpt>
      <trkpt lat="42.28124" lon="2.69547">
        <ele>755.711</ele>
        <time>2010-05-01T17:02:18Z</time>
      </trkpt>
      <trkpt lat="42.28123" lon="2.69562">
        <ele>756.275</ele>
        <time>2010-05-01T17:02:26Z</time>
      </trkpt>
      <trkpt lat="42.28122" lon="2.69581">
        <ele>757.799</ele>
        <time>2010-05-01T17:02:37Z</time>
      </trkpt>
      <trkpt lat="42.28123" lon="2.69585">
        <ele>757.755</ele>
        <time>2010-05-01T17:02:39Z</time>
      </trkpt>
      <trkpt lat="42.28124" lon="2.69612">
        <ele>760.569</ele>
        <time>2010-05-01T17:02:52Z</time>
      </trkpt>
      <trkpt lat="42.28128" lon="2.69619">
        <ele>762.078</ele>
        <time>2010-05-01T17:02:57Z</time>
      </trkpt>
      <trkpt lat="42.28135" lon="2.69631">
        <ele>762.933</ele>
        <time>2010-05-01T17:03:05Z</time>
      </trkpt>
      <trkpt lat="42.28132" lon="2.6964">
        <ele>763.926</ele>
        <time>2010-05-01T17:03:09Z</time>
      </trkpt>
      <trkpt lat="42.28132" lon="2.69647">
        <ele>764.906</ele>
        <time>2010-05-01T17:03:14Z</time>
      </trkpt>
      <trkpt lat="42.28133" lon="2.69652">
        <ele>765.845</ele>
        <time>2010-05-01T17:03:18Z</time>
      </trkpt>
      <trkpt lat="42.28132" lon="2.69665">
        <ele>766.855</ele>
        <time>2010-05-01T17:03:26Z</time>
      </trkpt>
      <trkpt lat="42.28132" lon="2.69669">
        <ele>766.879</ele>
        <time>2010-05-01T17:03:28Z</time>
      </trkpt>
      <trkpt lat="42.28125" lon="2.69693">
        <ele>767.823</ele>
        <time>2010-05-01T17:03:41Z</time>
      </trkpt>
      <trkpt lat="42.28123" lon="2.69697">
        <ele>767.319</ele>
        <time>2010-05-01T17:03:44Z</time>
      </trkpt>
      <trkpt lat="42.28109" lon="2.69728">
        <ele>768.213</ele>
        <time>2010-05-01T17:03:59Z</time>
      </trkpt>
      <trkpt lat="42.28093" lon="2.69753">
        <ele>768.711</ele>
        <time>2010-05-01T17:04:12Z</time>
      </trkpt>
      <trkpt lat="42.28072" lon="2.69781">
        <ele>770.221</ele>
        <time>2010-05-01T17:04:27Z</time>
      </trkpt>
      <trkpt lat="42.28061" lon="2.69801">
        <ele>770.603</ele>
        <time>2010-05-01T17:04:39Z</time>
      </trkpt>
      <trkpt lat="42.28046" lon="2.69812">
        <ele>771.106</ele>
        <time>2010-05-01T17:04:50Z</time>
      </trkpt>
      <trkpt lat="42.28033" lon="2.69847">
        <ele>771.199</ele>
        <time>2010-05-01T17:05:05Z</time>
      </trkpt>
      <trkpt lat="42.2802" lon="2.69872">
        <ele>772.139</ele>
        <time>2010-05-01T17:05:16Z</time>
      </trkpt>
      <trkpt lat="42.28015" lon="2.69895">
        <ele>773.053</ele>
        <time>2010-05-01T17:05:27Z</time>
      </trkpt>
      <trkpt lat="42.28015" lon="2.69918">
        <ele>775.467</ele>
        <time>2010-05-01T17:05:41Z</time>
      </trkpt>
      <trkpt lat="42.28011" lon="2.69938">
        <ele>777.823</ele>
        <time>2010-05-01T17:05:54Z</time>
      </trkpt>
      <trkpt lat="42.28018" lon="2.69947">
        <ele>779.397</ele>
        <time>2010-05-01T17:06:03Z</time>
      </trkpt>
      <trkpt lat="42.28016" lon="2.69959">
        <ele>781.227</ele>
        <time>2010-05-01T17:06:11Z</time>
      </trkpt>
      <trkpt lat="42.28007" lon="2.69971">
        <ele>783.668</ele>
        <time>2010-05-01T17:06:24Z</time>
      </trkpt>
      <trkpt lat="42.27998" lon="2.69982">
        <ele>786.514</ele>
        <time>2010-05-01T17:06:36Z</time>
      </trkpt>
      <trkpt lat="42.27986" lon="2.69992">
        <ele>788.906</ele>
        <time>2010-05-01T17:06:49Z</time>
      </trkpt>
      <trkpt lat="42.27961" lon="2.70003">
        <ele>791.84</ele>
        <time>2010-05-01T17:07:04Z</time>
      </trkpt>
      <trkpt lat="42.27949" lon="2.70024">
        <ele>794.72</ele>
        <time>2010-05-01T17:07:15Z</time>
      </trkpt>
      <trkpt lat="42.27949" lon="2.70028">
        <ele>795.114</ele>
        <time>2010-05-01T17:07:18Z</time>
      </trkpt>
      <trkpt lat="42.27942" lon="2.70044">
        <ele>798.588</ele>
        <time>2010-05-01T17:07:37Z</time>
      </trkpt>
      <trkpt lat="42.27936" lon="2.70051">
        <ele>799.094</ele>
        <time>2010-05-01T17:07:43Z</time>
      </trkpt>
      <trkpt lat="42.27926" lon="2.70059">
        <ele>801.928</ele>
        <time>2010-05-01T17:07:59Z</time>
      </trkpt>
      <trkpt lat="42.2791" lon="2.70077">
        <ele>804.868</ele>
        <time>2010-05-01T17:08:18Z</time>
      </trkpt>
      <trkpt lat="42.27891" lon="2.70102">
        <ele>805.742</ele>
        <time>2010-05-01T17:08:38Z</time>
      </trkpt>
      <trkpt lat="42.27887" lon="2.70107">
        <ele>805.726</ele>
        <time>2010-05-01T17:09:04Z</time>
      </trkpt>
      <trkpt lat="42.27862" lon="2.70113">
        <ele>809.106</ele>
        <time>2010-05-01T17:09:36Z</time>
      </trkpt>
      <trkpt lat="42.27848" lon="2.70115">
        <ele>811.034</ele>
        <time>2010-05-01T17:09:46Z</time>
      </trkpt>
      <trkpt lat="42.27837" lon="2.70104">
        <ele>814.464</ele>
        <time>2010-05-01T17:10:00Z</time>
      </trkpt>
      <trkpt lat="42.27843" lon="2.70092">
        <ele>815.348</ele>
        <time>2010-05-01T17:10:09Z</time>
      </trkpt>
      <trkpt lat="42.27844" lon="2.70057">
        <ele>818.772</ele>
        <time>2010-05-01T17:10:33Z</time>
      </trkpt>
      <trkpt lat="42.27839" lon="2.70058">
        <ele>822.198</ele>
        <time>2010-05-01T17:10:47Z</time>
      </trkpt>
      <trkpt lat="42.27828" lon="2.70066">
        <ele>824.042</ele>
        <time>2010-05-01T17:11:03Z</time>
      </trkpt>
      <trkpt lat="42.27808" lon="2.70082">
        <ele>827.492</ele>
        <time>2010-05-01T17:11:24Z</time>
      </trkpt>
      <trkpt lat="42.27797" lon="2.70088">
        <ele>830.773</ele>
        <time>2010-05-01T17:11:41Z</time>
      </trkpt>
      <trkpt lat="42.2778" lon="2.70096">
        <ele>833.62</ele>
        <time>2010-05-01T17:11:57Z</time>
      </trkpt>
      <trkpt lat="42.27765" lon="2.70106">
        <ele>837.006</ele>
        <time>2010-05-01T17:12:17Z</time>
      </trkpt>
      <trkpt lat="42.27758" lon="2.70115">
        <ele>839.847</ele>
        <time>2010-05-01T17:12:32Z</time>
      </trkpt>
      <trkpt lat="42.27746" lon="2.70127">
        <ele>842.787</ele>
        <time>2010-05-01T17:12:48Z</time>
      </trkpt>
      <trkpt lat="42.27727" lon="2.70134">
        <ele>845.681</ele>
        <time>2010-05-01T17:13:03Z</time>
      </trkpt>
      <trkpt lat="42.27711" lon="2.70147">
        <ele>848.565</ele>
        <time>2010-05-01T17:13:16Z</time>
      </trkpt>
      <trkpt lat="42.27706" lon="2.70155">
        <ele>851.971</ele>
        <time>2010-05-01T17:13:32Z</time>
      </trkpt>
      <trkpt lat="42.27701" lon="2.70161">
        <ele>854.785</ele>
        <time>2010-05-01T17:13:44Z</time>
      </trkpt>
      <trkpt lat="42.27682" lon="2.70179">
        <ele>857.663</ele>
        <time>2010-05-01T17:14:03Z</time>
      </trkpt>
      <trkpt lat="42.27677" lon="2.7019">
        <ele>858.644</ele>
        <time>2010-05-01T17:14:11Z</time>
      </trkpt>
      <trkpt lat="42.27653" lon="2.70229">
        <ele>860.018</ele>
        <time>2010-05-01T17:14:36Z</time>
      </trkpt>
      <trkpt lat="42.27634" lon="2.70244">
        <ele>859.606</ele>
        <time>2010-05-01T17:14:55Z</time>
      </trkpt>
      <trkpt lat="42.27623" lon="2.70258">
        <ele>860.094</ele>
        <time>2010-05-01T17:15:05Z</time>
      </trkpt>
      <trkpt lat="42.2761" lon="2.70263">
        <ele>859.634</ele>
        <time>2010-05-01T17:15:19Z</time>
      </trkpt>
      <trkpt lat="42.27606" lon="2.70269">
        <ele>859.618</ele>
        <time>2010-05-01T17:15:23Z</time>
      </trkpt>
      <trkpt lat="42.27581" lon="2.70276">
        <ele>857.292</ele>
        <time>2010-05-01T17:15:39Z</time>
      </trkpt>
      <trkpt lat="42.27571" lon="2.70284">
        <ele>857.678</ele>
        <time>2010-05-01T17:15:45Z</time>
      </trkpt>
      <trkpt lat="42.27545" lon="2.70292">
        <ele>860.092</ele>
        <time>2010-05-01T17:16:08Z</time>
      </trkpt>
      <trkpt lat="42.27532" lon="2.70307">
        <ele>861.534</ele>
        <time>2010-05-01T17:16:21Z</time>
      </trkpt>
      <trkpt lat="42.27512" lon="2.70324">
        <ele>863.955</ele>
        <time>2010-05-01T17:16:42Z</time>
      </trkpt>
      <trkpt lat="42.275" lon="2.70319">
        <ele>864.81</ele>
        <time>2010-05-01T17:16:52Z</time>
      </trkpt>
      <trkpt lat="42.27472" lon="2.7032">
        <ele>868.206</ele>
        <time>2010-05-01T17:17:16Z</time>
      </trkpt>
      <trkpt lat="42.2744" lon="2.70326">
        <ele>871.191</ele>
        <time>2010-05-01T17:17:38Z</time>
      </trkpt>
      <trkpt lat="42.27443" lon="2.70334">
        <ele>872.151</ele>
        <time>2010-05-01T17:17:45Z</time>
      </trkpt>
      <trkpt lat="42.27445" lon="2.70343">
        <ele>875.435</ele>
        <time>2010-05-01T17:18:05Z</time>
      </trkpt>
      <trkpt lat="42.27434" lon="2.70335">
        <ele>878.899</ele>
        <time>2010-05-01T17:18:20Z</time>
      </trkpt>
      <trkpt lat="42.27421" lon="2.70324">
        <ele>881.745</ele>
        <time>2010-05-01T17:18:34Z</time>
      </trkpt>
      <trkpt lat="42.27418" lon="2.70319">
        <ele>884.649</ele>
        <time>2010-05-01T17:18:49Z</time>
      </trkpt>
      <trkpt lat="42.27409" lon="2.70314">
        <ele>887.918</ele>
        <time>2010-05-01T17:19:02Z</time>
      </trkpt>
      <trkpt lat="42.27403" lon="2.7031">
        <ele>890.898</ele>
        <time>2010-05-01T17:19:14Z</time>
      </trkpt>
      <trkpt lat="42.27395" lon="2.70305">
        <ele>894.217</ele>
        <time>2010-05-01T17:19:30Z</time>
      </trkpt>
      <trkpt lat="42.27389" lon="2.70298">
        <ele>897.506</ele>
        <time>2010-05-01T17:19:47Z</time>
      </trkpt>
      <trkpt lat="42.27379" lon="2.70302">
        <ele>900.939</ele>
        <time>2010-05-01T17:20:02Z</time>
      </trkpt>
      <trkpt lat="42.27369" lon="2.7031">
        <ele>903.859</ele>
        <time>2010-05-01T17:20:17Z</time>
      </trkpt>
      <trkpt lat="42.2736" lon="2.70315">
        <ele>906.753</ele>
        <time>2010-05-01T17:20:31Z</time>
      </trkpt>
      <trkpt lat="42.27354" lon="2.70315">
        <ele>910.047</ele>
        <time>2010-05-01T17:20:44Z</time>
      </trkpt>
      <trkpt lat="42.27348" lon="2.70319">
        <ele>913.443</ele>
        <time>2010-05-01T17:21:00Z</time>
      </trkpt>
      <trkpt lat="42.27332" lon="2.70321">
        <ele>916.817</ele>
        <time>2010-05-01T17:21:15Z</time>
      </trkpt>
      <trkpt lat="42.27322" lon="2.7032">
        <ele>920.171</ele>
        <time>2010-05-01T17:21:31Z</time>
      </trkpt>
      <trkpt lat="42.27321" lon="2.70322">
        <ele>923.541</ele>
        <time>2010-05-01T17:21:46Z</time>
      </trkpt>
      <trkpt lat="42.27319" lon="2.70323">
        <ele>926.815</ele>
        <time>2010-05-01T17:21:59Z</time>
      </trkpt>
      <trkpt lat="42.27308" lon="2.70325">
        <ele>929.706</ele>
        <time>2010-05-01T17:22:14Z</time>
      </trkpt>
      <trkpt lat="42.27294" lon="2.70325">
        <ele>933.155</ele>
        <time>2010-05-01T17:22:30Z</time>
      </trkpt>
      <trkpt lat="42.27282" lon="2.70326">
        <ele>935.575</ele>
        <time>2010-05-01T17:22:47Z</time>
      </trkpt>
      <trkpt lat="42.27274" lon="2.70337">
        <ele>938.939</ele>
        <time>2010-05-01T17:23:06Z</time>
      </trkpt>
      <trkpt lat="42.27259" lon="2.70354">
        <ele>940.843</ele>
        <time>2010-05-01T17:23:24Z</time>
      </trkpt>
      <trkpt lat="42.27241" lon="2.70373">
        <ele>944.249</ele>
        <time>2010-05-01T17:23:46Z</time>
      </trkpt>
      <trkpt lat="42.2723" lon="2.70384">
        <ele>947.543</ele>
        <time>2010-05-01T17:24:04Z</time>
      </trkpt>
      <trkpt lat="42.27222" lon="2.70388">
        <ele>950.923</ele>
        <time>2010-05-01T17:24:19Z</time>
      </trkpt>
      <trkpt lat="42.27207" lon="2.704">
        <ele>954.283</ele>
        <time>2010-05-01T17:24:35Z</time>
      </trkpt>
      <trkpt lat="42.27192" lon="2.70419">
        <ele>955.711</ele>
        <time>2010-05-01T17:24:55Z</time>
      </trkpt>
      <trkpt lat="42.27186" lon="2.70436">
        <ele>957.606</ele>
        <time>2010-05-01T17:25:17Z</time>
      </trkpt>
      <trkpt lat="42.27181" lon="2.70444">
        <ele>961.06</ele>
        <time>2010-05-01T17:25:32Z</time>
      </trkpt>
      <trkpt lat="42.27174" lon="2.70452">
        <ele>963.93</ele>
        <time>2010-05-01T17:25:49Z</time>
      </trkpt>
      <trkpt lat="42.27153" lon="2.70477">
        <ele>966.794</ele>
        <time>2010-05-01T17:26:03Z</time>
      </trkpt>
      <trkpt lat="42.27134" lon="2.70493">
        <ele>970.118</ele>
        <time>2010-05-01T17:26:19Z</time>
      </trkpt>
      <trkpt lat="42.27131" lon="2.70499">
        <ele>973.024</ele>
        <time>2010-05-01T17:26:31Z</time>
      </trkpt>
      <trkpt lat="42.2712" lon="2.70507">
        <ele>976.418</ele>
        <time>2010-05-01T17:26:46Z</time>
      </trkpt>
      <trkpt lat="42.27119" lon="2.70512">
        <ele>979.256</ele>
        <time>2010-05-01T17:27:02Z</time>
      </trkpt>
      <trkpt lat="42.27115" lon="2.70516">
        <ele>982.659</ele>
        <time>2010-05-01T17:27:14Z</time>
      </trkpt>
      <trkpt lat="42.27105" lon="2.70532">
        <ele>985.014</ele>
        <time>2010-05-01T17:27:28Z</time>
      </trkpt>
      <trkpt lat="42.27098" lon="2.70536">
        <ele>988.406</ele>
        <time>2010-05-01T17:27:42Z</time>
      </trkpt>
      <trkpt lat="42.27087" lon="2.70548">
        <ele>991.713</ele>
        <time>2010-05-01T17:27:56Z</time>
      </trkpt>
      <trkpt lat="42.27075" lon="2.70564">
        <ele>994.123</ele>
        <time>2010-05-01T17:28:17Z</time>
      </trkpt>
      <trkpt lat="42.27072" lon="2.70571">
        <ele>997.587</ele>
        <time>2010-05-01T17:28:30Z</time>
      </trkpt>
      <trkpt lat="42.2707" lon="2.70579">
        <ele>1000.481</ele>
        <time>2010-05-01T17:28:45Z</time>
      </trkpt>
      <trkpt lat="42.27055" lon="2.70593">
        <ele>1003.897</ele>
        <time>2010-05-01T17:29:00Z</time>
      </trkpt>
      <trkpt lat="42.27044" lon="2.70601">
        <ele>1006.691</ele>
        <time>2010-05-01T17:29:16Z</time>
      </trkpt>
      <trkpt lat="42.27034" lon="2.70609">
        <ele>1009.513</ele>
        <time>2010-05-01T17:29:32Z</time>
      </trkpt>
      <trkpt lat="42.2703" lon="2.70613">
        <ele>1010.043</ele>
        <time>2010-05-01T17:29:35Z</time>
      </trkpt>
      <trkpt lat="42.27022" lon="2.70644">
        <ele>1012.407</ele>
        <time>2010-05-01T17:29:58Z</time>
      </trkpt>
      <trkpt lat="42.27013" lon="2.70653">
        <ele>1015.806</ele>
        <time>2010-05-01T17:30:11Z</time>
      </trkpt>
      <trkpt lat="42.27001" lon="2.70662">
        <ele>1018.789</ele>
        <time>2010-05-01T17:30:31Z</time>
      </trkpt>
      <trkpt lat="42.26974" lon="2.70674">
        <ele>1021.569</ele>
        <time>2010-05-01T17:31:16Z</time>
      </trkpt>
      <trkpt lat="42.26952" lon="2.7068">
        <ele>1023.593</ele>
        <time>2010-05-01T17:31:33Z</time>
      </trkpt>
      <trkpt lat="42.26951" lon="2.70681">
        <ele>1023.557</ele>
        <time>2010-05-01T17:31:34Z</time>
      </trkpt>
      <trkpt lat="42.26938" lon="2.70695">
        <ele>1022.593</ele>
        <time>2010-05-01T17:31:54Z</time>
      </trkpt>
      <trkpt lat="42.26917" lon="2.70715">
        <ele>1021.117</ele>
        <time>2010-05-01T17:32:13Z</time>
      </trkpt>
      <trkpt lat="42.26897" lon="2.70712">
        <ele>1023.046</ele>
        <time>2010-05-01T17:32:34Z</time>
      </trkpt>
      <trkpt lat="42.2687" lon="2.70707">
        <ele>1024.988</ele>
        <time>2010-05-01T17:32:49Z</time>
      </trkpt>
      <trkpt lat="42.26838" lon="2.707">
        <ele>1026.316</ele>
        <time>2010-05-01T17:33:13Z</time>
      </trkpt>
      <trkpt lat="42.26821" lon="2.7069">
        <ele>1025.406</ele>
        <time>2010-05-01T17:33:25Z</time>
      </trkpt>
      <trkpt lat="42.2681" lon="2.70684">
        <ele>1022.022</ele>
        <time>2010-05-01T17:33:40Z</time>
      </trkpt>
      <trkpt lat="42.26799" lon="2.70688">
        <ele>1019.142</ele>
        <time>2010-05-01T17:33:47Z</time>
      </trkpt>
      <trkpt lat="42.26795" lon="2.70681">
        <ele>1015.336</ele>
        <time>2010-05-01T17:33:56Z</time>
      </trkpt>
      <trkpt lat="42.2679" lon="2.70674">
        <ele>1011.93</ele>
        <time>2010-05-01T17:34:03Z</time>
      </trkpt>
      <trkpt lat="42.26785" lon="2.70671">
        <ele>1010.036</ele>
        <time>2010-05-01T17:34:07Z</time>
      </trkpt>
      <trkpt lat="42.26783" lon="2.7067">
        <ele>1009.08</ele>
        <time>2010-05-01T17:34:09Z</time>
      </trkpt>
      <trkpt lat="42.26775" lon="2.70673">
        <ele>1005.778</ele>
        <time>2010-05-01T17:34:18Z</time>
      </trkpt>
      <trkpt lat="42.26773" lon="2.70676">
        <ele>1004.233</ele>
        <time>2010-05-01T17:34:22Z</time>
      </trkpt>
      <trkpt lat="42.26762" lon="2.70686">
        <ele>1001.426</ele>
        <time>2010-05-01T17:34:31Z</time>
      </trkpt>
      <trkpt lat="42.26755" lon="2.70694">
        <ele>998.006</ele>
        <time>2010-05-01T17:34:40Z</time>
      </trkpt>
      <trkpt lat="42.26733" lon="2.70698">
        <ele>995.155</ele>
        <time>2010-05-01T17:34:57Z</time>
      </trkpt>
      <trkpt lat="42.26732" lon="2.70698">
        <ele>995.135</ele>
        <time>2010-05-01T17:34:58Z</time>
      </trkpt>
      <trkpt lat="42.2672" lon="2.70699">
        <ele>991.719</ele>
        <time>2010-05-01T17:35:10Z</time>
      </trkpt>
      <trkpt lat="42.26719" lon="2.70702">
        <ele>988.913</ele>
        <time>2010-05-01T17:35:18Z</time>
      </trkpt>
      <trkpt lat="42.26709" lon="2.70716">
        <ele>986.989</ele>
        <time>2010-05-01T17:35:28Z</time>
      </trkpt>
      <trkpt lat="42.26698" lon="2.70722">
        <ele>984.583</ele>
        <time>2010-05-01T17:35:36Z</time>
      </trkpt>
      <trkpt lat="42.26683" lon="2.70735">
        <ele>982.124</ele>
        <time>2010-05-01T17:35:45Z</time>
      </trkpt>
      <trkpt lat="42.26676" lon="2.70739">
        <ele>978.804</ele>
        <time>2010-05-01T17:35:55Z</time>
      </trkpt>
      <trkpt lat="42.26656" lon="2.70751">
        <ele>975.914</ele>
        <time>2010-05-01T17:36:15Z</time>
      </trkpt>
      <trkpt lat="42.26651" lon="2.70752">
        <ele>972.506</ele>
        <time>2010-05-01T17:36:30Z</time>
      </trkpt>
      <trkpt lat="42.26646" lon="2.70757">
        <ele>969.18</ele>
        <time>2010-05-01T17:36:37Z</time>
      </trkpt>
      <trkpt lat="42.26644" lon="2.70761">
        <ele>968.27</ele>
        <time>2010-05-01T17:36:39Z</time>
      </trkpt>
      <trkpt lat="42.2664" lon="2.7076">
        <ele>966.744</ele>
        <time>2010-05-01T17:36:42Z</time>
      </trkpt>
      <trkpt lat="42.26626" lon="2.70765">
        <ele>963.948</ele>
        <time>2010-05-01T17:36:51Z</time>
      </trkpt>
      <trkpt lat="42.26618" lon="2.7077">
        <ele>960.584</ele>
        <time>2010-05-01T17:36:58Z</time>
      </trkpt>
      <trkpt lat="42.26617" lon="2.7077">
        <ele>960.578</ele>
        <time>2010-05-01T17:36:59Z</time>
      </trkpt>
      <trkpt lat="42.26603" lon="2.70781">
        <ele>956.644</ele>
        <time>2010-05-01T17:37:13Z</time>
      </trkpt>
      <trkpt lat="42.26592" lon="2.70783">
        <ele>954.705</ele>
        <time>2010-05-01T17:37:27Z</time>
      </trkpt>
      <trkpt lat="42.26584" lon="2.70781">
        <ele>951.415</ele>
        <time>2010-05-01T17:37:42Z</time>
      </trkpt>
      <trkpt lat="42.26572" lon="2.7078">
        <ele>948.006</ele>
        <time>2010-05-01T17:37:53Z</time>
      </trkpt>
      <trkpt lat="42.26554" lon="2.70779">
        <ele>944.662</ele>
        <time>2010-05-01T17:38:09Z</time>
      </trkpt>
      <trkpt lat="42.26542" lon="2.70783">
        <ele>942.742</ele>
        <time>2010-05-01T17:38:17Z</time>
      </trkpt>
      <trkpt lat="42.2654" lon="2.70782">
        <ele>941.716</ele>
        <time>2010-05-01T17:38:18Z</time>
      </trkpt>
      <trkpt lat="42.26531" lon="2.70779">
        <ele>939.83</ele>
        <time>2010-05-01T17:38:26Z</time>
      </trkpt>
      <trkpt lat="42.26526" lon="2.70777">
        <ele>938.966</ele>
        <time>2010-05-01T17:38:30Z</time>
      </trkpt>
      <trkpt lat="42.26506" lon="2.70777">
        <ele>938.42</ele>
        <time>2010-05-01T17:38:39Z</time>
      </trkpt>
      <trkpt lat="42.26499" lon="2.7078">
        <ele>936.091</ele>
        <time>2010-05-01T17:38:47Z</time>
      </trkpt>
      <trkpt lat="42.26486" lon="2.70783">
        <ele>933.181</ele>
        <time>2010-05-01T17:39:02Z</time>
      </trkpt>
      <trkpt lat="42.26478" lon="2.7078">
        <ele>929.719</ele>
        <time>2010-05-01T17:39:12Z</time>
      </trkpt>
      <trkpt lat="42.26478" lon="2.7078">
        <ele>929.306</ele>
        <time>2010-05-01T17:39:13Z</time>
      </trkpt>
      <trkpt lat="42.26469" lon="2.70783">
        <ele>927.887</ele>
        <time>2010-05-01T17:39:32Z</time>
      </trkpt>
      <trkpt lat="42.26465" lon="2.70784">
        <ele>926.447</ele>
        <time>2010-05-01T17:39:40Z</time>
      </trkpt>
      <trkpt lat="42.26463" lon="2.70785">
        <ele>925.461</ele>
        <time>2010-05-01T17:39:44Z</time>
      </trkpt>
      <trkpt lat="42.26451" lon="2.70785">
        <ele>921.615</ele>
        <time>2010-05-01T17:39:53Z</time>
      </trkpt>
      <trkpt lat="42.2645" lon="2.70786">
        <ele>921.111</ele>
        <time>2010-05-01T17:39:54Z</time>
      </trkpt>
      <trkpt lat="42.26439" lon="2.70789">
        <ele>918.295</ele>
        <time>2010-05-01T17:40:02Z</time>
      </trkpt>
      <trkpt lat="42.2641" lon="2.70792">
        <ele>915.348</ele>
        <time>2010-05-01T17:40:18Z</time>
      </trkpt>
      <trkpt lat="42.26384" lon="2.70797">
        <ele>915.361</ele>
        <time>2010-05-01T17:40:33Z</time>
      </trkpt>
      <trkpt lat="42.26361" lon="2.70792">
        <ele>914.417</ele>
        <time>2010-05-01T17:40:49Z</time>
      </trkpt>
      <trkpt lat="42.26355" lon="2.70783">
        <ele>913.906</ele>
        <time>2010-05-01T17:41:03Z</time>
      </trkpt>
      <trkpt lat="42.26342" lon="2.70767">
        <ele>916.862</ele>
        <time>2010-05-01T17:41:28Z</time>
      </trkpt>
      <trkpt lat="42.26331" lon="2.70749">
        <ele>920.132</ele>
        <time>2010-05-01T17:41:48Z</time>
      </trkpt>
      <trkpt lat="42.26319" lon="2.70731">
        <ele>923.516</ele>
        <time>2010-05-01T17:42:05Z</time>
      </trkpt>
      <trkpt lat="42.26312" lon="2.70722">
        <ele>926.46</ele>
        <time>2010-05-01T17:42:19Z</time>
      </trkpt>
      <trkpt lat="42.26304" lon="2.70721">
        <ele>929.756</ele>
        <time>2010-05-01T17:42:34Z</time>
      </trkpt>
      <trkpt lat="42.26298" lon="2.70722">
        <ele>933.13</ele>
        <time>2010-05-01T17:42:51Z</time>
      </trkpt>
      <trkpt lat="42.26284" lon="2.70728">
        <ele>936.077</ele>
        <time>2010-05-01T17:43:07Z</time>
      </trkpt>
      <trkpt lat="42.26283" lon="2.70728">
        <ele>936.561</ele>
        <time>2010-05-01T17:43:08Z</time>
      </trkpt>
      <trkpt lat="42.26277" lon="2.70728">
        <ele>939.327</ele>
        <time>2010-05-01T17:43:27Z</time>
      </trkpt>
      <trkpt lat="42.26269" lon="2.70726">
        <ele>942.206</ele>
        <time>2010-05-01T17:43:43Z</time>
      </trkpt>
      <trkpt lat="42.26261" lon="2.7073">
        <ele>945.645</ele>
        <time>2010-05-01T17:43:56Z</time>
      </trkpt>
      <trkpt lat="42.26247" lon="2.70723">
        <ele>948.565</ele>
        <time>2010-05-01T17:44:11Z</time>
      </trkpt>
      <trkpt lat="42.26245" lon="2.7072">
        <ele>951.899</ele>
        <time>2010-05-01T17:44:29Z</time>
      </trkpt>
      <trkpt lat="42.26234" lon="2.70704">
        <ele>954.273</ele>
        <time>2010-05-01T17:44:45Z</time>
      </trkpt>
      <trkpt lat="42.26229" lon="2.70695">
        <ele>957.679</ele>
        <time>2010-05-01T17:44:58Z</time>
      </trkpt>
      <trkpt lat="42.26215" lon="2.70694">
        <ele>961.083</ele>
        <time>2010-05-01T17:45:13Z</time>
      </trkpt>
      <trkpt lat="42.26208" lon="2.70696">
        <ele>963.925</ele>
        <time>2010-05-01T17:45:28Z</time>
      </trkpt>
      <trkpt lat="42.26208" lon="2.70706">
        <ele>967.226</ele>
        <time>2010-05-01T17:45:45Z</time>
      </trkpt>
      <trkpt lat="42.262" lon="2.70712">
        <ele>970.608</ele>
        <time>2010-05-01T17:46:02Z</time>
      </trkpt>
      <trkpt lat="42.26195" lon="2.70716">
        <ele>973.506</ele>
        <time>2010-05-01T17:46:17Z</time>
      </trkpt>
      <trkpt lat="42.26187" lon="2.70719">
        <ele>976.81</ele>
        <time>2010-05-01T17:46:32Z</time>
      </trkpt>
      <trkpt lat="42.26174" lon="2.70721">
        <ele>979.72</ele>
        <time>2010-05-01T17:46:48Z</time>
      </trkpt>
      <trkpt lat="42.26167" lon="2.70726">
        <ele>982.134</ele>
        <time>2010-05-01T17:47:00Z</time>
      </trkpt>
      <trkpt lat="42.26143" lon="2.70735">
        <ele>985.078</ele>
        <time>2010-05-01T17:47:17Z</time>
      </trkpt>
      <trkpt lat="42.26131" lon="2.70719">
        <ele>987.984</ele>
        <time>2010-05-01T17:47:34Z</time>
      </trkpt>
      <trkpt lat="42.26129" lon="2.70708">
        <ele>991.378</ele>
        <time>2010-05-01T17:47:52Z</time>
      </trkpt>
      <trkpt lat="42.26123" lon="2.70696">
        <ele>995.148</ele>
        <time>2010-05-01T17:48:09Z</time>
      </trkpt>
      <trkpt lat="42.26127" lon="2.70704">
        <ele>996.561</ele>
        <time>2010-05-01T17:48:24Z</time>
      </trkpt>
      <trkpt lat="42.26121" lon="2.70724">
        <ele>998.917</ele>
        <time>2010-05-01T17:48:47Z</time>
      </trkpt>
      <trkpt lat="42.26112" lon="2.70737">
        <ele>1001.806</ele>
        <time>2010-05-01T17:49:06Z</time>
      </trkpt>
      <trkpt lat="42.26093" lon="2.70735">
        <ele>1005.212</ele>
        <time>2010-05-01T17:49:28Z</time>
      </trkpt>
      <trkpt lat="42.2608" lon="2.70725">
        <ele>1008.612</ele>
        <time>2010-05-01T17:49:48Z</time>
      </trkpt>
      <trkpt lat="42.26076" lon="2.70702">
        <ele>1011.456</ele>
        <time>2010-05-01T17:50:05Z</time>
      </trkpt>
      <trkpt lat="42.26075" lon="2.70688">
        <ele>1014.86</ele>
        <time>2010-05-01T17:50:20Z</time>
      </trkpt>
      <trkpt lat="42.26075" lon="2.70692">
        <ele>1017.796</ele>
        <time>2010-05-01T17:50:39Z</time>
      </trkpt>
      <trkpt lat="42.26065" lon="2.70706">
        <ele>1021.15</ele>
        <time>2010-05-01T17:51:02Z</time>
      </trkpt>
      <trkpt lat="42.26054" lon="2.70715">
        <ele>1023.991</ele>
        <time>2010-05-01T17:51:26Z</time>
      </trkpt>
      <trkpt lat="42.26038" lon="2.70731">
        <ele>1026.881</ele>
        <time>2010-05-01T17:51:44Z</time>
      </trkpt>
      <trkpt lat="42.26032" lon="2.7073">
        <ele>1027.319</ele>
        <time>2010-05-01T17:51:47Z</time>
      </trkpt>
      <trkpt lat="42.26024" lon="2.70721">
        <ele>1029.206</ele>
        <time>2010-05-01T17:51:55Z</time>
      </trkpt>
      <trkpt lat="42.26022" lon="2.70715">
        <ele>1030.267</ele>
        <time>2010-05-01T17:52:00Z</time>
      </trkpt>
      <trkpt lat="42.2602" lon="2.70707">
        <ele>1033.647</ele>
        <time>2010-05-01T17:52:15Z</time>
      </trkpt>
      <trkpt lat="42.26018" lon="2.70701">
        <ele>1036.491</ele>
        <time>2010-05-01T17:52:28Z</time>
      </trkpt>
      <trkpt lat="42.26015" lon="2.70687">
        <ele>1039.355</ele>
        <time>2010-05-01T17:52:43Z</time>
      </trkpt>
      <trkpt lat="42.26011" lon="2.70686">
        <ele>1042.271</ele>
        <time>2010-05-01T17:52:58Z</time>
      </trkpt>
      <trkpt lat="42.26002" lon="2.70687">
        <ele>1045.695</ele>
        <time>2010-05-01T17:53:12Z</time>
      </trkpt>
      <trkpt lat="42.25995" lon="2.70695">
        <ele>1048.515</ele>
        <time>2010-05-01T17:53:27Z</time>
      </trkpt>
      <trkpt lat="42.25989" lon="2.70695">
        <ele>1050.465</ele>
        <time>2010-05-01T17:53:35Z</time>
      </trkpt>
      <trkpt lat="42.2598" lon="2.70706">
        <ele>1053.311</ele>
        <time>2010-05-01T17:54:00Z</time>
      </trkpt>
      <trkpt lat="42.25974" lon="2.70716">
        <ele>1056.106</ele>
        <time>2010-05-01T17:54:14Z</time>
      </trkpt>
      <trkpt lat="42.2597" lon="2.7072">
        <ele>1058.189</ele>
        <time>2010-05-01T17:54:21Z</time>
      </trkpt>
      <trkpt lat="42.25953" lon="2.7073">
        <ele>1060.569</ele>
        <time>2010-05-01T17:54:35Z</time>
      </trkpt>
      <trkpt lat="42.25935" lon="2.70738">
        <ele>1063.843</ele>
        <time>2010-05-01T17:54:50Z</time>
      </trkpt>
      <trkpt lat="42.25926" lon="2.70751">
        <ele>1067.297</ele>
        <time>2010-05-01T17:55:05Z</time>
      </trkpt>
      <trkpt lat="42.25919" lon="2.70758">
        <ele>1070.183</ele>
        <time>2010-05-01T17:55:20Z</time>
      </trkpt>
      <trkpt lat="42.25905" lon="2.70765">
        <ele>1073.487</ele>
        <time>2010-05-01T17:55:34Z</time>
      </trkpt>
      <trkpt lat="42.25898" lon="2.70771">
        <ele>1076.845</ele>
        <time>2010-05-01T17:55:47Z</time>
      </trkpt>
      <trkpt lat="42.25889" lon="2.70768">
        <ele>1079.747</ele>
        <time>2010-05-01T17:55:58Z</time>
      </trkpt>
      <trkpt lat="42.2588" lon="2.70753">
        <ele>1083.111</ele>
        <time>2010-05-01T17:56:12Z</time>
      </trkpt>
      <trkpt lat="42.25873" lon="2.70758">
        <ele>1085.906</ele>
        <time>2010-05-01T17:56:25Z</time>
      </trkpt>
      <trkpt lat="42.2587" lon="2.70773">
        <ele>1089.382</ele>
        <time>2010-05-01T17:56:41Z</time>
      </trkpt>
      <trkpt lat="42.2587" lon="2.70785">
        <ele>1090.862</ele>
        <time>2010-05-01T17:56:59Z</time>
      </trkpt>
      <trkpt lat="42.25864" lon="2.70778">
        <ele>1094.186</ele>
        <time>2010-05-01T17:57:14Z</time>
      </trkpt>
      <trkpt lat="42.25864" lon="2.70775">
        <ele>1095.13</ele>
        <time>2010-05-01T17:57:16Z</time>
      </trkpt>
      <trkpt lat="42.2586" lon="2.7077">
        <ele>1095.656</ele>
        <time>2010-05-01T17:57:21Z</time>
      </trkpt>
      <trkpt lat="42.2586" lon="2.70752">
        <ele>1097.57</ele>
        <time>2010-05-01T17:57:35Z</time>
      </trkpt>
      <trkpt lat="42.25869" lon="2.70728">
        <ele>1099.487</ele>
        <time>2010-05-01T17:57:56Z</time>
      </trkpt>
      <trkpt lat="42.25869" lon="2.70729">
        <ele>1100.442</ele>
        <time>2010-05-01T17:57:58Z</time>
      </trkpt>
      <trkpt lat="42.2586" lon="2.70755">
        <ele>1102.826</ele>
        <time>2010-05-01T17:58:14Z</time>
      </trkpt>
      <trkpt lat="42.2585" lon="2.70776">
        <ele>1105.706</ele>
        <time>2010-05-01T17:58:29Z</time>
      </trkpt>
      <trkpt lat="42.25844" lon="2.70782">
        <ele>1106.176</ele>
        <time>2010-05-01T17:58:36Z</time>
      </trkpt>
      <trkpt lat="42.25837" lon="2.70784">
        <ele>1106.616</ele>
        <time>2010-05-01T17:58:42Z</time>
      </trkpt>
      <trkpt lat="42.25831" lon="2.70781">
        <ele>1106.63</ele>
        <time>2010-05-01T17:58:46Z</time>
      </trkpt>
      <trkpt lat="42.25827" lon="2.7078">
        <ele>1106.674</ele>
        <time>2010-05-01T17:59:07Z</time>
      </trkpt>
      <trkpt lat="42.2583" lon="2.70781">
        <ele>1106.62</ele>
        <time>2010-05-01T17:59:21Z</time>
      </trkpt>
      <trkpt lat="42.25842" lon="2.7077">
        <ele>1107.124</ele>
        <time>2010-05-01T17:59:34Z</time>
      </trkpt>
      <trkpt lat="42.25847" lon="2.7076">
        <ele>1104.214</ele>
        <time>2010-05-01T17:59:41Z</time>
      </trkpt>
      <trkpt lat="42.25848" lon="2.70757">
        <ele>1104.254</ele>
        <time>2010-05-01T17:59:43Z</time>
      </trkpt>
      <trkpt lat="42.25857" lon="2.70739">
        <ele>1101.309</ele>
        <time>2010-05-01T17:59:55Z</time>
      </trkpt>
      <trkpt lat="42.25868" lon="2.70715">
        <ele>1098.406</ele>
        <time>2010-05-01T18:00:11Z</time>
      </trkpt>
      <trkpt lat="42.25872" lon="2.70708">
        <ele>1097.049</ele>
        <time>2010-05-01T18:00:16Z</time>
      </trkpt>
      <trkpt lat="42.2588" lon="2.70697">
        <ele>1096.579</ele>
        <time>2010-05-01T18:00:24Z</time>
      </trkpt>
      <trkpt lat="42.25883" lon="2.70691">
        <ele>1096.053</ele>
        <time>2010-05-01T18:00:27Z</time>
      </trkpt>
      <trkpt lat="42.25887" lon="2.70682">
        <ele>1095.137</ele>
        <time>2010-05-01T18:00:32Z</time>
      </trkpt>
      <trkpt lat="42.25907" lon="2.70658">
        <ele>1092.733</ele>
        <time>2010-05-01T18:00:43Z</time>
      </trkpt>
      <trkpt lat="42.25929" lon="2.70629">
        <ele>1090.387</ele>
        <time>2010-05-01T18:00:57Z</time>
      </trkpt>
      <trkpt lat="42.25935" lon="2.70584">
        <ele>1088.891</ele>
        <time>2010-05-01T18:01:10Z</time>
      </trkpt>
      <trkpt lat="42.25934" lon="2.70543">
        <ele>1086.981</ele>
        <time>2010-05-01T18:01:23Z</time>
      </trkpt>
      <trkpt lat="42.25935" lon="2.70499">
        <ele>1090.319</ele>
        <time>2010-05-01T18:01:36Z</time>
      </trkpt>
      <trkpt lat="42.25935" lon="2.70496">
        <ele>1089.806</ele>
        <time>2010-05-01T18:01:37Z</time>
      </trkpt>
      <trkpt lat="42.25936" lon="2.70489">
        <ele>1086.447</ele>
        <time>2010-05-01T18:01:41Z</time>
      </trkpt>
      <trkpt lat="42.25939" lon="2.70489">
        <ele>1085.937</ele>
        <time>2010-05-01T18:01:58Z</time>
      </trkpt>
      <trkpt lat="42.25938" lon="2.70488">
        <ele>1086.421</ele>
        <time>2010-05-01T18:01:59Z</time>
      </trkpt>
      <trkpt lat="42.25934" lon="2.7048">
        <ele>1088.885</ele>
        <time>2010-05-01T18:02:03Z</time>
      </trkpt>
      <trkpt lat="42.25925" lon="2.70471">
        <ele>1086.971</ele>
        <time>2010-05-01T18:02:08Z</time>
      </trkpt>
      <trkpt lat="42.25921" lon="2.70471">
        <ele>1085.935</ele>
        <time>2010-05-01T18:02:10Z</time>
      </trkpt>
      <trkpt lat="42.25899" lon="2.70504">
        <ele>1082.686</ele>
        <time>2010-05-01T18:02:21Z</time>
      </trkpt>
      <trkpt lat="42.25887" lon="2.70527">
        <ele>1079.76</ele>
        <time>2010-05-01T18:02:29Z</time>
      </trkpt>
      <trkpt lat="42.25884" lon="2.70528">
        <ele>1079.726</ele>
        <time>2010-05-01T18:02:30Z</time>
      </trkpt>
      <trkpt lat="42.25858" lon="2.70526">
        <ele>1076.806</ele>
        <time>2010-05-01T18:02:39Z</time>
      </trkpt>
      <trkpt lat="42.25844" lon="2.70549">
        <ele>1074.446</ele>
        <time>2010-05-01T18:02:46Z</time>
      </trkpt>
      <trkpt lat="42.2583" lon="2.7058">
        <ele>1071.046</ele>
        <time>2010-05-01T18:02:56Z</time>
      </trkpt>
      <trkpt lat="42.25829" lon="2.70587">
        <ele>1070.68</ele>
        <time>2010-05-01T18:02:58Z</time>
      </trkpt>
      <trkpt lat="42.2582" lon="2.70618">
        <ele>1067.254</ele>
        <time>2010-05-01T18:03:08Z</time>
      </trkpt>
      <trkpt lat="42.25809" lon="2.7065">
        <ele>1063.87</ele>
        <time>2010-05-01T18:03:18Z</time>
      </trkpt>
      <trkpt lat="42.25807" lon="2.70657">
        <ele>1062.914</ele>
        <time>2010-05-01T18:03:20Z</time>
      </trkpt>
      <trkpt lat="42.258" lon="2.70679">
        <ele>1061.095</ele>
        <time>2010-05-01T18:03:26Z</time>
      </trkpt>
      <trkpt lat="42.25785" lon="2.70714">
        <ele>1058.149</ele>
        <time>2010-05-01T18:03:37Z</time>
      </trkpt>
      <trkpt lat="42.25776" lon="2.70737">
        <ele>1054.723</ele>
        <time>2010-05-01T18:03:44Z</time>
      </trkpt>
      <trkpt lat="42.25764" lon="2.70773">
        <ele>1052.306</ele>
        <time>2010-05-01T18:03:55Z</time>
      </trkpt>
      <trkpt lat="42.25756" lon="2.70813">
        <ele>1048.947</ele>
        <time>2010-05-01T18:04:07Z</time>
      </trkpt>
      <trkpt lat="42.25754" lon="2.70828">
        <ele>1048.037</ele>
        <time>2010-05-01T18:04:18Z</time>
      </trkpt>
      <trkpt lat="42.25749" lon="2.70853">
        <ele>1046.131</ele>
        <time>2010-05-01T18:06:24Z</time>
      </trkpt>
      <trkpt lat="42.25744" lon="2.70884">
        <ele>1043.685</ele>
        <time>2010-05-01T18:06:39Z</time>
      </trkpt>
      <trkpt lat="42.25741" lon="2.70905">
        <ele>1042.291</ele>
        <time>2010-05-01T18:06:49Z</time>
      </trkpt>
      <trkpt lat="42.25738" lon="2.70934">
        <ele>1040.395</ele>
        <time>2010-05-01T18:07:04Z</time>
      </trkpt>
      <trkpt lat="42.25733" lon="2.7095">
        <ele>1039.325</ele>
        <time>2010-05-01T18:07:11Z</time>
      </trkpt>
      <trkpt lat="42.25727" lon="2.70982">
        <ele>1036.026</ele>
        <time>2010-05-01T18:07:27Z</time>
      </trkpt>
      <trkpt lat="42.25732" lon="2.71017">
        <ele>1033.608</ele>
        <time>2010-05-01T18:07:44Z</time>
      </trkpt>
      <trkpt lat="42.25742" lon="2.71039">
        <ele>1031.206</ele>
        <time>2010-05-01T18:07:56Z</time>
      </trkpt>
      <trkpt lat="42.25744" lon="2.71048">
        <ele>1030.78</ele>
        <time>2010-05-01T18:08:01Z</time>
      </trkpt>
      <trkpt lat="42.25737" lon="2.71056">
        <ele>1029.79</ele>
        <time>2010-05-01T18:08:09Z</time>
      </trkpt>
      <trkpt lat="42.25729" lon="2.71048">
        <ele>1028.794</ele>
        <time>2010-05-01T18:08:15Z</time>
      </trkpt>
      <trkpt lat="42.25719" lon="2.71015">
        <ele>1026.338</ele>
        <time>2010-05-01T18:08:31Z</time>
      </trkpt>
      <trkpt lat="42.25707" lon="2.70986">
        <ele>1023.934</ele>
        <time>2010-05-01T18:08:43Z</time>
      </trkpt>
      <trkpt lat="42.25705" lon="2.70985">
        <ele>1022.058</ele>
        <time>2010-05-01T18:08:54Z</time>
      </trkpt>
      <trkpt lat="42.25706" lon="2.70986">
        <ele>1019.194</ele>
        <time>2010-05-01T18:09:02Z</time>
      </trkpt>
      <trkpt lat="42.25707" lon="2.70997">
        <ele>1019.157</ele>
        <time>2010-05-01T18:09:08Z</time>
      </trkpt>
      <trkpt lat="42.25709" lon="2.71">
        <ele>1019.622</ele>
        <time>2010-05-01T18:09:10Z</time>
      </trkpt>
      <trkpt lat="42.25711" lon="2.71001">
        <ele>1020.606</ele>
        <time>2010-05-01T18:09:12Z</time>
      </trkpt>
      <trkpt lat="42.25711" lon="2.71022">
        <ele>1019.687</ele>
        <time>2010-05-01T18:09:19Z</time>
      </trkpt>
      <trkpt lat="42.2571" lon="2.71026">
        <ele>1017.717</ele>
        <time>2010-05-01T18:09:24Z</time>
      </trkpt>
      <trkpt lat="42.2571" lon="2.71028">
        <ele>1017.211</ele>
        <time>2010-05-01T18:09:25Z</time>
      </trkpt>
      <trkpt lat="42.25706" lon="2.71045">
        <ele>1014.815</ele>
        <time>2010-05-01T18:09:33Z</time>
      </trkpt>
      <trkpt lat="42.25706" lon="2.71046">
        <ele>1014.321</ele>
        <time>2010-05-01T18:09:35Z</time>
      </trkpt>
      <trkpt lat="42.25698" lon="2.71031">
        <ele>1011.475</ele>
        <time>2010-05-01T18:09:46Z</time>
      </trkpt>
      <trkpt lat="42.25694" lon="2.7102">
        <ele>1008.646</ele>
        <time>2010-05-01T18:09:59Z</time>
      </trkpt>
      <trkpt lat="42.25687" lon="2.71013">
        <ele>1005.288</ele>
        <time>2010-05-01T18:10:10Z</time>
      </trkpt>
      <trkpt lat="42.25683" lon="2.71013">
        <ele>1002.316</ele>
        <time>2010-05-01T18:10:15Z</time>
      </trkpt>
      <trkpt lat="42.25682" lon="2.71014">
        <ele>1002.306</ele>
        <time>2010-05-01T18:10:16Z</time>
      </trkpt>
      <trkpt lat="42.25682" lon="2.71004">
        <ele>999.922</ele>
        <time>2010-05-01T18:10:26Z</time>
      </trkpt>
      <trkpt lat="42.25677" lon="2.71009">
        <ele>997.052</ele>
        <time>2010-05-01T18:10:35Z</time>
      </trkpt>
      <trkpt lat="42.25673" lon="2.71014">
        <ele>994.676</ele>
        <time>2010-05-01T18:10:42Z</time>
      </trkpt>
      <trkpt lat="42.25667" lon="2.71014">
        <ele>991.37</ele>
        <time>2010-05-01T18:10:55Z</time>
      </trkpt>
      <trkpt lat="42.25662" lon="2.71016">
        <ele>989.856</ele>
        <time>2010-05-01T18:11:01Z</time>
      </trkpt>
      <trkpt lat="42.25654" lon="2.7102">
        <ele>986.04</ele>
        <time>2010-05-01T18:11:11Z</time>
      </trkpt>
      <trkpt lat="42.25654" lon="2.71014">
        <ele>984.521</ele>
        <time>2010-05-01T18:11:15Z</time>
      </trkpt>
      <trkpt lat="42.25648" lon="2.71011">
        <ele>981.641</ele>
        <time>2010-05-01T18:11:24Z</time>
      </trkpt>
      <trkpt lat="42.25639" lon="2.7104">
        <ele>979.205</ele>
        <time>2010-05-01T18:11:35Z</time>
      </trkpt>
      <trkpt lat="42.25636" lon="2.71067">
        <ele>976.406</ele>
        <time>2010-05-01T18:11:46Z</time>
      </trkpt>
      <trkpt lat="42.25629" lon="2.71072">
        <ele>974.41</ele>
        <time>2010-05-01T18:11:54Z</time>
      </trkpt>
      <trkpt lat="42.25627" lon="2.71084">
        <ele>971.58</ele>
        <time>2010-05-01T18:12:03Z</time>
      </trkpt>
      <trkpt lat="42.25624" lon="2.71094">
        <ele>970.114</ele>
        <time>2010-05-01T18:12:07Z</time>
      </trkpt>
      <trkpt lat="42.25626" lon="2.71108">
        <ele>966.748</ele>
        <time>2010-05-01T18:12:16Z</time>
      </trkpt>
      <trkpt lat="42.25626" lon="2.71109">
        <ele>966.794</ele>
        <time>2010-05-01T18:12:17Z</time>
      </trkpt>
      <trkpt lat="42.25622" lon="2.71124">
        <ele>962.458</ele>
        <time>2010-05-01T18:12:27Z</time>
      </trkpt>
      <trkpt lat="42.25621" lon="2.71138">
        <ele>959.559</ele>
        <time>2010-05-01T18:12:34Z</time>
      </trkpt>
      <trkpt lat="42.25619" lon="2.71144">
        <ele>958.103</ele>
        <time>2010-05-01T18:12:37Z</time>
      </trkpt>
      <trkpt lat="42.25618" lon="2.71147">
        <ele>957.623</ele>
        <time>2010-05-01T18:12:39Z</time>
      </trkpt>
      <trkpt lat="42.25617" lon="2.71152">
        <ele>955.706</ele>
        <time>2010-05-01T18:12:42Z</time>
      </trkpt>
      <trkpt lat="42.25617" lon="2.71161">
        <ele>953.823</ele>
        <time>2010-05-01T18:12:47Z</time>
      </trkpt>
      <trkpt lat="42.25615" lon="2.71165">
        <ele>952.873</ele>
        <time>2010-05-01T18:12:49Z</time>
      </trkpt>
      <trkpt lat="42.25612" lon="2.71174">
        <ele>950.477</ele>
        <time>2010-05-01T18:12:54Z</time>
      </trkpt>
      <trkpt lat="42.25611" lon="2.71182">
        <ele>948.541</ele>
        <time>2010-05-01T18:12:57Z</time>
      </trkpt>
      <trkpt lat="42.25609" lon="2.71185">
        <ele>946.697</ele>
        <time>2010-05-01T18:13:01Z</time>
      </trkpt>
      <trkpt lat="42.25609" lon="2.71193">
        <ele>942.721</ele>
        <time>2010-05-01T18:13:12Z</time>
      </trkpt>
      <trkpt lat="42.25607" lon="2.71194">
        <ele>942.723</ele>
        <time>2010-05-01T18:13:13Z</time>
      </trkpt>
      <trkpt lat="42.25598" lon="2.71205">
        <ele>939.383</ele>
        <time>2010-05-01T18:13:22Z</time>
      </trkpt>
      <trkpt lat="42.25592" lon="2.7122">
        <ele>936.011</ele>
        <time>2010-05-01T18:13:33Z</time>
      </trkpt>
      <trkpt lat="42.25591" lon="2.71225">
        <ele>934.506</ele>
        <time>2010-05-01T18:13:36Z</time>
      </trkpt>
      <trkpt lat="42.25589" lon="2.71238">
        <ele>931.71</ele>
        <time>2010-05-01T18:13:41Z</time>
      </trkpt>
      <trkpt lat="42.25586" lon="2.71242">
        <ele>930.25</ele>
        <time>2010-05-01T18:13:44Z</time>
      </trkpt>
      <trkpt lat="42.25579" lon="2.71253">
        <ele>926.434</ele>
        <time>2010-05-01T18:13:54Z</time>
      </trkpt>
      <trkpt lat="42.25579" lon="2.71254">
        <ele>925.948</ele>
        <time>2010-05-01T18:13:55Z</time>
      </trkpt>
      <trkpt lat="42.25577" lon="2.71263">
        <ele>923.054</ele>
        <time>2010-05-01T18:14:03Z</time>
      </trkpt>
      <trkpt lat="42.25577" lon="2.71272">
        <ele>921.148</ele>
        <time>2010-05-01T18:14:08Z</time>
      </trkpt>
      <trkpt lat="42.25575" lon="2.71278">
        <ele>918.284</ele>
        <time>2010-05-01T18:14:15Z</time>
      </trkpt>
      <trkpt lat="42.25572" lon="2.71287">
        <ele>914.807</ele>
        <time>2010-05-01T18:14:23Z</time>
      </trkpt>
      <trkpt lat="42.25572" lon="2.71303">
        <ele>911.917</ele>
        <time>2010-05-01T18:14:33Z</time>
      </trkpt>
      <trkpt lat="42.25564" lon="2.71322">
        <ele>908.606</ele>
        <time>2010-05-01T18:14:46Z</time>
      </trkpt>
      <trkpt lat="42.25561" lon="2.71333">
        <ele>905.756</ele>
        <time>2010-05-01T18:14:54Z</time>
      </trkpt>
      <trkpt lat="42.25553" lon="2.7135">
        <ele>902.326</ele>
        <time>2010-05-01T18:15:06Z</time>
      </trkpt>
      <trkpt lat="42.25548" lon="2.71359">
        <ele>899.98</ele>
        <time>2010-05-01T18:15:11Z</time>
      </trkpt>
      <trkpt lat="42.25542" lon="2.71365">
        <ele>898.574</ele>
        <time>2010-05-01T18:15:16Z</time>
      </trkpt>
      <trkpt lat="42.25539" lon="2.71374">
        <ele>896.14</ele>
        <time>2010-05-01T18:15:21Z</time>
      </trkpt>
      <trkpt lat="42.25534" lon="2.71385">
        <ele>892.744</ele>
        <time>2010-05-01T18:15:29Z</time>
      </trkpt>
      <trkpt lat="42.25527" lon="2.71393">
        <ele>889.412</ele>
        <time>2010-05-01T18:15:37Z</time>
      </trkpt>
      <trkpt lat="42.2552" lon="2.71413">
        <ele>886.032</ele>
        <time>2010-05-01T18:15:50Z</time>
      </trkpt>
      <trkpt lat="42.25509" lon="2.71424">
        <ele>883.105</ele>
        <time>2010-05-01T18:15:59Z</time>
      </trkpt>
      <trkpt lat="42.25506" lon="2.71433">
        <ele>879.706</ele>
        <time>2010-05-01T18:16:12Z</time>
      </trkpt>
      <trkpt lat="42.25507" lon="2.71434">
        <ele>878.389</ele>
        <time>2010-05-01T18:16:16Z</time>
      </trkpt>
      <trkpt lat="42.25525" lon="2.71457">
        <ele>874.959</ele>
        <time>2010-05-01T18:16:29Z</time>
      </trkpt>
      <trkpt lat="42.25529" lon="2.71462">
        <ele>875.463</ele>
        <time>2010-05-01T18:16:31Z</time>
      </trkpt>
      <trkpt lat="42.25526" lon="2.71473">
        <ele>874.077</ele>
        <time>2010-05-01T18:16:35Z</time>
      </trkpt>
      <trkpt lat="42.25525" lon="2.71484">
        <ele>873.063</ele>
        <time>2010-05-01T18:16:41Z</time>
      </trkpt>
      <trkpt lat="42.25519" lon="2.71518">
        <ele>870.117</ele>
        <time>2010-05-01T18:16:58Z</time>
      </trkpt>
      <trkpt lat="42.25507" lon="2.7153">
        <ele>867.718</ele>
        <time>2010-05-01T18:17:11Z</time>
      </trkpt>
      <trkpt lat="42.25498" lon="2.71546">
        <ele>864.898</ele>
        <time>2010-05-01T18:17:21Z</time>
      </trkpt>
      <trkpt lat="42.25479" lon="2.71572">
        <ele>861.517</ele>
        <time>2010-05-01T18:17:32Z</time>
      </trkpt>
      <trkpt lat="42.25459" lon="2.71603">
        <ele>859.606</ele>
        <time>2010-05-01T18:17:44Z</time>
      </trkpt>
      <trkpt lat="42.25442" lon="2.71636">
        <ele>858.129</ele>
        <time>2010-05-01T18:17:57Z</time>
      </trkpt>
      <trkpt lat="42.25417" lon="2.71674">
        <ele>855.729</ele>
        <time>2010-05-01T18:18:12Z</time>
      </trkpt>
      <trkpt lat="42.25394" lon="2.71709">
        <ele>853.383</ele>
        <time>2010-05-01T18:18:25Z</time>
      </trkpt>
      <trkpt lat="42.2537" lon="2.71749">
        <ele>850.957</ele>
        <time>2010-05-01T18:18:40Z</time>
      </trkpt>
      <trkpt lat="42.25348" lon="2.71783">
        <ele>848.583</ele>
        <time>2010-05-01T18:18:53Z</time>
      </trkpt>
      <trkpt lat="42.25337" lon="2.71822">
        <ele>846.697</ele>
        <time>2010-05-01T18:19:05Z</time>
      </trkpt>
      <trkpt lat="42.25335" lon="2.71859">
        <ele>843.764</ele>
        <time>2010-05-01T18:19:16Z</time>
      </trkpt>
      <trkpt lat="42.25336" lon="2.71863">
        <ele>843.706</ele>
        <time>2010-05-01T18:19:17Z</time>
      </trkpt>
      <trkpt lat="42.25336" lon="2.71905">
        <ele>840.816</ele>
        <time>2010-05-01T18:19:29Z</time>
      </trkpt>
      <trkpt lat="42.25326" lon="2.71943">
        <ele>837.906</ele>
        <time>2010-05-01T18:19:42Z</time>
      </trkpt>
      <trkpt lat="42.25332" lon="2.71964">
        <ele>836.524</ele>
        <time>2010-05-01T18:19:50Z</time>
      </trkpt>
      <trkpt lat="42.25325" lon="2.71989">
        <ele>833.124</ele>
        <time>2010-05-01T18:20:01Z</time>
      </trkpt>
      <trkpt lat="42.25308" lon="2.72015">
        <ele>831.288</ele>
        <time>2010-05-01T18:20:13Z</time>
      </trkpt>
      <trkpt lat="42.25306" lon="2.72027">
        <ele>831.262</ele>
        <time>2010-05-01T18:20:16Z</time>
      </trkpt>
      <trkpt lat="42.25302" lon="2.72045">
        <ele>829.838</ele>
        <time>2010-05-01T18:20:21Z</time>
      </trkpt>
      <trkpt lat="42.25281" lon="2.72082">
        <ele>826.942</ele>
        <time>2010-05-01T18:20:33Z</time>
      </trkpt>
      <trkpt lat="42.25271" lon="2.72095">
        <ele>826.968</ele>
        <time>2010-05-01T18:20:38Z</time>
      </trkpt>
      <trkpt lat="42.2525" lon="2.7212">
        <ele>826.942</ele>
        <time>2010-05-01T18:20:50Z</time>
      </trkpt>
      <trkpt lat="42.25235" lon="2.7213">
        <ele>826.926</ele>
        <time>2010-05-01T18:20:58Z</time>
      </trkpt>
      <trkpt lat="42.2522" lon="2.72139">
        <ele>827.406</ele>
        <time>2010-05-01T18:21:03Z</time>
      </trkpt>
      <trkpt lat="42.252" lon="2.72151">
        <ele>827.454</ele>
        <time>2010-05-01T18:21:13Z</time>
      </trkpt>
      <trkpt lat="42.25174" lon="2.72149">
        <ele>826.484</ele>
        <time>2010-05-01T18:21:24Z</time>
      </trkpt>
      <trkpt lat="42.25171" lon="2.72147">
        <ele>826.448</ele>
        <time>2010-05-01T18:21:46Z</time>
      </trkpt>
      <trkpt lat="42.2517" lon="2.72149">
        <ele>826.462</ele>
        <time>2010-05-01T18:22:09Z</time>
      </trkpt>
      <trkpt lat="42.25158" lon="2.72161">
        <ele>825.418</ele>
        <time>2010-05-01T18:22:18Z</time>
      </trkpt>
      <trkpt lat="42.25142" lon="2.72171">
        <ele>824.022</ele>
        <time>2010-05-01T18:22:28Z</time>
      </trkpt>
      <trkpt lat="42.25135" lon="2.7218">
        <ele>822.581</ele>
        <time>2010-05-01T18:22:34Z</time>
      </trkpt>
      <trkpt lat="42.25106" lon="2.72202">
        <ele>819.761</ele>
        <time>2010-05-01T18:22:48Z</time>
      </trkpt>
      <trkpt lat="42.25082" lon="2.72215">
        <ele>817.317</ele>
        <time>2010-05-01T18:22:58Z</time>
      </trkpt>
      <trkpt lat="42.25061" lon="2.72227">
        <ele>815.806</ele>
        <time>2010-05-01T18:23:11Z</time>
      </trkpt>
      <trkpt lat="42.25056" lon="2.72231">
        <ele>815.346</ele>
        <time>2010-05-01T18:23:14Z</time>
      </trkpt>
      <trkpt lat="42.25023" lon="2.72231">
        <ele>812.076</ele>
        <time>2010-05-01T18:23:28Z</time>
      </trkpt>
      <trkpt lat="42.25023" lon="2.72233">
        <ele>812.06</ele>
        <time>2010-05-01T18:23:45Z</time>
      </trkpt>
      <trkpt lat="42.25018" lon="2.72227">
        <ele>808.174</ele>
        <time>2010-05-01T18:23:56Z</time>
      </trkpt>
      <trkpt lat="42.25017" lon="2.72226">
        <ele>808.17</ele>
        <time>2010-05-01T18:23:57Z</time>
      </trkpt>
      <trkpt lat="42.25015" lon="2.72211">
        <ele>804.814</ele>
        <time>2010-05-01T18:24:05Z</time>
      </trkpt>
      <trkpt lat="42.25019" lon="2.72209">
        <ele>801.431</ele>
        <time>2010-05-01T18:24:16Z</time>
      </trkpt>
      <trkpt lat="42.25032" lon="2.72201">
        <ele>798.061</ele>
        <time>2010-05-01T18:24:25Z</time>
      </trkpt>
      <trkpt lat="42.25037" lon="2.72192">
        <ele>797.107</ele>
        <time>2010-05-01T18:24:30Z</time>
      </trkpt>
      <trkpt lat="42.25047" lon="2.7219">
        <ele>794.206</ele>
        <time>2010-05-01T18:24:41Z</time>
      </trkpt>
      <trkpt lat="42.25041" lon="2.72181">
        <ele>791.341</ele>
        <time>2010-05-01T18:24:55Z</time>
      </trkpt>
      <trkpt lat="42.25038" lon="2.72178">
        <ele>790.381</ele>
        <time>2010-05-01T18:24:58Z</time>
      </trkpt>
      <trkpt lat="42.25038" lon="2.72173">
        <ele>789.455</ele>
        <time>2010-05-01T18:25:00Z</time>
      </trkpt>
      <trkpt lat="42.25037" lon="2.72171">
        <ele>787.969</ele>
        <time>2010-05-01T18:25:05Z</time>
      </trkpt>
      <trkpt lat="42.25039" lon="2.72168">
        <ele>787.045</ele>
        <time>2010-05-01T18:25:07Z</time>
      </trkpt>
      <trkpt lat="42.25042" lon="2.72166">
        <ele>786.539</ele>
        <time>2010-05-01T18:25:09Z</time>
      </trkpt>
      <trkpt lat="42.25049" lon="2.72164">
        <ele>786.046</ele>
        <time>2010-05-01T18:25:13Z</time>
      </trkpt>
      <trkpt lat="42.25056" lon="2.7216">
        <ele>786.088</ele>
        <time>2010-05-01T18:25:16Z</time>
      </trkpt>
      <trkpt lat="42.25069" lon="2.7215">
        <ele>782.716</ele>
        <time>2010-05-01T18:25:28Z</time>
      </trkpt>
      <trkpt lat="42.25073" lon="2.72145">
        <ele>782.206</ele>
        <time>2010-05-01T18:25:31Z</time>
      </trkpt>
      <trkpt lat="42.25078" lon="2.72138">
        <ele>781.232</ele>
        <time>2010-05-01T18:25:37Z</time>
      </trkpt>
      <trkpt lat="42.2508" lon="2.72139">
        <ele>778.842</ele>
        <time>2010-05-01T18:25:46Z</time>
      </trkpt>
      <trkpt lat="42.25056" lon="2.7214">
        <ele>775.086</ele>
        <time>2010-05-01T18:26:04Z</time>
      </trkpt>
      <trkpt lat="42.25051" lon="2.7214">
        <ele>773.56</ele>
        <time>2010-05-01T18:26:09Z</time>
      </trkpt>
      <trkpt lat="42.25033" lon="2.72128">
        <ele>770.276</ele>
        <time>2010-05-01T18:26:21Z</time>
      </trkpt>
      <trkpt lat="42.25014" lon="2.72127">
        <ele>767.84</ele>
        <time>2010-05-01T18:26:36Z</time>
      </trkpt>
      <trkpt lat="42.25012" lon="2.7212">
        <ele>766.326</ele>
        <time>2010-05-01T18:26:40Z</time>
      </trkpt>
      <trkpt lat="42.25015" lon="2.72121">
        <ele>766.347</ele>
        <time>2010-05-01T18:26:42Z</time>
      </trkpt>
      <trkpt lat="42.25018" lon="2.72118">
        <ele>763.911</ele>
        <time>2010-05-01T18:26:51Z</time>
      </trkpt>
      <trkpt lat="42.25009" lon="2.7211">
        <ele>761.506</ele>
        <time>2010-05-01T18:26:59Z</time>
      </trkpt>
      <trkpt lat="42.25005" lon="2.72104">
        <ele>761.02</ele>
        <time>2010-05-01T18:27:02Z</time>
      </trkpt>
      <trkpt lat="42.25016" lon="2.72096">
        <ele>758.66</ele>
        <time>2010-05-01T18:27:12Z</time>
      </trkpt>
      <trkpt lat="42.25029" lon="2.72095">
        <ele>755.714</ele>
        <time>2010-05-01T18:27:24Z</time>
      </trkpt>
      <trkpt lat="42.25032" lon="2.72088">
        <ele>754.878</ele>
        <time>2010-05-01T18:27:28Z</time>
      </trkpt>
      <trkpt lat="42.25049" lon="2.72072">
        <ele>752.484</ele>
        <time>2010-05-01T18:27:43Z</time>
      </trkpt>
      <trkpt lat="42.25055" lon="2.72066">
        <ele>750.088</ele>
        <time>2010-05-01T18:27:51Z</time>
      </trkpt>
      <trkpt lat="42.2505" lon="2.72056">
        <ele>746.639</ele>
        <time>2010-05-01T18:28:04Z</time>
      </trkpt>
      <trkpt lat="42.25053" lon="2.72053">
        <ele>743.201</ele>
        <time>2010-05-01T18:28:15Z</time>
      </trkpt>
      <trkpt lat="42.25053" lon="2.72053">
        <ele>742.821</ele>
        <time>2010-05-01T18:28:16Z</time>
      </trkpt>
      <trkpt lat="42.25052" lon="2.72055">
        <ele>741.806</ele>
        <time>2010-05-01T18:28:19Z</time>
      </trkpt>
      <trkpt lat="42.25045" lon="2.72055">
        <ele>738.911</ele>
        <time>2010-05-01T18:28:27Z</time>
      </trkpt>
      <trkpt lat="42.25034" lon="2.72044">
        <ele>735.131</ele>
        <time>2010-05-01T18:28:36Z</time>
      </trkpt>
      <trkpt lat="42.25029" lon="2.72038">
        <ele>734.195</ele>
        <time>2010-05-01T18:28:41Z</time>
      </trkpt>
      <trkpt lat="42.25017" lon="2.72042">
        <ele>730.369</ele>
        <time>2010-05-01T18:28:55Z</time>
      </trkpt>
      <trkpt lat="42.25012" lon="2.72036">
        <ele>729.315</ele>
        <time>2010-05-01T18:29:00Z</time>
      </trkpt>
      <trkpt lat="42.25" lon="2.72035">
        <ele>728.369</ele>
        <time>2010-05-01T18:29:07Z</time>
      </trkpt>
      <trkpt lat="42.24983" lon="2.72024">
        <ele>725.943</ele>
        <time>2010-05-01T18:29:21Z</time>
      </trkpt>
      <trkpt lat="42.24982" lon="2.72023">
        <ele>725.964</ele>
        <time>2010-05-01T18:29:22Z</time>
      </trkpt>
      <trkpt lat="42.24983" lon="2.72017">
        <ele>724.01</ele>
        <time>2010-05-01T18:29:27Z</time>
      </trkpt>
      <trkpt lat="42.24996" lon="2.72014">
        <ele>722.106</ele>
        <time>2010-05-01T18:29:42Z</time>
      </trkpt>
      <trkpt lat="42.25002" lon="2.72009">
        <ele>719.292</ele>
        <time>2010-05-01T18:29:55Z</time>
      </trkpt>
      <trkpt lat="42.24978" lon="2.72004">
        <ele>715.482</ele>
        <time>2010-05-01T18:30:15Z</time>
      </trkpt>
      <trkpt lat="42.24977" lon="2.72001">
        <ele>715.466</ele>
        <time>2010-05-01T18:30:16Z</time>
      </trkpt>
      <trkpt lat="42.24962" lon="2.72008">
        <ele>713.47</ele>
        <time>2010-05-01T18:30:24Z</time>
      </trkpt>
      <trkpt lat="42.24958" lon="2.7201">
        <ele>713.456</ele>
        <time>2010-05-01T18:30:26Z</time>
      </trkpt>
      <trkpt lat="42.24956" lon="2.7201">
        <ele>712.52</ele>
        <time>2010-05-01T18:30:28Z</time>
      </trkpt>
      <trkpt lat="42.2494" lon="2.7201">
        <ele>709.177</ele>
        <time>2010-05-01T18:30:41Z</time>
      </trkpt>
      <trkpt lat="42.24937" lon="2.72012">
        <ele>709.161</ele>
        <time>2010-05-01T18:30:43Z</time>
      </trkpt>
      <trkpt lat="42.24917" lon="2.72024">
        <ele>707.727</ele>
        <time>2010-05-01T18:30:55Z</time>
      </trkpt>
      <trkpt lat="42.24911" lon="2.72027">
        <ele>707.206</ele>
        <time>2010-05-01T18:31:01Z</time>
      </trkpt>
      <trkpt lat="42.24888" lon="2.72036">
        <ele>704.815</ele>
        <time>2010-05-01T18:31:19Z</time>
      </trkpt>
      <trkpt lat="42.24874" lon="2.7202">
        <ele>702.965</ele>
        <time>2010-05-01T18:31:28Z</time>
      </trkpt>
      <trkpt lat="42.24871" lon="2.72017">
        <ele>701.439</ele>
        <time>2010-05-01T18:31:31Z</time>
      </trkpt>
      <trkpt lat="42.24852" lon="2.72011">
        <ele>698.593</ele>
        <time>2010-05-01T18:31:46Z</time>
      </trkpt>
      <trkpt lat="42.24843" lon="2.72004">
        <ele>697.639</ele>
        <time>2010-05-01T18:31:50Z</time>
      </trkpt>
      <trkpt lat="42.24826" lon="2.71997">
        <ele>694.233</ele>
        <time>2010-05-01T18:32:03Z</time>
      </trkpt>
      <trkpt lat="42.24822" lon="2.71996">
        <ele>693.726</ele>
        <time>2010-05-01T18:32:06Z</time>
      </trkpt>
      <trkpt lat="42.24812" lon="2.71995">
        <ele>691.847</ele>
        <time>2010-05-01T18:32:15Z</time>
      </trkpt>
      <trkpt lat="42.24802" lon="2.71997">
        <ele>690.411</ele>
        <time>2010-05-01T18:32:20Z</time>
      </trkpt>
      <trkpt lat="42.24783" lon="2.72011">
        <ele>690.806</ele>
        <time>2010-05-01T18:32:32Z</time>
      </trkpt>
      <trkpt lat="42.24773" lon="2.72031">
        <ele>689.43</ele>
        <time>2010-05-01T18:32:44Z</time>
      </trkpt>
      <trkpt lat="42.24771" lon="2.72039">
        <ele>686.05</ele>
        <time>2010-05-01T18:32:56Z</time>
      </trkpt>
      <trkpt lat="42.24771" lon="2.7204">
        <ele>686.074</ele>
        <time>2010-05-01T18:32:57Z</time>
      </trkpt>
      <trkpt lat="42.24763" lon="2.72049">
        <ele>683.268</ele>
        <time>2010-05-01T18:33:06Z</time>
      </trkpt>
      <trkpt lat="42.24761" lon="2.72055">
        <ele>680.394</ele>
        <time>2010-05-01T18:33:16Z</time>
      </trkpt>
      <trkpt lat="42.24754" lon="2.7206">
        <ele>676.968</ele>
        <time>2010-05-01T18:33:26Z</time>
      </trkpt>
      <trkpt lat="42.24743" lon="2.72065">
        <ele>673.587</ele>
        <time>2010-05-01T18:33:34Z</time>
      </trkpt>
      <trkpt lat="42.2472" lon="2.72083">
        <ele>671.642</ele>
        <time>2010-05-01T18:33:54Z</time>
      </trkpt>
      <trkpt lat="42.24713" lon="2.72096">
        <ele>669.726</ele>
        <time>2010-05-01T18:34:01Z</time>
      </trkpt>
      <trkpt lat="42.24705" lon="2.72098">
        <ele>668.306</ele>
        <time>2010-05-01T18:34:05Z</time>
      </trkpt>
      <trkpt lat="42.2469" lon="2.72096">
        <ele>664.966</ele>
        <time>2010-05-01T18:34:20Z</time>
      </trkpt>
      <trkpt lat="42.24688" lon="2.72093">
        <ele>664.456</ele>
        <time>2010-05-01T18:34:22Z</time>
      </trkpt>
      <trkpt lat="42.24695" lon="2.72076">
        <ele>662.01</ele>
        <time>2010-05-01T18:34:34Z</time>
      </trkpt>
      <trkpt lat="42.24697" lon="2.72071">
        <ele>660.194</ele>
        <time>2010-05-01T18:34:38Z</time>
      </trkpt>
      <trkpt lat="42.24697" lon="2.72069">
        <ele>659.62</ele>
        <time>2010-05-01T18:34:40Z</time>
      </trkpt>
      <trkpt lat="42.2469" lon="2.72062">
        <ele>656.254</ele>
        <time>2010-05-01T18:34:51Z</time>
      </trkpt>
      <trkpt lat="42.24675" lon="2.72057">
        <ele>652.429</ele>
        <time>2010-05-01T18:34:59Z</time>
      </trkpt>
      <trkpt lat="42.24667" lon="2.72059">
        <ele>651.9</ele>
        <time>2010-05-01T18:35:12Z</time>
      </trkpt>
      <trkpt lat="42.24663" lon="2.72056">
        <ele>649.02</ele>
        <time>2010-05-01T18:35:24Z</time>
      </trkpt>
      <trkpt lat="42.24662" lon="2.72053">
        <ele>649.506</ele>
        <time>2010-05-01T18:35:25Z</time>
      </trkpt>
      <trkpt lat="42.24662" lon="2.72043">
        <ele>647.11</ele>
        <time>2010-05-01T18:35:32Z</time>
      </trkpt>
      <trkpt lat="42.24653" lon="2.72037">
        <ele>643.76</ele>
        <time>2010-05-01T18:35:46Z</time>
      </trkpt>
      <trkpt lat="42.24651" lon="2.72039">
        <ele>643.754</ele>
        <time>2010-05-01T18:35:47Z</time>
      </trkpt>
      <trkpt lat="42.2465" lon="2.72024">
        <ele>642.818</ele>
        <time>2010-05-01T18:35:51Z</time>
      </trkpt>
      <trkpt lat="42.24655" lon="2.7202">
        <ele>640.934</ele>
        <time>2010-05-01T18:36:00Z</time>
      </trkpt>
      <trkpt lat="42.24661" lon="2.72015">
        <ele>637.598</ele>
        <time>2010-05-01T18:36:11Z</time>
      </trkpt>
      <trkpt lat="42.2465" lon="2.72006">
        <ele>634.178</ele>
        <time>2010-05-01T18:36:19Z</time>
      </trkpt>
      <trkpt lat="42.24644" lon="2.72008">
        <ele>634.133</ele>
        <time>2010-05-01T18:36:21Z</time>
      </trkpt>
      <trkpt lat="42.24646" lon="2.72006">
        <ele>633.226</ele>
        <time>2010-05-01T18:36:25Z</time>
      </trkpt>
      <trkpt lat="42.24646" lon="2.72001">
        <ele>631.706</ele>
        <time>2010-05-01T18:36:32Z</time>
      </trkpt>
      <trkpt lat="42.2463" lon="2.71997">
        <ele>628.495</ele>
        <time>2010-05-01T18:36:47Z</time>
      </trkpt>
      <trkpt lat="42.24618" lon="2.71996">
        <ele>626.465</ele>
        <time>2010-05-01T18:36:59Z</time>
      </trkpt>
      <trkpt lat="42.24609" lon="2.7199">
        <ele>623.649</ele>
        <time>2010-05-01T18:37:09Z</time>
      </trkpt>
      <trkpt lat="42.24608" lon="2.71987">
        <ele>622.693</ele>
        <time>2010-05-01T18:37:12Z</time>
      </trkpt>
      <trkpt lat="42.24596" lon="2.71979">
        <ele>620.729</ele>
        <time>2010-05-01T18:37:22Z</time>
      </trkpt>
      <trkpt lat="42.24584" lon="2.71972">
        <ele>619.263</ele>
        <time>2010-05-01T18:37:35Z</time>
      </trkpt>
      <trkpt lat="42.24571" lon="2.71984">
        <ele>616.315</ele>
        <time>2010-05-01T18:37:47Z</time>
      </trkpt>
      <trkpt lat="42.24559" lon="2.71985">
        <ele>613.065</ele>
        <time>2010-05-01T18:38:00Z</time>
      </trkpt>
      <trkpt lat="42.24552" lon="2.71975">
        <ele>609.611</ele>
        <time>2010-05-01T18:38:09Z</time>
      </trkpt>
      <trkpt lat="42.24541" lon="2.71976">
        <ele>607.206</ele>
        <time>2010-05-01T18:38:22Z</time>
      </trkpt>
      <trkpt lat="42.24551" lon="2.71947">
        <ele>605.329</ele>
        <time>2010-05-01T18:38:35Z</time>
      </trkpt>
      <trkpt lat="42.24554" lon="2.71931">
        <ele>602.959</ele>
        <time>2010-05-01T18:38:47Z</time>
      </trkpt>
      <trkpt lat="42.24551" lon="2.71918">
        <ele>601.963</ele>
        <time>2010-05-01T18:38:53Z</time>
      </trkpt>
      <trkpt lat="42.2454" lon="2.71916">
        <ele>600.557</ele>
        <time>2010-05-01T18:39:04Z</time>
      </trkpt>
      <trkpt lat="42.24536" lon="2.71929">
        <ele>599.073</ele>
        <time>2010-05-01T18:39:17Z</time>
      </trkpt>
      <trkpt lat="42.2453" lon="2.71939">
        <ele>595.747</ele>
        <time>2010-05-01T18:39:29Z</time>
      </trkpt>
      <trkpt lat="42.24522" lon="2.7194">
        <ele>595.274</ele>
        <time>2010-05-01T18:39:35Z</time>
      </trkpt>
      <trkpt lat="42.24525" lon="2.71931">
        <ele>592.356</ele>
        <time>2010-05-01T18:39:50Z</time>
      </trkpt>
      <trkpt lat="42.24526" lon="2.7193">
        <ele>591.321</ele>
        <time>2010-05-01T18:39:55Z</time>
      </trkpt>
      <trkpt lat="42.24527" lon="2.71922">
        <ele>590.906</ele>
        <time>2010-05-01T18:39:58Z</time>
      </trkpt>
      <trkpt lat="42.24521" lon="2.71918">
        <ele>588.915</ele>
        <time>2010-05-01T18:40:10Z</time>
      </trkpt>
      <trkpt lat="42.24521" lon="2.71911">
        <ele>588.525</ele>
        <time>2010-05-01T18:40:14Z</time>
      </trkpt>
      <trkpt lat="42.24527" lon="2.71888">
        <ele>586.549</ele>
        <time>2010-05-01T18:40:27Z</time>
      </trkpt>
      <trkpt lat="42.24528" lon="2.71882">
        <ele>586.163</ele>
        <time>2010-05-01T18:40:32Z</time>
      </trkpt>
      <trkpt lat="42.24526" lon="2.71878">
        <ele>585.199</ele>
        <time>2010-05-01T18:40:35Z</time>
      </trkpt>
      <trkpt lat="42.24527" lon="2.71859">
        <ele>584.613</ele>
        <time>2010-05-01T18:40:48Z</time>
      </trkpt>
      <trkpt lat="42.24526" lon="2.71856">
        <ele>584.659</ele>
        <time>2010-05-01T18:40:51Z</time>
      </trkpt>
      <trkpt lat="42.24526" lon="2.71836">
        <ele>580.803</ele>
        <time>2010-05-01T18:41:07Z</time>
      </trkpt>
      <trkpt lat="42.24524" lon="2.71829">
        <ele>579.823</ele>
        <time>2010-05-01T18:41:12Z</time>
      </trkpt>
      <trkpt lat="42.24519" lon="2.71821">
        <ele>578.406</ele>
        <time>2010-05-01T18:41:18Z</time>
      </trkpt>
      <trkpt lat="42.24514" lon="2.71814">
        <ele>577.953</ele>
        <time>2010-05-01T18:41:24Z</time>
      </trkpt>
      <trkpt lat="42.24508" lon="2.71795">
        <ele>575.593</ele>
        <time>2010-05-01T18:41:34Z</time>
      </trkpt>
      <trkpt lat="42.245" lon="2.71792">
        <ele>572.657</ele>
        <time>2010-05-01T18:41:47Z</time>
      </trkpt>
      <trkpt lat="42.24494" lon="2.71791">
        <ele>572.121</ele>
        <time>2010-05-01T18:41:50Z</time>
      </trkpt>
      <trkpt lat="42.2448" lon="2.71775">
        <ele>569.257</ele>
        <time>2010-05-01T18:42:04Z</time>
      </trkpt>
      <trkpt lat="42.24479" lon="2.71773">
        <ele>568.351</ele>
        <time>2010-05-01T18:42:05Z</time>
      </trkpt>
      <trkpt lat="42.2448" lon="2.71762">
        <ele>566.898</ele>
        <time>2010-05-01T18:42:11Z</time>
      </trkpt>
      <trkpt lat="42.24479" lon="2.7176">
        <ele>565.415</ele>
        <time>2010-05-01T18:42:13Z</time>
      </trkpt>
      <trkpt lat="42.24475" lon="2.71757">
        <ele>564.426</ele>
        <time>2010-05-01T18:42:18Z</time>
      </trkpt>
      <trkpt lat="42.24464" lon="2.71746">
        <ele>562.006</ele>
        <time>2010-05-01T18:42:28Z</time>
      </trkpt>
      <trkpt lat="42.24457" lon="2.7172">
        <ele>558.257</ele>
        <time>2010-05-01T18:42:43Z</time>
      </trkpt>
      <trkpt lat="42.24457" lon="2.71717">
        <ele>557.287</ele>
        <time>2010-05-01T18:42:58Z</time>
      </trkpt>
      <trkpt lat="42.24456" lon="2.71718">
        <ele>555.361</ele>
        <time>2010-05-01T18:43:05Z</time>
      </trkpt>
      <trkpt lat="42.24442" lon="2.71713">
        <ele>552.465</ele>
        <time>2010-05-01T18:43:17Z</time>
      </trkpt>
      <trkpt lat="42.24437" lon="2.71711">
        <ele>551.541</ele>
        <time>2010-05-01T18:43:21Z</time>
      </trkpt>
      <trkpt lat="42.24435" lon="2.71709">
        <ele>550.515</ele>
        <time>2010-05-01T18:43:23Z</time>
      </trkpt>
      <trkpt lat="42.2443" lon="2.71711">
        <ele>548.663</ele>
        <time>2010-05-01T18:43:29Z</time>
      </trkpt>
      <trkpt lat="42.24426" lon="2.71712">
        <ele>548.144</ele>
        <time>2010-05-01T18:43:32Z</time>
      </trkpt>
      <trkpt lat="42.24425" lon="2.71715">
        <ele>547.118</ele>
        <time>2010-05-01T18:43:34Z</time>
      </trkpt>
      <trkpt lat="42.24421" lon="2.71737">
        <ele>543.806</ele>
        <time>2010-05-01T18:43:47Z</time>
      </trkpt>
      <trkpt lat="42.24422" lon="2.71741">
        <ele>543.374</ele>
        <time>2010-05-01T18:43:50Z</time>
      </trkpt>
      <trkpt lat="42.24423" lon="2.71753">
        <ele>540.924</ele>
        <time>2010-05-01T18:43:56Z</time>
      </trkpt>
      <trkpt lat="42.24421" lon="2.71773">
        <ele>539.048</ele>
        <time>2010-05-01T18:44:05Z</time>
      </trkpt>
      <trkpt lat="42.24425" lon="2.71781">
        <ele>537.542</ele>
        <time>2010-05-01T18:44:12Z</time>
      </trkpt>
      <trkpt lat="42.24425" lon="2.71782">
        <ele>536.158</ele>
        <time>2010-05-01T18:44:17Z</time>
      </trkpt>
      <trkpt lat="42.24419" lon="2.71776">
        <ele>535.112</ele>
        <time>2010-05-01T18:44:21Z</time>
      </trkpt>
      <trkpt lat="42.24402" lon="2.71753">
        <ele>532.729</ele>
        <time>2010-05-01T18:44:34Z</time>
      </trkpt>
      <trkpt lat="42.24397" lon="2.71752">
        <ele>530.3</ele>
        <time>2010-05-01T18:44:47Z</time>
      </trkpt>
      <trkpt lat="42.24403" lon="2.71759">
        <ele>527.92</ele>
        <time>2010-05-01T18:44:55Z</time>
      </trkpt>
      <trkpt lat="42.24403" lon="2.71778">
        <ele>524.506</ele>
        <time>2010-05-01T18:45:09Z</time>
      </trkpt>
      <trkpt lat="42.24403" lon="2.71797">
        <ele>521.26</ele>
        <time>2010-05-01T18:45:23Z</time>
      </trkpt>
      <trkpt lat="42.24401" lon="2.71798">
        <ele>520.73</ele>
        <time>2010-05-01T18:45:26Z</time>
      </trkpt>
      <trkpt lat="42.24399" lon="2.71794">
        <ele>519.794</ele>
        <time>2010-05-01T18:45:32Z</time>
      </trkpt>
      <trkpt lat="42.24392" lon="2.71789">
        <ele>517.888</ele>
        <time>2010-05-01T18:45:38Z</time>
      </trkpt>
      <trkpt lat="42.24391" lon="2.71791">
        <ele>517.864</ele>
        <time>2010-05-01T18:45:39Z</time>
      </trkpt>
      <trkpt lat="42.2439" lon="2.71798">
        <ele>516.448</ele>
        <time>2010-05-01T18:45:43Z</time>
      </trkpt>
      <trkpt lat="42.24394" lon="2.71805">
        <ele>515.937</ele>
        <time>2010-05-01T18:45:48Z</time>
      </trkpt>
      <trkpt lat="42.24394" lon="2.7181">
        <ele>515.449</ele>
        <time>2010-05-01T18:45:51Z</time>
      </trkpt>
      <trkpt lat="42.24395" lon="2.71814">
        <ele>514.413</ele>
        <time>2010-05-01T18:45:54Z</time>
      </trkpt>
      <trkpt lat="42.24398" lon="2.71818">
        <ele>513.006</ele>
        <time>2010-05-01T18:46:00Z</time>
      </trkpt>
      <trkpt lat="42.24392" lon="2.71803">
        <ele>511.621</ele>
        <time>2010-05-01T18:46:07Z</time>
      </trkpt>
      <trkpt lat="42.24384" lon="2.71787">
        <ele>509.291</ele>
        <time>2010-05-01T18:46:17Z</time>
      </trkpt>
      <trkpt lat="42.2438" lon="2.7178">
        <ele>508.255</ele>
        <time>2010-05-01T18:46:22Z</time>
      </trkpt>
      <trkpt lat="42.24364" lon="2.71754">
        <ele>506.849</ele>
        <time>2010-05-01T18:46:38Z</time>
      </trkpt>
      <trkpt lat="42.24357" lon="2.71746">
        <ele>504.855</ele>
        <time>2010-05-01T18:46:44Z</time>
      </trkpt>
      <trkpt lat="42.24356" lon="2.71743">
        <ele>503.989</ele>
        <time>2010-05-01T18:46:46Z</time>
      </trkpt>
      <trkpt lat="42.2435" lon="2.71729">
        <ele>500.013</ele>
        <time>2010-05-01T18:46:59Z</time>
      </trkpt>
      <trkpt lat="42.24349" lon="2.71726">
        <ele>499.543</ele>
        <time>2010-05-01T18:47:01Z</time>
      </trkpt>
      <trkpt lat="42.24344" lon="2.7172">
        <ele>496.707</ele>
        <time>2010-05-01T18:47:08Z</time>
      </trkpt>
      <trkpt lat="42.2434" lon="2.71717">
        <ele>495.206</ele>
        <time>2010-05-01T18:47:11Z</time>
      </trkpt>
      <trkpt lat="42.24332" lon="2.71716">
        <ele>493.889</ele>
        <time>2010-05-01T18:47:17Z</time>
      </trkpt>
      <trkpt lat="42.24324" lon="2.71727">
        <ele>490.469</ele>
        <time>2010-05-01T18:47:28Z</time>
      </trkpt>
      <trkpt lat="42.24308" lon="2.71732">
        <ele>487.563</ele>
        <time>2010-05-01T18:47:39Z</time>
      </trkpt>
      <trkpt lat="42.24306" lon="2.71731">
        <ele>487.547</ele>
        <time>2010-05-01T18:47:40Z</time>
      </trkpt>
      <trkpt lat="42.24303" lon="2.71725">
        <ele>487.093</ele>
        <time>2010-05-01T18:47:43Z</time>
      </trkpt>
      <trkpt lat="42.24308" lon="2.71716">
        <ele>485.657</ele>
        <time>2010-05-01T18:47:47Z</time>
      </trkpt>
      <trkpt lat="42.24313" lon="2.71699">
        <ele>483.225</ele>
        <time>2010-05-01T18:47:59Z</time>
      </trkpt>
      <trkpt lat="42.24311" lon="2.71691">
        <ele>482.726</ele>
        <time>2010-05-01T18:48:02Z</time>
      </trkpt>
      <trkpt lat="42.24303" lon="2.71684">
        <ele>479.408</ele>
        <time>2010-05-01T18:48:16Z</time>
      </trkpt>
      <trkpt lat="42.24294" lon="2.71696">
        <ele>477.006</ele>
        <time>2010-05-01T18:48:27Z</time>
      </trkpt>
      <trkpt lat="42.24275" lon="2.71714">
        <ele>473.64</ele>
        <time>2010-05-01T18:48:43Z</time>
      </trkpt>
      <trkpt lat="42.24269" lon="2.71744">
        <ele>471.72</ele>
        <time>2010-05-01T18:48:57Z</time>
      </trkpt>
      <trkpt lat="42.24265" lon="2.7176">
        <ele>467.834</ele>
        <time>2010-05-01T18:49:07Z</time>
      </trkpt>
      <trkpt lat="42.24263" lon="2.71759">
        <ele>466.498</ele>
        <time>2010-05-01T18:49:10Z</time>
      </trkpt>
      <trkpt lat="42.24252" lon="2.71738">
        <ele>464.054</ele>
        <time>2010-05-01T18:49:21Z</time>
      </trkpt>
      <trkpt lat="42.24243" lon="2.71727">
        <ele>460.678</ele>
        <time>2010-05-01T18:49:35Z</time>
      </trkpt>
      <trkpt lat="42.24242" lon="2.71728">
        <ele>460.686</ele>
        <time>2010-05-01T18:49:36Z</time>
      </trkpt>
      <trkpt lat="42.24236" lon="2.71753">
        <ele>458.76</ele>
        <time>2010-05-01T18:49:48Z</time>
      </trkpt>
      <trkpt lat="42.24235" lon="2.71776">
        <ele>455.326</ele>
        <time>2010-05-01T18:49:59Z</time>
      </trkpt>
      <trkpt lat="42.24226" lon="2.71779">
        <ele>452.906</ele>
        <time>2010-05-01T18:50:10Z</time>
      </trkpt>
      <trkpt lat="42.2422" lon="2.71769">
        <ele>452.046</ele>
        <time>2010-05-01T18:50:14Z</time>
      </trkpt>
      <trkpt lat="42.24213" lon="2.71746">
        <ele>448.636</ele>
        <time>2010-05-01T18:50:25Z</time>
      </trkpt>
      <trkpt lat="42.24212" lon="2.71734">
        <ele>447.61</ele>
        <time>2010-05-01T18:50:29Z</time>
      </trkpt>
      <trkpt lat="42.24208" lon="2.71719">
        <ele>447.224</ele>
        <time>2010-05-01T18:50:41Z</time>
      </trkpt>
      <trkpt lat="42.2421" lon="2.71716">
        <ele>447.28</ele>
        <time>2010-05-01T18:50:49Z</time>
      </trkpt>
      <trkpt lat="42.24216" lon="2.71707">
        <ele>446.714</ele>
        <time>2010-05-01T18:50:54Z</time>
      </trkpt>
      <trkpt lat="42.24218" lon="2.71692">
        <ele>446.788</ele>
        <time>2010-05-01T18:51:02Z</time>
      </trkpt>
      <trkpt lat="42.24217" lon="2.71685">
        <ele>445.224</ele>
        <time>2010-05-01T18:51:05Z</time>
      </trkpt>
      <trkpt lat="42.24218" lon="2.71675">
        <ele>444.726</ele>
        <time>2010-05-01T18:51:08Z</time>
      </trkpt>
      <trkpt lat="42.2423" lon="2.71641">
        <ele>441.906</ele>
        <time>2010-05-01T18:51:21Z</time>
      </trkpt>
      <trkpt lat="42.24229" lon="2.71627">
        <ele>439.546</ele>
        <time>2010-05-01T18:51:28Z</time>
      </trkpt>
      <trkpt lat="42.24232" lon="2.71607">
        <ele>436.696</ele>
        <time>2010-05-01T18:51:37Z</time>
      </trkpt>
      <trkpt lat="42.24229" lon="2.71599">
        <ele>432.77</ele>
        <time>2010-05-01T18:51:42Z</time>
      </trkpt>
      <trkpt lat="42.24228" lon="2.71598">
        <ele>432.724</ele>
        <time>2010-05-01T18:51:43Z</time>
      </trkpt>
      <trkpt lat="42.24227" lon="2.71597">
        <ele>432.31</ele>
        <time>2010-05-01T18:51:44Z</time>
      </trkpt>
      <trkpt lat="42.24218" lon="2.71599">
        <ele>430.874</ele>
        <time>2010-05-01T18:51:48Z</time>
      </trkpt>
      <trkpt lat="42.24211" lon="2.71598">
        <ele>429.834</ele>
        <time>2010-05-01T18:52:00Z</time>
      </trkpt>
      <trkpt lat="42.24212" lon="2.71596">
        <ele>429.855</ele>
        <time>2010-05-01T18:52:01Z</time>
      </trkpt>
      <trkpt lat="42.24225" lon="2.71567">
        <ele>426.01</ele>
        <time>2010-05-01T18:52:13Z</time>
      </trkpt>
      <trkpt lat="42.24238" lon="2.71544">
        <ele>422.606</ele>
        <time>2010-05-01T18:52:24Z</time>
      </trkpt>
      <trkpt lat="42.2424" lon="2.71543">
        <ele>422.261</ele>
        <time>2010-05-01T18:52:25Z</time>
      </trkpt>
      <trkpt lat="42.24232" lon="2.71544">
        <ele>419.881</ele>
        <time>2010-05-01T18:52:32Z</time>
      </trkpt>
      <trkpt lat="42.24225" lon="2.71545">
        <ele>419.315</ele>
        <time>2010-05-01T18:52:35Z</time>
      </trkpt>
      <trkpt lat="42.24216" lon="2.71532">
        <ele>416.469</ele>
        <time>2010-05-01T18:52:41Z</time>
      </trkpt>
      <trkpt lat="42.24194" lon="2.71522">
        <ele>413.065</ele>
        <time>2010-05-01T18:52:50Z</time>
      </trkpt>
      <trkpt lat="42.24186" lon="2.71526">
        <ele>412.519</ele>
        <time>2010-05-01T18:53:00Z</time>
      </trkpt>
      <trkpt lat="42.24184" lon="2.71522">
        <ele>412.151</ele>
        <time>2010-05-01T18:53:19Z</time>
      </trkpt>
      <trkpt lat="42.24167" lon="2.71514">
        <ele>408.701</ele>
        <time>2010-05-01T18:53:54Z</time>
      </trkpt>
      <trkpt lat="42.24153" lon="2.71485">
        <ele>406.811</ele>
        <time>2010-05-01T18:54:05Z</time>
      </trkpt>
      <trkpt lat="42.2413" lon="2.71451">
        <ele>403.906</ele>
        <time>2010-05-01T18:54:19Z</time>
      </trkpt>
      <trkpt lat="42.24113" lon="2.71454">
        <ele>400.513</ele>
        <time>2010-05-01T18:54:26Z</time>
      </trkpt>
      <trkpt lat="42.24092" lon="2.71485">
        <ele>400.083</ele>
        <time>2010-05-01T18:54:37Z</time>
      </trkpt>
      <trkpt lat="42.24079" lon="2.71499">
        <ele>396.267</ele>
        <time>2010-05-01T18:54:46Z</time>
      </trkpt>
      <trkpt lat="42.2406" lon="2.71495">
        <ele>393.381</ele>
        <time>2010-05-01T18:54:54Z</time>
      </trkpt>
      <trkpt lat="42.24033" lon="2.71496">
        <ele>390.097</ele>
        <time>2010-05-01T18:55:06Z</time>
      </trkpt>
      <trkpt lat="42.24015" lon="2.71512">
        <ele>386.641</ele>
        <time>2010-05-01T18:55:16Z</time>
      </trkpt>
      <trkpt lat="42.23988" lon="2.71501">
        <ele>382.782</ele>
        <time>2010-05-01T18:55:25Z</time>
      </trkpt>
      <trkpt lat="42.23985" lon="2.71498">
        <ele>383.243</ele>
        <time>2010-05-01T18:55:26Z</time>
      </trkpt>
      <trkpt lat="42.23983" lon="2.71464">
        <ele>381.317</ele>
        <time>2010-05-01T18:55:37Z</time>
      </trkpt>
      <trkpt lat="42.23997" lon="2.71433">
        <ele>378.906</ele>
        <time>2010-05-01T18:55:49Z</time>
      </trkpt>
      <trkpt lat="42.24019" lon="2.714">
        <ele>377.986</ele>
        <time>2010-05-01T18:56:01Z</time>
      </trkpt>
      <trkpt lat="42.24008" lon="2.71376">
        <ele>378.486</ele>
        <time>2010-05-01T18:56:14Z</time>
      </trkpt>
      <trkpt lat="42.23998" lon="2.71353">
        <ele>379.92</ele>
        <time>2010-05-01T18:56:28Z</time>
      </trkpt>
      <trkpt lat="42.23989" lon="2.71332">
        <ele>381.394</ele>
        <time>2010-05-01T18:56:39Z</time>
      </trkpt>
      <trkpt lat="42.23984" lon="2.71322">
        <ele>382.38</ele>
        <time>2010-05-01T18:56:45Z</time>
      </trkpt>
      <trkpt lat="42.23958" lon="2.71311">
        <ele>381.894</ele>
        <time>2010-05-01T18:57:00Z</time>
      </trkpt>
      <trkpt lat="42.23936" lon="2.71292">
        <ele>378.419</ele>
        <time>2010-05-01T18:57:10Z</time>
      </trkpt>
      <trkpt lat="42.23917" lon="2.71276">
        <ele>375.509</ele>
        <time>2010-05-01T18:57:20Z</time>
      </trkpt>
      <trkpt lat="42.23895" lon="2.71273">
        <ele>372.619</ele>
        <time>2010-05-01T18:57:28Z</time>
      </trkpt>
      <trkpt lat="42.23875" lon="2.71268">
        <ele>370.206</ele>
        <time>2010-05-01T18:57:34Z</time>
      </trkpt>
      <trkpt lat="42.23886" lon="2.7125">
        <ele>370.239</ele>
        <time>2010-05-01T18:57:42Z</time>
      </trkpt>
      <trkpt lat="42.23892" lon="2.71249">
        <ele>369.899</ele>
        <time>2010-05-01T18:57:44Z</time>
      </trkpt>
      <trkpt lat="42.23932" lon="2.71242">
        <ele>368.883</ele>
        <time>2010-05-01T18:57:59Z</time>
      </trkpt>
      <trkpt lat="42.23968" lon="2.71229">
        <ele>366.997</ele>
        <time>2010-05-01T18:58:13Z</time>
      </trkpt>
      <trkpt lat="42.23964" lon="2.71214">
        <ele>366.423</ele>
        <time>2010-05-01T18:58:23Z</time>
      </trkpt>
      <trkpt lat="42.2394" lon="2.71212">
        <ele>367.857</ele>
        <time>2010-05-01T18:58:36Z</time>
      </trkpt>
      <trkpt lat="42.23923" lon="2.71201">
        <ele>368.868</ele>
        <time>2010-05-01T18:58:46Z</time>
      </trkpt>
      <trkpt lat="42.23907" lon="2.71184">
        <ele>368.842</ele>
        <time>2010-05-01T18:58:59Z</time>
      </trkpt>
      <trkpt lat="42.23891" lon="2.71155">
        <ele>366.426</ele>
        <time>2010-05-01T18:59:10Z</time>
      </trkpt>
      <trkpt lat="42.23882" lon="2.71147">
        <ele>364.506</ele>
        <time>2010-05-01T18:59:14Z</time>
      </trkpt>
      <trkpt lat="42.23868" lon="2.71137">
        <ele>362.154</ele>
        <time>2010-05-01T18:59:20Z</time>
      </trkpt>
      <trkpt lat="42.2385" lon="2.71126">
        <ele>360.214</ele>
        <time>2010-05-01T18:59:26Z</time>
      </trkpt>
      <trkpt lat="42.23825" lon="2.71106">
        <ele>357.778</ele>
        <time>2010-05-01T18:59:37Z</time>
      </trkpt>
      <trkpt lat="42.238" lon="2.71076">
        <ele>355.812</ele>
        <time>2010-05-01T18:59:49Z</time>
      </trkpt>
      <trkpt lat="42.23775" lon="2.71047">
        <ele>354.438</ele>
        <time>2010-05-01T19:00:01Z</time>
      </trkpt>
      <trkpt lat="42.23749" lon="2.71023">
        <ele>353.982</ele>
        <time>2010-05-01T19:00:13Z</time>
      </trkpt>
      <trkpt lat="42.23749" lon="2.70996">
        <ele>354.967</ele>
        <time>2010-05-01T19:00:23Z</time>
      </trkpt>
      <trkpt lat="42.2376" lon="2.70971">
        <ele>355.881</ele>
        <time>2010-05-01T19:00:38Z</time>
      </trkpt>
      <trkpt lat="42.23758" lon="2.7094">
        <ele>354.919</ele>
        <time>2010-05-01T19:00:54Z</time>
      </trkpt>
      <trkpt lat="42.23745" lon="2.70914">
        <ele>353.406</ele>
        <time>2010-05-01T19:01:08Z</time>
      </trkpt>
      <trkpt lat="42.23724" lon="2.70912">
        <ele>353.434</ele>
        <time>2010-05-01T19:01:23Z</time>
      </trkpt>
      <trkpt lat="42.23705" lon="2.7091">
        <ele>352.924</ele>
        <time>2010-05-01T19:01:38Z</time>
      </trkpt>
      <trkpt lat="42.23702" lon="2.70907">
        <ele>352.568</ele>
        <time>2010-05-01T19:01:40Z</time>
      </trkpt>
      <trkpt lat="42.23698" lon="2.70896">
        <ele>352.022</ele>
        <time>2010-05-01T19:01:46Z</time>
      </trkpt>
      <trkpt lat="42.23696" lon="2.70889">
        <ele>351.098</ele>
        <time>2010-05-01T19:01:51Z</time>
      </trkpt>
      <trkpt lat="42.23693" lon="2.70881">
        <ele>349.692</ele>
        <time>2010-05-01T19:01:56Z</time>
      </trkpt>
      <trkpt lat="42.23698" lon="2.70881">
        <ele>349.194</ele>
        <time>2010-05-01T19:02:12Z</time>
      </trkpt>
      <trkpt lat="42.23699" lon="2.70878">
        <ele>347.757</ele>
        <time>2010-05-01T19:02:42Z</time>
      </trkpt>
      <trkpt lat="42.23694" lon="2.70877">
        <ele>347.722</ele>
        <time>2010-05-01T19:02:44Z</time>
      </trkpt>
      <trkpt lat="42.23689" lon="2.70855">
        <ele>344.306</ele>
        <time>2010-05-01T19:02:54Z</time>
      </trkpt>
      <trkpt lat="42.23688" lon="2.70849">
        <ele>343.337</ele>
        <time>2010-05-01T19:02:56Z</time>
      </trkpt>
      <trkpt lat="42.23686" lon="2.70817">
        <ele>340.047</ele>
        <time>2010-05-01T19:03:06Z</time>
      </trkpt>
      <trkpt lat="42.23679" lon="2.70807">
        <ele>336.611</ele>
        <time>2010-05-01T19:03:12Z</time>
      </trkpt>
      <trkpt lat="42.23674" lon="2.708">
        <ele>333.295</ele>
        <time>2010-05-01T19:03:17Z</time>
      </trkpt>
      <trkpt lat="42.23673" lon="2.70799">
        <ele>333.241</ele>
        <time>2010-05-01T19:03:18Z</time>
      </trkpt>
      <trkpt lat="42.23672" lon="2.70798">
        <ele>332.355</ele>
        <time>2010-05-01T19:03:19Z</time>
      </trkpt>
      <trkpt lat="42.2367" lon="2.70795">
        <ele>331.859</ele>
        <time>2010-05-01T19:03:21Z</time>
      </trkpt>
      <trkpt lat="42.23666" lon="2.70792">
        <ele>330.403</ele>
        <time>2010-05-01T19:03:23Z</time>
      </trkpt>
      <trkpt lat="42.23659" lon="2.70782">
        <ele>327.023</ele>
        <time>2010-05-01T19:03:31Z</time>
      </trkpt>
      <trkpt lat="42.23653" lon="2.70773">
        <ele>325.106</ele>
        <time>2010-05-01T19:03:34Z</time>
      </trkpt>
      <trkpt lat="42.2365" lon="2.70767">
        <ele>325.123</ele>
        <time>2010-05-01T19:03:36Z</time>
      </trkpt>
      <trkpt lat="42.23612" lon="2.7075">
        <ele>321.743</ele>
        <time>2010-05-01T19:03:50Z</time>
      </trkpt>
      <trkpt lat="42.23588" lon="2.70742">
        <ele>318.357</ele>
        <time>2010-05-01T19:04:00Z</time>
      </trkpt>
      <trkpt lat="42.23557" lon="2.70722">
        <ele>316.461</ele>
        <time>2010-05-01T19:04:11Z</time>
      </trkpt>
      <trkpt lat="42.23537" lon="2.70684">
        <ele>313.027</ele>
        <time>2010-05-01T19:04:23Z</time>
      </trkpt>
      <trkpt lat="42.23515" lon="2.70653">
        <ele>311.621</ele>
        <time>2010-05-01T19:04:35Z</time>
      </trkpt>
      <trkpt lat="42.23492" lon="2.70627">
        <ele>308.227</ele>
        <time>2010-05-01T19:04:46Z</time>
      </trkpt>
      <trkpt lat="42.23468" lon="2.706">
        <ele>308.268</ele>
        <time>2010-05-01T19:04:58Z</time>
      </trkpt>
      <trkpt lat="42.23436" lon="2.70573">
        <ele>306.814</ele>
        <time>2010-05-01T19:05:12Z</time>
      </trkpt>
      <trkpt lat="42.23421" lon="2.70575">
        <ele>305.406</ele>
        <time>2010-05-01T19:05:18Z</time>
      </trkpt>
      <trkpt lat="42.2339" lon="2.7059">
        <ele>303.09</ele>
        <time>2010-05-01T19:05:31Z</time>
      </trkpt>
      <trkpt lat="42.23362" lon="2.70594">
        <ele>302.08</ele>
        <time>2010-05-01T19:05:42Z</time>
      </trkpt>
      <trkpt lat="42.23329" lon="2.70592">
        <ele>301.054</ele>
        <time>2010-05-01T19:05:53Z</time>
      </trkpt>
      <trkpt lat="42.23294" lon="2.70592">
        <ele>299.128</ele>
        <time>2010-05-01T19:06:07Z</time>
      </trkpt>
      <trkpt lat="42.23258" lon="2.7058">
        <ele>296.224</ele>
        <time>2010-05-01T19:06:19Z</time>
      </trkpt>
      <trkpt lat="42.23235" lon="2.7058">
        <ele>294.898</ele>
        <time>2010-05-01T19:06:27Z</time>
      </trkpt>
      <trkpt lat="42.23216" lon="2.70593">
        <ele>292.976</ele>
        <time>2010-05-01T19:06:35Z</time>
      </trkpt>
      <trkpt lat="42.23179" lon="2.70605">
        <ele>290.59</ele>
        <time>2010-05-01T19:06:47Z</time>
      </trkpt>
      <trkpt lat="42.23148" lon="2.70611">
        <ele>289.519</ele>
        <time>2010-05-01T19:06:59Z</time>
      </trkpt>
      <trkpt lat="42.23107" lon="2.70607">
        <ele>289.006</ele>
        <time>2010-05-01T19:07:14Z</time>
      </trkpt>
      <trkpt lat="42.23077" lon="2.70602">
        <ele>288.115</ele>
        <time>2010-05-01T19:07:26Z</time>
      </trkpt>
      <trkpt lat="42.23053" lon="2.70594">
        <ele>288.195</ele>
        <time>2010-05-01T19:07:35Z</time>
      </trkpt>
      <trkpt lat="42.2305" lon="2.7059">
        <ele>288.519</ele>
        <time>2010-05-01T19:07:38Z</time>
      </trkpt>
      <trkpt lat="42.23043" lon="2.70591">
        <ele>289.593</ele>
        <time>2010-05-01T19:07:43Z</time>
      </trkpt>
      <trkpt lat="42.23033" lon="2.7059">
        <ele>290.059</ele>
        <time>2010-05-01T19:07:52Z</time>
      </trkpt>
      <trkpt lat="42.23026" lon="2.70588">
        <ele>290.913</ele>
        <time>2010-05-01T19:07:58Z</time>
      </trkpt>
      <trkpt lat="42.23012" lon="2.70583">
        <ele>290.927</ele>
        <time>2010-05-01T19:08:10Z</time>
      </trkpt>
      <trkpt lat="42.22981" lon="2.70581">
        <ele>291.468</ele>
        <time>2010-05-01T19:08:31Z</time>
      </trkpt>
      <trkpt lat="42.22978" lon="2.70582">
        <ele>292.414</ele>
        <time>2010-05-01T19:08:35Z</time>
      </trkpt>
      <trkpt lat="42.22962" lon="2.70585">
        <ele>293.806</ele>
        <time>2010-05-01T19:08:50Z</time>
      </trkpt>
      <trkpt lat="42.22946" lon="2.70584">
        <ele>295.79</ele>
        <time>2010-05-01T19:09:02Z</time>
      </trkpt>
      <trkpt lat="42.22933" lon="2.7057">
        <ele>297.26</ele>
        <time>2010-05-01T19:09:13Z</time>
      </trkpt>
      <trkpt lat="42.22917" lon="2.70554">
        <ele>300.144</ele>
        <time>2010-05-01T19:09:31Z</time>
      </trkpt>
      <trkpt lat="42.22916" lon="2.70551">
        <ele>300.158</ele>
        <time>2010-05-01T19:09:33Z</time>
      </trkpt>
      <trkpt lat="42.22905" lon="2.70534">
        <ele>299.124</ele>
        <time>2010-05-01T19:09:41Z</time>
      </trkpt>
      <trkpt lat="42.22903" lon="2.70532">
        <ele>299.188</ele>
        <time>2010-05-01T19:09:43Z</time>
      </trkpt>
      <trkpt lat="42.22888" lon="2.70521">
        <ele>299.137</ele>
        <time>2010-05-01T19:09:55Z</time>
      </trkpt>
      <trkpt lat="42.22885" lon="2.70521">
        <ele>299.149</ele>
        <time>2010-05-01T19:09:56Z</time>
      </trkpt>
      <trkpt lat="42.22878" lon="2.70513">
        <ele>299.613</ele>
        <time>2010-05-01T19:10:01Z</time>
      </trkpt>
      <trkpt lat="42.22863" lon="2.70509">
        <ele>300.106</ele>
        <time>2010-05-01T19:10:16Z</time>
      </trkpt>
      <trkpt lat="42.2286" lon="2.70505">
        <ele>300.131</ele>
        <time>2010-05-01T19:10:19Z</time>
      </trkpt>
      <trkpt lat="42.22843" lon="2.70474">
        <ele>301.061</ele>
        <time>2010-05-01T19:10:40Z</time>
      </trkpt>
      <trkpt lat="42.22828" lon="2.70453">
        <ele>302.515</ele>
        <time>2010-05-01T19:10:56Z</time>
      </trkpt>
      <trkpt lat="42.22823" lon="2.70444">
        <ele>303.429</ele>
        <time>2010-05-01T19:11:02Z</time>
      </trkpt>
      <trkpt lat="42.22811" lon="2.70413">
        <ele>306.885</ele>
        <time>2010-05-01T19:11:21Z</time>
      </trkpt>
      <trkpt lat="42.22798" lon="2.70384">
        <ele>308.229</ele>
        <time>2010-05-01T19:11:38Z</time>
      </trkpt>
      <trkpt lat="42.22792" lon="2.70362">
        <ele>307.316</ele>
        <time>2010-05-01T19:11:47Z</time>
      </trkpt>
      <trkpt lat="42.22793" lon="2.70314">
        <ele>306.876</ele>
        <time>2010-05-01T19:12:00Z</time>
      </trkpt>
      <trkpt lat="42.2279" lon="2.70311">
        <ele>306.313</ele>
        <time>2010-05-01T19:12:04Z</time>
      </trkpt>
      <trkpt lat="42.22783" lon="2.70306">
        <ele>306.806</ele>
        <time>2010-05-01T19:12:10Z</time>
      </trkpt>
      <trkpt lat="42.22771" lon="2.70303">
        <ele>308.259</ele>
        <time>2010-05-01T19:12:18Z</time>
      </trkpt>
      <trkpt lat="42.22767" lon="2.70301">
        <ele>308.299</ele>
        <time>2010-05-01T19:12:21Z</time>
      </trkpt>
      <trkpt lat="42.22747" lon="2.70296">
        <ele>310.253</ele>
        <time>2010-05-01T19:12:34Z</time>
      </trkpt>
      <trkpt lat="42.22741" lon="2.70298">
        <ele>310.697</ele>
        <time>2010-05-01T19:12:39Z</time>
      </trkpt>
      <trkpt lat="42.22738" lon="2.70299">
        <ele>311.633</ele>
        <time>2010-05-01T19:12:45Z</time>
      </trkpt>
      <trkpt lat="42.22731" lon="2.70297">
        <ele>312.697</ele>
        <time>2010-05-01T19:12:49Z</time>
      </trkpt>
      <trkpt lat="42.2272" lon="2.70286">
        <ele>314.058</ele>
        <time>2010-05-01T19:12:58Z</time>
      </trkpt>
      <trkpt lat="42.22711" lon="2.70279">
        <ele>315.052</ele>
        <time>2010-05-01T19:13:07Z</time>
      </trkpt>
      <trkpt lat="42.22699" lon="2.70284">
        <ele>314.017</ele>
        <time>2010-05-01T19:13:17Z</time>
      </trkpt>
      <trkpt lat="42.22689" lon="2.70281">
        <ele>316.406</ele>
        <time>2010-05-01T19:13:29Z</time>
      </trkpt>
      <trkpt lat="42.22683" lon="2.70282">
        <ele>317.433</ele>
        <time>2010-05-01T19:13:33Z</time>
      </trkpt>
      <trkpt lat="42.22669" lon="2.70278">
        <ele>320.783</ele>
        <time>2010-05-01T19:13:49Z</time>
      </trkpt>
      <trkpt lat="42.22655" lon="2.70271">
        <ele>323.627</ele>
        <time>2010-05-01T19:14:05Z</time>
      </trkpt>
      <trkpt lat="42.22647" lon="2.70257">
        <ele>327.021</ele>
        <time>2010-05-01T19:14:18Z</time>
      </trkpt>
      <trkpt lat="42.22635" lon="2.70249">
        <ele>329.917</ele>
        <time>2010-05-01T19:14:37Z</time>
      </trkpt>
      <trkpt lat="42.22623" lon="2.70234">
        <ele>333.241</ele>
        <time>2010-05-01T19:14:55Z</time>
      </trkpt>
      <trkpt lat="42.22612" lon="2.70224">
        <ele>334.784</ele>
        <time>2010-05-01T19:15:08Z</time>
      </trkpt>
      <trkpt lat="42.226" lon="2.70204">
        <ele>332.307</ele>
        <time>2010-05-01T19:15:21Z</time>
      </trkpt>
      <trkpt lat="42.22592" lon="2.70173">
        <ele>329.417</ele>
        <time>2010-05-01T19:15:32Z</time>
      </trkpt>
      <trkpt lat="42.22589" lon="2.70167">
        <ele>328.406</ele>
        <time>2010-05-01T19:15:36Z</time>
      </trkpt>
      <trkpt lat="42.2258" lon="2.70152">
        <ele>327.576</ele>
        <time>2010-05-01T19:15:41Z</time>
      </trkpt>
      <trkpt lat="42.22571" lon="2.70124">
        <ele>324.176</ele>
        <time>2010-05-01T19:15:53Z</time>
      </trkpt>
      <trkpt lat="42.22569" lon="2.70122">
        <ele>323.63</ele>
        <time>2010-05-01T19:15:54Z</time>
      </trkpt>
      <trkpt lat="42.22557" lon="2.7008">
        <ele>322.284</ele>
        <time>2010-05-01T19:16:08Z</time>
      </trkpt>
      <trkpt lat="42.22547" lon="2.70056">
        <ele>319.37</ele>
        <time>2010-05-01T19:16:19Z</time>
      </trkpt>
      <trkpt lat="42.22535" lon="2.70038">
        <ele>319.364</ele>
        <time>2010-05-01T19:16:29Z</time>
      </trkpt>
      <trkpt lat="42.22517" lon="2.70011">
        <ele>317.488</ele>
        <time>2010-05-01T19:16:42Z</time>
      </trkpt>
      <trkpt lat="42.22499" lon="2.69989">
        <ele>315.924</ele>
        <time>2010-05-01T19:16:53Z</time>
      </trkpt>
      <trkpt lat="42.22485" lon="2.69971">
        <ele>315.026</ele>
        <time>2010-05-01T19:17:01Z</time>
      </trkpt>
      <trkpt lat="42.22479" lon="2.69928">
        <ele>313.006</ele>
        <time>2010-05-01T19:17:12Z</time>
      </trkpt>
      <trkpt lat="42.22474" lon="2.69921">
        <ele>311.626</ele>
        <time>2010-05-01T19:17:15Z</time>
      </trkpt>
      <trkpt lat="42.22452" lon="2.69905">
        <ele>311.656</ele>
        <time>2010-05-01T19:17:24Z</time>
      </trkpt>
      <trkpt lat="42.22436" lon="2.69877">
        <ele>311.19</ele>
        <time>2010-05-01T19:17:35Z</time>
      </trkpt>
      <trkpt lat="42.22424" lon="2.69846">
        <ele>309.784</ele>
        <time>2010-05-01T19:17:46Z</time>
      </trkpt>
      <trkpt lat="42.22406" lon="2.69834">
        <ele>308.75</ele>
        <time>2010-05-01T19:17:57Z</time>
      </trkpt>
      <trkpt lat="42.22402" lon="2.69836">
        <ele>308.744</ele>
        <time>2010-05-01T19:17:59Z</time>
      </trkpt>
      <trkpt lat="42.22394" lon="2.69838">
        <ele>308.742</ele>
        <time>2010-05-01T19:18:01Z</time>
      </trkpt>
      <trkpt lat="42.22386" lon="2.6984">
        <ele>307.822</ele>
        <time>2010-05-01T19:18:06Z</time>
      </trkpt>
      <trkpt lat="42.22377" lon="2.69842">
        <ele>307.814</ele>
        <time>2010-05-01T19:18:11Z</time>
      </trkpt>
      <trkpt lat="42.22368" lon="2.69837">
        <ele>306.806</ele>
        <time>2010-05-01T19:18:17Z</time>
      </trkpt>
      <trkpt lat="42.22367" lon="2.69828">
        <ele>305.482</ele>
        <time>2010-05-01T19:18:21Z</time>
      </trkpt>
      <trkpt lat="42.22366" lon="2.69822">
        <ele>303.952</ele>
        <time>2010-05-01T19:18:23Z</time>
      </trkpt>
      <trkpt lat="42.22363" lon="2.69816">
        <ele>303.086</ele>
        <time>2010-05-01T19:18:26Z</time>
      </trkpt>
      <trkpt lat="42.22361" lon="2.69813">
        <ele>302.09</ele>
        <time>2010-05-01T19:18:28Z</time>
      </trkpt>
      <trkpt lat="42.22356" lon="2.6979">
        <ele>299.166</ele>
        <time>2010-05-01T19:18:37Z</time>
      </trkpt>
      <trkpt lat="42.22353" lon="2.6978">
        <ele>296.72</ele>
        <time>2010-05-01T19:18:44Z</time>
      </trkpt>
      <trkpt lat="42.22351" lon="2.69761">
        <ele>294.815</ele>
        <time>2010-05-01T19:18:54Z</time>
      </trkpt>
      <trkpt lat="42.22348" lon="2.69752">
        <ele>293.865</ele>
        <time>2010-05-01T19:19:00Z</time>
      </trkpt>
      <trkpt lat="42.22343" lon="2.69743">
        <ele>291.911</ele>
        <time>2010-05-01T19:19:08Z</time>
      </trkpt>
      <trkpt lat="42.2234" lon="2.69735">
        <ele>290.906</ele>
        <time>2010-05-01T19:19:12Z</time>
      </trkpt>
      <trkpt lat="42.2234" lon="2.69735">
        <ele>290.929</ele>
        <time>2010-05-01T19:19:14Z</time>
      </trkpt>
      <trkpt lat="42.22319" lon="2.69735">
        <ele>288.539</ele>
        <time>2010-05-01T19:19:28Z</time>
      </trkpt>
      <trkpt lat="42.22315" lon="2.69736">
        <ele>288.563</ele>
        <time>2010-05-01T19:19:29Z</time>
      </trkpt>
      <trkpt lat="42.22297" lon="2.69733">
        <ele>286.167</ele>
        <time>2010-05-01T19:19:44Z</time>
      </trkpt>
      <trkpt lat="42.22295" lon="2.69735">
        <ele>285.693</ele>
        <time>2010-05-01T19:19:46Z</time>
      </trkpt>
      <trkpt lat="42.22282" lon="2.69735">
        <ele>284.767</ele>
        <time>2010-05-01T19:19:50Z</time>
      </trkpt>
      <trkpt lat="42.22265" lon="2.69746">
        <ele>283.227</ele>
        <time>2010-05-01T19:20:00Z</time>
      </trkpt>
      <trkpt lat="42.2225" lon="2.69777">
        <ele>283.268</ele>
        <time>2010-05-01T19:20:12Z</time>
      </trkpt>
      <trkpt lat="42.22225" lon="2.69799">
        <ele>282.314</ele>
        <time>2010-05-01T19:20:24Z</time>
      </trkpt>
      <trkpt lat="42.22197" lon="2.69798">
        <ele>280.406</ele>
        <time>2010-05-01T19:20:35Z</time>
      </trkpt>
      <trkpt lat="42.22188" lon="2.69795">
        <ele>278.02</ele>
        <time>2010-05-01T19:20:40Z</time>
      </trkpt>
      <trkpt lat="42.22185" lon="2.69776">
        <ele>277.03</ele>
        <time>2010-05-01T19:20:46Z</time>
      </trkpt>
      <trkpt lat="42.22183" lon="2.69768">
        <ele>276.514</ele>
        <time>2010-05-01T19:20:49Z</time>
      </trkpt>
      <trkpt lat="42.22163" lon="2.69769">
        <ele>273.638</ele>
        <time>2010-05-01T19:21:00Z</time>
      </trkpt>
      <trkpt lat="42.2215" lon="2.69762">
        <ele>272.774</ele>
        <time>2010-05-01T19:21:04Z</time>
      </trkpt>
      <trkpt lat="42.2214" lon="2.69754">
        <ele>270.738</ele>
        <time>2010-05-01T19:21:08Z</time>
      </trkpt>
      <trkpt lat="42.22122" lon="2.69738">
        <ele>267.945</ele>
        <time>2010-05-01T19:21:17Z</time>
      </trkpt>
      <trkpt lat="42.22119" lon="2.69733">
        <ele>266.947</ele>
        <time>2010-05-01T19:21:19Z</time>
      </trkpt>
      <trkpt lat="42.22105" lon="2.69718">
        <ele>265.511</ele>
        <time>2010-05-01T19:21:26Z</time>
      </trkpt>
      <trkpt lat="42.221" lon="2.69712">
        <ele>264.006</ele>
        <time>2010-05-01T19:21:30Z</time>
      </trkpt>
      <trkpt lat="42.22097" lon="2.69708">
        <ele>262.112</ele>
        <time>2010-05-01T19:21:33Z</time>
      </trkpt>
      <trkpt lat="42.22095" lon="2.69705">
        <ele>260.792</ele>
        <time>2010-05-01T19:21:35Z</time>
      </trkpt>
      <trkpt lat="42.22091" lon="2.69703">
        <ele>260.796</ele>
        <time>2010-05-01T19:21:37Z</time>
      </trkpt>
      <trkpt lat="42.2209" lon="2.697">
        <ele>260.26</ele>
        <time>2010-05-01T19:21:39Z</time>
      </trkpt>
      <trkpt lat="42.22086" lon="2.69699">
        <ele>258.796</ele>
        <time>2010-05-01T19:21:42Z</time>
      </trkpt>
      <trkpt lat="42.22078" lon="2.69696">
        <ele>255.42</ele>
        <time>2010-05-01T19:21:50Z</time>
      </trkpt>
      <trkpt lat="42.22073" lon="2.69698">
        <ele>253.982</ele>
        <time>2010-05-01T19:21:54Z</time>
      </trkpt>
      <trkpt lat="42.2207" lon="2.69706">
        <ele>252.043</ele>
        <time>2010-05-01T19:21:58Z</time>
      </trkpt>
      <trkpt lat="42.22057" lon="2.69726">
        <ele>249.617</ele>
        <time>2010-05-01T19:22:05Z</time>
      </trkpt>
      <trkpt lat="42.22055" lon="2.6973">
        <ele>249.106</ele>
        <time>2010-05-01T19:22:08Z</time>
      </trkpt>
      <trkpt lat="42.22045" lon="2.69728">
        <ele>248.296</ele>
        <time>2010-05-01T19:22:14Z</time>
      </trkpt>
      <trkpt lat="42.22027" lon="2.6971">
        <ele>244.336</ele>
        <time>2010-05-01T19:22:25Z</time>
      </trkpt>
      <trkpt lat="42.22009" lon="2.69696">
        <ele>242.97</ele>
        <time>2010-05-01T19:22:36Z</time>
      </trkpt>
      <trkpt lat="42.21991" lon="2.69685">
        <ele>240.954</ele>
        <time>2010-05-01T19:22:48Z</time>
      </trkpt>
      <trkpt lat="42.21977" lon="2.69668">
        <ele>239.05</ele>
        <time>2010-05-01T19:22:58Z</time>
      </trkpt>
      <trkpt lat="42.21959" lon="2.69643">
        <ele>237.134</ele>
        <time>2010-05-01T19:23:09Z</time>
      </trkpt>
      <trkpt lat="42.21944" lon="2.69609">
        <ele>235.784</ele>
        <time>2010-05-01T19:23:19Z</time>
      </trkpt>
      <trkpt lat="42.21945" lon="2.69581">
        <ele>235.207</ele>
        <time>2010-05-01T19:23:27Z</time>
      </trkpt>
      <trkpt lat="42.2194" lon="2.69573">
        <ele>234.717</ele>
        <time>2010-05-01T19:23:32Z</time>
      </trkpt>
      <trkpt lat="42.21932" lon="2.69569">
        <ele>233.306</ele>
        <time>2010-05-01T19:23:38Z</time>
      </trkpt>
      <trkpt lat="42.21927" lon="2.6956">
        <ele>233.326</ele>
        <time>2010-05-01T19:23:43Z</time>
      </trkpt>
      <trkpt lat="42.21912" lon="2.69544">
        <ele>235.746</ele>
        <time>2010-05-01T19:23:55Z</time>
      </trkpt>
      <trkpt lat="42.21906" lon="2.69524">
        <ele>236.61</ele>
        <time>2010-05-01T19:24:09Z</time>
      </trkpt>
      <trkpt lat="42.21928" lon="2.69527">
        <ele>238.144</ele>
        <time>2010-05-01T19:24:27Z</time>
      </trkpt>
      <trkpt lat="42.2194" lon="2.69522">
        <ele>239.56</ele>
        <time>2010-05-01T19:24:32Z</time>
      </trkpt>
      <trkpt lat="42.2194" lon="2.69522">
        <ele>240.514</ele>
        <time>2010-05-01T19:24:38Z</time>
      </trkpt>
      <trkpt lat="42.21934" lon="2.69521">
        <ele>240.514</ele>
        <time>2010-05-01T19:24:43Z</time>
      </trkpt>
      <trkpt lat="42.2192" lon="2.69522">
        <ele>241.954</ele>
        <time>2010-05-01T19:24:57Z</time>
      </trkpt>
      <trkpt lat="42.21905" lon="2.69512">
        <ele>244.309</ele>
        <time>2010-05-01T19:25:14Z</time>
      </trkpt>
      <trkpt lat="42.21877" lon="2.69493">
        <ele>245.306</ele>
        <time>2010-05-01T19:25:35Z</time>
      </trkpt>
      <trkpt lat="42.21861" lon="2.69488">
        <ele>246.259</ele>
        <time>2010-05-01T19:25:48Z</time>
      </trkpt>
      <trkpt lat="42.21836" lon="2.69456">
        <ele>246.739</ele>
        <time>2010-05-01T19:26:08Z</time>
      </trkpt>
      <trkpt lat="42.21834" lon="2.69446">
        <ele>246.223</ele>
        <time>2010-05-01T19:26:12Z</time>
      </trkpt>
      <trkpt lat="42.21826" lon="2.69425">
        <ele>244.387</ele>
        <time>2010-05-01T19:26:24Z</time>
      </trkpt>
      <trkpt lat="42.21825" lon="2.69422">
        <ele>244.343</ele>
        <time>2010-05-01T19:26:25Z</time>
      </trkpt>
      <trkpt lat="42.21807" lon="2.69397">
        <ele>240.027</ele>
        <time>2010-05-01T19:26:39Z</time>
      </trkpt>
      <trkpt lat="42.2179" lon="2.6937">
        <ele>237.625</ele>
        <time>2010-05-01T19:26:50Z</time>
      </trkpt>
      <trkpt lat="42.21778" lon="2.69351">
        <ele>234.226</ele>
        <time>2010-05-01T19:27:00Z</time>
      </trkpt>
      <trkpt lat="42.21779" lon="2.69343">
        <ele>232.308</ele>
        <time>2010-05-01T19:27:03Z</time>
      </trkpt>
      <trkpt lat="42.21759" lon="2.69327">
        <ele>232.306</ele>
        <time>2010-05-01T19:27:14Z</time>
      </trkpt>
      <trkpt lat="42.21753" lon="2.69319">
        <ele>233.37</ele>
        <time>2010-05-01T19:27:18Z</time>
      </trkpt>
      <trkpt lat="42.21733" lon="2.69301">
        <ele>233.71</ele>
        <time>2010-05-01T19:27:32Z</time>
      </trkpt>
      <trkpt lat="42.21723" lon="2.69294">
        <ele>234.294</ele>
        <time>2010-05-01T19:27:43Z</time>
      </trkpt>
      <trkpt lat="42.21701" lon="2.69272">
        <ele>234.718</ele>
        <time>2010-05-01T19:28:02Z</time>
      </trkpt>
      <trkpt lat="42.21697" lon="2.69271">
        <ele>234.284</ele>
        <time>2010-05-01T19:28:05Z</time>
      </trkpt>
      <trkpt lat="42.2169" lon="2.69273">
        <ele>234.758</ele>
        <time>2010-05-01T19:28:08Z</time>
      </trkpt>
      <trkpt lat="42.21677" lon="2.69264">
        <ele>234.722</ele>
        <time>2010-05-01T19:28:20Z</time>
      </trkpt>
      <trkpt lat="42.2167" lon="2.69264">
        <ele>233.762</ele>
        <time>2010-05-01T19:28:24Z</time>
      </trkpt>
      <trkpt lat="42.21644" lon="2.69257">
        <ele>232.808</ele>
        <time>2010-05-01T19:28:38Z</time>
      </trkpt>
      <trkpt lat="42.21625" lon="2.69244">
        <ele>233.306</ele>
        <time>2010-05-01T19:28:52Z</time>
      </trkpt>
      <trkpt lat="42.21606" lon="2.69232">
        <ele>233.35</ele>
        <time>2010-05-01T19:29:05Z</time>
      </trkpt>
      <trkpt lat="42.21599" lon="2.69228">
        <ele>233.31</ele>
        <time>2010-05-01T19:29:10Z</time>
      </trkpt>
      <trkpt lat="42.21592" lon="2.69215">
        <ele>233.794</ele>
        <time>2010-05-01T19:29:17Z</time>
      </trkpt>
      <trkpt lat="42.21587" lon="2.69205">
        <ele>234.238</ele>
        <time>2010-05-01T19:29:22Z</time>
      </trkpt>
      <trkpt lat="42.21582" lon="2.692">
        <ele>234.294</ele>
        <time>2010-05-01T19:29:25Z</time>
      </trkpt>
      <trkpt lat="42.21573" lon="2.69186">
        <ele>235.228</ele>
        <time>2010-05-01T19:29:34Z</time>
      </trkpt>
      <trkpt lat="42.2156" lon="2.69177">
        <ele>236.174</ele>
        <time>2010-05-01T19:29:46Z</time>
      </trkpt>
      <trkpt lat="42.21542" lon="2.6916">
        <ele>239.556</ele>
        <time>2010-05-01T19:30:02Z</time>
      </trkpt>
      <trkpt lat="42.21516" lon="2.69152">
        <ele>239.521</ele>
        <time>2010-05-01T19:30:21Z</time>
      </trkpt>
      <trkpt lat="42.21494" lon="2.69139">
        <ele>238.106</ele>
        <time>2010-05-01T19:30:36Z</time>
      </trkpt>
      <trkpt lat="42.21479" lon="2.69116">
        <ele>236.625</ele>
        <time>2010-05-01T19:30:48Z</time>
      </trkpt>
      <trkpt lat="42.21479" lon="2.69106">
        <ele>235.735</ele>
        <time>2010-05-01T19:30:51Z</time>
      </trkpt>
      <trkpt lat="42.21476" lon="2.69092">
        <ele>233.739</ele>
        <time>2010-05-01T19:30:56Z</time>
      </trkpt>
      <trkpt lat="42.21468" lon="2.69082">
        <ele>232.813</ele>
        <time>2010-05-01T19:31:01Z</time>
      </trkpt>
      <trkpt lat="42.21453" lon="2.69085">
        <ele>230.949</ele>
        <time>2010-05-01T19:31:07Z</time>
      </trkpt>
      <trkpt lat="42.21446" lon="2.69087">
        <ele>229.923</ele>
        <time>2010-05-01T19:31:10Z</time>
      </trkpt>
      <trkpt lat="42.21424" lon="2.69082">
        <ele>228.567</ele>
        <time>2010-05-01T19:31:18Z</time>
      </trkpt>
      <trkpt lat="42.21415" lon="2.69078">
        <ele>227.081</ele>
        <time>2010-05-01T19:31:23Z</time>
      </trkpt>
      <trkpt lat="42.21388" lon="2.69053">
        <ele>225.619</ele>
        <time>2010-05-01T19:31:35Z</time>
      </trkpt>
      <trkpt lat="42.21364" lon="2.69016">
        <ele>222.706</ele>
        <time>2010-05-01T19:31:48Z</time>
      </trkpt>
      <trkpt lat="42.21343" lon="2.68987">
        <ele>219.344</ele>
        <time>2010-05-01T19:31:58Z</time>
      </trkpt>
      <trkpt lat="42.21339" lon="2.68982">
        <ele>218.424</ele>
        <time>2010-05-01T19:32:00Z</time>
      </trkpt>
      <trkpt lat="42.21318" lon="2.68954">
        <ele>216.478</ele>
        <time>2010-05-01T19:32:12Z</time>
      </trkpt>
      <trkpt lat="42.2128" lon="2.68929">
        <ele>215.512</ele>
        <time>2010-05-01T19:32:28Z</time>
      </trkpt>
      <trkpt lat="42.21278" lon="2.68928">
        <ele>215.588</ele>
        <time>2010-05-01T19:32:29Z</time>
      </trkpt>
      <trkpt lat="42.21273" lon="2.68929">
        <ele>215.542</ele>
        <time>2010-05-01T19:32:32Z</time>
      </trkpt>
      <trkpt lat="42.21266" lon="2.68924">
        <ele>216.032</ele>
        <time>2010-05-01T19:32:37Z</time>
      </trkpt>
      <trkpt lat="42.2126" lon="2.68923">
        <ele>216.492</ele>
        <time>2010-05-01T19:32:42Z</time>
      </trkpt>
      <trkpt lat="42.21236" lon="2.68927">
        <ele>219.311</ele>
        <time>2010-05-01T19:32:56Z</time>
      </trkpt>
      <trkpt lat="42.21213" lon="2.68904">
        <ele>221.706</ele>
        <time>2010-05-01T19:33:11Z</time>
      </trkpt>
      <trkpt lat="42.21184" lon="2.68885">
        <ele>222.241</ele>
        <time>2010-05-01T19:33:25Z</time>
      </trkpt>
      <trkpt lat="42.21154" lon="2.68879">
        <ele>225.141</ele>
        <time>2010-05-01T19:33:39Z</time>
      </trkpt>
      <trkpt lat="42.21126" lon="2.68864">
        <ele>225.145</ele>
        <time>2010-05-01T19:33:54Z</time>
      </trkpt>
      <trkpt lat="42.21099" lon="2.68852">
        <ele>227.519</ele>
        <time>2010-05-01T19:34:07Z</time>
      </trkpt>
      <trkpt lat="42.21078" lon="2.68844">
        <ele>227.565</ele>
        <time>2010-05-01T19:34:19Z</time>
      </trkpt>
      <trkpt lat="42.21075" lon="2.6884">
        <ele>227.039</ele>
        <time>2010-05-01T19:34:31Z</time>
      </trkpt>
      <trkpt lat="42.21062" lon="2.68858">
        <ele>224.176</ele>
        <time>2010-05-01T19:34:42Z</time>
      </trkpt>
      <trkpt lat="42.21037" lon="2.68867">
        <ele>220.89</ele>
        <time>2010-05-01T19:34:53Z</time>
      </trkpt>
      <trkpt lat="42.21008" lon="2.68855">
        <ele>218.819</ele>
        <time>2010-05-01T19:35:04Z</time>
      </trkpt>
      <trkpt lat="42.20996" lon="2.68855">
        <ele>219.306</ele>
        <time>2010-05-01T19:35:14Z</time>
      </trkpt>
      <trkpt lat="42.20996" lon="2.68844">
        <ele>219.355</ele>
        <time>2010-05-01T19:35:39Z</time>
      </trkpt>
      <trkpt lat="42.20999" lon="2.68844">
        <ele>218.825</ele>
        <time>2010-05-01T19:36:07Z</time>
      </trkpt>
      <trkpt lat="42.21" lon="2.68846">
        <ele>218.839</ele>
        <time>2010-05-01T19:36:10Z</time>
      </trkpt>
      <trkpt lat="42.21" lon="2.68866">
        <ele>215.513</ele>
        <time>2010-05-01T19:36:16Z</time>
      </trkpt>
      <trkpt lat="42.21" lon="2.68902">
        <ele>213.139</ele>
        <time>2010-05-01T19:36:26Z</time>
      </trkpt>
      <trkpt lat="42.20985" lon="2.68937">
        <ele>211.113</ele>
        <time>2010-05-01T19:36:38Z</time>
      </trkpt>
      <trkpt lat="42.20959" lon="2.68949">
        <ele>210.213</ele>
        <time>2010-05-01T19:36:49Z</time>
      </trkpt>
      <trkpt lat="42.20929" lon="2.68966">
        <ele>208.743</ele>
        <time>2010-05-01T19:37:01Z</time>
      </trkpt>
      <trkpt lat="42.20896" lon="2.68978">
        <ele>208.707</ele>
        <time>2010-05-01T19:37:14Z</time>
      </trkpt>
      <trkpt lat="42.20863" lon="2.68971">
        <ele>207.306</ele>
        <time>2010-05-01T19:37:26Z</time>
      </trkpt>
      <trkpt lat="42.2083" lon="2.68977">
        <ele>206.399</ele>
        <time>2010-05-01T19:37:39Z</time>
      </trkpt>
      <trkpt lat="42.20798" lon="2.68987">
        <ele>206.849</ele>
        <time>2010-05-01T19:37:54Z</time>
      </trkpt>
      <trkpt lat="42.20775" lon="2.69002">
        <ele>207.383</ele>
        <time>2010-05-01T19:38:04Z</time>
      </trkpt>
      <trkpt lat="42.20748" lon="2.69018">
        <ele>206.847</ele>
        <time>2010-05-01T19:38:16Z</time>
      </trkpt>
      <trkpt lat="42.20722" lon="2.69032">
        <ele>207.813</ele>
        <time>2010-05-01T19:38:28Z</time>
      </trkpt>
      <trkpt lat="42.20701" lon="2.69052">
        <ele>207.377</ele>
        <time>2010-05-01T19:38:39Z</time>
      </trkpt>
      <trkpt lat="42.2068" lon="2.69071">
        <ele>205.437</ele>
        <time>2010-05-01T19:38:50Z</time>
      </trkpt>
      <trkpt lat="42.2068" lon="2.69073">
        <ele>205.449</ele>
        <time>2010-05-01T19:38:53Z</time>
      </trkpt>
      <trkpt lat="42.20682" lon="2.69088">
        <ele>204.413</ele>
        <time>2010-05-01T19:38:59Z</time>
      </trkpt>
      <trkpt lat="42.2069" lon="2.69132">
        <ele>203.506</ele>
        <time>2010-05-01T19:39:11Z</time>
      </trkpt>
      <trkpt lat="42.20692" lon="2.6915">
        <ele>202.551</ele>
        <time>2010-05-01T19:39:16Z</time>
      </trkpt>
      <trkpt lat="42.20689" lon="2.69156">
        <ele>202.011</ele>
        <time>2010-05-01T19:39:19Z</time>
      </trkpt>
      <trkpt lat="42.2069" lon="2.69168">
        <ele>201.145</ele>
        <time>2010-05-01T19:39:26Z</time>
      </trkpt>
      <trkpt lat="42.20692" lon="2.69199">
        <ele>198.299</ele>
        <time>2010-05-01T19:39:34Z</time>
      </trkpt>
      <trkpt lat="42.20698" lon="2.69239">
        <ele>195.365</ele>
        <time>2010-05-01T19:39:46Z</time>
      </trkpt>
      <trkpt lat="42.20699" lon="2.69282">
        <ele>191.959</ele>
        <time>2010-05-01T19:39:57Z</time>
      </trkpt>
      <trkpt lat="42.20709" lon="2.69319">
        <ele>188.136</ele>
        <time>2010-05-01T19:40:08Z</time>
      </trkpt>
      <trkpt lat="42.20712" lon="2.69372">
        <ele>185.217</ele>
        <time>2010-05-01T19:40:22Z</time>
      </trkpt>
      <trkpt lat="42.20716" lon="2.69417">
        <ele>182.318</ele>
        <time>2010-05-01T19:40:34Z</time>
      </trkpt>
      <trkpt lat="42.20723" lon="2.6946">
        <ele>180.406</ele>
        <time>2010-05-01T19:40:46Z</time>
      </trkpt>
      <trkpt lat="42.20716" lon="2.69497">
        <ele>179.411</ele>
        <time>2010-05-01T19:40:57Z</time>
      </trkpt>
      <trkpt lat="42.20704" lon="2.69523">
        <ele>177.521</ele>
        <time>2010-05-01T19:41:06Z</time>
      </trkpt>
      <trkpt lat="42.20698" lon="2.6953">
        <ele>176.595</ele>
        <time>2010-05-01T19:41:08Z</time>
      </trkpt>
      <trkpt lat="42.20679" lon="2.69556">
        <ele>173.749</ele>
        <time>2010-05-01T19:41:18Z</time>
      </trkpt>
      <trkpt lat="42.20679" lon="2.69559">
        <ele>172.725</ele>
        <time>2010-05-01T19:41:20Z</time>
      </trkpt>
      <trkpt lat="42.20696" lon="2.69597">
        <ele>173.299</ele>
        <time>2010-05-01T19:41:33Z</time>
      </trkpt>
      <trkpt lat="42.20697" lon="2.69624">
        <ele>173.729</ele>
        <time>2010-05-01T19:41:41Z</time>
      </trkpt>
      <trkpt lat="42.20702" lon="2.69668">
        <ele>174.1</ele>
        <time>2010-05-01T19:41:55Z</time>
      </trkpt>
      <trkpt lat="42.20703" lon="2.69671">
        <ele>175.12</ele>
        <time>2010-05-01T19:41:56Z</time>
      </trkpt>
      <trkpt lat="42.20704" lon="2.69703">
        <ele>173.706</ele>
        <time>2010-05-01T19:42:07Z</time>
      </trkpt>
      <trkpt lat="42.20704" lon="2.69711">
        <ele>173.26</ele>
        <time>2010-05-01T19:42:10Z</time>
      </trkpt>
      <trkpt lat="42.20696" lon="2.69751">
        <ele>171.73</ele>
        <time>2010-05-01T19:42:22Z</time>
      </trkpt>
      <trkpt lat="42.20692" lon="2.69753">
        <ele>172.284</ele>
        <time>2010-05-01T19:42:24Z</time>
      </trkpt>
      <trkpt lat="42.20666" lon="2.69752">
        <ele>170.848</ele>
        <time>2010-05-01T19:42:37Z</time>
      </trkpt>
      <trkpt lat="42.20649" lon="2.69757">
        <ele>170.374</ele>
        <time>2010-05-01T19:42:57Z</time>
      </trkpt>
      <trkpt lat="42.20616" lon="2.6975">
        <ele>168.828</ele>
        <time>2010-05-01T19:43:18Z</time>
      </trkpt>
      <trkpt lat="42.20594" lon="2.69736">
        <ele>167.417</ele>
        <time>2010-05-01T19:43:30Z</time>
      </trkpt>
      <trkpt lat="42.20569" lon="2.69727">
        <ele>167.487</ele>
        <time>2010-05-01T19:43:43Z</time>
      </trkpt>
      <trkpt lat="42.20559" lon="2.69726">
        <ele>166.915</ele>
        <time>2010-05-01T19:43:48Z</time>
      </trkpt>
      <trkpt lat="42.20551" lon="2.69721">
        <ele>166.406</ele>
        <time>2010-05-01T19:43:53Z</time>
      </trkpt>
      <trkpt lat="42.20544" lon="2.69715">
        <ele>166.499</ele>
        <time>2010-05-01T19:43:57Z</time>
      </trkpt>
      <trkpt lat="42.20528" lon="2.69731">
        <ele>165.549</ele>
        <time>2010-05-01T19:44:08Z</time>
      </trkpt>
      <trkpt lat="42.20516" lon="2.69743">
        <ele>164.533</ele>
        <time>2010-05-01T19:44:14Z</time>
      </trkpt>
      <trkpt lat="42.20478" lon="2.69755">
        <ele>164.037</ele>
        <time>2010-05-01T19:44:29Z</time>
      </trkpt>
      <trkpt lat="42.20456" lon="2.69748">
        <ele>162.193</ele>
        <time>2010-05-01T19:44:40Z</time>
      </trkpt>
      <trkpt lat="42.20452" lon="2.69749">
        <ele>162.197</ele>
        <time>2010-05-01T19:44:42Z</time>
      </trkpt>
      <trkpt lat="42.20435" lon="2.69712">
        <ele>161.648</ele>
        <time>2010-05-01T19:44:56Z</time>
      </trkpt>
      <trkpt lat="42.20407" lon="2.69694">
        <ele>161.661</ele>
        <time>2010-05-01T19:45:09Z</time>
      </trkpt>
      <trkpt lat="42.20377" lon="2.69702">
        <ele>161.217</ele>
        <time>2010-05-01T19:45:23Z</time>
      </trkpt>
      <trkpt lat="42.20372" lon="2.69702">
        <ele>161.206</ele>
        <time>2010-05-01T19:45:27Z</time>
      </trkpt>
      <trkpt lat="42.20369" lon="2.69692">
        <ele>160.752</ele>
        <time>2010-05-01T19:45:32Z</time>
      </trkpt>
      <trkpt lat="42.20355" lon="2.69658">
        <ele>159.242</ele>
        <time>2010-05-01T19:45:45Z</time>
      </trkpt>
      <trkpt lat="42.20365" lon="2.6962">
        <ele>161.616</ele>
        <time>2010-05-01T19:45:58Z</time>
      </trkpt>
      <trkpt lat="42.20367" lon="2.69582">
        <ele>161.69</ele>
        <time>2010-05-01T19:46:10Z</time>
      </trkpt>
      <trkpt lat="42.20337" lon="2.69593">
        <ele>162.626</ele>
        <time>2010-05-01T19:46:23Z</time>
      </trkpt>
      <trkpt lat="42.20318" lon="2.69599">
        <ele>164.55</ele>
        <time>2010-05-01T19:46:36Z</time>
      </trkpt>
      <trkpt lat="42.20312" lon="2.69596">
        <ele>165.055</ele>
        <time>2010-05-01T19:46:41Z</time>
      </trkpt>
      <trkpt lat="42.20296" lon="2.69592">
        <ele>168.407</ele>
        <time>2010-05-01T19:46:52Z</time>
      </trkpt>
      <trkpt lat="42.20292" lon="2.69587">
        <ele>168.817</ele>
        <time>2010-05-01T19:46:56Z</time>
      </trkpt>
      <trkpt lat="42.20282" lon="2.69579">
        <ele>170.806</ele>
        <time>2010-05-01T19:47:01Z</time>
      </trkpt>
      <trkpt lat="42.20281" lon="2.69577">
        <ele>171.783</ele>
        <time>2010-05-01T19:47:02Z</time>
      </trkpt>
      <trkpt lat="42.20272" lon="2.69565">
        <ele>174.183</ele>
        <time>2010-05-01T19:47:11Z</time>
      </trkpt>
      <trkpt lat="42.20268" lon="2.6956">
        <ele>175.627</ele>
        <time>2010-05-01T19:47:15Z</time>
      </trkpt>
      <trkpt lat="42.2026" lon="2.6956">
        <ele>178.011</ele>
        <time>2010-05-01T19:47:20Z</time>
      </trkpt>
      <trkpt lat="42.20251" lon="2.69546">
        <ele>180.437</ele>
        <time>2010-05-01T19:47:38Z</time>
      </trkpt>
      <trkpt lat="42.20242" lon="2.69546">
        <ele>180.421</ele>
        <time>2010-05-01T19:48:11Z</time>
      </trkpt>
      <trkpt lat="42.20219" lon="2.69547">
        <ele>181.326</ele>
        <time>2010-05-01T19:48:26Z</time>
      </trkpt>
      <trkpt lat="42.20201" lon="2.69545">
        <ele>181.847</ele>
        <time>2010-05-01T19:48:37Z</time>
      </trkpt>
      <trkpt lat="42.20195" lon="2.6955">
        <ele>181.811</ele>
        <time>2010-05-01T19:48:43Z</time>
      </trkpt>
      <trkpt lat="42.20175" lon="2.69558">
        <ele>181.806</ele>
        <time>2010-05-01T19:48:56Z</time>
      </trkpt>
      <trkpt lat="42.20159" lon="2.69571">
        <ele>181.35</ele>
        <time>2010-05-01T19:49:08Z</time>
      </trkpt>
      <trkpt lat="42.20151" lon="2.69579">
        <ele>181.89</ele>
        <time>2010-05-01T19:49:15Z</time>
      </trkpt>
      <trkpt lat="42.20143" lon="2.69586">
        <ele>181.384</ele>
        <time>2010-05-01T19:49:23Z</time>
      </trkpt>
      <trkpt lat="42.20121" lon="2.69611">
        <ele>181.828</ele>
        <time>2010-05-01T19:49:40Z</time>
      </trkpt>
      <trkpt lat="42.2011" lon="2.69621">
        <ele>181.844</ele>
        <time>2010-05-01T19:49:48Z</time>
      </trkpt>
      <trkpt lat="42.20093" lon="2.69625">
        <ele>182.318</ele>
        <time>2010-05-01T19:50:01Z</time>
      </trkpt>
      <trkpt lat="42.20075" lon="2.6965">
        <ele>182.867</ele>
        <time>2010-05-01T19:50:17Z</time>
      </trkpt>
      <trkpt lat="42.20062" lon="2.69665">
        <ele>181.881</ele>
        <time>2010-05-01T19:50:31Z</time>
      </trkpt>
      <trkpt lat="42.2006" lon="2.69701">
        <ele>179.919</ele>
        <time>2010-05-01T19:50:43Z</time>
      </trkpt>
      <trkpt lat="42.20061" lon="2.69734">
        <ele>177.506</ele>
        <time>2010-05-01T19:50:55Z</time>
      </trkpt>
      <trkpt lat="42.20064" lon="2.69741">
        <ele>177.084</ele>
        <time>2010-05-01T19:50:59Z</time>
      </trkpt>
      <trkpt lat="42.20069" lon="2.69752">
        <ele>175.174</ele>
        <time>2010-05-01T19:51:05Z</time>
      </trkpt>
      <trkpt lat="42.20068" lon="2.69769">
        <ele>171.778</ele>
        <time>2010-05-01T19:51:15Z</time>
      </trkpt>
      <trkpt lat="42.20064" lon="2.69774">
        <ele>170.392</ele>
        <time>2010-05-01T19:51:18Z</time>
      </trkpt>
      <trkpt lat="42.20043" lon="2.69792">
        <ele>166.468</ele>
        <time>2010-05-01T19:51:32Z</time>
      </trkpt>
      <trkpt lat="42.2004" lon="2.69792">
        <ele>166.082</ele>
        <time>2010-05-01T19:51:35Z</time>
      </trkpt>
      <trkpt lat="42.20041" lon="2.69812">
        <ele>165.068</ele>
        <time>2010-05-01T19:51:45Z</time>
      </trkpt>
      <trkpt lat="42.20041" lon="2.69814">
        <ele>164.542</ele>
        <time>2010-05-01T19:51:46Z</time>
      </trkpt>
      <trkpt lat="42.20033" lon="2.69821">
        <ele>164.526</ele>
        <time>2010-05-01T19:51:50Z</time>
      </trkpt>
      <trkpt lat="42.20024" lon="2.69819">
        <ele>164.506</ele>
        <time>2010-05-01T19:51:57Z</time>
      </trkpt>
      <trkpt lat="42.20016" lon="2.69829">
        <ele>164.014</ele>
        <time>2010-05-01T19:52:01Z</time>
      </trkpt>
      <trkpt lat="42.19988" lon="2.69859">
        <ele>163.184</ele>
        <time>2010-05-01T19:52:15Z</time>
      </trkpt>
      <trkpt lat="42.19957" lon="2.6987">
        <ele>162.138</ele>
        <time>2010-05-01T19:52:27Z</time>
      </trkpt>
      <trkpt lat="42.19946" lon="2.69875">
        <ele>162.172</ele>
        <time>2010-05-01T19:52:32Z</time>
      </trkpt>
      <trkpt lat="42.19941" lon="2.69883">
        <ele>161.648</ele>
        <time>2010-05-01T19:52:36Z</time>
      </trkpt>
      <trkpt lat="42.19919" lon="2.69905">
        <ele>161.272</ele>
        <time>2010-05-01T19:52:48Z</time>
      </trkpt>
      <trkpt lat="42.19908" lon="2.69919">
        <ele>160.266</ele>
        <time>2010-05-01T19:52:55Z</time>
      </trkpt>
      <trkpt lat="42.19904" lon="2.69922">
        <ele>159.229</ele>
        <time>2010-05-01T19:52:59Z</time>
      </trkpt>
      <trkpt lat="42.19905" lon="2.69928">
        <ele>159.221</ele>
        <time>2010-05-01T19:53:04Z</time>
      </trkpt>
      <trkpt lat="42.1992" lon="2.6995">
        <ele>158.806</ele>
        <time>2010-05-01T19:53:11Z</time>
      </trkpt>
      <trkpt lat="42.1993" lon="2.6997">
        <ele>155.994</ele>
        <time>2010-05-01T19:53:20Z</time>
      </trkpt>
      <trkpt lat="42.1993" lon="2.69974">
        <ele>156.414</ele>
        <time>2010-05-01T19:53:21Z</time>
      </trkpt>
      <trkpt lat="42.19936" lon="2.7001">
        <ele>155.448</ele>
        <time>2010-05-01T19:53:34Z</time>
      </trkpt>
      <trkpt lat="42.19938" lon="2.70019">
        <ele>155.932</ele>
        <time>2010-05-01T19:53:38Z</time>
      </trkpt>
      <trkpt lat="42.19935" lon="2.70064">
        <ele>155.918</ele>
        <time>2010-05-01T19:53:52Z</time>
      </trkpt>
      <trkpt lat="42.19933" lon="2.7011">
        <ele>155.912</ele>
        <time>2010-05-01T19:54:03Z</time>
      </trkpt>
      <trkpt lat="42.19937" lon="2.70149">
        <ele>155.463</ele>
        <time>2010-05-01T19:54:16Z</time>
      </trkpt>
      <trkpt lat="42.19938" lon="2.70151">
        <ele>155.444</ele>
        <time>2010-05-01T19:54:17Z</time>
      </trkpt>
      <trkpt lat="42.19936" lon="2.7016">
        <ele>155.918</ele>
        <time>2010-05-01T19:54:22Z</time>
      </trkpt>
      <trkpt lat="42.19932" lon="2.70167">
        <ele>155.406</ele>
        <time>2010-05-01T19:54:36Z</time>
      </trkpt>
      <trkpt lat="42.1993" lon="2.70169">
        <ele>155.494</ele>
        <time>2010-05-01T19:55:16Z</time>
      </trkpt>
    </trkseg>
  </trk>
</gpx>